<?xml version="1.0" encoding="UTF-8" standalone="no" ?>
<gpx xmlns="http://www.topografix.com/GPX/1/1" xmlns:xsi="http://www.w3.org/2001/XMLSchema-instance" xsi:schemaLocation="http://www.topografix.com/GPX/1/1 http://www.topografix.com/GPX/1/1/gpx.xsd" version="1.1" creator="VisuGPX - https://www.visugpx.com">
  <metadata>
    <name>Course à pied en soirée</name>
  </metadata>
  <trk>
    <name><![CDATA[Course à pied en soirée_1]]></name>
    <trkseg>
      <trkpt lat="43.64741" lon="1.37631">
        <ele>151</ele>
        <time>2024-03-14T18:04:31Z</time>
      </trkpt>
      <trkpt lat="43.64745" lon="1.37631">
        <ele>151</ele>
        <time>2024-03-14T18:04:32Z</time>
      </trkpt>
      <trkpt lat="43.64745" lon="1.37631">
        <ele>151</ele>
        <time>2024-03-14T18:04:33Z</time>
      </trkpt>
      <trkpt lat="43.64747" lon="1.37628">
        <ele>150</ele>
        <time>2024-03-14T18:04:34Z</time>
      </trkpt>
      <trkpt lat="43.64749" lon="1.37625">
        <ele>149</ele>
        <time>2024-03-14T18:04:35Z</time>
      </trkpt>
      <trkpt lat="43.64751" lon="1.37622">
        <ele>149</ele>
        <time>2024-03-14T18:04:36Z</time>
      </trkpt>
      <trkpt lat="43.64752" lon="1.37619">
        <ele>150</ele>
        <time>2024-03-14T18:04:37Z</time>
      </trkpt>
      <trkpt lat="43.64754" lon="1.37616">
        <ele>150</ele>
        <time>2024-03-14T18:04:38Z</time>
      </trkpt>
      <trkpt lat="43.64755" lon="1.37614">
        <ele>150</ele>
        <time>2024-03-14T18:04:39Z</time>
      </trkpt>
      <trkpt lat="43.64756" lon="1.37611">
        <ele>150</ele>
        <time>2024-03-14T18:04:40Z</time>
      </trkpt>
      <trkpt lat="43.64758" lon="1.37611">
        <ele>150</ele>
        <time>2024-03-14T18:04:41Z</time>
      </trkpt>
      <trkpt lat="43.64759" lon="1.3761">
        <ele>150</ele>
        <time>2024-03-14T18:04:42Z</time>
      </trkpt>
      <trkpt lat="43.6476" lon="1.37609">
        <ele>150</ele>
        <time>2024-03-14T18:04:43Z</time>
      </trkpt>
      <trkpt lat="43.64761" lon="1.37608">
        <ele>150</ele>
        <time>2024-03-14T18:04:44Z</time>
      </trkpt>
      <trkpt lat="43.64768" lon="1.37604">
        <ele>150</ele>
        <time>2024-03-14T18:04:45Z</time>
      </trkpt>
      <trkpt lat="43.64769" lon="1.37602">
        <ele>150</ele>
        <time>2024-03-14T18:04:46Z</time>
      </trkpt>
      <trkpt lat="43.64771" lon="1.376">
        <ele>150</ele>
        <time>2024-03-14T18:04:47Z</time>
      </trkpt>
      <trkpt lat="43.64772" lon="1.37598">
        <ele>150</ele>
        <time>2024-03-14T18:04:48Z</time>
      </trkpt>
      <trkpt lat="43.64774" lon="1.37596">
        <ele>150</ele>
        <time>2024-03-14T18:04:49Z</time>
      </trkpt>
      <trkpt lat="43.64775" lon="1.37594">
        <ele>150</ele>
        <time>2024-03-14T18:04:50Z</time>
      </trkpt>
      <trkpt lat="43.64777" lon="1.37592">
        <ele>150</ele>
        <time>2024-03-14T18:04:51Z</time>
      </trkpt>
      <trkpt lat="43.64778" lon="1.37591">
        <ele>151</ele>
        <time>2024-03-14T18:04:52Z</time>
      </trkpt>
      <trkpt lat="43.6478" lon="1.37589">
        <ele>151</ele>
        <time>2024-03-14T18:04:53Z</time>
      </trkpt>
      <trkpt lat="43.64781" lon="1.37587">
        <ele>151</ele>
        <time>2024-03-14T18:04:54Z</time>
      </trkpt>
      <trkpt lat="43.64783" lon="1.37588">
        <ele>151</ele>
        <time>2024-03-14T18:04:55Z</time>
      </trkpt>
      <trkpt lat="43.64785" lon="1.37588">
        <ele>151</ele>
        <time>2024-03-14T18:04:56Z</time>
      </trkpt>
      <trkpt lat="43.64787" lon="1.37589">
        <ele>151</ele>
        <time>2024-03-14T18:04:57Z</time>
      </trkpt>
      <trkpt lat="43.64795" lon="1.37592">
        <ele>151</ele>
        <time>2024-03-14T18:04:58Z</time>
      </trkpt>
      <trkpt lat="43.64798" lon="1.37594">
        <ele>151</ele>
        <time>2024-03-14T18:04:59Z</time>
      </trkpt>
      <trkpt lat="43.64806" lon="1.37599">
        <ele>151</ele>
        <time>2024-03-14T18:05:00Z</time>
      </trkpt>
      <trkpt lat="43.64807" lon="1.376">
        <ele>151</ele>
        <time>2024-03-14T18:05:01Z</time>
      </trkpt>
      <trkpt lat="43.64809" lon="1.37601">
        <ele>151</ele>
        <time>2024-03-14T18:05:02Z</time>
      </trkpt>
      <trkpt lat="43.64817" lon="1.37605">
        <ele>151</ele>
        <time>2024-03-14T18:05:03Z</time>
      </trkpt>
      <trkpt lat="43.6482" lon="1.37607">
        <ele>151</ele>
        <time>2024-03-14T18:05:04Z</time>
      </trkpt>
      <trkpt lat="43.64823" lon="1.37609">
        <ele>151</ele>
        <time>2024-03-14T18:05:05Z</time>
      </trkpt>
      <trkpt lat="43.64824" lon="1.3761">
        <ele>151</ele>
        <time>2024-03-14T18:05:06Z</time>
      </trkpt>
      <trkpt lat="43.64826" lon="1.37611">
        <ele>151</ele>
        <time>2024-03-14T18:05:07Z</time>
      </trkpt>
      <trkpt lat="43.64828" lon="1.37613">
        <ele>151</ele>
        <time>2024-03-14T18:05:08Z</time>
      </trkpt>
      <trkpt lat="43.64834" lon="1.37618">
        <ele>151</ele>
        <time>2024-03-14T18:05:09Z</time>
      </trkpt>
      <trkpt lat="43.64836" lon="1.37619">
        <ele>151</ele>
        <time>2024-03-14T18:05:10Z</time>
      </trkpt>
      <trkpt lat="43.64838" lon="1.37621">
        <ele>151</ele>
        <time>2024-03-14T18:05:11Z</time>
      </trkpt>
      <trkpt lat="43.64839" lon="1.37623">
        <ele>150</ele>
        <time>2024-03-14T18:05:12Z</time>
      </trkpt>
      <trkpt lat="43.64841" lon="1.37624">
        <ele>150</ele>
        <time>2024-03-14T18:05:13Z</time>
      </trkpt>
      <trkpt lat="43.64842" lon="1.37625">
        <ele>150</ele>
        <time>2024-03-14T18:05:14Z</time>
      </trkpt>
      <trkpt lat="43.64843" lon="1.37626">
        <ele>150</ele>
        <time>2024-03-14T18:05:15Z</time>
      </trkpt>
      <trkpt lat="43.64844" lon="1.37627">
        <ele>150</ele>
        <time>2024-03-14T18:05:16Z</time>
      </trkpt>
      <trkpt lat="43.64845" lon="1.37628">
        <ele>150</ele>
        <time>2024-03-14T18:05:17Z</time>
      </trkpt>
      <trkpt lat="43.64852" lon="1.37633">
        <ele>150</ele>
        <time>2024-03-14T18:05:18Z</time>
      </trkpt>
      <trkpt lat="43.64854" lon="1.37634">
        <ele>150</ele>
        <time>2024-03-14T18:05:19Z</time>
      </trkpt>
      <trkpt lat="43.64856" lon="1.37635">
        <ele>150</ele>
        <time>2024-03-14T18:05:20Z</time>
      </trkpt>
      <trkpt lat="43.64858" lon="1.37637">
        <ele>150</ele>
        <time>2024-03-14T18:05:21Z</time>
      </trkpt>
      <trkpt lat="43.6486" lon="1.37638">
        <ele>150</ele>
        <time>2024-03-14T18:05:22Z</time>
      </trkpt>
      <trkpt lat="43.64861" lon="1.37639">
        <ele>150</ele>
        <time>2024-03-14T18:05:23Z</time>
      </trkpt>
      <trkpt lat="43.64863" lon="1.3764">
        <ele>151</ele>
        <time>2024-03-14T18:05:24Z</time>
      </trkpt>
      <trkpt lat="43.64864" lon="1.37641">
        <ele>151</ele>
        <time>2024-03-14T18:05:25Z</time>
      </trkpt>
      <trkpt lat="43.64866" lon="1.37642">
        <ele>151</ele>
        <time>2024-03-14T18:05:26Z</time>
      </trkpt>
      <trkpt lat="43.64867" lon="1.37643">
        <ele>150</ele>
        <time>2024-03-14T18:05:27Z</time>
      </trkpt>
      <trkpt lat="43.64868" lon="1.37644">
        <ele>150</ele>
        <time>2024-03-14T18:05:28Z</time>
      </trkpt>
      <trkpt lat="43.64869" lon="1.37645">
        <ele>150</ele>
        <time>2024-03-14T18:05:29Z</time>
      </trkpt>
      <trkpt lat="43.6487" lon="1.37646">
        <ele>149</ele>
        <time>2024-03-14T18:05:30Z</time>
      </trkpt>
      <trkpt lat="43.6487" lon="1.37647">
        <ele>150</ele>
        <time>2024-03-14T18:05:31Z</time>
      </trkpt>
      <trkpt lat="43.64871" lon="1.37648">
        <ele>150</ele>
        <time>2024-03-14T18:05:32Z</time>
      </trkpt>
      <trkpt lat="43.64876" lon="1.37656">
        <ele>150</ele>
        <time>2024-03-14T18:05:33Z</time>
      </trkpt>
      <trkpt lat="43.64877" lon="1.37658">
        <ele>150</ele>
        <time>2024-03-14T18:05:34Z</time>
      </trkpt>
      <trkpt lat="43.64879" lon="1.37661">
        <ele>150</ele>
        <time>2024-03-14T18:05:35Z</time>
      </trkpt>
      <trkpt lat="43.6488" lon="1.37664">
        <ele>150</ele>
        <time>2024-03-14T18:05:36Z</time>
      </trkpt>
      <trkpt lat="43.6488" lon="1.37665">
        <ele>150</ele>
        <time>2024-03-14T18:05:37Z</time>
      </trkpt>
      <trkpt lat="43.64881" lon="1.37667">
        <ele>150</ele>
        <time>2024-03-14T18:05:38Z</time>
      </trkpt>
      <trkpt lat="43.64882" lon="1.37669">
        <ele>150</ele>
        <time>2024-03-14T18:05:39Z</time>
      </trkpt>
      <trkpt lat="43.64882" lon="1.37671">
        <ele>150</ele>
        <time>2024-03-14T18:05:40Z</time>
      </trkpt>
      <trkpt lat="43.64885" lon="1.37679">
        <ele>150</ele>
        <time>2024-03-14T18:05:41Z</time>
      </trkpt>
      <trkpt lat="43.64885" lon="1.37681">
        <ele>150</ele>
        <time>2024-03-14T18:05:42Z</time>
      </trkpt>
      <trkpt lat="43.64886" lon="1.37683">
        <ele>150</ele>
        <time>2024-03-14T18:05:43Z</time>
      </trkpt>
      <trkpt lat="43.64886" lon="1.37684">
        <ele>150</ele>
        <time>2024-03-14T18:05:44Z</time>
      </trkpt>
      <trkpt lat="43.64888" lon="1.37695">
        <ele>150</ele>
        <time>2024-03-14T18:05:45Z</time>
      </trkpt>
      <trkpt lat="43.64889" lon="1.37698">
        <ele>150</ele>
        <time>2024-03-14T18:05:46Z</time>
      </trkpt>
      <trkpt lat="43.6489" lon="1.37702">
        <ele>150</ele>
        <time>2024-03-14T18:05:47Z</time>
      </trkpt>
      <trkpt lat="43.6489" lon="1.37705">
        <ele>150</ele>
        <time>2024-03-14T18:05:48Z</time>
      </trkpt>
      <trkpt lat="43.64891" lon="1.37708">
        <ele>150</ele>
        <time>2024-03-14T18:05:49Z</time>
      </trkpt>
      <trkpt lat="43.64891" lon="1.37711">
        <ele>150</ele>
        <time>2024-03-14T18:05:50Z</time>
      </trkpt>
      <trkpt lat="43.64892" lon="1.37714">
        <ele>150</ele>
        <time>2024-03-14T18:05:51Z</time>
      </trkpt>
      <trkpt lat="43.64892" lon="1.37717">
        <ele>150</ele>
        <time>2024-03-14T18:05:52Z</time>
      </trkpt>
      <trkpt lat="43.64893" lon="1.3772">
        <ele>150</ele>
        <time>2024-03-14T18:05:53Z</time>
      </trkpt>
      <trkpt lat="43.64894" lon="1.37723">
        <ele>150</ele>
        <time>2024-03-14T18:05:54Z</time>
      </trkpt>
      <trkpt lat="43.64895" lon="1.37726">
        <ele>150</ele>
        <time>2024-03-14T18:05:55Z</time>
      </trkpt>
      <trkpt lat="43.64896" lon="1.37729">
        <ele>150</ele>
        <time>2024-03-14T18:05:56Z</time>
      </trkpt>
      <trkpt lat="43.64896" lon="1.37732">
        <ele>150</ele>
        <time>2024-03-14T18:05:57Z</time>
      </trkpt>
      <trkpt lat="43.64897" lon="1.37735">
        <ele>150</ele>
        <time>2024-03-14T18:05:58Z</time>
      </trkpt>
      <trkpt lat="43.64898" lon="1.37738">
        <ele>150</ele>
        <time>2024-03-14T18:05:59Z</time>
      </trkpt>
      <trkpt lat="43.64899" lon="1.37741">
        <ele>149</ele>
        <time>2024-03-14T18:06:00Z</time>
      </trkpt>
      <trkpt lat="43.64899" lon="1.37743">
        <ele>149</ele>
        <time>2024-03-14T18:06:01Z</time>
      </trkpt>
      <trkpt lat="43.64899" lon="1.37744">
        <ele>149</ele>
        <time>2024-03-14T18:06:02Z</time>
      </trkpt>
      <trkpt lat="43.649" lon="1.37745">
        <ele>149</ele>
        <time>2024-03-14T18:06:03Z</time>
      </trkpt>
      <trkpt lat="43.649" lon="1.37747">
        <ele>149</ele>
        <time>2024-03-14T18:06:04Z</time>
      </trkpt>
      <trkpt lat="43.649" lon="1.37748">
        <ele>149</ele>
        <time>2024-03-14T18:06:05Z</time>
      </trkpt>
      <trkpt lat="43.64901" lon="1.37757">
        <ele>149</ele>
        <time>2024-03-14T18:06:06Z</time>
      </trkpt>
      <trkpt lat="43.64902" lon="1.37759">
        <ele>149</ele>
        <time>2024-03-14T18:06:07Z</time>
      </trkpt>
      <trkpt lat="43.64902" lon="1.3776">
        <ele>149</ele>
        <time>2024-03-14T18:06:08Z</time>
      </trkpt>
      <trkpt lat="43.64902" lon="1.37762">
        <ele>149</ele>
        <time>2024-03-14T18:06:09Z</time>
      </trkpt>
      <trkpt lat="43.64902" lon="1.37763">
        <ele>149</ele>
        <time>2024-03-14T18:06:10Z</time>
      </trkpt>
      <trkpt lat="43.64904" lon="1.37772">
        <ele>149</ele>
        <time>2024-03-14T18:06:11Z</time>
      </trkpt>
      <trkpt lat="43.64904" lon="1.37774">
        <ele>149</ele>
        <time>2024-03-14T18:06:12Z</time>
      </trkpt>
      <trkpt lat="43.64904" lon="1.37775">
        <ele>149</ele>
        <time>2024-03-14T18:06:13Z</time>
      </trkpt>
      <trkpt lat="43.64905" lon="1.37777">
        <ele>149</ele>
        <time>2024-03-14T18:06:14Z</time>
      </trkpt>
      <trkpt lat="43.64905" lon="1.37778">
        <ele>149</ele>
        <time>2024-03-14T18:06:15Z</time>
      </trkpt>
      <trkpt lat="43.64907" lon="1.37789">
        <ele>149</ele>
        <time>2024-03-14T18:06:16Z</time>
      </trkpt>
      <trkpt lat="43.64908" lon="1.37792">
        <ele>149</ele>
        <time>2024-03-14T18:06:17Z</time>
      </trkpt>
      <trkpt lat="43.64909" lon="1.37795">
        <ele>149</ele>
        <time>2024-03-14T18:06:18Z</time>
      </trkpt>
      <trkpt lat="43.6491" lon="1.37799">
        <ele>149</ele>
        <time>2024-03-14T18:06:19Z</time>
      </trkpt>
      <trkpt lat="43.64911" lon="1.37802">
        <ele>149</ele>
        <time>2024-03-14T18:06:20Z</time>
      </trkpt>
      <trkpt lat="43.64912" lon="1.37805">
        <ele>149</ele>
        <time>2024-03-14T18:06:21Z</time>
      </trkpt>
      <trkpt lat="43.64913" lon="1.37808">
        <ele>149</ele>
        <time>2024-03-14T18:06:22Z</time>
      </trkpt>
      <trkpt lat="43.64914" lon="1.37811">
        <ele>149</ele>
        <time>2024-03-14T18:06:23Z</time>
      </trkpt>
      <trkpt lat="43.64914" lon="1.37814">
        <ele>149</ele>
        <time>2024-03-14T18:06:24Z</time>
      </trkpt>
      <trkpt lat="43.64915" lon="1.37818">
        <ele>149</ele>
        <time>2024-03-14T18:06:25Z</time>
      </trkpt>
      <trkpt lat="43.64915" lon="1.37821">
        <ele>149</ele>
        <time>2024-03-14T18:06:26Z</time>
      </trkpt>
      <trkpt lat="43.64916" lon="1.37824">
        <ele>149</ele>
        <time>2024-03-14T18:06:27Z</time>
      </trkpt>
      <trkpt lat="43.64917" lon="1.37827">
        <ele>149</ele>
        <time>2024-03-14T18:06:28Z</time>
      </trkpt>
      <trkpt lat="43.64918" lon="1.3783">
        <ele>149</ele>
        <time>2024-03-14T18:06:29Z</time>
      </trkpt>
      <trkpt lat="43.64919" lon="1.37833">
        <ele>149</ele>
        <time>2024-03-14T18:06:30Z</time>
      </trkpt>
      <trkpt lat="43.64919" lon="1.37836">
        <ele>149</ele>
        <time>2024-03-14T18:06:31Z</time>
      </trkpt>
      <trkpt lat="43.6492" lon="1.37839">
        <ele>149</ele>
        <time>2024-03-14T18:06:32Z</time>
      </trkpt>
      <trkpt lat="43.64921" lon="1.37842">
        <ele>149</ele>
        <time>2024-03-14T18:06:33Z</time>
      </trkpt>
      <trkpt lat="43.64922" lon="1.37846">
        <ele>149</ele>
        <time>2024-03-14T18:06:34Z</time>
      </trkpt>
      <trkpt lat="43.64923" lon="1.37849">
        <ele>149</ele>
        <time>2024-03-14T18:06:35Z</time>
      </trkpt>
      <trkpt lat="43.64924" lon="1.37852">
        <ele>149</ele>
        <time>2024-03-14T18:06:36Z</time>
      </trkpt>
      <trkpt lat="43.64925" lon="1.37855">
        <ele>148</ele>
        <time>2024-03-14T18:06:37Z</time>
      </trkpt>
      <trkpt lat="43.64926" lon="1.37859">
        <ele>148</ele>
        <time>2024-03-14T18:06:38Z</time>
      </trkpt>
      <trkpt lat="43.64927" lon="1.37862">
        <ele>148</ele>
        <time>2024-03-14T18:06:39Z</time>
      </trkpt>
      <trkpt lat="43.64927" lon="1.37863">
        <ele>149</ele>
        <time>2024-03-14T18:06:40Z</time>
      </trkpt>
      <trkpt lat="43.64927" lon="1.37865">
        <ele>149</ele>
        <time>2024-03-14T18:06:41Z</time>
      </trkpt>
      <trkpt lat="43.64927" lon="1.37866">
        <ele>149</ele>
        <time>2024-03-14T18:06:42Z</time>
      </trkpt>
      <trkpt lat="43.64928" lon="1.37868">
        <ele>149</ele>
        <time>2024-03-14T18:06:43Z</time>
      </trkpt>
      <trkpt lat="43.64928" lon="1.37869">
        <ele>149</ele>
        <time>2024-03-14T18:06:44Z</time>
      </trkpt>
      <trkpt lat="43.64929" lon="1.37878">
        <ele>149</ele>
        <time>2024-03-14T18:06:45Z</time>
      </trkpt>
      <trkpt lat="43.6493" lon="1.37879">
        <ele>149</ele>
        <time>2024-03-14T18:06:46Z</time>
      </trkpt>
      <trkpt lat="43.6493" lon="1.3788">
        <ele>149</ele>
        <time>2024-03-14T18:06:47Z</time>
      </trkpt>
      <trkpt lat="43.6493" lon="1.37882">
        <ele>149</ele>
        <time>2024-03-14T18:06:48Z</time>
      </trkpt>
      <trkpt lat="43.64931" lon="1.37883">
        <ele>149</ele>
        <time>2024-03-14T18:06:49Z</time>
      </trkpt>
      <trkpt lat="43.64933" lon="1.37891">
        <ele>149</ele>
        <time>2024-03-14T18:06:50Z</time>
      </trkpt>
      <trkpt lat="43.64934" lon="1.37892">
        <ele>149</ele>
        <time>2024-03-14T18:06:51Z</time>
      </trkpt>
      <trkpt lat="43.64935" lon="1.37893">
        <ele>149</ele>
        <time>2024-03-14T18:06:52Z</time>
      </trkpt>
      <trkpt lat="43.64936" lon="1.37894">
        <ele>148</ele>
        <time>2024-03-14T18:06:53Z</time>
      </trkpt>
      <trkpt lat="43.64937" lon="1.37895">
        <ele>148</ele>
        <time>2024-03-14T18:06:54Z</time>
      </trkpt>
      <trkpt lat="43.64943" lon="1.37901">
        <ele>148</ele>
        <time>2024-03-14T18:06:55Z</time>
      </trkpt>
      <trkpt lat="43.64944" lon="1.37902">
        <ele>148</ele>
        <time>2024-03-14T18:06:56Z</time>
      </trkpt>
      <trkpt lat="43.64945" lon="1.37903">
        <ele>148</ele>
        <time>2024-03-14T18:06:57Z</time>
      </trkpt>
      <trkpt lat="43.64946" lon="1.37904">
        <ele>148</ele>
        <time>2024-03-14T18:06:58Z</time>
      </trkpt>
      <trkpt lat="43.6495" lon="1.37911">
        <ele>148</ele>
        <time>2024-03-14T18:06:59Z</time>
      </trkpt>
      <trkpt lat="43.64951" lon="1.37912">
        <ele>148</ele>
        <time>2024-03-14T18:07:00Z</time>
      </trkpt>
      <trkpt lat="43.64951" lon="1.37914">
        <ele>148</ele>
        <time>2024-03-14T18:07:01Z</time>
      </trkpt>
      <trkpt lat="43.64951" lon="1.37916">
        <ele>148</ele>
        <time>2024-03-14T18:07:02Z</time>
      </trkpt>
      <trkpt lat="43.64954" lon="1.37926">
        <ele>148</ele>
        <time>2024-03-14T18:07:03Z</time>
      </trkpt>
      <trkpt lat="43.64955" lon="1.37929">
        <ele>148</ele>
        <time>2024-03-14T18:07:04Z</time>
      </trkpt>
      <trkpt lat="43.64955" lon="1.37932">
        <ele>148</ele>
        <time>2024-03-14T18:07:05Z</time>
      </trkpt>
      <trkpt lat="43.64956" lon="1.37936">
        <ele>148</ele>
        <time>2024-03-14T18:07:06Z</time>
      </trkpt>
      <trkpt lat="43.64956" lon="1.37937">
        <ele>148</ele>
        <time>2024-03-14T18:07:07Z</time>
      </trkpt>
      <trkpt lat="43.64956" lon="1.37939">
        <ele>148</ele>
        <time>2024-03-14T18:07:08Z</time>
      </trkpt>
      <trkpt lat="43.64957" lon="1.3794">
        <ele>147</ele>
        <time>2024-03-14T18:07:09Z</time>
      </trkpt>
      <trkpt lat="43.64957" lon="1.37942">
        <ele>148</ele>
        <time>2024-03-14T18:07:10Z</time>
      </trkpt>
      <trkpt lat="43.64957" lon="1.37943">
        <ele>148</ele>
        <time>2024-03-14T18:07:11Z</time>
      </trkpt>
      <trkpt lat="43.64959" lon="1.37953">
        <ele>148</ele>
        <time>2024-03-14T18:07:12Z</time>
      </trkpt>
      <trkpt lat="43.6496" lon="1.37956">
        <ele>148</ele>
        <time>2024-03-14T18:07:13Z</time>
      </trkpt>
      <trkpt lat="43.64961" lon="1.37959">
        <ele>148</ele>
        <time>2024-03-14T18:07:14Z</time>
      </trkpt>
      <trkpt lat="43.64962" lon="1.37962">
        <ele>147</ele>
        <time>2024-03-14T18:07:15Z</time>
      </trkpt>
      <trkpt lat="43.64963" lon="1.37966">
        <ele>147</ele>
        <time>2024-03-14T18:07:16Z</time>
      </trkpt>
      <trkpt lat="43.64964" lon="1.37969">
        <ele>147</ele>
        <time>2024-03-14T18:07:17Z</time>
      </trkpt>
      <trkpt lat="43.64964" lon="1.37972">
        <ele>147</ele>
        <time>2024-03-14T18:07:18Z</time>
      </trkpt>
      <trkpt lat="43.64965" lon="1.37976">
        <ele>147</ele>
        <time>2024-03-14T18:07:19Z</time>
      </trkpt>
      <trkpt lat="43.64966" lon="1.37979">
        <ele>147</ele>
        <time>2024-03-14T18:07:20Z</time>
      </trkpt>
      <trkpt lat="43.64967" lon="1.37981">
        <ele>147</ele>
        <time>2024-03-14T18:07:21Z</time>
      </trkpt>
      <trkpt lat="43.64968" lon="1.37984">
        <ele>147</ele>
        <time>2024-03-14T18:07:22Z</time>
      </trkpt>
      <trkpt lat="43.64969" lon="1.37987">
        <ele>147</ele>
        <time>2024-03-14T18:07:23Z</time>
      </trkpt>
      <trkpt lat="43.64969" lon="1.3799">
        <ele>147</ele>
        <time>2024-03-14T18:07:24Z</time>
      </trkpt>
      <trkpt lat="43.6497" lon="1.37993">
        <ele>147</ele>
        <time>2024-03-14T18:07:25Z</time>
      </trkpt>
      <trkpt lat="43.64971" lon="1.37996">
        <ele>147</ele>
        <time>2024-03-14T18:07:26Z</time>
      </trkpt>
      <trkpt lat="43.64972" lon="1.37999">
        <ele>147</ele>
        <time>2024-03-14T18:07:27Z</time>
      </trkpt>
      <trkpt lat="43.64973" lon="1.38002">
        <ele>147</ele>
        <time>2024-03-14T18:07:28Z</time>
      </trkpt>
      <trkpt lat="43.64974" lon="1.38004">
        <ele>147</ele>
        <time>2024-03-14T18:07:29Z</time>
      </trkpt>
      <trkpt lat="43.64975" lon="1.38007">
        <ele>147</ele>
        <time>2024-03-14T18:07:30Z</time>
      </trkpt>
      <trkpt lat="43.64975" lon="1.3801">
        <ele>147</ele>
        <time>2024-03-14T18:07:31Z</time>
      </trkpt>
      <trkpt lat="43.64976" lon="1.38013">
        <ele>147</ele>
        <time>2024-03-14T18:07:32Z</time>
      </trkpt>
      <trkpt lat="43.64977" lon="1.38016">
        <ele>147</ele>
        <time>2024-03-14T18:07:33Z</time>
      </trkpt>
      <trkpt lat="43.64978" lon="1.3802">
        <ele>147</ele>
        <time>2024-03-14T18:07:34Z</time>
      </trkpt>
      <trkpt lat="43.64979" lon="1.38022">
        <ele>147</ele>
        <time>2024-03-14T18:07:35Z</time>
      </trkpt>
      <trkpt lat="43.6498" lon="1.38025">
        <ele>147</ele>
        <time>2024-03-14T18:07:36Z</time>
      </trkpt>
      <trkpt lat="43.64981" lon="1.38028">
        <ele>147</ele>
        <time>2024-03-14T18:07:37Z</time>
      </trkpt>
      <trkpt lat="43.64983" lon="1.38031">
        <ele>147</ele>
        <time>2024-03-14T18:07:38Z</time>
      </trkpt>
      <trkpt lat="43.64983" lon="1.38034">
        <ele>147</ele>
        <time>2024-03-14T18:07:39Z</time>
      </trkpt>
      <trkpt lat="43.64984" lon="1.38037">
        <ele>147</ele>
        <time>2024-03-14T18:07:40Z</time>
      </trkpt>
      <trkpt lat="43.64985" lon="1.3804">
        <ele>147</ele>
        <time>2024-03-14T18:07:41Z</time>
      </trkpt>
      <trkpt lat="43.64986" lon="1.38043">
        <ele>147</ele>
        <time>2024-03-14T18:07:42Z</time>
      </trkpt>
      <trkpt lat="43.64987" lon="1.38046">
        <ele>147</ele>
        <time>2024-03-14T18:07:43Z</time>
      </trkpt>
      <trkpt lat="43.64988" lon="1.38049">
        <ele>147</ele>
        <time>2024-03-14T18:07:44Z</time>
      </trkpt>
      <trkpt lat="43.64989" lon="1.38052">
        <ele>148</ele>
        <time>2024-03-14T18:07:45Z</time>
      </trkpt>
      <trkpt lat="43.6499" lon="1.38055">
        <ele>148</ele>
        <time>2024-03-14T18:07:46Z</time>
      </trkpt>
      <trkpt lat="43.64991" lon="1.38057">
        <ele>148</ele>
        <time>2024-03-14T18:07:47Z</time>
      </trkpt>
      <trkpt lat="43.64991" lon="1.38058">
        <ele>148</ele>
        <time>2024-03-14T18:07:48Z</time>
      </trkpt>
      <trkpt lat="43.64992" lon="1.38059">
        <ele>148</ele>
        <time>2024-03-14T18:07:49Z</time>
      </trkpt>
      <trkpt lat="43.64992" lon="1.38061">
        <ele>148</ele>
        <time>2024-03-14T18:07:50Z</time>
      </trkpt>
      <trkpt lat="43.64993" lon="1.38062">
        <ele>147</ele>
        <time>2024-03-14T18:07:51Z</time>
      </trkpt>
      <trkpt lat="43.64996" lon="1.38072">
        <ele>148</ele>
        <time>2024-03-14T18:07:52Z</time>
      </trkpt>
      <trkpt lat="43.64997" lon="1.38075">
        <ele>148</ele>
        <time>2024-03-14T18:07:53Z</time>
      </trkpt>
      <trkpt lat="43.64998" lon="1.38078">
        <ele>148</ele>
        <time>2024-03-14T18:07:54Z</time>
      </trkpt>
      <trkpt lat="43.64999" lon="1.38081">
        <ele>148</ele>
        <time>2024-03-14T18:07:55Z</time>
      </trkpt>
      <trkpt lat="43.65" lon="1.38084">
        <ele>148</ele>
        <time>2024-03-14T18:07:56Z</time>
      </trkpt>
      <trkpt lat="43.65001" lon="1.38087">
        <ele>148</ele>
        <time>2024-03-14T18:07:57Z</time>
      </trkpt>
      <trkpt lat="43.65002" lon="1.3809">
        <ele>148</ele>
        <time>2024-03-14T18:07:58Z</time>
      </trkpt>
      <trkpt lat="43.65003" lon="1.38093">
        <ele>148</ele>
        <time>2024-03-14T18:07:59Z</time>
      </trkpt>
      <trkpt lat="43.65004" lon="1.38095">
        <ele>148</ele>
        <time>2024-03-14T18:08:00Z</time>
      </trkpt>
      <trkpt lat="43.65004" lon="1.38096">
        <ele>148</ele>
        <time>2024-03-14T18:08:01Z</time>
      </trkpt>
      <trkpt lat="43.65004" lon="1.38097">
        <ele>148</ele>
        <time>2024-03-14T18:08:02Z</time>
      </trkpt>
      <trkpt lat="43.65005" lon="1.38099">
        <ele>148</ele>
        <time>2024-03-14T18:08:03Z</time>
      </trkpt>
      <trkpt lat="43.65005" lon="1.381">
        <ele>148</ele>
        <time>2024-03-14T18:08:04Z</time>
      </trkpt>
      <trkpt lat="43.65008" lon="1.3811">
        <ele>148</ele>
        <time>2024-03-14T18:08:05Z</time>
      </trkpt>
      <trkpt lat="43.65009" lon="1.38113">
        <ele>148</ele>
        <time>2024-03-14T18:08:06Z</time>
      </trkpt>
      <trkpt lat="43.6501" lon="1.38115">
        <ele>148</ele>
        <time>2024-03-14T18:08:07Z</time>
      </trkpt>
      <trkpt lat="43.65011" lon="1.38118">
        <ele>148</ele>
        <time>2024-03-14T18:08:08Z</time>
      </trkpt>
      <trkpt lat="43.65012" lon="1.38121">
        <ele>148</ele>
        <time>2024-03-14T18:08:09Z</time>
      </trkpt>
      <trkpt lat="43.65013" lon="1.38124">
        <ele>148</ele>
        <time>2024-03-14T18:08:10Z</time>
      </trkpt>
      <trkpt lat="43.65014" lon="1.38127">
        <ele>148</ele>
        <time>2024-03-14T18:08:11Z</time>
      </trkpt>
      <trkpt lat="43.65015" lon="1.3813">
        <ele>148</ele>
        <time>2024-03-14T18:08:12Z</time>
      </trkpt>
      <trkpt lat="43.65016" lon="1.38131">
        <ele>148</ele>
        <time>2024-03-14T18:08:13Z</time>
      </trkpt>
      <trkpt lat="43.65017" lon="1.38132">
        <ele>148</ele>
        <time>2024-03-14T18:08:14Z</time>
      </trkpt>
      <trkpt lat="43.65018" lon="1.38132">
        <ele>148</ele>
        <time>2024-03-14T18:08:15Z</time>
      </trkpt>
      <trkpt lat="43.65019" lon="1.38133">
        <ele>148</ele>
        <time>2024-03-14T18:08:16Z</time>
      </trkpt>
      <trkpt lat="43.6502" lon="1.38133">
        <ele>148</ele>
        <time>2024-03-14T18:08:17Z</time>
      </trkpt>
      <trkpt lat="43.65026" lon="1.38137">
        <ele>148</ele>
        <time>2024-03-14T18:08:18Z</time>
      </trkpt>
      <trkpt lat="43.65027" lon="1.38137">
        <ele>148</ele>
        <time>2024-03-14T18:08:19Z</time>
      </trkpt>
      <trkpt lat="43.65028" lon="1.38137">
        <ele>148</ele>
        <time>2024-03-14T18:08:20Z</time>
      </trkpt>
      <trkpt lat="43.65029" lon="1.38137">
        <ele>148</ele>
        <time>2024-03-14T18:08:21Z</time>
      </trkpt>
      <trkpt lat="43.6503" lon="1.38138">
        <ele>148</ele>
        <time>2024-03-14T18:08:22Z</time>
      </trkpt>
      <trkpt lat="43.65037" lon="1.38138">
        <ele>148</ele>
        <time>2024-03-14T18:08:23Z</time>
      </trkpt>
      <trkpt lat="43.65038" lon="1.38138">
        <ele>148</ele>
        <time>2024-03-14T18:08:24Z</time>
      </trkpt>
      <trkpt lat="43.65039" lon="1.38137">
        <ele>148</ele>
        <time>2024-03-14T18:08:25Z</time>
      </trkpt>
      <trkpt lat="43.6504" lon="1.38137">
        <ele>147</ele>
        <time>2024-03-14T18:08:26Z</time>
      </trkpt>
      <trkpt lat="43.65041" lon="1.38136">
        <ele>147</ele>
        <time>2024-03-14T18:08:27Z</time>
      </trkpt>
      <trkpt lat="43.65047" lon="1.38133">
        <ele>147</ele>
        <time>2024-03-14T18:08:28Z</time>
      </trkpt>
      <trkpt lat="43.65048" lon="1.38132">
        <ele>148</ele>
        <time>2024-03-14T18:08:29Z</time>
      </trkpt>
      <trkpt lat="43.65049" lon="1.38132">
        <ele>148</ele>
        <time>2024-03-14T18:08:30Z</time>
      </trkpt>
      <trkpt lat="43.6505" lon="1.38131">
        <ele>148</ele>
        <time>2024-03-14T18:08:31Z</time>
      </trkpt>
      <trkpt lat="43.65051" lon="1.38131">
        <ele>147</ele>
        <time>2024-03-14T18:08:32Z</time>
      </trkpt>
      <trkpt lat="43.65057" lon="1.38127">
        <ele>147</ele>
        <time>2024-03-14T18:08:33Z</time>
      </trkpt>
      <trkpt lat="43.65059" lon="1.38125">
        <ele>147</ele>
        <time>2024-03-14T18:08:34Z</time>
      </trkpt>
      <trkpt lat="43.6506" lon="1.38124">
        <ele>147</ele>
        <time>2024-03-14T18:08:35Z</time>
      </trkpt>
      <trkpt lat="43.65061" lon="1.38122">
        <ele>147</ele>
        <time>2024-03-14T18:08:36Z</time>
      </trkpt>
      <trkpt lat="43.65063" lon="1.38121">
        <ele>147</ele>
        <time>2024-03-14T18:08:37Z</time>
      </trkpt>
      <trkpt lat="43.65064" lon="1.38119">
        <ele>147</ele>
        <time>2024-03-14T18:08:38Z</time>
      </trkpt>
      <trkpt lat="43.65065" lon="1.38119">
        <ele>147</ele>
        <time>2024-03-14T18:08:39Z</time>
      </trkpt>
      <trkpt lat="43.65066" lon="1.38118">
        <ele>147</ele>
        <time>2024-03-14T18:08:40Z</time>
      </trkpt>
      <trkpt lat="43.65068" lon="1.38117">
        <ele>147</ele>
        <time>2024-03-14T18:08:41Z</time>
      </trkpt>
      <trkpt lat="43.65069" lon="1.38117">
        <ele>147</ele>
        <time>2024-03-14T18:08:42Z</time>
      </trkpt>
      <trkpt lat="43.65076" lon="1.38113">
        <ele>147</ele>
        <time>2024-03-14T18:08:43Z</time>
      </trkpt>
      <trkpt lat="43.65078" lon="1.38112">
        <ele>147</ele>
        <time>2024-03-14T18:08:44Z</time>
      </trkpt>
      <trkpt lat="43.65081" lon="1.38111">
        <ele>147</ele>
        <time>2024-03-14T18:08:45Z</time>
      </trkpt>
      <trkpt lat="43.65083" lon="1.3811">
        <ele>148</ele>
        <time>2024-03-14T18:08:46Z</time>
      </trkpt>
      <trkpt lat="43.65085" lon="1.38108">
        <ele>148</ele>
        <time>2024-03-14T18:08:47Z</time>
      </trkpt>
      <trkpt lat="43.65087" lon="1.38107">
        <ele>148</ele>
        <time>2024-03-14T18:08:48Z</time>
      </trkpt>
      <trkpt lat="43.6509" lon="1.38105">
        <ele>148</ele>
        <time>2024-03-14T18:08:49Z</time>
      </trkpt>
      <trkpt lat="43.65092" lon="1.38104">
        <ele>148</ele>
        <time>2024-03-14T18:08:50Z</time>
      </trkpt>
      <trkpt lat="43.65094" lon="1.38102">
        <ele>148</ele>
        <time>2024-03-14T18:08:51Z</time>
      </trkpt>
      <trkpt lat="43.65096" lon="1.38101">
        <ele>148</ele>
        <time>2024-03-14T18:08:52Z</time>
      </trkpt>
      <trkpt lat="43.65098" lon="1.38099">
        <ele>148</ele>
        <time>2024-03-14T18:08:53Z</time>
      </trkpt>
      <trkpt lat="43.651" lon="1.38098">
        <ele>148</ele>
        <time>2024-03-14T18:08:54Z</time>
      </trkpt>
      <trkpt lat="43.65102" lon="1.38096">
        <ele>148</ele>
        <time>2024-03-14T18:08:55Z</time>
      </trkpt>
      <trkpt lat="43.65104" lon="1.38095">
        <ele>148</ele>
        <time>2024-03-14T18:08:56Z</time>
      </trkpt>
      <trkpt lat="43.65106" lon="1.38093">
        <ele>148</ele>
        <time>2024-03-14T18:08:57Z</time>
      </trkpt>
      <trkpt lat="43.65108" lon="1.38092">
        <ele>148</ele>
        <time>2024-03-14T18:08:58Z</time>
      </trkpt>
      <trkpt lat="43.65109" lon="1.38091">
        <ele>148</ele>
        <time>2024-03-14T18:08:59Z</time>
      </trkpt>
      <trkpt lat="43.6511" lon="1.3809">
        <ele>148</ele>
        <time>2024-03-14T18:09:00Z</time>
      </trkpt>
      <trkpt lat="43.65111" lon="1.3809">
        <ele>148</ele>
        <time>2024-03-14T18:09:01Z</time>
      </trkpt>
      <trkpt lat="43.65112" lon="1.38089">
        <ele>148</ele>
        <time>2024-03-14T18:09:02Z</time>
      </trkpt>
      <trkpt lat="43.65113" lon="1.38088">
        <ele>148</ele>
        <time>2024-03-14T18:09:03Z</time>
      </trkpt>
      <trkpt lat="43.6512" lon="1.38084">
        <ele>148</ele>
        <time>2024-03-14T18:09:04Z</time>
      </trkpt>
      <trkpt lat="43.6512" lon="1.38084">
        <ele>148</ele>
        <time>2024-03-14T18:09:05Z</time>
      </trkpt>
      <trkpt lat="43.65121" lon="1.38083">
        <ele>148</ele>
        <time>2024-03-14T18:09:06Z</time>
      </trkpt>
      <trkpt lat="43.65122" lon="1.38082">
        <ele>149</ele>
        <time>2024-03-14T18:09:07Z</time>
      </trkpt>
      <trkpt lat="43.65123" lon="1.38081">
        <ele>149</ele>
        <time>2024-03-14T18:09:08Z</time>
      </trkpt>
      <trkpt lat="43.65129" lon="1.38077">
        <ele>149</ele>
        <time>2024-03-14T18:09:09Z</time>
      </trkpt>
      <trkpt lat="43.6513" lon="1.38076">
        <ele>149</ele>
        <time>2024-03-14T18:09:10Z</time>
      </trkpt>
      <trkpt lat="43.65131" lon="1.38075">
        <ele>149</ele>
        <time>2024-03-14T18:09:11Z</time>
      </trkpt>
      <trkpt lat="43.65132" lon="1.38074">
        <ele>149</ele>
        <time>2024-03-14T18:09:12Z</time>
      </trkpt>
      <trkpt lat="43.65133" lon="1.38074">
        <ele>149</ele>
        <time>2024-03-14T18:09:13Z</time>
      </trkpt>
      <trkpt lat="43.6514" lon="1.38069">
        <ele>149</ele>
        <time>2024-03-14T18:09:14Z</time>
      </trkpt>
      <trkpt lat="43.65142" lon="1.38068">
        <ele>149</ele>
        <time>2024-03-14T18:09:15Z</time>
      </trkpt>
      <trkpt lat="43.65144" lon="1.38066">
        <ele>149</ele>
        <time>2024-03-14T18:09:16Z</time>
      </trkpt>
      <trkpt lat="43.65147" lon="1.38065">
        <ele>149</ele>
        <time>2024-03-14T18:09:17Z</time>
      </trkpt>
      <trkpt lat="43.65148" lon="1.38064">
        <ele>149</ele>
        <time>2024-03-14T18:09:18Z</time>
      </trkpt>
      <trkpt lat="43.65149" lon="1.38063">
        <ele>149</ele>
        <time>2024-03-14T18:09:19Z</time>
      </trkpt>
      <trkpt lat="43.6515" lon="1.38063">
        <ele>149</ele>
        <time>2024-03-14T18:09:20Z</time>
      </trkpt>
      <trkpt lat="43.6515" lon="1.38062">
        <ele>149</ele>
        <time>2024-03-14T18:09:21Z</time>
      </trkpt>
      <trkpt lat="43.65151" lon="1.38061">
        <ele>149</ele>
        <time>2024-03-14T18:09:22Z</time>
      </trkpt>
      <trkpt lat="43.65158" lon="1.38056">
        <ele>149</ele>
        <time>2024-03-14T18:09:23Z</time>
      </trkpt>
      <trkpt lat="43.6516" lon="1.38054">
        <ele>149</ele>
        <time>2024-03-14T18:09:24Z</time>
      </trkpt>
      <trkpt lat="43.65162" lon="1.38053">
        <ele>148</ele>
        <time>2024-03-14T18:09:25Z</time>
      </trkpt>
      <trkpt lat="43.65164" lon="1.38051">
        <ele>148</ele>
        <time>2024-03-14T18:09:26Z</time>
      </trkpt>
      <trkpt lat="43.65167" lon="1.3805">
        <ele>148</ele>
        <time>2024-03-14T18:09:27Z</time>
      </trkpt>
      <trkpt lat="43.65169" lon="1.38049">
        <ele>148</ele>
        <time>2024-03-14T18:09:28Z</time>
      </trkpt>
      <trkpt lat="43.65171" lon="1.38047">
        <ele>148</ele>
        <time>2024-03-14T18:09:29Z</time>
      </trkpt>
      <trkpt lat="43.65173" lon="1.38046">
        <ele>148</ele>
        <time>2024-03-14T18:09:30Z</time>
      </trkpt>
      <trkpt lat="43.65175" lon="1.38044">
        <ele>148</ele>
        <time>2024-03-14T18:09:31Z</time>
      </trkpt>
      <trkpt lat="43.65178" lon="1.38043">
        <ele>148</ele>
        <time>2024-03-14T18:09:32Z</time>
      </trkpt>
      <trkpt lat="43.6518" lon="1.38042">
        <ele>148</ele>
        <time>2024-03-14T18:09:33Z</time>
      </trkpt>
      <trkpt lat="43.65182" lon="1.3804">
        <ele>148</ele>
        <time>2024-03-14T18:09:34Z</time>
      </trkpt>
      <trkpt lat="43.65184" lon="1.38038">
        <ele>148</ele>
        <time>2024-03-14T18:09:35Z</time>
      </trkpt>
      <trkpt lat="43.65187" lon="1.38037">
        <ele>148</ele>
        <time>2024-03-14T18:09:36Z</time>
      </trkpt>
      <trkpt lat="43.65189" lon="1.38035">
        <ele>148</ele>
        <time>2024-03-14T18:09:37Z</time>
      </trkpt>
      <trkpt lat="43.65191" lon="1.38034">
        <ele>148</ele>
        <time>2024-03-14T18:09:38Z</time>
      </trkpt>
      <trkpt lat="43.65193" lon="1.38033">
        <ele>148</ele>
        <time>2024-03-14T18:09:39Z</time>
      </trkpt>
      <trkpt lat="43.65195" lon="1.38031">
        <ele>148</ele>
        <time>2024-03-14T18:09:40Z</time>
      </trkpt>
      <trkpt lat="43.65197" lon="1.3803">
        <ele>148</ele>
        <time>2024-03-14T18:09:41Z</time>
      </trkpt>
      <trkpt lat="43.65199" lon="1.38028">
        <ele>148</ele>
        <time>2024-03-14T18:09:42Z</time>
      </trkpt>
      <trkpt lat="43.65202" lon="1.38027">
        <ele>148</ele>
        <time>2024-03-14T18:09:43Z</time>
      </trkpt>
      <trkpt lat="43.65204" lon="1.38026">
        <ele>148</ele>
        <time>2024-03-14T18:09:44Z</time>
      </trkpt>
      <trkpt lat="43.65205" lon="1.38024">
        <ele>148</ele>
        <time>2024-03-14T18:09:45Z</time>
      </trkpt>
      <trkpt lat="43.65207" lon="1.38022">
        <ele>148</ele>
        <time>2024-03-14T18:09:46Z</time>
      </trkpt>
      <trkpt lat="43.65209" lon="1.38021">
        <ele>149</ele>
        <time>2024-03-14T18:09:47Z</time>
      </trkpt>
      <trkpt lat="43.65211" lon="1.38019">
        <ele>149</ele>
        <time>2024-03-14T18:09:48Z</time>
      </trkpt>
      <trkpt lat="43.65214" lon="1.38018">
        <ele>149</ele>
        <time>2024-03-14T18:09:49Z</time>
      </trkpt>
      <trkpt lat="43.65216" lon="1.38016">
        <ele>149</ele>
        <time>2024-03-14T18:09:50Z</time>
      </trkpt>
      <trkpt lat="43.65218" lon="1.38015">
        <ele>149</ele>
        <time>2024-03-14T18:09:51Z</time>
      </trkpt>
      <trkpt lat="43.6522" lon="1.38013">
        <ele>149</ele>
        <time>2024-03-14T18:09:52Z</time>
      </trkpt>
      <trkpt lat="43.65223" lon="1.38011">
        <ele>149</ele>
        <time>2024-03-14T18:09:53Z</time>
      </trkpt>
      <trkpt lat="43.65226" lon="1.38009">
        <ele>149</ele>
        <time>2024-03-14T18:09:54Z</time>
      </trkpt>
      <trkpt lat="43.65226" lon="1.38009">
        <ele>149</ele>
        <time>2024-03-14T18:09:55Z</time>
      </trkpt>
      <trkpt lat="43.65228" lon="1.38007">
        <ele>149</ele>
        <time>2024-03-14T18:09:56Z</time>
      </trkpt>
      <trkpt lat="43.6523" lon="1.38006">
        <ele>149</ele>
        <time>2024-03-14T18:09:57Z</time>
      </trkpt>
      <trkpt lat="43.65232" lon="1.38004">
        <ele>149</ele>
        <time>2024-03-14T18:09:58Z</time>
      </trkpt>
      <trkpt lat="43.65234" lon="1.38003">
        <ele>149</ele>
        <time>2024-03-14T18:09:59Z</time>
      </trkpt>
      <trkpt lat="43.65237" lon="1.38002">
        <ele>148</ele>
        <time>2024-03-14T18:10:00Z</time>
      </trkpt>
      <trkpt lat="43.65239" lon="1.38">
        <ele>148</ele>
        <time>2024-03-14T18:10:01Z</time>
      </trkpt>
      <trkpt lat="43.65241" lon="1.37999">
        <ele>148</ele>
        <time>2024-03-14T18:10:02Z</time>
      </trkpt>
      <trkpt lat="43.65244" lon="1.37997">
        <ele>148</ele>
        <time>2024-03-14T18:10:03Z</time>
      </trkpt>
      <trkpt lat="43.65246" lon="1.37995">
        <ele>148</ele>
        <time>2024-03-14T18:10:04Z</time>
      </trkpt>
      <trkpt lat="43.65249" lon="1.37993">
        <ele>148</ele>
        <time>2024-03-14T18:10:05Z</time>
      </trkpt>
      <trkpt lat="43.65251" lon="1.37992">
        <ele>148</ele>
        <time>2024-03-14T18:10:06Z</time>
      </trkpt>
      <trkpt lat="43.65254" lon="1.3799">
        <ele>148</ele>
        <time>2024-03-14T18:10:07Z</time>
      </trkpt>
      <trkpt lat="43.65256" lon="1.37989">
        <ele>148</ele>
        <time>2024-03-14T18:10:08Z</time>
      </trkpt>
      <trkpt lat="43.65258" lon="1.37987">
        <ele>148</ele>
        <time>2024-03-14T18:10:09Z</time>
      </trkpt>
      <trkpt lat="43.65261" lon="1.37985">
        <ele>148</ele>
        <time>2024-03-14T18:10:10Z</time>
      </trkpt>
      <trkpt lat="43.65263" lon="1.37983">
        <ele>148</ele>
        <time>2024-03-14T18:10:11Z</time>
      </trkpt>
      <trkpt lat="43.65265" lon="1.37982">
        <ele>148</ele>
        <time>2024-03-14T18:10:12Z</time>
      </trkpt>
      <trkpt lat="43.65267" lon="1.3798">
        <ele>148</ele>
        <time>2024-03-14T18:10:13Z</time>
      </trkpt>
      <trkpt lat="43.65269" lon="1.37977">
        <ele>148</ele>
        <time>2024-03-14T18:10:14Z</time>
      </trkpt>
      <trkpt lat="43.6527" lon="1.37975">
        <ele>147</ele>
        <time>2024-03-14T18:10:15Z</time>
      </trkpt>
      <trkpt lat="43.65272" lon="1.37973">
        <ele>147</ele>
        <time>2024-03-14T18:10:16Z</time>
      </trkpt>
      <trkpt lat="43.65274" lon="1.3797">
        <ele>148</ele>
        <time>2024-03-14T18:10:17Z</time>
      </trkpt>
      <trkpt lat="43.65276" lon="1.37968">
        <ele>148</ele>
        <time>2024-03-14T18:10:18Z</time>
      </trkpt>
      <trkpt lat="43.65277" lon="1.37966">
        <ele>148</ele>
        <time>2024-03-14T18:10:19Z</time>
      </trkpt>
      <trkpt lat="43.65279" lon="1.37963">
        <ele>148</ele>
        <time>2024-03-14T18:10:20Z</time>
      </trkpt>
      <trkpt lat="43.6528" lon="1.37961">
        <ele>148</ele>
        <time>2024-03-14T18:10:21Z</time>
      </trkpt>
      <trkpt lat="43.65282" lon="1.37959">
        <ele>148</ele>
        <time>2024-03-14T18:10:22Z</time>
      </trkpt>
      <trkpt lat="43.65283" lon="1.37956">
        <ele>148</ele>
        <time>2024-03-14T18:10:23Z</time>
      </trkpt>
      <trkpt lat="43.65285" lon="1.37954">
        <ele>148</ele>
        <time>2024-03-14T18:10:24Z</time>
      </trkpt>
      <trkpt lat="43.65287" lon="1.37952">
        <ele>148</ele>
        <time>2024-03-14T18:10:25Z</time>
      </trkpt>
      <trkpt lat="43.65289" lon="1.3795">
        <ele>148</ele>
        <time>2024-03-14T18:10:26Z</time>
      </trkpt>
      <trkpt lat="43.65291" lon="1.37948">
        <ele>148</ele>
        <time>2024-03-14T18:10:27Z</time>
      </trkpt>
      <trkpt lat="43.65293" lon="1.37946">
        <ele>148</ele>
        <time>2024-03-14T18:10:28Z</time>
      </trkpt>
      <trkpt lat="43.65295" lon="1.37945">
        <ele>148</ele>
        <time>2024-03-14T18:10:29Z</time>
      </trkpt>
      <trkpt lat="43.65297" lon="1.37943">
        <ele>148</ele>
        <time>2024-03-14T18:10:30Z</time>
      </trkpt>
      <trkpt lat="43.65298" lon="1.37941">
        <ele>148</ele>
        <time>2024-03-14T18:10:31Z</time>
      </trkpt>
      <trkpt lat="43.65302" lon="1.37938">
        <ele>148</ele>
        <time>2024-03-14T18:10:32Z</time>
      </trkpt>
      <trkpt lat="43.65302" lon="1.37938">
        <ele>148</ele>
        <time>2024-03-14T18:10:33Z</time>
      </trkpt>
      <trkpt lat="43.65304" lon="1.37937">
        <ele>148</ele>
        <time>2024-03-14T18:10:34Z</time>
      </trkpt>
      <trkpt lat="43.65307" lon="1.37936">
        <ele>148</ele>
        <time>2024-03-14T18:10:35Z</time>
      </trkpt>
      <trkpt lat="43.65308" lon="1.37935">
        <ele>148</ele>
        <time>2024-03-14T18:10:36Z</time>
      </trkpt>
      <trkpt lat="43.6531" lon="1.37933">
        <ele>148</ele>
        <time>2024-03-14T18:10:37Z</time>
      </trkpt>
      <trkpt lat="43.65312" lon="1.37931">
        <ele>148</ele>
        <time>2024-03-14T18:10:38Z</time>
      </trkpt>
      <trkpt lat="43.65314" lon="1.37929">
        <ele>148</ele>
        <time>2024-03-14T18:10:39Z</time>
      </trkpt>
      <trkpt lat="43.65316" lon="1.37928">
        <ele>148</ele>
        <time>2024-03-14T18:10:40Z</time>
      </trkpt>
      <trkpt lat="43.65318" lon="1.37926">
        <ele>148</ele>
        <time>2024-03-14T18:10:41Z</time>
      </trkpt>
      <trkpt lat="43.65321" lon="1.37925">
        <ele>148</ele>
        <time>2024-03-14T18:10:42Z</time>
      </trkpt>
      <trkpt lat="43.65322" lon="1.37923">
        <ele>148</ele>
        <time>2024-03-14T18:10:43Z</time>
      </trkpt>
      <trkpt lat="43.65324" lon="1.37922">
        <ele>147</ele>
        <time>2024-03-14T18:10:44Z</time>
      </trkpt>
      <trkpt lat="43.65326" lon="1.3792">
        <ele>147</ele>
        <time>2024-03-14T18:10:45Z</time>
      </trkpt>
      <trkpt lat="43.6533" lon="1.37917">
        <ele>147</ele>
        <time>2024-03-14T18:10:46Z</time>
      </trkpt>
      <trkpt lat="43.6533" lon="1.37917">
        <ele>147</ele>
        <time>2024-03-14T18:10:47Z</time>
      </trkpt>
      <trkpt lat="43.65333" lon="1.37916">
        <ele>147</ele>
        <time>2024-03-14T18:10:48Z</time>
      </trkpt>
      <trkpt lat="43.65336" lon="1.37914">
        <ele>147</ele>
        <time>2024-03-14T18:10:49Z</time>
      </trkpt>
      <trkpt lat="43.65342" lon="1.37911">
        <ele>147</ele>
        <time>2024-03-14T18:10:50Z</time>
      </trkpt>
      <trkpt lat="43.65345" lon="1.3791">
        <ele>147</ele>
        <time>2024-03-14T18:10:51Z</time>
      </trkpt>
      <trkpt lat="43.65345" lon="1.3791">
        <ele>147</ele>
        <time>2024-03-14T18:10:52Z</time>
      </trkpt>
      <trkpt lat="43.65347" lon="1.37908">
        <ele>147</ele>
        <time>2024-03-14T18:10:53Z</time>
      </trkpt>
      <trkpt lat="43.65349" lon="1.37907">
        <ele>147</ele>
        <time>2024-03-14T18:10:54Z</time>
      </trkpt>
      <trkpt lat="43.65351" lon="1.37905">
        <ele>147</ele>
        <time>2024-03-14T18:10:55Z</time>
      </trkpt>
      <trkpt lat="43.65353" lon="1.37904">
        <ele>147</ele>
        <time>2024-03-14T18:10:56Z</time>
      </trkpt>
      <trkpt lat="43.65355" lon="1.37902">
        <ele>147</ele>
        <time>2024-03-14T18:10:57Z</time>
      </trkpt>
      <trkpt lat="43.65357" lon="1.37901">
        <ele>147</ele>
        <time>2024-03-14T18:10:58Z</time>
      </trkpt>
      <trkpt lat="43.65359" lon="1.37899">
        <ele>147</ele>
        <time>2024-03-14T18:10:59Z</time>
      </trkpt>
      <trkpt lat="43.65361" lon="1.37897">
        <ele>147</ele>
        <time>2024-03-14T18:11:00Z</time>
      </trkpt>
      <trkpt lat="43.65364" lon="1.37896">
        <ele>147</ele>
        <time>2024-03-14T18:11:01Z</time>
      </trkpt>
      <trkpt lat="43.65366" lon="1.37894">
        <ele>147</ele>
        <time>2024-03-14T18:11:02Z</time>
      </trkpt>
      <trkpt lat="43.65368" lon="1.37892">
        <ele>147</ele>
        <time>2024-03-14T18:11:03Z</time>
      </trkpt>
      <trkpt lat="43.6537" lon="1.3789">
        <ele>147</ele>
        <time>2024-03-14T18:11:04Z</time>
      </trkpt>
      <trkpt lat="43.65371" lon="1.37888">
        <ele>147</ele>
        <time>2024-03-14T18:11:05Z</time>
      </trkpt>
      <trkpt lat="43.65373" lon="1.37887">
        <ele>147</ele>
        <time>2024-03-14T18:11:06Z</time>
      </trkpt>
      <trkpt lat="43.65375" lon="1.37886">
        <ele>147</ele>
        <time>2024-03-14T18:11:07Z</time>
      </trkpt>
      <trkpt lat="43.65377" lon="1.37884">
        <ele>147</ele>
        <time>2024-03-14T18:11:08Z</time>
      </trkpt>
      <trkpt lat="43.65379" lon="1.37883">
        <ele>147</ele>
        <time>2024-03-14T18:11:09Z</time>
      </trkpt>
      <trkpt lat="43.65384" lon="1.37879">
        <ele>147</ele>
        <time>2024-03-14T18:11:10Z</time>
      </trkpt>
      <trkpt lat="43.65384" lon="1.37879">
        <ele>147</ele>
        <time>2024-03-14T18:11:11Z</time>
      </trkpt>
      <trkpt lat="43.65386" lon="1.37878">
        <ele>147</ele>
        <time>2024-03-14T18:11:12Z</time>
      </trkpt>
      <trkpt lat="43.65389" lon="1.37876">
        <ele>147</ele>
        <time>2024-03-14T18:11:13Z</time>
      </trkpt>
      <trkpt lat="43.65391" lon="1.37874">
        <ele>147</ele>
        <time>2024-03-14T18:11:14Z</time>
      </trkpt>
      <trkpt lat="43.65394" lon="1.37873">
        <ele>147</ele>
        <time>2024-03-14T18:11:15Z</time>
      </trkpt>
      <trkpt lat="43.65397" lon="1.37871">
        <ele>147</ele>
        <time>2024-03-14T18:11:16Z</time>
      </trkpt>
      <trkpt lat="43.65399" lon="1.3787">
        <ele>147</ele>
        <time>2024-03-14T18:11:17Z</time>
      </trkpt>
      <trkpt lat="43.65401" lon="1.37868">
        <ele>147</ele>
        <time>2024-03-14T18:11:18Z</time>
      </trkpt>
      <trkpt lat="43.65404" lon="1.37867">
        <ele>147</ele>
        <time>2024-03-14T18:11:19Z</time>
      </trkpt>
      <trkpt lat="43.65406" lon="1.37866">
        <ele>147</ele>
        <time>2024-03-14T18:11:20Z</time>
      </trkpt>
      <trkpt lat="43.65409" lon="1.37864">
        <ele>147</ele>
        <time>2024-03-14T18:11:21Z</time>
      </trkpt>
      <trkpt lat="43.65411" lon="1.37863">
        <ele>147</ele>
        <time>2024-03-14T18:11:22Z</time>
      </trkpt>
      <trkpt lat="43.65413" lon="1.37861">
        <ele>147</ele>
        <time>2024-03-14T18:11:23Z</time>
      </trkpt>
      <trkpt lat="43.65415" lon="1.3786">
        <ele>147</ele>
        <time>2024-03-14T18:11:24Z</time>
      </trkpt>
      <trkpt lat="43.65418" lon="1.37858">
        <ele>147</ele>
        <time>2024-03-14T18:11:25Z</time>
      </trkpt>
      <trkpt lat="43.6542" lon="1.37856">
        <ele>147</ele>
        <time>2024-03-14T18:11:26Z</time>
      </trkpt>
      <trkpt lat="43.65422" lon="1.37854">
        <ele>147</ele>
        <time>2024-03-14T18:11:27Z</time>
      </trkpt>
      <trkpt lat="43.65424" lon="1.37852">
        <ele>147</ele>
        <time>2024-03-14T18:11:28Z</time>
      </trkpt>
      <trkpt lat="43.65428" lon="1.37849">
        <ele>147</ele>
        <time>2024-03-14T18:11:29Z</time>
      </trkpt>
      <trkpt lat="43.65428" lon="1.37849">
        <ele>147</ele>
        <time>2024-03-14T18:11:30Z</time>
      </trkpt>
      <trkpt lat="43.65431" lon="1.37847">
        <ele>147</ele>
        <time>2024-03-14T18:11:31Z</time>
      </trkpt>
      <trkpt lat="43.65433" lon="1.37846">
        <ele>147</ele>
        <time>2024-03-14T18:11:32Z</time>
      </trkpt>
      <trkpt lat="43.65435" lon="1.37844">
        <ele>147</ele>
        <time>2024-03-14T18:11:33Z</time>
      </trkpt>
      <trkpt lat="43.65438" lon="1.37841">
        <ele>147</ele>
        <time>2024-03-14T18:11:34Z</time>
      </trkpt>
      <trkpt lat="43.6544" lon="1.3784">
        <ele>147</ele>
        <time>2024-03-14T18:11:35Z</time>
      </trkpt>
      <trkpt lat="43.65442" lon="1.37838">
        <ele>147</ele>
        <time>2024-03-14T18:11:36Z</time>
      </trkpt>
      <trkpt lat="43.65445" lon="1.37836">
        <ele>147</ele>
        <time>2024-03-14T18:11:37Z</time>
      </trkpt>
      <trkpt lat="43.65448" lon="1.37834">
        <ele>147</ele>
        <time>2024-03-14T18:11:38Z</time>
      </trkpt>
      <trkpt lat="43.6545" lon="1.37832">
        <ele>147</ele>
        <time>2024-03-14T18:11:39Z</time>
      </trkpt>
      <trkpt lat="43.65451" lon="1.3783">
        <ele>147</ele>
        <time>2024-03-14T18:11:40Z</time>
      </trkpt>
      <trkpt lat="43.65453" lon="1.37828">
        <ele>147</ele>
        <time>2024-03-14T18:11:41Z</time>
      </trkpt>
      <trkpt lat="43.65454" lon="1.37825">
        <ele>147</ele>
        <time>2024-03-14T18:11:42Z</time>
      </trkpt>
      <trkpt lat="43.65456" lon="1.37822">
        <ele>147</ele>
        <time>2024-03-14T18:11:43Z</time>
      </trkpt>
      <trkpt lat="43.65457" lon="1.37819">
        <ele>147</ele>
        <time>2024-03-14T18:11:44Z</time>
      </trkpt>
      <trkpt lat="43.65459" lon="1.37816">
        <ele>147</ele>
        <time>2024-03-14T18:11:45Z</time>
      </trkpt>
      <trkpt lat="43.65461" lon="1.37813">
        <ele>147</ele>
        <time>2024-03-14T18:11:46Z</time>
      </trkpt>
      <trkpt lat="43.65463" lon="1.37811">
        <ele>147</ele>
        <time>2024-03-14T18:11:47Z</time>
      </trkpt>
      <trkpt lat="43.65468" lon="1.37808">
        <ele>147</ele>
        <time>2024-03-14T18:11:48Z</time>
      </trkpt>
      <trkpt lat="43.65468" lon="1.37808">
        <ele>147</ele>
        <time>2024-03-14T18:11:49Z</time>
      </trkpt>
      <trkpt lat="43.6547" lon="1.37806">
        <ele>147</ele>
        <time>2024-03-14T18:11:50Z</time>
      </trkpt>
      <trkpt lat="43.65472" lon="1.37805">
        <ele>147</ele>
        <time>2024-03-14T18:11:51Z</time>
      </trkpt>
      <trkpt lat="43.65474" lon="1.37804">
        <ele>147</ele>
        <time>2024-03-14T18:11:52Z</time>
      </trkpt>
      <trkpt lat="43.65476" lon="1.37802">
        <ele>147</ele>
        <time>2024-03-14T18:11:53Z</time>
      </trkpt>
      <trkpt lat="43.65479" lon="1.37801">
        <ele>147</ele>
        <time>2024-03-14T18:11:54Z</time>
      </trkpt>
      <trkpt lat="43.65481" lon="1.37799">
        <ele>147</ele>
        <time>2024-03-14T18:11:55Z</time>
      </trkpt>
      <trkpt lat="43.65483" lon="1.37798">
        <ele>147</ele>
        <time>2024-03-14T18:11:56Z</time>
      </trkpt>
      <trkpt lat="43.65485" lon="1.37796">
        <ele>147</ele>
        <time>2024-03-14T18:11:57Z</time>
      </trkpt>
      <trkpt lat="43.65488" lon="1.37795">
        <ele>147</ele>
        <time>2024-03-14T18:11:58Z</time>
      </trkpt>
      <trkpt lat="43.6549" lon="1.37793">
        <ele>147</ele>
        <time>2024-03-14T18:11:59Z</time>
      </trkpt>
      <trkpt lat="43.65492" lon="1.37791">
        <ele>147</ele>
        <time>2024-03-14T18:12:00Z</time>
      </trkpt>
      <trkpt lat="43.65494" lon="1.3779">
        <ele>147</ele>
        <time>2024-03-14T18:12:01Z</time>
      </trkpt>
      <trkpt lat="43.65496" lon="1.37788">
        <ele>147</ele>
        <time>2024-03-14T18:12:02Z</time>
      </trkpt>
      <trkpt lat="43.65498" lon="1.37786">
        <ele>147</ele>
        <time>2024-03-14T18:12:03Z</time>
      </trkpt>
      <trkpt lat="43.655" lon="1.37784">
        <ele>147</ele>
        <time>2024-03-14T18:12:04Z</time>
      </trkpt>
      <trkpt lat="43.65502" lon="1.37783">
        <ele>147</ele>
        <time>2024-03-14T18:12:05Z</time>
      </trkpt>
      <trkpt lat="43.65504" lon="1.37781">
        <ele>147</ele>
        <time>2024-03-14T18:12:06Z</time>
      </trkpt>
      <trkpt lat="43.65509" lon="1.37778">
        <ele>147</ele>
        <time>2024-03-14T18:12:07Z</time>
      </trkpt>
      <trkpt lat="43.65509" lon="1.37778">
        <ele>147</ele>
        <time>2024-03-14T18:12:08Z</time>
      </trkpt>
      <trkpt lat="43.65511" lon="1.37776">
        <ele>147</ele>
        <time>2024-03-14T18:12:09Z</time>
      </trkpt>
      <trkpt lat="43.65514" lon="1.37775">
        <ele>147</ele>
        <time>2024-03-14T18:12:10Z</time>
      </trkpt>
      <trkpt lat="43.65518" lon="1.37771">
        <ele>147</ele>
        <time>2024-03-14T18:12:11Z</time>
      </trkpt>
      <trkpt lat="43.65518" lon="1.37771">
        <ele>147</ele>
        <time>2024-03-14T18:12:12Z</time>
      </trkpt>
      <trkpt lat="43.6552" lon="1.37769">
        <ele>147</ele>
        <time>2024-03-14T18:12:13Z</time>
      </trkpt>
      <trkpt lat="43.65522" lon="1.37767">
        <ele>147</ele>
        <time>2024-03-14T18:12:14Z</time>
      </trkpt>
      <trkpt lat="43.65525" lon="1.37766">
        <ele>147</ele>
        <time>2024-03-14T18:12:15Z</time>
      </trkpt>
      <trkpt lat="43.65527" lon="1.37764">
        <ele>147</ele>
        <time>2024-03-14T18:12:16Z</time>
      </trkpt>
      <trkpt lat="43.65529" lon="1.37763">
        <ele>147</ele>
        <time>2024-03-14T18:12:17Z</time>
      </trkpt>
      <trkpt lat="43.65532" lon="1.37761">
        <ele>147</ele>
        <time>2024-03-14T18:12:18Z</time>
      </trkpt>
      <trkpt lat="43.65534" lon="1.37759">
        <ele>147</ele>
        <time>2024-03-14T18:12:19Z</time>
      </trkpt>
      <trkpt lat="43.65536" lon="1.37758">
        <ele>147</ele>
        <time>2024-03-14T18:12:20Z</time>
      </trkpt>
      <trkpt lat="43.65538" lon="1.37756">
        <ele>147</ele>
        <time>2024-03-14T18:12:21Z</time>
      </trkpt>
      <trkpt lat="43.65541" lon="1.37755">
        <ele>147</ele>
        <time>2024-03-14T18:12:22Z</time>
      </trkpt>
      <trkpt lat="43.65543" lon="1.37753">
        <ele>147</ele>
        <time>2024-03-14T18:12:23Z</time>
      </trkpt>
      <trkpt lat="43.65546" lon="1.37752">
        <ele>147</ele>
        <time>2024-03-14T18:12:24Z</time>
      </trkpt>
      <trkpt lat="43.65548" lon="1.3775">
        <ele>147</ele>
        <time>2024-03-14T18:12:25Z</time>
      </trkpt>
      <trkpt lat="43.65553" lon="1.37748">
        <ele>147</ele>
        <time>2024-03-14T18:12:26Z</time>
      </trkpt>
      <trkpt lat="43.65553" lon="1.37748">
        <ele>147</ele>
        <time>2024-03-14T18:12:27Z</time>
      </trkpt>
      <trkpt lat="43.65556" lon="1.37747">
        <ele>147</ele>
        <time>2024-03-14T18:12:28Z</time>
      </trkpt>
      <trkpt lat="43.65558" lon="1.37745">
        <ele>146</ele>
        <time>2024-03-14T18:12:29Z</time>
      </trkpt>
      <trkpt lat="43.6556" lon="1.37744">
        <ele>147</ele>
        <time>2024-03-14T18:12:30Z</time>
      </trkpt>
      <trkpt lat="43.65562" lon="1.37743">
        <ele>147</ele>
        <time>2024-03-14T18:12:31Z</time>
      </trkpt>
      <trkpt lat="43.65564" lon="1.37742">
        <ele>147</ele>
        <time>2024-03-14T18:12:32Z</time>
      </trkpt>
      <trkpt lat="43.65565" lon="1.37741">
        <ele>147</ele>
        <time>2024-03-14T18:12:33Z</time>
      </trkpt>
      <trkpt lat="43.65566" lon="1.37741">
        <ele>147</ele>
        <time>2024-03-14T18:12:34Z</time>
      </trkpt>
      <trkpt lat="43.65567" lon="1.3774">
        <ele>147</ele>
        <time>2024-03-14T18:12:35Z</time>
      </trkpt>
      <trkpt lat="43.65575" lon="1.37737">
        <ele>147</ele>
        <time>2024-03-14T18:12:36Z</time>
      </trkpt>
      <trkpt lat="43.65577" lon="1.37737">
        <ele>147</ele>
        <time>2024-03-14T18:12:37Z</time>
      </trkpt>
      <trkpt lat="43.6558" lon="1.37736">
        <ele>147</ele>
        <time>2024-03-14T18:12:38Z</time>
      </trkpt>
      <trkpt lat="43.65582" lon="1.37736">
        <ele>147</ele>
        <time>2024-03-14T18:12:39Z</time>
      </trkpt>
      <trkpt lat="43.65585" lon="1.37737">
        <ele>147</ele>
        <time>2024-03-14T18:12:40Z</time>
      </trkpt>
      <trkpt lat="43.65587" lon="1.37738">
        <ele>147</ele>
        <time>2024-03-14T18:12:41Z</time>
      </trkpt>
      <trkpt lat="43.65589" lon="1.37739">
        <ele>147</ele>
        <time>2024-03-14T18:12:42Z</time>
      </trkpt>
      <trkpt lat="43.65592" lon="1.3774">
        <ele>147</ele>
        <time>2024-03-14T18:12:43Z</time>
      </trkpt>
      <trkpt lat="43.65594" lon="1.37741">
        <ele>147</ele>
        <time>2024-03-14T18:12:44Z</time>
      </trkpt>
      <trkpt lat="43.65597" lon="1.37742">
        <ele>147</ele>
        <time>2024-03-14T18:12:45Z</time>
      </trkpt>
      <trkpt lat="43.656" lon="1.37743">
        <ele>147</ele>
        <time>2024-03-14T18:12:46Z</time>
      </trkpt>
      <trkpt lat="43.65602" lon="1.37743">
        <ele>147</ele>
        <time>2024-03-14T18:12:47Z</time>
      </trkpt>
      <trkpt lat="43.65605" lon="1.37742">
        <ele>146</ele>
        <time>2024-03-14T18:12:48Z</time>
      </trkpt>
      <trkpt lat="43.65607" lon="1.37741">
        <ele>147</ele>
        <time>2024-03-14T18:12:49Z</time>
      </trkpt>
      <trkpt lat="43.6561" lon="1.37739">
        <ele>147</ele>
        <time>2024-03-14T18:12:50Z</time>
      </trkpt>
      <trkpt lat="43.65612" lon="1.37738">
        <ele>147</ele>
        <time>2024-03-14T18:12:51Z</time>
      </trkpt>
      <trkpt lat="43.65615" lon="1.37736">
        <ele>147</ele>
        <time>2024-03-14T18:12:52Z</time>
      </trkpt>
      <trkpt lat="43.65617" lon="1.37734">
        <ele>147</ele>
        <time>2024-03-14T18:12:53Z</time>
      </trkpt>
      <trkpt lat="43.6562" lon="1.37732">
        <ele>147</ele>
        <time>2024-03-14T18:12:54Z</time>
      </trkpt>
      <trkpt lat="43.65622" lon="1.3773">
        <ele>147</ele>
        <time>2024-03-14T18:12:55Z</time>
      </trkpt>
      <trkpt lat="43.65624" lon="1.37728">
        <ele>147</ele>
        <time>2024-03-14T18:12:56Z</time>
      </trkpt>
      <trkpt lat="43.65626" lon="1.37726">
        <ele>147</ele>
        <time>2024-03-14T18:12:57Z</time>
      </trkpt>
      <trkpt lat="43.65629" lon="1.37724">
        <ele>147</ele>
        <time>2024-03-14T18:12:58Z</time>
      </trkpt>
      <trkpt lat="43.65631" lon="1.37723">
        <ele>147</ele>
        <time>2024-03-14T18:12:59Z</time>
      </trkpt>
      <trkpt lat="43.65633" lon="1.37721">
        <ele>147</ele>
        <time>2024-03-14T18:13:00Z</time>
      </trkpt>
      <trkpt lat="43.65636" lon="1.37719">
        <ele>147</ele>
        <time>2024-03-14T18:13:01Z</time>
      </trkpt>
      <trkpt lat="43.65638" lon="1.37719">
        <ele>146</ele>
        <time>2024-03-14T18:13:02Z</time>
      </trkpt>
      <trkpt lat="43.65641" lon="1.37717">
        <ele>146</ele>
        <time>2024-03-14T18:13:03Z</time>
      </trkpt>
      <trkpt lat="43.65645" lon="1.37714">
        <ele>146</ele>
        <time>2024-03-14T18:13:04Z</time>
      </trkpt>
      <trkpt lat="43.65645" lon="1.37714">
        <ele>146</ele>
        <time>2024-03-14T18:13:05Z</time>
      </trkpt>
      <trkpt lat="43.65648" lon="1.37713">
        <ele>146</ele>
        <time>2024-03-14T18:13:06Z</time>
      </trkpt>
      <trkpt lat="43.6565" lon="1.37712">
        <ele>146</ele>
        <time>2024-03-14T18:13:07Z</time>
      </trkpt>
      <trkpt lat="43.65652" lon="1.37711">
        <ele>146</ele>
        <time>2024-03-14T18:13:08Z</time>
      </trkpt>
      <trkpt lat="43.65655" lon="1.37709">
        <ele>146</ele>
        <time>2024-03-14T18:13:09Z</time>
      </trkpt>
      <trkpt lat="43.65657" lon="1.37708">
        <ele>146</ele>
        <time>2024-03-14T18:13:10Z</time>
      </trkpt>
      <trkpt lat="43.65659" lon="1.37706">
        <ele>146</ele>
        <time>2024-03-14T18:13:11Z</time>
      </trkpt>
      <trkpt lat="43.65661" lon="1.37704">
        <ele>146</ele>
        <time>2024-03-14T18:13:12Z</time>
      </trkpt>
      <trkpt lat="43.65664" lon="1.37703">
        <ele>146</ele>
        <time>2024-03-14T18:13:13Z</time>
      </trkpt>
      <trkpt lat="43.65666" lon="1.37702">
        <ele>146</ele>
        <time>2024-03-14T18:13:14Z</time>
      </trkpt>
      <trkpt lat="43.65668" lon="1.377">
        <ele>146</ele>
        <time>2024-03-14T18:13:15Z</time>
      </trkpt>
      <trkpt lat="43.6567" lon="1.37699">
        <ele>146</ele>
        <time>2024-03-14T18:13:16Z</time>
      </trkpt>
      <trkpt lat="43.65672" lon="1.37697">
        <ele>146</ele>
        <time>2024-03-14T18:13:17Z</time>
      </trkpt>
      <trkpt lat="43.65674" lon="1.37695">
        <ele>146</ele>
        <time>2024-03-14T18:13:18Z</time>
      </trkpt>
      <trkpt lat="43.65677" lon="1.37694">
        <ele>146</ele>
        <time>2024-03-14T18:13:19Z</time>
      </trkpt>
      <trkpt lat="43.65679" lon="1.37692">
        <ele>146</ele>
        <time>2024-03-14T18:13:20Z</time>
      </trkpt>
      <trkpt lat="43.65681" lon="1.37691">
        <ele>146</ele>
        <time>2024-03-14T18:13:21Z</time>
      </trkpt>
      <trkpt lat="43.65683" lon="1.37689">
        <ele>146</ele>
        <time>2024-03-14T18:13:22Z</time>
      </trkpt>
      <trkpt lat="43.65688" lon="1.37686">
        <ele>146</ele>
        <time>2024-03-14T18:13:23Z</time>
      </trkpt>
      <trkpt lat="43.65688" lon="1.37686">
        <ele>146</ele>
        <time>2024-03-14T18:13:24Z</time>
      </trkpt>
      <trkpt lat="43.6569" lon="1.37684">
        <ele>146</ele>
        <time>2024-03-14T18:13:25Z</time>
      </trkpt>
      <trkpt lat="43.65692" lon="1.37682">
        <ele>146</ele>
        <time>2024-03-14T18:13:26Z</time>
      </trkpt>
      <trkpt lat="43.65694" lon="1.3768">
        <ele>146</ele>
        <time>2024-03-14T18:13:27Z</time>
      </trkpt>
      <trkpt lat="43.65696" lon="1.37679">
        <ele>146</ele>
        <time>2024-03-14T18:13:28Z</time>
      </trkpt>
      <trkpt lat="43.65699" lon="1.37678">
        <ele>146</ele>
        <time>2024-03-14T18:13:29Z</time>
      </trkpt>
      <trkpt lat="43.65702" lon="1.37677">
        <ele>146</ele>
        <time>2024-03-14T18:13:30Z</time>
      </trkpt>
      <trkpt lat="43.65705" lon="1.37676">
        <ele>146</ele>
        <time>2024-03-14T18:13:31Z</time>
      </trkpt>
      <trkpt lat="43.65708" lon="1.37674">
        <ele>146</ele>
        <time>2024-03-14T18:13:32Z</time>
      </trkpt>
      <trkpt lat="43.65711" lon="1.37673">
        <ele>146</ele>
        <time>2024-03-14T18:13:33Z</time>
      </trkpt>
      <trkpt lat="43.65713" lon="1.37671">
        <ele>146</ele>
        <time>2024-03-14T18:13:34Z</time>
      </trkpt>
      <trkpt lat="43.65715" lon="1.3767">
        <ele>146</ele>
        <time>2024-03-14T18:13:35Z</time>
      </trkpt>
      <trkpt lat="43.65718" lon="1.37668">
        <ele>146</ele>
        <time>2024-03-14T18:13:36Z</time>
      </trkpt>
      <trkpt lat="43.6572" lon="1.37666">
        <ele>146</ele>
        <time>2024-03-14T18:13:37Z</time>
      </trkpt>
      <trkpt lat="43.65722" lon="1.37664">
        <ele>146</ele>
        <time>2024-03-14T18:13:38Z</time>
      </trkpt>
      <trkpt lat="43.65725" lon="1.37663">
        <ele>146</ele>
        <time>2024-03-14T18:13:39Z</time>
      </trkpt>
      <trkpt lat="43.65727" lon="1.37661">
        <ele>146</ele>
        <time>2024-03-14T18:13:40Z</time>
      </trkpt>
      <trkpt lat="43.65729" lon="1.37659">
        <ele>146</ele>
        <time>2024-03-14T18:13:41Z</time>
      </trkpt>
      <trkpt lat="43.65734" lon="1.37656">
        <ele>146</ele>
        <time>2024-03-14T18:13:42Z</time>
      </trkpt>
      <trkpt lat="43.65734" lon="1.37656">
        <ele>146</ele>
        <time>2024-03-14T18:13:43Z</time>
      </trkpt>
      <trkpt lat="43.65736" lon="1.37654">
        <ele>146</ele>
        <time>2024-03-14T18:13:44Z</time>
      </trkpt>
      <trkpt lat="43.65738" lon="1.37653">
        <ele>146</ele>
        <time>2024-03-14T18:13:45Z</time>
      </trkpt>
      <trkpt lat="43.6574" lon="1.37651">
        <ele>146</ele>
        <time>2024-03-14T18:13:46Z</time>
      </trkpt>
      <trkpt lat="43.65743" lon="1.3765">
        <ele>146</ele>
        <time>2024-03-14T18:13:47Z</time>
      </trkpt>
      <trkpt lat="43.65745" lon="1.37648">
        <ele>146</ele>
        <time>2024-03-14T18:13:48Z</time>
      </trkpt>
      <trkpt lat="43.65747" lon="1.37647">
        <ele>146</ele>
        <time>2024-03-14T18:13:49Z</time>
      </trkpt>
      <trkpt lat="43.65749" lon="1.37646">
        <ele>146</ele>
        <time>2024-03-14T18:13:50Z</time>
      </trkpt>
      <trkpt lat="43.65751" lon="1.37644">
        <ele>146</ele>
        <time>2024-03-14T18:13:51Z</time>
      </trkpt>
      <trkpt lat="43.65754" lon="1.37643">
        <ele>146</ele>
        <time>2024-03-14T18:13:52Z</time>
      </trkpt>
      <trkpt lat="43.65756" lon="1.37641">
        <ele>146</ele>
        <time>2024-03-14T18:13:53Z</time>
      </trkpt>
      <trkpt lat="43.65759" lon="1.3764">
        <ele>146</ele>
        <time>2024-03-14T18:13:54Z</time>
      </trkpt>
      <trkpt lat="43.65761" lon="1.37638">
        <ele>146</ele>
        <time>2024-03-14T18:13:55Z</time>
      </trkpt>
      <trkpt lat="43.65763" lon="1.37637">
        <ele>146</ele>
        <time>2024-03-14T18:13:56Z</time>
      </trkpt>
      <trkpt lat="43.65766" lon="1.37635">
        <ele>146</ele>
        <time>2024-03-14T18:13:57Z</time>
      </trkpt>
      <trkpt lat="43.65768" lon="1.37634">
        <ele>146</ele>
        <time>2024-03-14T18:13:58Z</time>
      </trkpt>
      <trkpt lat="43.6577" lon="1.37632">
        <ele>146</ele>
        <time>2024-03-14T18:13:59Z</time>
      </trkpt>
      <trkpt lat="43.65773" lon="1.37631">
        <ele>146</ele>
        <time>2024-03-14T18:14:00Z</time>
      </trkpt>
      <trkpt lat="43.65777" lon="1.37628">
        <ele>146</ele>
        <time>2024-03-14T18:14:01Z</time>
      </trkpt>
      <trkpt lat="43.65777" lon="1.37628">
        <ele>146</ele>
        <time>2024-03-14T18:14:02Z</time>
      </trkpt>
      <trkpt lat="43.6578" lon="1.37626">
        <ele>146</ele>
        <time>2024-03-14T18:14:03Z</time>
      </trkpt>
      <trkpt lat="43.65782" lon="1.37624">
        <ele>146</ele>
        <time>2024-03-14T18:14:04Z</time>
      </trkpt>
      <trkpt lat="43.65784" lon="1.37623">
        <ele>146</ele>
        <time>2024-03-14T18:14:05Z</time>
      </trkpt>
      <trkpt lat="43.65786" lon="1.37621">
        <ele>146</ele>
        <time>2024-03-14T18:14:06Z</time>
      </trkpt>
      <trkpt lat="43.65788" lon="1.3762">
        <ele>146</ele>
        <time>2024-03-14T18:14:07Z</time>
      </trkpt>
      <trkpt lat="43.65791" lon="1.37618">
        <ele>146</ele>
        <time>2024-03-14T18:14:08Z</time>
      </trkpt>
      <trkpt lat="43.65793" lon="1.37617">
        <ele>145</ele>
        <time>2024-03-14T18:14:09Z</time>
      </trkpt>
      <trkpt lat="43.65795" lon="1.37614">
        <ele>146</ele>
        <time>2024-03-14T18:14:10Z</time>
      </trkpt>
      <trkpt lat="43.65798" lon="1.37612">
        <ele>146</ele>
        <time>2024-03-14T18:14:11Z</time>
      </trkpt>
      <trkpt lat="43.658" lon="1.3761">
        <ele>146</ele>
        <time>2024-03-14T18:14:12Z</time>
      </trkpt>
      <trkpt lat="43.65802" lon="1.37608">
        <ele>146</ele>
        <time>2024-03-14T18:14:13Z</time>
      </trkpt>
      <trkpt lat="43.65804" lon="1.37605">
        <ele>146</ele>
        <time>2024-03-14T18:14:14Z</time>
      </trkpt>
      <trkpt lat="43.65806" lon="1.37603">
        <ele>146</ele>
        <time>2024-03-14T18:14:15Z</time>
      </trkpt>
      <trkpt lat="43.65808" lon="1.376">
        <ele>146</ele>
        <time>2024-03-14T18:14:16Z</time>
      </trkpt>
      <trkpt lat="43.6581" lon="1.37597">
        <ele>146</ele>
        <time>2024-03-14T18:14:17Z</time>
      </trkpt>
      <trkpt lat="43.65812" lon="1.37595">
        <ele>146</ele>
        <time>2024-03-14T18:14:18Z</time>
      </trkpt>
      <trkpt lat="43.65814" lon="1.37593">
        <ele>146</ele>
        <time>2024-03-14T18:14:19Z</time>
      </trkpt>
      <trkpt lat="43.65819" lon="1.37589">
        <ele>146</ele>
        <time>2024-03-14T18:14:20Z</time>
      </trkpt>
      <trkpt lat="43.65819" lon="1.37589">
        <ele>146</ele>
        <time>2024-03-14T18:14:21Z</time>
      </trkpt>
      <trkpt lat="43.65821" lon="1.37588">
        <ele>146</ele>
        <time>2024-03-14T18:14:22Z</time>
      </trkpt>
      <trkpt lat="43.65823" lon="1.37586">
        <ele>145</ele>
        <time>2024-03-14T18:14:23Z</time>
      </trkpt>
      <trkpt lat="43.65825" lon="1.37584">
        <ele>145</ele>
        <time>2024-03-14T18:14:24Z</time>
      </trkpt>
      <trkpt lat="43.65827" lon="1.37582">
        <ele>145</ele>
        <time>2024-03-14T18:14:25Z</time>
      </trkpt>
      <trkpt lat="43.65829" lon="1.3758">
        <ele>145</ele>
        <time>2024-03-14T18:14:26Z</time>
      </trkpt>
      <trkpt lat="43.65831" lon="1.37578">
        <ele>145</ele>
        <time>2024-03-14T18:14:27Z</time>
      </trkpt>
      <trkpt lat="43.65833" lon="1.37577">
        <ele>145</ele>
        <time>2024-03-14T18:14:28Z</time>
      </trkpt>
      <trkpt lat="43.65835" lon="1.37575">
        <ele>145</ele>
        <time>2024-03-14T18:14:29Z</time>
      </trkpt>
      <trkpt lat="43.65837" lon="1.37574">
        <ele>145</ele>
        <time>2024-03-14T18:14:30Z</time>
      </trkpt>
      <trkpt lat="43.6584" lon="1.37573">
        <ele>145</ele>
        <time>2024-03-14T18:14:31Z</time>
      </trkpt>
      <trkpt lat="43.65843" lon="1.37571">
        <ele>145</ele>
        <time>2024-03-14T18:14:32Z</time>
      </trkpt>
      <trkpt lat="43.65845" lon="1.3757">
        <ele>145</ele>
        <time>2024-03-14T18:14:33Z</time>
      </trkpt>
      <trkpt lat="43.65847" lon="1.37568">
        <ele>145</ele>
        <time>2024-03-14T18:14:34Z</time>
      </trkpt>
      <trkpt lat="43.65849" lon="1.37567">
        <ele>145</ele>
        <time>2024-03-14T18:14:35Z</time>
      </trkpt>
      <trkpt lat="43.65851" lon="1.37566">
        <ele>145</ele>
        <time>2024-03-14T18:14:36Z</time>
      </trkpt>
      <trkpt lat="43.65853" lon="1.37564">
        <ele>146</ele>
        <time>2024-03-14T18:14:37Z</time>
      </trkpt>
      <trkpt lat="43.65854" lon="1.37563">
        <ele>146</ele>
        <time>2024-03-14T18:14:38Z</time>
      </trkpt>
      <trkpt lat="43.65858" lon="1.3756">
        <ele>145</ele>
        <time>2024-03-14T18:14:39Z</time>
      </trkpt>
      <trkpt lat="43.65858" lon="1.3756">
        <ele>145</ele>
        <time>2024-03-14T18:14:40Z</time>
      </trkpt>
      <trkpt lat="43.6586" lon="1.37558">
        <ele>145</ele>
        <time>2024-03-14T18:14:41Z</time>
      </trkpt>
      <trkpt lat="43.65862" lon="1.37557">
        <ele>145</ele>
        <time>2024-03-14T18:14:42Z</time>
      </trkpt>
      <trkpt lat="43.65864" lon="1.37556">
        <ele>145</ele>
        <time>2024-03-14T18:14:43Z</time>
      </trkpt>
      <trkpt lat="43.65867" lon="1.37554">
        <ele>145</ele>
        <time>2024-03-14T18:14:44Z</time>
      </trkpt>
      <trkpt lat="43.65869" lon="1.37552">
        <ele>146</ele>
        <time>2024-03-14T18:14:45Z</time>
      </trkpt>
      <trkpt lat="43.65871" lon="1.3755">
        <ele>146</ele>
        <time>2024-03-14T18:14:46Z</time>
      </trkpt>
      <trkpt lat="43.65873" lon="1.37548">
        <ele>146</ele>
        <time>2024-03-14T18:14:47Z</time>
      </trkpt>
      <trkpt lat="43.65876" lon="1.37547">
        <ele>146</ele>
        <time>2024-03-14T18:14:48Z</time>
      </trkpt>
      <trkpt lat="43.65878" lon="1.37545">
        <ele>146</ele>
        <time>2024-03-14T18:14:49Z</time>
      </trkpt>
      <trkpt lat="43.6588" lon="1.37543">
        <ele>146</ele>
        <time>2024-03-14T18:14:50Z</time>
      </trkpt>
      <trkpt lat="43.65882" lon="1.37542">
        <ele>146</ele>
        <time>2024-03-14T18:14:51Z</time>
      </trkpt>
      <trkpt lat="43.65884" lon="1.3754">
        <ele>146</ele>
        <time>2024-03-14T18:14:52Z</time>
      </trkpt>
      <trkpt lat="43.65887" lon="1.37538">
        <ele>146</ele>
        <time>2024-03-14T18:14:53Z</time>
      </trkpt>
      <trkpt lat="43.65889" lon="1.37537">
        <ele>146</ele>
        <time>2024-03-14T18:14:54Z</time>
      </trkpt>
      <trkpt lat="43.65892" lon="1.37535">
        <ele>146</ele>
        <time>2024-03-14T18:14:55Z</time>
      </trkpt>
      <trkpt lat="43.65894" lon="1.37533">
        <ele>146</ele>
        <time>2024-03-14T18:14:56Z</time>
      </trkpt>
      <trkpt lat="43.65896" lon="1.37532">
        <ele>146</ele>
        <time>2024-03-14T18:14:57Z</time>
      </trkpt>
      <trkpt lat="43.65902" lon="1.37529">
        <ele>146</ele>
        <time>2024-03-14T18:14:58Z</time>
      </trkpt>
      <trkpt lat="43.65902" lon="1.37529">
        <ele>146</ele>
        <time>2024-03-14T18:14:59Z</time>
      </trkpt>
      <trkpt lat="43.65904" lon="1.37527">
        <ele>146</ele>
        <time>2024-03-14T18:15:00Z</time>
      </trkpt>
      <trkpt lat="43.65906" lon="1.37525">
        <ele>146</ele>
        <time>2024-03-14T18:15:01Z</time>
      </trkpt>
      <trkpt lat="43.65908" lon="1.37523">
        <ele>146</ele>
        <time>2024-03-14T18:15:02Z</time>
      </trkpt>
      <trkpt lat="43.6591" lon="1.37521">
        <ele>145</ele>
        <time>2024-03-14T18:15:03Z</time>
      </trkpt>
      <trkpt lat="43.65913" lon="1.37519">
        <ele>145</ele>
        <time>2024-03-14T18:15:04Z</time>
      </trkpt>
      <trkpt lat="43.65915" lon="1.37517">
        <ele>145</ele>
        <time>2024-03-14T18:15:05Z</time>
      </trkpt>
      <trkpt lat="43.65918" lon="1.37516">
        <ele>145</ele>
        <time>2024-03-14T18:15:06Z</time>
      </trkpt>
      <trkpt lat="43.65921" lon="1.37514">
        <ele>145</ele>
        <time>2024-03-14T18:15:07Z</time>
      </trkpt>
      <trkpt lat="43.65923" lon="1.37513">
        <ele>145</ele>
        <time>2024-03-14T18:15:08Z</time>
      </trkpt>
      <trkpt lat="43.65926" lon="1.37512">
        <ele>145</ele>
        <time>2024-03-14T18:15:09Z</time>
      </trkpt>
      <trkpt lat="43.65928" lon="1.37511">
        <ele>145</ele>
        <time>2024-03-14T18:15:10Z</time>
      </trkpt>
      <trkpt lat="43.6593" lon="1.3751">
        <ele>145</ele>
        <time>2024-03-14T18:15:11Z</time>
      </trkpt>
      <trkpt lat="43.65932" lon="1.37508">
        <ele>145</ele>
        <time>2024-03-14T18:15:12Z</time>
      </trkpt>
      <trkpt lat="43.65935" lon="1.37507">
        <ele>145</ele>
        <time>2024-03-14T18:15:13Z</time>
      </trkpt>
      <trkpt lat="43.65937" lon="1.37505">
        <ele>145</ele>
        <time>2024-03-14T18:15:14Z</time>
      </trkpt>
      <trkpt lat="43.65939" lon="1.37504">
        <ele>145</ele>
        <time>2024-03-14T18:15:15Z</time>
      </trkpt>
      <trkpt lat="43.65942" lon="1.37502">
        <ele>145</ele>
        <time>2024-03-14T18:15:16Z</time>
      </trkpt>
      <trkpt lat="43.65947" lon="1.37499">
        <ele>145</ele>
        <time>2024-03-14T18:15:17Z</time>
      </trkpt>
      <trkpt lat="43.65947" lon="1.37499">
        <ele>145</ele>
        <time>2024-03-14T18:15:18Z</time>
      </trkpt>
      <trkpt lat="43.65949" lon="1.37497">
        <ele>145</ele>
        <time>2024-03-14T18:15:19Z</time>
      </trkpt>
      <trkpt lat="43.65951" lon="1.37496">
        <ele>145</ele>
        <time>2024-03-14T18:15:20Z</time>
      </trkpt>
      <trkpt lat="43.65953" lon="1.37495">
        <ele>145</ele>
        <time>2024-03-14T18:15:21Z</time>
      </trkpt>
      <trkpt lat="43.65956" lon="1.37493">
        <ele>145</ele>
        <time>2024-03-14T18:15:22Z</time>
      </trkpt>
      <trkpt lat="43.65958" lon="1.37492">
        <ele>146</ele>
        <time>2024-03-14T18:15:23Z</time>
      </trkpt>
      <trkpt lat="43.65961" lon="1.3749">
        <ele>146</ele>
        <time>2024-03-14T18:15:24Z</time>
      </trkpt>
      <trkpt lat="43.65963" lon="1.37489">
        <ele>146</ele>
        <time>2024-03-14T18:15:25Z</time>
      </trkpt>
      <trkpt lat="43.65965" lon="1.37487">
        <ele>146</ele>
        <time>2024-03-14T18:15:26Z</time>
      </trkpt>
      <trkpt lat="43.65968" lon="1.37486">
        <ele>146</ele>
        <time>2024-03-14T18:15:27Z</time>
      </trkpt>
      <trkpt lat="43.6597" lon="1.37484">
        <ele>145</ele>
        <time>2024-03-14T18:15:28Z</time>
      </trkpt>
      <trkpt lat="43.65972" lon="1.37482">
        <ele>145</ele>
        <time>2024-03-14T18:15:29Z</time>
      </trkpt>
      <trkpt lat="43.65974" lon="1.3748">
        <ele>145</ele>
        <time>2024-03-14T18:15:30Z</time>
      </trkpt>
      <trkpt lat="43.65977" lon="1.37477">
        <ele>145</ele>
        <time>2024-03-14T18:15:31Z</time>
      </trkpt>
      <trkpt lat="43.65979" lon="1.37475">
        <ele>145</ele>
        <time>2024-03-14T18:15:32Z</time>
      </trkpt>
      <trkpt lat="43.65981" lon="1.37474">
        <ele>145</ele>
        <time>2024-03-14T18:15:33Z</time>
      </trkpt>
      <trkpt lat="43.65984" lon="1.37472">
        <ele>145</ele>
        <time>2024-03-14T18:15:34Z</time>
      </trkpt>
      <trkpt lat="43.65986" lon="1.3747">
        <ele>145</ele>
        <time>2024-03-14T18:15:35Z</time>
      </trkpt>
      <trkpt lat="43.6599" lon="1.37467">
        <ele>145</ele>
        <time>2024-03-14T18:15:36Z</time>
      </trkpt>
      <trkpt lat="43.6599" lon="1.37467">
        <ele>145</ele>
        <time>2024-03-14T18:15:37Z</time>
      </trkpt>
      <trkpt lat="43.65992" lon="1.37465">
        <ele>145</ele>
        <time>2024-03-14T18:15:38Z</time>
      </trkpt>
      <trkpt lat="43.65994" lon="1.37462">
        <ele>145</ele>
        <time>2024-03-14T18:15:39Z</time>
      </trkpt>
      <trkpt lat="43.65997" lon="1.37461">
        <ele>146</ele>
        <time>2024-03-14T18:15:40Z</time>
      </trkpt>
      <trkpt lat="43.65999" lon="1.3746">
        <ele>146</ele>
        <time>2024-03-14T18:15:41Z</time>
      </trkpt>
      <trkpt lat="43.66001" lon="1.37458">
        <ele>146</ele>
        <time>2024-03-14T18:15:42Z</time>
      </trkpt>
      <trkpt lat="43.66003" lon="1.37456">
        <ele>146</ele>
        <time>2024-03-14T18:15:43Z</time>
      </trkpt>
      <trkpt lat="43.66006" lon="1.37454">
        <ele>146</ele>
        <time>2024-03-14T18:15:44Z</time>
      </trkpt>
      <trkpt lat="43.66008" lon="1.37452">
        <ele>146</ele>
        <time>2024-03-14T18:15:45Z</time>
      </trkpt>
      <trkpt lat="43.6601" lon="1.3745">
        <ele>146</ele>
        <time>2024-03-14T18:15:46Z</time>
      </trkpt>
      <trkpt lat="43.66012" lon="1.37448">
        <ele>146</ele>
        <time>2024-03-14T18:15:47Z</time>
      </trkpt>
      <trkpt lat="43.66014" lon="1.37447">
        <ele>146</ele>
        <time>2024-03-14T18:15:48Z</time>
      </trkpt>
      <trkpt lat="43.66016" lon="1.37445">
        <ele>146</ele>
        <time>2024-03-14T18:15:49Z</time>
      </trkpt>
      <trkpt lat="43.66018" lon="1.37443">
        <ele>145</ele>
        <time>2024-03-14T18:15:50Z</time>
      </trkpt>
      <trkpt lat="43.6602" lon="1.37442">
        <ele>146</ele>
        <time>2024-03-14T18:15:51Z</time>
      </trkpt>
      <trkpt lat="43.66023" lon="1.3744">
        <ele>146</ele>
        <time>2024-03-14T18:15:52Z</time>
      </trkpt>
      <trkpt lat="43.66025" lon="1.37438">
        <ele>146</ele>
        <time>2024-03-14T18:15:53Z</time>
      </trkpt>
      <trkpt lat="43.66027" lon="1.37436">
        <ele>146</ele>
        <time>2024-03-14T18:15:54Z</time>
      </trkpt>
      <trkpt lat="43.66032" lon="1.37433">
        <ele>146</ele>
        <time>2024-03-14T18:15:55Z</time>
      </trkpt>
      <trkpt lat="43.66032" lon="1.37433">
        <ele>146</ele>
        <time>2024-03-14T18:15:56Z</time>
      </trkpt>
      <trkpt lat="43.66034" lon="1.37431">
        <ele>146</ele>
        <time>2024-03-14T18:15:57Z</time>
      </trkpt>
      <trkpt lat="43.66035" lon="1.37428">
        <ele>145</ele>
        <time>2024-03-14T18:15:58Z</time>
      </trkpt>
      <trkpt lat="43.66037" lon="1.37426">
        <ele>145</ele>
        <time>2024-03-14T18:15:59Z</time>
      </trkpt>
      <trkpt lat="43.66039" lon="1.37423">
        <ele>145</ele>
        <time>2024-03-14T18:16:00Z</time>
      </trkpt>
      <trkpt lat="43.66042" lon="1.37421">
        <ele>145</ele>
        <time>2024-03-14T18:16:01Z</time>
      </trkpt>
      <trkpt lat="43.66044" lon="1.37419">
        <ele>145</ele>
        <time>2024-03-14T18:16:02Z</time>
      </trkpt>
      <trkpt lat="43.66047" lon="1.37418">
        <ele>145</ele>
        <time>2024-03-14T18:16:03Z</time>
      </trkpt>
      <trkpt lat="43.6605" lon="1.37417">
        <ele>145</ele>
        <time>2024-03-14T18:16:04Z</time>
      </trkpt>
      <trkpt lat="43.66053" lon="1.37417">
        <ele>145</ele>
        <time>2024-03-14T18:16:05Z</time>
      </trkpt>
      <trkpt lat="43.66055" lon="1.37416">
        <ele>145</ele>
        <time>2024-03-14T18:16:06Z</time>
      </trkpt>
      <trkpt lat="43.66058" lon="1.37416">
        <ele>145</ele>
        <time>2024-03-14T18:16:07Z</time>
      </trkpt>
      <trkpt lat="43.66061" lon="1.37416">
        <ele>145</ele>
        <time>2024-03-14T18:16:08Z</time>
      </trkpt>
      <trkpt lat="43.66064" lon="1.37416">
        <ele>145</ele>
        <time>2024-03-14T18:16:09Z</time>
      </trkpt>
      <trkpt lat="43.66066" lon="1.37415">
        <ele>145</ele>
        <time>2024-03-14T18:16:10Z</time>
      </trkpt>
      <trkpt lat="43.66069" lon="1.37415">
        <ele>146</ele>
        <time>2024-03-14T18:16:11Z</time>
      </trkpt>
      <trkpt lat="43.66072" lon="1.37413">
        <ele>146</ele>
        <time>2024-03-14T18:16:12Z</time>
      </trkpt>
      <trkpt lat="43.66074" lon="1.37412">
        <ele>146</ele>
        <time>2024-03-14T18:16:13Z</time>
      </trkpt>
      <trkpt lat="43.66078" lon="1.3741">
        <ele>146</ele>
        <time>2024-03-14T18:16:14Z</time>
      </trkpt>
      <trkpt lat="43.66078" lon="1.3741">
        <ele>146</ele>
        <time>2024-03-14T18:16:15Z</time>
      </trkpt>
      <trkpt lat="43.66081" lon="1.37409">
        <ele>146</ele>
        <time>2024-03-14T18:16:16Z</time>
      </trkpt>
      <trkpt lat="43.66083" lon="1.37407">
        <ele>146</ele>
        <time>2024-03-14T18:16:17Z</time>
      </trkpt>
      <trkpt lat="43.66085" lon="1.37406">
        <ele>146</ele>
        <time>2024-03-14T18:16:18Z</time>
      </trkpt>
      <trkpt lat="43.66088" lon="1.37404">
        <ele>146</ele>
        <time>2024-03-14T18:16:19Z</time>
      </trkpt>
      <trkpt lat="43.6609" lon="1.37402">
        <ele>146</ele>
        <time>2024-03-14T18:16:20Z</time>
      </trkpt>
      <trkpt lat="43.66093" lon="1.37401">
        <ele>145</ele>
        <time>2024-03-14T18:16:21Z</time>
      </trkpt>
      <trkpt lat="43.66095" lon="1.37399">
        <ele>145</ele>
        <time>2024-03-14T18:16:22Z</time>
      </trkpt>
      <trkpt lat="43.66097" lon="1.37398">
        <ele>145</ele>
        <time>2024-03-14T18:16:23Z</time>
      </trkpt>
      <trkpt lat="43.661" lon="1.37396">
        <ele>145</ele>
        <time>2024-03-14T18:16:24Z</time>
      </trkpt>
      <trkpt lat="43.66102" lon="1.37394">
        <ele>145</ele>
        <time>2024-03-14T18:16:25Z</time>
      </trkpt>
      <trkpt lat="43.66104" lon="1.37393">
        <ele>145</ele>
        <time>2024-03-14T18:16:26Z</time>
      </trkpt>
      <trkpt lat="43.66106" lon="1.37391">
        <ele>145</ele>
        <time>2024-03-14T18:16:27Z</time>
      </trkpt>
      <trkpt lat="43.66108" lon="1.37389">
        <ele>145</ele>
        <time>2024-03-14T18:16:28Z</time>
      </trkpt>
      <trkpt lat="43.6611" lon="1.37388">
        <ele>145</ele>
        <time>2024-03-14T18:16:29Z</time>
      </trkpt>
      <trkpt lat="43.66113" lon="1.37388">
        <ele>145</ele>
        <time>2024-03-14T18:16:30Z</time>
      </trkpt>
      <trkpt lat="43.66116" lon="1.37387">
        <ele>145</ele>
        <time>2024-03-14T18:16:31Z</time>
      </trkpt>
      <trkpt lat="43.66118" lon="1.37386">
        <ele>145</ele>
        <time>2024-03-14T18:16:32Z</time>
      </trkpt>
      <trkpt lat="43.66123" lon="1.37385">
        <ele>145</ele>
        <time>2024-03-14T18:16:33Z</time>
      </trkpt>
      <trkpt lat="43.66123" lon="1.37385">
        <ele>145</ele>
        <time>2024-03-14T18:16:34Z</time>
      </trkpt>
      <trkpt lat="43.66128" lon="1.37383">
        <ele>145</ele>
        <time>2024-03-14T18:16:35Z</time>
      </trkpt>
      <trkpt lat="43.66128" lon="1.37383">
        <ele>145</ele>
        <time>2024-03-14T18:16:36Z</time>
      </trkpt>
      <trkpt lat="43.6613" lon="1.3738">
        <ele>145</ele>
        <time>2024-03-14T18:16:37Z</time>
      </trkpt>
      <trkpt lat="43.66133" lon="1.37378">
        <ele>146</ele>
        <time>2024-03-14T18:16:38Z</time>
      </trkpt>
      <trkpt lat="43.66135" lon="1.37377">
        <ele>146</ele>
        <time>2024-03-14T18:16:39Z</time>
      </trkpt>
      <trkpt lat="43.66138" lon="1.37375">
        <ele>146</ele>
        <time>2024-03-14T18:16:40Z</time>
      </trkpt>
      <trkpt lat="43.6614" lon="1.37374">
        <ele>146</ele>
        <time>2024-03-14T18:16:41Z</time>
      </trkpt>
      <trkpt lat="43.66143" lon="1.37373">
        <ele>145</ele>
        <time>2024-03-14T18:16:42Z</time>
      </trkpt>
      <trkpt lat="43.66145" lon="1.37373">
        <ele>145</ele>
        <time>2024-03-14T18:16:43Z</time>
      </trkpt>
      <trkpt lat="43.66148" lon="1.37371">
        <ele>145</ele>
        <time>2024-03-14T18:16:44Z</time>
      </trkpt>
      <trkpt lat="43.6615" lon="1.3737">
        <ele>145</ele>
        <time>2024-03-14T18:16:45Z</time>
      </trkpt>
      <trkpt lat="43.66152" lon="1.37368">
        <ele>145</ele>
        <time>2024-03-14T18:16:46Z</time>
      </trkpt>
      <trkpt lat="43.66155" lon="1.37366">
        <ele>145</ele>
        <time>2024-03-14T18:16:47Z</time>
      </trkpt>
      <trkpt lat="43.66157" lon="1.37365">
        <ele>145</ele>
        <time>2024-03-14T18:16:48Z</time>
      </trkpt>
      <trkpt lat="43.6616" lon="1.37363">
        <ele>145</ele>
        <time>2024-03-14T18:16:49Z</time>
      </trkpt>
      <trkpt lat="43.66162" lon="1.37362">
        <ele>145</ele>
        <time>2024-03-14T18:16:50Z</time>
      </trkpt>
      <trkpt lat="43.66165" lon="1.3736">
        <ele>145</ele>
        <time>2024-03-14T18:16:51Z</time>
      </trkpt>
      <trkpt lat="43.6617" lon="1.37358">
        <ele>145</ele>
        <time>2024-03-14T18:16:52Z</time>
      </trkpt>
      <trkpt lat="43.6617" lon="1.37358">
        <ele>145</ele>
        <time>2024-03-14T18:16:53Z</time>
      </trkpt>
      <trkpt lat="43.66172" lon="1.37356">
        <ele>145</ele>
        <time>2024-03-14T18:16:54Z</time>
      </trkpt>
      <trkpt lat="43.66175" lon="1.37355">
        <ele>145</ele>
        <time>2024-03-14T18:16:55Z</time>
      </trkpt>
      <trkpt lat="43.66177" lon="1.37353">
        <ele>145</ele>
        <time>2024-03-14T18:16:56Z</time>
      </trkpt>
      <trkpt lat="43.66179" lon="1.37352">
        <ele>145</ele>
        <time>2024-03-14T18:16:57Z</time>
      </trkpt>
      <trkpt lat="43.66181" lon="1.3735">
        <ele>145</ele>
        <time>2024-03-14T18:16:58Z</time>
      </trkpt>
      <trkpt lat="43.66184" lon="1.37348">
        <ele>145</ele>
        <time>2024-03-14T18:16:59Z</time>
      </trkpt>
      <trkpt lat="43.66186" lon="1.37347">
        <ele>145</ele>
        <time>2024-03-14T18:17:00Z</time>
      </trkpt>
      <trkpt lat="43.66188" lon="1.37345">
        <ele>145</ele>
        <time>2024-03-14T18:17:01Z</time>
      </trkpt>
      <trkpt lat="43.66191" lon="1.37344">
        <ele>145</ele>
        <time>2024-03-14T18:17:02Z</time>
      </trkpt>
      <trkpt lat="43.66193" lon="1.37343">
        <ele>145</ele>
        <time>2024-03-14T18:17:03Z</time>
      </trkpt>
      <trkpt lat="43.66195" lon="1.37342">
        <ele>145</ele>
        <time>2024-03-14T18:17:04Z</time>
      </trkpt>
      <trkpt lat="43.66198" lon="1.37341">
        <ele>145</ele>
        <time>2024-03-14T18:17:05Z</time>
      </trkpt>
      <trkpt lat="43.662" lon="1.37339">
        <ele>145</ele>
        <time>2024-03-14T18:17:06Z</time>
      </trkpt>
      <trkpt lat="43.66203" lon="1.37338">
        <ele>145</ele>
        <time>2024-03-14T18:17:07Z</time>
      </trkpt>
      <trkpt lat="43.66205" lon="1.37336">
        <ele>145</ele>
        <time>2024-03-14T18:17:08Z</time>
      </trkpt>
      <trkpt lat="43.66207" lon="1.37335">
        <ele>145</ele>
        <time>2024-03-14T18:17:09Z</time>
      </trkpt>
      <trkpt lat="43.66209" lon="1.37333">
        <ele>145</ele>
        <time>2024-03-14T18:17:10Z</time>
      </trkpt>
      <trkpt lat="43.66213" lon="1.37329">
        <ele>145</ele>
        <time>2024-03-14T18:17:11Z</time>
      </trkpt>
      <trkpt lat="43.66213" lon="1.37329">
        <ele>145</ele>
        <time>2024-03-14T18:17:12Z</time>
      </trkpt>
      <trkpt lat="43.66215" lon="1.37328">
        <ele>145</ele>
        <time>2024-03-14T18:17:13Z</time>
      </trkpt>
      <trkpt lat="43.66217" lon="1.37326">
        <ele>145</ele>
        <time>2024-03-14T18:17:14Z</time>
      </trkpt>
      <trkpt lat="43.66219" lon="1.37325">
        <ele>145</ele>
        <time>2024-03-14T18:17:15Z</time>
      </trkpt>
      <trkpt lat="43.66221" lon="1.37323">
        <ele>145</ele>
        <time>2024-03-14T18:17:16Z</time>
      </trkpt>
      <trkpt lat="43.66224" lon="1.37321">
        <ele>145</ele>
        <time>2024-03-14T18:17:17Z</time>
      </trkpt>
      <trkpt lat="43.66226" lon="1.3732">
        <ele>145</ele>
        <time>2024-03-14T18:17:18Z</time>
      </trkpt>
      <trkpt lat="43.66228" lon="1.37318">
        <ele>145</ele>
        <time>2024-03-14T18:17:19Z</time>
      </trkpt>
      <trkpt lat="43.66233" lon="1.37315">
        <ele>145</ele>
        <time>2024-03-14T18:17:20Z</time>
      </trkpt>
      <trkpt lat="43.66233" lon="1.37315">
        <ele>145</ele>
        <time>2024-03-14T18:17:21Z</time>
      </trkpt>
      <trkpt lat="43.66236" lon="1.37314">
        <ele>145</ele>
        <time>2024-03-14T18:17:22Z</time>
      </trkpt>
      <trkpt lat="43.66238" lon="1.37313">
        <ele>145</ele>
        <time>2024-03-14T18:17:23Z</time>
      </trkpt>
      <trkpt lat="43.6624" lon="1.37311">
        <ele>145</ele>
        <time>2024-03-14T18:17:24Z</time>
      </trkpt>
      <trkpt lat="43.66243" lon="1.3731">
        <ele>145</ele>
        <time>2024-03-14T18:17:25Z</time>
      </trkpt>
      <trkpt lat="43.66245" lon="1.37308">
        <ele>145</ele>
        <time>2024-03-14T18:17:26Z</time>
      </trkpt>
      <trkpt lat="43.66248" lon="1.37306">
        <ele>145</ele>
        <time>2024-03-14T18:17:27Z</time>
      </trkpt>
      <trkpt lat="43.66251" lon="1.37305">
        <ele>145</ele>
        <time>2024-03-14T18:17:28Z</time>
      </trkpt>
      <trkpt lat="43.66253" lon="1.37304">
        <ele>145</ele>
        <time>2024-03-14T18:17:29Z</time>
      </trkpt>
      <trkpt lat="43.66257" lon="1.37301">
        <ele>145</ele>
        <time>2024-03-14T18:17:30Z</time>
      </trkpt>
      <trkpt lat="43.66257" lon="1.37301">
        <ele>145</ele>
        <time>2024-03-14T18:17:31Z</time>
      </trkpt>
      <trkpt lat="43.66259" lon="1.37299">
        <ele>145</ele>
        <time>2024-03-14T18:17:32Z</time>
      </trkpt>
      <trkpt lat="43.66262" lon="1.37297">
        <ele>145</ele>
        <time>2024-03-14T18:17:33Z</time>
      </trkpt>
      <trkpt lat="43.66264" lon="1.37295">
        <ele>145</ele>
        <time>2024-03-14T18:17:34Z</time>
      </trkpt>
      <trkpt lat="43.66267" lon="1.37293">
        <ele>145</ele>
        <time>2024-03-14T18:17:35Z</time>
      </trkpt>
      <trkpt lat="43.6627" lon="1.37292">
        <ele>145</ele>
        <time>2024-03-14T18:17:36Z</time>
      </trkpt>
      <trkpt lat="43.66272" lon="1.3729">
        <ele>145</ele>
        <time>2024-03-14T18:17:37Z</time>
      </trkpt>
      <trkpt lat="43.66275" lon="1.37289">
        <ele>145</ele>
        <time>2024-03-14T18:17:38Z</time>
      </trkpt>
      <trkpt lat="43.66277" lon="1.37287">
        <ele>145</ele>
        <time>2024-03-14T18:17:39Z</time>
      </trkpt>
      <trkpt lat="43.6628" lon="1.37286">
        <ele>145</ele>
        <time>2024-03-14T18:17:40Z</time>
      </trkpt>
      <trkpt lat="43.66283" lon="1.37284">
        <ele>145</ele>
        <time>2024-03-14T18:17:41Z</time>
      </trkpt>
      <trkpt lat="43.66285" lon="1.37282">
        <ele>145</ele>
        <time>2024-03-14T18:17:42Z</time>
      </trkpt>
      <trkpt lat="43.66288" lon="1.37281">
        <ele>145</ele>
        <time>2024-03-14T18:17:43Z</time>
      </trkpt>
      <trkpt lat="43.6629" lon="1.37279">
        <ele>145</ele>
        <time>2024-03-14T18:17:44Z</time>
      </trkpt>
      <trkpt lat="43.66292" lon="1.37278">
        <ele>145</ele>
        <time>2024-03-14T18:17:45Z</time>
      </trkpt>
      <trkpt lat="43.66295" lon="1.37276">
        <ele>145</ele>
        <time>2024-03-14T18:17:46Z</time>
      </trkpt>
      <trkpt lat="43.66297" lon="1.37274">
        <ele>145</ele>
        <time>2024-03-14T18:17:47Z</time>
      </trkpt>
      <trkpt lat="43.66299" lon="1.37272">
        <ele>145</ele>
        <time>2024-03-14T18:17:48Z</time>
      </trkpt>
      <trkpt lat="43.66304" lon="1.37269">
        <ele>145</ele>
        <time>2024-03-14T18:17:49Z</time>
      </trkpt>
      <trkpt lat="43.66304" lon="1.37269">
        <ele>145</ele>
        <time>2024-03-14T18:17:50Z</time>
      </trkpt>
      <trkpt lat="43.66306" lon="1.37267">
        <ele>145</ele>
        <time>2024-03-14T18:17:51Z</time>
      </trkpt>
      <trkpt lat="43.66309" lon="1.37265">
        <ele>145</ele>
        <time>2024-03-14T18:17:52Z</time>
      </trkpt>
      <trkpt lat="43.66311" lon="1.37263">
        <ele>145</ele>
        <time>2024-03-14T18:17:53Z</time>
      </trkpt>
      <trkpt lat="43.66314" lon="1.37262">
        <ele>145</ele>
        <time>2024-03-14T18:17:54Z</time>
      </trkpt>
      <trkpt lat="43.66316" lon="1.3726">
        <ele>145</ele>
        <time>2024-03-14T18:17:55Z</time>
      </trkpt>
      <trkpt lat="43.66318" lon="1.37258">
        <ele>145</ele>
        <time>2024-03-14T18:17:56Z</time>
      </trkpt>
      <trkpt lat="43.66321" lon="1.37256">
        <ele>145</ele>
        <time>2024-03-14T18:17:57Z</time>
      </trkpt>
      <trkpt lat="43.66323" lon="1.37255">
        <ele>145</ele>
        <time>2024-03-14T18:17:58Z</time>
      </trkpt>
      <trkpt lat="43.66325" lon="1.37253">
        <ele>145</ele>
        <time>2024-03-14T18:17:59Z</time>
      </trkpt>
      <trkpt lat="43.66327" lon="1.37251">
        <ele>145</ele>
        <time>2024-03-14T18:18:00Z</time>
      </trkpt>
      <trkpt lat="43.66329" lon="1.37249">
        <ele>145</ele>
        <time>2024-03-14T18:18:01Z</time>
      </trkpt>
      <trkpt lat="43.66332" lon="1.37248">
        <ele>145</ele>
        <time>2024-03-14T18:18:02Z</time>
      </trkpt>
      <trkpt lat="43.66334" lon="1.37247">
        <ele>145</ele>
        <time>2024-03-14T18:18:03Z</time>
      </trkpt>
      <trkpt lat="43.66336" lon="1.37245">
        <ele>145</ele>
        <time>2024-03-14T18:18:04Z</time>
      </trkpt>
      <trkpt lat="43.66339" lon="1.37244">
        <ele>145</ele>
        <time>2024-03-14T18:18:05Z</time>
      </trkpt>
      <trkpt lat="43.66341" lon="1.37242">
        <ele>145</ele>
        <time>2024-03-14T18:18:06Z</time>
      </trkpt>
      <trkpt lat="43.66343" lon="1.37241">
        <ele>145</ele>
        <time>2024-03-14T18:18:07Z</time>
      </trkpt>
      <trkpt lat="43.66348" lon="1.37238">
        <ele>145</ele>
        <time>2024-03-14T18:18:08Z</time>
      </trkpt>
      <trkpt lat="43.66348" lon="1.37238">
        <ele>145</ele>
        <time>2024-03-14T18:18:09Z</time>
      </trkpt>
      <trkpt lat="43.6635" lon="1.37237">
        <ele>145</ele>
        <time>2024-03-14T18:18:10Z</time>
      </trkpt>
      <trkpt lat="43.66353" lon="1.37235">
        <ele>145</ele>
        <time>2024-03-14T18:18:11Z</time>
      </trkpt>
      <trkpt lat="43.66355" lon="1.37234">
        <ele>145</ele>
        <time>2024-03-14T18:18:12Z</time>
      </trkpt>
      <trkpt lat="43.66357" lon="1.37233">
        <ele>145</ele>
        <time>2024-03-14T18:18:13Z</time>
      </trkpt>
      <trkpt lat="43.6636" lon="1.37231">
        <ele>145</ele>
        <time>2024-03-14T18:18:14Z</time>
      </trkpt>
      <trkpt lat="43.66362" lon="1.3723">
        <ele>145</ele>
        <time>2024-03-14T18:18:15Z</time>
      </trkpt>
      <trkpt lat="43.66365" lon="1.37229">
        <ele>145</ele>
        <time>2024-03-14T18:18:16Z</time>
      </trkpt>
      <trkpt lat="43.66367" lon="1.37228">
        <ele>145</ele>
        <time>2024-03-14T18:18:17Z</time>
      </trkpt>
      <trkpt lat="43.6637" lon="1.37226">
        <ele>145</ele>
        <time>2024-03-14T18:18:18Z</time>
      </trkpt>
      <trkpt lat="43.66372" lon="1.37224">
        <ele>145</ele>
        <time>2024-03-14T18:18:19Z</time>
      </trkpt>
      <trkpt lat="43.66373" lon="1.37222">
        <ele>145</ele>
        <time>2024-03-14T18:18:20Z</time>
      </trkpt>
      <trkpt lat="43.66375" lon="1.37219">
        <ele>145</ele>
        <time>2024-03-14T18:18:21Z</time>
      </trkpt>
      <trkpt lat="43.66377" lon="1.37216">
        <ele>145</ele>
        <time>2024-03-14T18:18:22Z</time>
      </trkpt>
      <trkpt lat="43.66378" lon="1.37213">
        <ele>145</ele>
        <time>2024-03-14T18:18:23Z</time>
      </trkpt>
      <trkpt lat="43.6638" lon="1.3721">
        <ele>145</ele>
        <time>2024-03-14T18:18:24Z</time>
      </trkpt>
      <trkpt lat="43.66381" lon="1.37208">
        <ele>145</ele>
        <time>2024-03-14T18:18:25Z</time>
      </trkpt>
      <trkpt lat="43.66382" lon="1.37204">
        <ele>145</ele>
        <time>2024-03-14T18:18:26Z</time>
      </trkpt>
      <trkpt lat="43.66384" lon="1.37198">
        <ele>145</ele>
        <time>2024-03-14T18:18:27Z</time>
      </trkpt>
      <trkpt lat="43.66384" lon="1.37198">
        <ele>145</ele>
        <time>2024-03-14T18:18:28Z</time>
      </trkpt>
      <trkpt lat="43.66386" lon="1.37194">
        <ele>145</ele>
        <time>2024-03-14T18:18:29Z</time>
      </trkpt>
      <trkpt lat="43.66388" lon="1.37192">
        <ele>145</ele>
        <time>2024-03-14T18:18:30Z</time>
      </trkpt>
      <trkpt lat="43.6639" lon="1.37191">
        <ele>145</ele>
        <time>2024-03-14T18:18:31Z</time>
      </trkpt>
      <trkpt lat="43.66393" lon="1.37191">
        <ele>145</ele>
        <time>2024-03-14T18:18:32Z</time>
      </trkpt>
      <trkpt lat="43.66396" lon="1.3719">
        <ele>145</ele>
        <time>2024-03-14T18:18:33Z</time>
      </trkpt>
      <trkpt lat="43.66398" lon="1.37189">
        <ele>145</ele>
        <time>2024-03-14T18:18:34Z</time>
      </trkpt>
      <trkpt lat="43.66401" lon="1.37188">
        <ele>145</ele>
        <time>2024-03-14T18:18:35Z</time>
      </trkpt>
      <trkpt lat="43.66403" lon="1.37187">
        <ele>145</ele>
        <time>2024-03-14T18:18:36Z</time>
      </trkpt>
      <trkpt lat="43.66406" lon="1.37186">
        <ele>145</ele>
        <time>2024-03-14T18:18:37Z</time>
      </trkpt>
      <trkpt lat="43.66408" lon="1.37184">
        <ele>145</ele>
        <time>2024-03-14T18:18:38Z</time>
      </trkpt>
      <trkpt lat="43.6641" lon="1.37182">
        <ele>145</ele>
        <time>2024-03-14T18:18:39Z</time>
      </trkpt>
      <trkpt lat="43.66413" lon="1.3718">
        <ele>145</ele>
        <time>2024-03-14T18:18:40Z</time>
      </trkpt>
      <trkpt lat="43.66415" lon="1.37179">
        <ele>145</ele>
        <time>2024-03-14T18:18:41Z</time>
      </trkpt>
      <trkpt lat="43.66417" lon="1.37177">
        <ele>145</ele>
        <time>2024-03-14T18:18:42Z</time>
      </trkpt>
      <trkpt lat="43.66419" lon="1.37176">
        <ele>145</ele>
        <time>2024-03-14T18:18:43Z</time>
      </trkpt>
      <trkpt lat="43.66422" lon="1.37174">
        <ele>145</ele>
        <time>2024-03-14T18:18:44Z</time>
      </trkpt>
      <trkpt lat="43.66424" lon="1.37173">
        <ele>145</ele>
        <time>2024-03-14T18:18:45Z</time>
      </trkpt>
      <trkpt lat="43.66426" lon="1.37171">
        <ele>145</ele>
        <time>2024-03-14T18:18:46Z</time>
      </trkpt>
      <trkpt lat="43.66429" lon="1.3717">
        <ele>145</ele>
        <time>2024-03-14T18:18:47Z</time>
      </trkpt>
      <trkpt lat="43.66431" lon="1.37168">
        <ele>145</ele>
        <time>2024-03-14T18:18:48Z</time>
      </trkpt>
      <trkpt lat="43.66433" lon="1.37167">
        <ele>145</ele>
        <time>2024-03-14T18:18:49Z</time>
      </trkpt>
      <trkpt lat="43.66436" lon="1.37165">
        <ele>145</ele>
        <time>2024-03-14T18:18:50Z</time>
      </trkpt>
      <trkpt lat="43.66438" lon="1.37164">
        <ele>145</ele>
        <time>2024-03-14T18:18:51Z</time>
      </trkpt>
      <trkpt lat="43.6644" lon="1.37162">
        <ele>145</ele>
        <time>2024-03-14T18:18:52Z</time>
      </trkpt>
      <trkpt lat="43.66442" lon="1.3716">
        <ele>145</ele>
        <time>2024-03-14T18:18:53Z</time>
      </trkpt>
      <trkpt lat="43.66444" lon="1.37159">
        <ele>145</ele>
        <time>2024-03-14T18:18:54Z</time>
      </trkpt>
      <trkpt lat="43.66447" lon="1.37157">
        <ele>145</ele>
        <time>2024-03-14T18:18:55Z</time>
      </trkpt>
      <trkpt lat="43.66449" lon="1.37154">
        <ele>145</ele>
        <time>2024-03-14T18:18:56Z</time>
      </trkpt>
      <trkpt lat="43.66451" lon="1.37152">
        <ele>145</ele>
        <time>2024-03-14T18:18:57Z</time>
      </trkpt>
      <trkpt lat="43.66453" lon="1.37149">
        <ele>145</ele>
        <time>2024-03-14T18:18:58Z</time>
      </trkpt>
      <trkpt lat="43.66455" lon="1.37147">
        <ele>145</ele>
        <time>2024-03-14T18:18:59Z</time>
      </trkpt>
      <trkpt lat="43.66458" lon="1.37145">
        <ele>145</ele>
        <time>2024-03-14T18:19:00Z</time>
      </trkpt>
      <trkpt lat="43.6646" lon="1.37143">
        <ele>144</ele>
        <time>2024-03-14T18:19:01Z</time>
      </trkpt>
      <trkpt lat="43.66462" lon="1.37141">
        <ele>144</ele>
        <time>2024-03-14T18:19:02Z</time>
      </trkpt>
      <trkpt lat="43.66464" lon="1.37139">
        <ele>145</ele>
        <time>2024-03-14T18:19:03Z</time>
      </trkpt>
      <trkpt lat="43.66466" lon="1.37136">
        <ele>145</ele>
        <time>2024-03-14T18:19:04Z</time>
      </trkpt>
      <trkpt lat="43.6647" lon="1.37132">
        <ele>145</ele>
        <time>2024-03-14T18:19:05Z</time>
      </trkpt>
      <trkpt lat="43.6647" lon="1.37132">
        <ele>145</ele>
        <time>2024-03-14T18:19:06Z</time>
      </trkpt>
      <trkpt lat="43.66472" lon="1.37131">
        <ele>145</ele>
        <time>2024-03-14T18:19:07Z</time>
      </trkpt>
      <trkpt lat="43.66474" lon="1.37129">
        <ele>145</ele>
        <time>2024-03-14T18:19:08Z</time>
      </trkpt>
      <trkpt lat="43.66477" lon="1.37128">
        <ele>145</ele>
        <time>2024-03-14T18:19:09Z</time>
      </trkpt>
      <trkpt lat="43.66479" lon="1.37127">
        <ele>145</ele>
        <time>2024-03-14T18:19:10Z</time>
      </trkpt>
      <trkpt lat="43.66482" lon="1.37126">
        <ele>145</ele>
        <time>2024-03-14T18:19:11Z</time>
      </trkpt>
      <trkpt lat="43.66484" lon="1.37125">
        <ele>145</ele>
        <time>2024-03-14T18:19:12Z</time>
      </trkpt>
      <trkpt lat="43.66485" lon="1.37123">
        <ele>145</ele>
        <time>2024-03-14T18:19:13Z</time>
      </trkpt>
      <trkpt lat="43.66487" lon="1.37122">
        <ele>145</ele>
        <time>2024-03-14T18:19:14Z</time>
      </trkpt>
      <trkpt lat="43.66489" lon="1.37121">
        <ele>145</ele>
        <time>2024-03-14T18:19:15Z</time>
      </trkpt>
      <trkpt lat="43.66491" lon="1.3712">
        <ele>145</ele>
        <time>2024-03-14T18:19:16Z</time>
      </trkpt>
      <trkpt lat="43.66493" lon="1.37119">
        <ele>145</ele>
        <time>2024-03-14T18:19:17Z</time>
      </trkpt>
      <trkpt lat="43.66495" lon="1.37117">
        <ele>145</ele>
        <time>2024-03-14T18:19:18Z</time>
      </trkpt>
      <trkpt lat="43.66497" lon="1.37116">
        <ele>145</ele>
        <time>2024-03-14T18:19:19Z</time>
      </trkpt>
      <trkpt lat="43.665" lon="1.37115">
        <ele>145</ele>
        <time>2024-03-14T18:19:20Z</time>
      </trkpt>
      <trkpt lat="43.66503" lon="1.37115">
        <ele>145</ele>
        <time>2024-03-14T18:19:21Z</time>
      </trkpt>
      <trkpt lat="43.66505" lon="1.37113">
        <ele>145</ele>
        <time>2024-03-14T18:19:22Z</time>
      </trkpt>
      <trkpt lat="43.66507" lon="1.37112">
        <ele>145</ele>
        <time>2024-03-14T18:19:23Z</time>
      </trkpt>
      <trkpt lat="43.66511" lon="1.37109">
        <ele>145</ele>
        <time>2024-03-14T18:19:24Z</time>
      </trkpt>
      <trkpt lat="43.66511" lon="1.37109">
        <ele>145</ele>
        <time>2024-03-14T18:19:25Z</time>
      </trkpt>
      <trkpt lat="43.66512" lon="1.37107">
        <ele>145</ele>
        <time>2024-03-14T18:19:26Z</time>
      </trkpt>
      <trkpt lat="43.66515" lon="1.37106">
        <ele>145</ele>
        <time>2024-03-14T18:19:27Z</time>
      </trkpt>
      <trkpt lat="43.66516" lon="1.37104">
        <ele>145</ele>
        <time>2024-03-14T18:19:28Z</time>
      </trkpt>
      <trkpt lat="43.66518" lon="1.37103">
        <ele>145</ele>
        <time>2024-03-14T18:19:29Z</time>
      </trkpt>
      <trkpt lat="43.66521" lon="1.37101">
        <ele>145</ele>
        <time>2024-03-14T18:19:30Z</time>
      </trkpt>
      <trkpt lat="43.66523" lon="1.371">
        <ele>145</ele>
        <time>2024-03-14T18:19:31Z</time>
      </trkpt>
      <trkpt lat="43.66526" lon="1.37098">
        <ele>145</ele>
        <time>2024-03-14T18:19:32Z</time>
      </trkpt>
      <trkpt lat="43.66528" lon="1.37098">
        <ele>145</ele>
        <time>2024-03-14T18:19:33Z</time>
      </trkpt>
      <trkpt lat="43.66531" lon="1.37096">
        <ele>145</ele>
        <time>2024-03-14T18:19:34Z</time>
      </trkpt>
      <trkpt lat="43.66533" lon="1.37094">
        <ele>145</ele>
        <time>2024-03-14T18:19:35Z</time>
      </trkpt>
      <trkpt lat="43.66535" lon="1.37093">
        <ele>145</ele>
        <time>2024-03-14T18:19:36Z</time>
      </trkpt>
      <trkpt lat="43.66538" lon="1.37091">
        <ele>145</ele>
        <time>2024-03-14T18:19:37Z</time>
      </trkpt>
      <trkpt lat="43.6654" lon="1.37088">
        <ele>145</ele>
        <time>2024-03-14T18:19:38Z</time>
      </trkpt>
      <trkpt lat="43.66543" lon="1.37087">
        <ele>145</ele>
        <time>2024-03-14T18:19:39Z</time>
      </trkpt>
      <trkpt lat="43.66545" lon="1.37085">
        <ele>145</ele>
        <time>2024-03-14T18:19:40Z</time>
      </trkpt>
      <trkpt lat="43.66551" lon="1.37083">
        <ele>145</ele>
        <time>2024-03-14T18:19:41Z</time>
      </trkpt>
      <trkpt lat="43.66551" lon="1.37083">
        <ele>145</ele>
        <time>2024-03-14T18:19:42Z</time>
      </trkpt>
      <trkpt lat="43.66556" lon="1.37082">
        <ele>145</ele>
        <time>2024-03-14T18:19:43Z</time>
      </trkpt>
      <trkpt lat="43.66556" lon="1.37082">
        <ele>145</ele>
        <time>2024-03-14T18:19:44Z</time>
      </trkpt>
      <trkpt lat="43.66559" lon="1.37081">
        <ele>145</ele>
        <time>2024-03-14T18:19:45Z</time>
      </trkpt>
      <trkpt lat="43.66562" lon="1.3708">
        <ele>145</ele>
        <time>2024-03-14T18:19:46Z</time>
      </trkpt>
      <trkpt lat="43.66564" lon="1.3708">
        <ele>145</ele>
        <time>2024-03-14T18:19:47Z</time>
      </trkpt>
      <trkpt lat="43.66567" lon="1.37079">
        <ele>145</ele>
        <time>2024-03-14T18:19:48Z</time>
      </trkpt>
      <trkpt lat="43.6657" lon="1.37079">
        <ele>145</ele>
        <time>2024-03-14T18:19:49Z</time>
      </trkpt>
      <trkpt lat="43.66573" lon="1.37078">
        <ele>144</ele>
        <time>2024-03-14T18:19:50Z</time>
      </trkpt>
      <trkpt lat="43.66576" lon="1.37077">
        <ele>144</ele>
        <time>2024-03-14T18:19:51Z</time>
      </trkpt>
      <trkpt lat="43.66578" lon="1.37077">
        <ele>144</ele>
        <time>2024-03-14T18:19:52Z</time>
      </trkpt>
      <trkpt lat="43.66581" lon="1.37076">
        <ele>144</ele>
        <time>2024-03-14T18:19:53Z</time>
      </trkpt>
      <trkpt lat="43.66583" lon="1.37076">
        <ele>145</ele>
        <time>2024-03-14T18:19:54Z</time>
      </trkpt>
      <trkpt lat="43.66586" lon="1.37075">
        <ele>145</ele>
        <time>2024-03-14T18:19:55Z</time>
      </trkpt>
      <trkpt lat="43.66589" lon="1.37074">
        <ele>145</ele>
        <time>2024-03-14T18:19:56Z</time>
      </trkpt>
      <trkpt lat="43.66591" lon="1.37073">
        <ele>145</ele>
        <time>2024-03-14T18:19:57Z</time>
      </trkpt>
      <trkpt lat="43.66594" lon="1.37071">
        <ele>145</ele>
        <time>2024-03-14T18:19:58Z</time>
      </trkpt>
      <trkpt lat="43.66596" lon="1.3707">
        <ele>144</ele>
        <time>2024-03-14T18:19:59Z</time>
      </trkpt>
      <trkpt lat="43.66598" lon="1.37069">
        <ele>144</ele>
        <time>2024-03-14T18:20:00Z</time>
      </trkpt>
      <trkpt lat="43.66601" lon="1.37067">
        <ele>144</ele>
        <time>2024-03-14T18:20:01Z</time>
      </trkpt>
      <trkpt lat="43.66606" lon="1.37064">
        <ele>144</ele>
        <time>2024-03-14T18:20:02Z</time>
      </trkpt>
      <trkpt lat="43.66606" lon="1.37064">
        <ele>145</ele>
        <time>2024-03-14T18:20:03Z</time>
      </trkpt>
      <trkpt lat="43.66608" lon="1.37063">
        <ele>145</ele>
        <time>2024-03-14T18:20:04Z</time>
      </trkpt>
      <trkpt lat="43.6661" lon="1.37061">
        <ele>145</ele>
        <time>2024-03-14T18:20:05Z</time>
      </trkpt>
      <trkpt lat="43.66613" lon="1.37059">
        <ele>145</ele>
        <time>2024-03-14T18:20:06Z</time>
      </trkpt>
      <trkpt lat="43.66615" lon="1.37058">
        <ele>145</ele>
        <time>2024-03-14T18:20:07Z</time>
      </trkpt>
      <trkpt lat="43.66617" lon="1.37056">
        <ele>145</ele>
        <time>2024-03-14T18:20:08Z</time>
      </trkpt>
      <trkpt lat="43.6662" lon="1.37054">
        <ele>144</ele>
        <time>2024-03-14T18:20:09Z</time>
      </trkpt>
      <trkpt lat="43.66622" lon="1.37053">
        <ele>144</ele>
        <time>2024-03-14T18:20:10Z</time>
      </trkpt>
      <trkpt lat="43.66624" lon="1.37051">
        <ele>144</ele>
        <time>2024-03-14T18:20:11Z</time>
      </trkpt>
      <trkpt lat="43.66626" lon="1.3705">
        <ele>144</ele>
        <time>2024-03-14T18:20:12Z</time>
      </trkpt>
      <trkpt lat="43.66629" lon="1.37048">
        <ele>144</ele>
        <time>2024-03-14T18:20:13Z</time>
      </trkpt>
      <trkpt lat="43.66631" lon="1.37047">
        <ele>145</ele>
        <time>2024-03-14T18:20:14Z</time>
      </trkpt>
      <trkpt lat="43.66633" lon="1.37045">
        <ele>145</ele>
        <time>2024-03-14T18:20:15Z</time>
      </trkpt>
      <trkpt lat="43.66635" lon="1.37045">
        <ele>145</ele>
        <time>2024-03-14T18:20:16Z</time>
      </trkpt>
      <trkpt lat="43.66637" lon="1.37047">
        <ele>145</ele>
        <time>2024-03-14T18:20:17Z</time>
      </trkpt>
      <trkpt lat="43.66639" lon="1.37048">
        <ele>145</ele>
        <time>2024-03-14T18:20:18Z</time>
      </trkpt>
      <trkpt lat="43.66641" lon="1.37048">
        <ele>144</ele>
        <time>2024-03-14T18:20:19Z</time>
      </trkpt>
      <trkpt lat="43.66644" lon="1.37047">
        <ele>144</ele>
        <time>2024-03-14T18:20:20Z</time>
      </trkpt>
      <trkpt lat="43.66649" lon="1.37045">
        <ele>144</ele>
        <time>2024-03-14T18:20:21Z</time>
      </trkpt>
      <trkpt lat="43.66649" lon="1.37045">
        <ele>144</ele>
        <time>2024-03-14T18:20:22Z</time>
      </trkpt>
      <trkpt lat="43.66652" lon="1.37044">
        <ele>144</ele>
        <time>2024-03-14T18:20:23Z</time>
      </trkpt>
      <trkpt lat="43.66654" lon="1.37042">
        <ele>144</ele>
        <time>2024-03-14T18:20:24Z</time>
      </trkpt>
      <trkpt lat="43.66656" lon="1.3704">
        <ele>144</ele>
        <time>2024-03-14T18:20:25Z</time>
      </trkpt>
      <trkpt lat="43.66659" lon="1.37038">
        <ele>144</ele>
        <time>2024-03-14T18:20:26Z</time>
      </trkpt>
      <trkpt lat="43.66661" lon="1.37037">
        <ele>144</ele>
        <time>2024-03-14T18:20:27Z</time>
      </trkpt>
      <trkpt lat="43.66663" lon="1.37035">
        <ele>144</ele>
        <time>2024-03-14T18:20:28Z</time>
      </trkpt>
      <trkpt lat="43.66666" lon="1.37034">
        <ele>144</ele>
        <time>2024-03-14T18:20:29Z</time>
      </trkpt>
      <trkpt lat="43.66668" lon="1.37033">
        <ele>144</ele>
        <time>2024-03-14T18:20:30Z</time>
      </trkpt>
      <trkpt lat="43.6667" lon="1.37031">
        <ele>144</ele>
        <time>2024-03-14T18:20:31Z</time>
      </trkpt>
      <trkpt lat="43.66673" lon="1.3703">
        <ele>144</ele>
        <time>2024-03-14T18:20:32Z</time>
      </trkpt>
      <trkpt lat="43.66677" lon="1.37027">
        <ele>144</ele>
        <time>2024-03-14T18:20:33Z</time>
      </trkpt>
      <trkpt lat="43.66677" lon="1.37027">
        <ele>144</ele>
        <time>2024-03-14T18:20:34Z</time>
      </trkpt>
      <trkpt lat="43.66679" lon="1.37025">
        <ele>144</ele>
        <time>2024-03-14T18:20:35Z</time>
      </trkpt>
      <trkpt lat="43.66682" lon="1.37024">
        <ele>144</ele>
        <time>2024-03-14T18:20:36Z</time>
      </trkpt>
      <trkpt lat="43.66684" lon="1.37023">
        <ele>144</ele>
        <time>2024-03-14T18:20:37Z</time>
      </trkpt>
      <trkpt lat="43.66686" lon="1.37021">
        <ele>143</ele>
        <time>2024-03-14T18:20:38Z</time>
      </trkpt>
      <trkpt lat="43.66689" lon="1.37019">
        <ele>143</ele>
        <time>2024-03-14T18:20:39Z</time>
      </trkpt>
      <trkpt lat="43.6669" lon="1.37017">
        <ele>143</ele>
        <time>2024-03-14T18:20:40Z</time>
      </trkpt>
      <trkpt lat="43.66693" lon="1.37016">
        <ele>143</ele>
        <time>2024-03-14T18:20:41Z</time>
      </trkpt>
      <trkpt lat="43.66695" lon="1.37014">
        <ele>144</ele>
        <time>2024-03-14T18:20:42Z</time>
      </trkpt>
      <trkpt lat="43.66697" lon="1.37013">
        <ele>144</ele>
        <time>2024-03-14T18:20:43Z</time>
      </trkpt>
      <trkpt lat="43.66699" lon="1.37011">
        <ele>144</ele>
        <time>2024-03-14T18:20:44Z</time>
      </trkpt>
      <trkpt lat="43.66702" lon="1.3701">
        <ele>144</ele>
        <time>2024-03-14T18:20:45Z</time>
      </trkpt>
      <trkpt lat="43.66704" lon="1.37008">
        <ele>144</ele>
        <time>2024-03-14T18:20:46Z</time>
      </trkpt>
      <trkpt lat="43.66706" lon="1.37006">
        <ele>144</ele>
        <time>2024-03-14T18:20:47Z</time>
      </trkpt>
      <trkpt lat="43.66708" lon="1.37004">
        <ele>143</ele>
        <time>2024-03-14T18:20:48Z</time>
      </trkpt>
      <trkpt lat="43.66711" lon="1.37003">
        <ele>143</ele>
        <time>2024-03-14T18:20:49Z</time>
      </trkpt>
      <trkpt lat="43.66713" lon="1.37002">
        <ele>143</ele>
        <time>2024-03-14T18:20:50Z</time>
      </trkpt>
      <trkpt lat="43.66715" lon="1.37">
        <ele>143</ele>
        <time>2024-03-14T18:20:51Z</time>
      </trkpt>
      <trkpt lat="43.66718" lon="1.36998">
        <ele>143</ele>
        <time>2024-03-14T18:20:52Z</time>
      </trkpt>
      <trkpt lat="43.6672" lon="1.36997">
        <ele>143</ele>
        <time>2024-03-14T18:20:53Z</time>
      </trkpt>
      <trkpt lat="43.66722" lon="1.36995">
        <ele>143</ele>
        <time>2024-03-14T18:20:54Z</time>
      </trkpt>
      <trkpt lat="43.66724" lon="1.36993">
        <ele>143</ele>
        <time>2024-03-14T18:20:55Z</time>
      </trkpt>
      <trkpt lat="43.66726" lon="1.36991">
        <ele>144</ele>
        <time>2024-03-14T18:20:56Z</time>
      </trkpt>
      <trkpt lat="43.66728" lon="1.36989">
        <ele>144</ele>
        <time>2024-03-14T18:20:57Z</time>
      </trkpt>
      <trkpt lat="43.6673" lon="1.36987">
        <ele>144</ele>
        <time>2024-03-14T18:20:58Z</time>
      </trkpt>
      <trkpt lat="43.66733" lon="1.36985">
        <ele>144</ele>
        <time>2024-03-14T18:20:59Z</time>
      </trkpt>
      <trkpt lat="43.66735" lon="1.36982">
        <ele>144</ele>
        <time>2024-03-14T18:21:00Z</time>
      </trkpt>
      <trkpt lat="43.66737" lon="1.3698">
        <ele>144</ele>
        <time>2024-03-14T18:21:01Z</time>
      </trkpt>
      <trkpt lat="43.66739" lon="1.36979">
        <ele>144</ele>
        <time>2024-03-14T18:21:02Z</time>
      </trkpt>
      <trkpt lat="43.66742" lon="1.36977">
        <ele>144</ele>
        <time>2024-03-14T18:21:03Z</time>
      </trkpt>
      <trkpt lat="43.66744" lon="1.36976">
        <ele>144</ele>
        <time>2024-03-14T18:21:04Z</time>
      </trkpt>
      <trkpt lat="43.66747" lon="1.36975">
        <ele>144</ele>
        <time>2024-03-14T18:21:05Z</time>
      </trkpt>
      <trkpt lat="43.66749" lon="1.36974">
        <ele>144</ele>
        <time>2024-03-14T18:21:06Z</time>
      </trkpt>
      <trkpt lat="43.66751" lon="1.36973">
        <ele>144</ele>
        <time>2024-03-14T18:21:07Z</time>
      </trkpt>
      <trkpt lat="43.66753" lon="1.36971">
        <ele>144</ele>
        <time>2024-03-14T18:21:08Z</time>
      </trkpt>
      <trkpt lat="43.66755" lon="1.3697">
        <ele>144</ele>
        <time>2024-03-14T18:21:09Z</time>
      </trkpt>
      <trkpt lat="43.66757" lon="1.36969">
        <ele>144</ele>
        <time>2024-03-14T18:21:10Z</time>
      </trkpt>
      <trkpt lat="43.66759" lon="1.36967">
        <ele>144</ele>
        <time>2024-03-14T18:21:11Z</time>
      </trkpt>
      <trkpt lat="43.66761" lon="1.36965">
        <ele>144</ele>
        <time>2024-03-14T18:21:12Z</time>
      </trkpt>
      <trkpt lat="43.66764" lon="1.36964">
        <ele>144</ele>
        <time>2024-03-14T18:21:13Z</time>
      </trkpt>
      <trkpt lat="43.66766" lon="1.36962">
        <ele>144</ele>
        <time>2024-03-14T18:21:14Z</time>
      </trkpt>
      <trkpt lat="43.66769" lon="1.3696">
        <ele>144</ele>
        <time>2024-03-14T18:21:15Z</time>
      </trkpt>
      <trkpt lat="43.66771" lon="1.36959">
        <ele>144</ele>
        <time>2024-03-14T18:21:16Z</time>
      </trkpt>
      <trkpt lat="43.66773" lon="1.36957">
        <ele>144</ele>
        <time>2024-03-14T18:21:17Z</time>
      </trkpt>
      <trkpt lat="43.66775" lon="1.36956">
        <ele>145</ele>
        <time>2024-03-14T18:21:18Z</time>
      </trkpt>
      <trkpt lat="43.66778" lon="1.36954">
        <ele>145</ele>
        <time>2024-03-14T18:21:19Z</time>
      </trkpt>
      <trkpt lat="43.6678" lon="1.36953">
        <ele>145</ele>
        <time>2024-03-14T18:21:20Z</time>
      </trkpt>
      <trkpt lat="43.66782" lon="1.36951">
        <ele>145</ele>
        <time>2024-03-14T18:21:21Z</time>
      </trkpt>
      <trkpt lat="43.66785" lon="1.3695">
        <ele>145</ele>
        <time>2024-03-14T18:21:22Z</time>
      </trkpt>
      <trkpt lat="43.66787" lon="1.36948">
        <ele>145</ele>
        <time>2024-03-14T18:21:23Z</time>
      </trkpt>
      <trkpt lat="43.66789" lon="1.36946">
        <ele>145</ele>
        <time>2024-03-14T18:21:24Z</time>
      </trkpt>
      <trkpt lat="43.66792" lon="1.36945">
        <ele>145</ele>
        <time>2024-03-14T18:21:25Z</time>
      </trkpt>
      <trkpt lat="43.66794" lon="1.36944">
        <ele>145</ele>
        <time>2024-03-14T18:21:26Z</time>
      </trkpt>
      <trkpt lat="43.66797" lon="1.36942">
        <ele>145</ele>
        <time>2024-03-14T18:21:27Z</time>
      </trkpt>
      <trkpt lat="43.66799" lon="1.36941">
        <ele>145</ele>
        <time>2024-03-14T18:21:28Z</time>
      </trkpt>
      <trkpt lat="43.66801" lon="1.3694">
        <ele>145</ele>
        <time>2024-03-14T18:21:29Z</time>
      </trkpt>
      <trkpt lat="43.66804" lon="1.36938">
        <ele>144</ele>
        <time>2024-03-14T18:21:30Z</time>
      </trkpt>
      <trkpt lat="43.66806" lon="1.36937">
        <ele>144</ele>
        <time>2024-03-14T18:21:31Z</time>
      </trkpt>
      <trkpt lat="43.66808" lon="1.36935">
        <ele>144</ele>
        <time>2024-03-14T18:21:32Z</time>
      </trkpt>
      <trkpt lat="43.66811" lon="1.36934">
        <ele>144</ele>
        <time>2024-03-14T18:21:33Z</time>
      </trkpt>
      <trkpt lat="43.66813" lon="1.36932">
        <ele>144</ele>
        <time>2024-03-14T18:21:34Z</time>
      </trkpt>
      <trkpt lat="43.66816" lon="1.3693">
        <ele>145</ele>
        <time>2024-03-14T18:21:35Z</time>
      </trkpt>
      <trkpt lat="43.66818" lon="1.36929">
        <ele>145</ele>
        <time>2024-03-14T18:21:36Z</time>
      </trkpt>
      <trkpt lat="43.66823" lon="1.36927">
        <ele>145</ele>
        <time>2024-03-14T18:21:37Z</time>
      </trkpt>
      <trkpt lat="43.66823" lon="1.36927">
        <ele>145</ele>
        <time>2024-03-14T18:21:38Z</time>
      </trkpt>
      <trkpt lat="43.66825" lon="1.36925">
        <ele>145</ele>
        <time>2024-03-14T18:21:39Z</time>
      </trkpt>
      <trkpt lat="43.66827" lon="1.36924">
        <ele>145</ele>
        <time>2024-03-14T18:21:40Z</time>
      </trkpt>
      <trkpt lat="43.6683" lon="1.36923">
        <ele>145</ele>
        <time>2024-03-14T18:21:41Z</time>
      </trkpt>
      <trkpt lat="43.66832" lon="1.36921">
        <ele>145</ele>
        <time>2024-03-14T18:21:42Z</time>
      </trkpt>
      <trkpt lat="43.66834" lon="1.36919">
        <ele>145</ele>
        <time>2024-03-14T18:21:43Z</time>
      </trkpt>
      <trkpt lat="43.66836" lon="1.36918">
        <ele>144</ele>
        <time>2024-03-14T18:21:44Z</time>
      </trkpt>
      <trkpt lat="43.66839" lon="1.36916">
        <ele>144</ele>
        <time>2024-03-14T18:21:45Z</time>
      </trkpt>
      <trkpt lat="43.66842" lon="1.36914">
        <ele>144</ele>
        <time>2024-03-14T18:21:46Z</time>
      </trkpt>
      <trkpt lat="43.66844" lon="1.36912">
        <ele>144</ele>
        <time>2024-03-14T18:21:47Z</time>
      </trkpt>
      <trkpt lat="43.66847" lon="1.3691">
        <ele>144</ele>
        <time>2024-03-14T18:21:48Z</time>
      </trkpt>
      <trkpt lat="43.66849" lon="1.36908">
        <ele>144</ele>
        <time>2024-03-14T18:21:49Z</time>
      </trkpt>
      <trkpt lat="43.66851" lon="1.36906">
        <ele>144</ele>
        <time>2024-03-14T18:21:50Z</time>
      </trkpt>
      <trkpt lat="43.66854" lon="1.36904">
        <ele>144</ele>
        <time>2024-03-14T18:21:51Z</time>
      </trkpt>
      <trkpt lat="43.66856" lon="1.36903">
        <ele>145</ele>
        <time>2024-03-14T18:21:52Z</time>
      </trkpt>
      <trkpt lat="43.66858" lon="1.36901">
        <ele>145</ele>
        <time>2024-03-14T18:21:53Z</time>
      </trkpt>
      <trkpt lat="43.66861" lon="1.369">
        <ele>145</ele>
        <time>2024-03-14T18:21:54Z</time>
      </trkpt>
      <trkpt lat="43.66863" lon="1.36898">
        <ele>145</ele>
        <time>2024-03-14T18:21:55Z</time>
      </trkpt>
      <trkpt lat="43.66865" lon="1.36896">
        <ele>144</ele>
        <time>2024-03-14T18:21:56Z</time>
      </trkpt>
      <trkpt lat="43.66867" lon="1.36894">
        <ele>144</ele>
        <time>2024-03-14T18:21:57Z</time>
      </trkpt>
      <trkpt lat="43.66869" lon="1.36893">
        <ele>144</ele>
        <time>2024-03-14T18:21:58Z</time>
      </trkpt>
      <trkpt lat="43.66872" lon="1.36891">
        <ele>144</ele>
        <time>2024-03-14T18:21:59Z</time>
      </trkpt>
      <trkpt lat="43.66874" lon="1.3689">
        <ele>144</ele>
        <time>2024-03-14T18:22:00Z</time>
      </trkpt>
      <trkpt lat="43.66877" lon="1.36888">
        <ele>144</ele>
        <time>2024-03-14T18:22:01Z</time>
      </trkpt>
      <trkpt lat="43.66879" lon="1.36886">
        <ele>144</ele>
        <time>2024-03-14T18:22:02Z</time>
      </trkpt>
      <trkpt lat="43.66881" lon="1.36884">
        <ele>144</ele>
        <time>2024-03-14T18:22:03Z</time>
      </trkpt>
      <trkpt lat="43.66883" lon="1.36883">
        <ele>144</ele>
        <time>2024-03-14T18:22:04Z</time>
      </trkpt>
      <trkpt lat="43.66886" lon="1.36882">
        <ele>144</ele>
        <time>2024-03-14T18:22:05Z</time>
      </trkpt>
      <trkpt lat="43.66888" lon="1.3688">
        <ele>144</ele>
        <time>2024-03-14T18:22:06Z</time>
      </trkpt>
      <trkpt lat="43.6689" lon="1.36879">
        <ele>144</ele>
        <time>2024-03-14T18:22:07Z</time>
      </trkpt>
      <trkpt lat="43.66893" lon="1.36877">
        <ele>144</ele>
        <time>2024-03-14T18:22:08Z</time>
      </trkpt>
      <trkpt lat="43.66895" lon="1.36875">
        <ele>144</ele>
        <time>2024-03-14T18:22:09Z</time>
      </trkpt>
      <trkpt lat="43.66898" lon="1.36874">
        <ele>144</ele>
        <time>2024-03-14T18:22:10Z</time>
      </trkpt>
      <trkpt lat="43.669" lon="1.36872">
        <ele>144</ele>
        <time>2024-03-14T18:22:11Z</time>
      </trkpt>
      <trkpt lat="43.66902" lon="1.3687">
        <ele>144</ele>
        <time>2024-03-14T18:22:12Z</time>
      </trkpt>
      <trkpt lat="43.66904" lon="1.36868">
        <ele>145</ele>
        <time>2024-03-14T18:22:13Z</time>
      </trkpt>
      <trkpt lat="43.66906" lon="1.36866">
        <ele>145</ele>
        <time>2024-03-14T18:22:14Z</time>
      </trkpt>
      <trkpt lat="43.66909" lon="1.36865">
        <ele>144</ele>
        <time>2024-03-14T18:22:15Z</time>
      </trkpt>
      <trkpt lat="43.66911" lon="1.36864">
        <ele>144</ele>
        <time>2024-03-14T18:22:16Z</time>
      </trkpt>
      <trkpt lat="43.66913" lon="1.36862">
        <ele>144</ele>
        <time>2024-03-14T18:22:17Z</time>
      </trkpt>
      <trkpt lat="43.66915" lon="1.3686">
        <ele>145</ele>
        <time>2024-03-14T18:22:18Z</time>
      </trkpt>
      <trkpt lat="43.66918" lon="1.36858">
        <ele>145</ele>
        <time>2024-03-14T18:22:19Z</time>
      </trkpt>
      <trkpt lat="43.6692" lon="1.36856">
        <ele>145</ele>
        <time>2024-03-14T18:22:20Z</time>
      </trkpt>
      <trkpt lat="43.66922" lon="1.36855">
        <ele>145</ele>
        <time>2024-03-14T18:22:21Z</time>
      </trkpt>
      <trkpt lat="43.66925" lon="1.36853">
        <ele>145</ele>
        <time>2024-03-14T18:22:22Z</time>
      </trkpt>
      <trkpt lat="43.66929" lon="1.3685">
        <ele>145</ele>
        <time>2024-03-14T18:22:23Z</time>
      </trkpt>
      <trkpt lat="43.66929" lon="1.3685">
        <ele>145</ele>
        <time>2024-03-14T18:22:24Z</time>
      </trkpt>
      <trkpt lat="43.66931" lon="1.36848">
        <ele>145</ele>
        <time>2024-03-14T18:22:25Z</time>
      </trkpt>
      <trkpt lat="43.66934" lon="1.36847">
        <ele>145</ele>
        <time>2024-03-14T18:22:26Z</time>
      </trkpt>
      <trkpt lat="43.66936" lon="1.36846">
        <ele>145</ele>
        <time>2024-03-14T18:22:27Z</time>
      </trkpt>
      <trkpt lat="43.66938" lon="1.36845">
        <ele>145</ele>
        <time>2024-03-14T18:22:28Z</time>
      </trkpt>
      <trkpt lat="43.66941" lon="1.36843">
        <ele>144</ele>
        <time>2024-03-14T18:22:29Z</time>
      </trkpt>
      <trkpt lat="43.66943" lon="1.36841">
        <ele>144</ele>
        <time>2024-03-14T18:22:30Z</time>
      </trkpt>
      <trkpt lat="43.66945" lon="1.36839">
        <ele>144</ele>
        <time>2024-03-14T18:22:31Z</time>
      </trkpt>
      <trkpt lat="43.66948" lon="1.36837">
        <ele>144</ele>
        <time>2024-03-14T18:22:32Z</time>
      </trkpt>
      <trkpt lat="43.6695" lon="1.36835">
        <ele>144</ele>
        <time>2024-03-14T18:22:33Z</time>
      </trkpt>
      <trkpt lat="43.66955" lon="1.36832">
        <ele>144</ele>
        <time>2024-03-14T18:22:34Z</time>
      </trkpt>
      <trkpt lat="43.66955" lon="1.36832">
        <ele>144</ele>
        <time>2024-03-14T18:22:35Z</time>
      </trkpt>
      <trkpt lat="43.66957" lon="1.3683">
        <ele>144</ele>
        <time>2024-03-14T18:22:36Z</time>
      </trkpt>
      <trkpt lat="43.6696" lon="1.36829">
        <ele>144</ele>
        <time>2024-03-14T18:22:37Z</time>
      </trkpt>
      <trkpt lat="43.66962" lon="1.36828">
        <ele>145</ele>
        <time>2024-03-14T18:22:38Z</time>
      </trkpt>
      <trkpt lat="43.66964" lon="1.36827">
        <ele>145</ele>
        <time>2024-03-14T18:22:39Z</time>
      </trkpt>
      <trkpt lat="43.66967" lon="1.36825">
        <ele>145</ele>
        <time>2024-03-14T18:22:40Z</time>
      </trkpt>
      <trkpt lat="43.66969" lon="1.36824">
        <ele>145</ele>
        <time>2024-03-14T18:22:41Z</time>
      </trkpt>
      <trkpt lat="43.66971" lon="1.36823">
        <ele>144</ele>
        <time>2024-03-14T18:22:42Z</time>
      </trkpt>
      <trkpt lat="43.66974" lon="1.36821">
        <ele>144</ele>
        <time>2024-03-14T18:22:43Z</time>
      </trkpt>
      <trkpt lat="43.66976" lon="1.3682">
        <ele>144</ele>
        <time>2024-03-14T18:22:44Z</time>
      </trkpt>
      <trkpt lat="43.66978" lon="1.3682">
        <ele>144</ele>
        <time>2024-03-14T18:22:45Z</time>
      </trkpt>
      <trkpt lat="43.6698" lon="1.3682">
        <ele>144</ele>
        <time>2024-03-14T18:22:46Z</time>
      </trkpt>
      <trkpt lat="43.66983" lon="1.3682">
        <ele>144</ele>
        <time>2024-03-14T18:22:47Z</time>
      </trkpt>
      <trkpt lat="43.66984" lon="1.36821">
        <ele>144</ele>
        <time>2024-03-14T18:22:48Z</time>
      </trkpt>
      <trkpt lat="43.66986" lon="1.36822">
        <ele>144</ele>
        <time>2024-03-14T18:22:49Z</time>
      </trkpt>
      <trkpt lat="43.66989" lon="1.36823">
        <ele>144</ele>
        <time>2024-03-14T18:22:50Z</time>
      </trkpt>
      <trkpt lat="43.66992" lon="1.36822">
        <ele>144</ele>
        <time>2024-03-14T18:22:51Z</time>
      </trkpt>
      <trkpt lat="43.66994" lon="1.36822">
        <ele>144</ele>
        <time>2024-03-14T18:22:52Z</time>
      </trkpt>
      <trkpt lat="43.66998" lon="1.36817">
        <ele>144</ele>
        <time>2024-03-14T18:22:53Z</time>
      </trkpt>
      <trkpt lat="43.66998" lon="1.36817">
        <ele>144</ele>
        <time>2024-03-14T18:22:54Z</time>
      </trkpt>
      <trkpt lat="43.66999" lon="1.36814">
        <ele>144</ele>
        <time>2024-03-14T18:22:55Z</time>
      </trkpt>
      <trkpt lat="43.67001" lon="1.36811">
        <ele>144</ele>
        <time>2024-03-14T18:22:56Z</time>
      </trkpt>
      <trkpt lat="43.67002" lon="1.36808">
        <ele>144</ele>
        <time>2024-03-14T18:22:57Z</time>
      </trkpt>
      <trkpt lat="43.67004" lon="1.36805">
        <ele>144</ele>
        <time>2024-03-14T18:22:58Z</time>
      </trkpt>
      <trkpt lat="43.67005" lon="1.36802">
        <ele>144</ele>
        <time>2024-03-14T18:22:59Z</time>
      </trkpt>
      <trkpt lat="43.67007" lon="1.36799">
        <ele>144</ele>
        <time>2024-03-14T18:23:00Z</time>
      </trkpt>
      <trkpt lat="43.67009" lon="1.36796">
        <ele>144</ele>
        <time>2024-03-14T18:23:01Z</time>
      </trkpt>
      <trkpt lat="43.67011" lon="1.36793">
        <ele>144</ele>
        <time>2024-03-14T18:23:02Z</time>
      </trkpt>
      <trkpt lat="43.67013" lon="1.36791">
        <ele>144</ele>
        <time>2024-03-14T18:23:03Z</time>
      </trkpt>
      <trkpt lat="43.67015" lon="1.36789">
        <ele>144</ele>
        <time>2024-03-14T18:23:04Z</time>
      </trkpt>
      <trkpt lat="43.67018" lon="1.36788">
        <ele>143</ele>
        <time>2024-03-14T18:23:05Z</time>
      </trkpt>
      <trkpt lat="43.6702" lon="1.36786">
        <ele>143</ele>
        <time>2024-03-14T18:23:06Z</time>
      </trkpt>
      <trkpt lat="43.67022" lon="1.36785">
        <ele>143</ele>
        <time>2024-03-14T18:23:07Z</time>
      </trkpt>
      <trkpt lat="43.67025" lon="1.36783">
        <ele>143</ele>
        <time>2024-03-14T18:23:08Z</time>
      </trkpt>
      <trkpt lat="43.67027" lon="1.36781">
        <ele>143</ele>
        <time>2024-03-14T18:23:09Z</time>
      </trkpt>
      <trkpt lat="43.6703" lon="1.3678">
        <ele>143</ele>
        <time>2024-03-14T18:23:10Z</time>
      </trkpt>
      <trkpt lat="43.67032" lon="1.36778">
        <ele>143</ele>
        <time>2024-03-14T18:23:11Z</time>
      </trkpt>
      <trkpt lat="43.67036" lon="1.36775">
        <ele>143</ele>
        <time>2024-03-14T18:23:12Z</time>
      </trkpt>
      <trkpt lat="43.67036" lon="1.36775">
        <ele>143</ele>
        <time>2024-03-14T18:23:13Z</time>
      </trkpt>
      <trkpt lat="43.67039" lon="1.36773">
        <ele>143</ele>
        <time>2024-03-14T18:23:14Z</time>
      </trkpt>
      <trkpt lat="43.67042" lon="1.36771">
        <ele>143</ele>
        <time>2024-03-14T18:23:15Z</time>
      </trkpt>
      <trkpt lat="43.67044" lon="1.3677">
        <ele>143</ele>
        <time>2024-03-14T18:23:16Z</time>
      </trkpt>
      <trkpt lat="43.67046" lon="1.36768">
        <ele>143</ele>
        <time>2024-03-14T18:23:17Z</time>
      </trkpt>
      <trkpt lat="43.67049" lon="1.36766">
        <ele>143</ele>
        <time>2024-03-14T18:23:18Z</time>
      </trkpt>
      <trkpt lat="43.67051" lon="1.36765">
        <ele>143</ele>
        <time>2024-03-14T18:23:19Z</time>
      </trkpt>
      <trkpt lat="43.67054" lon="1.36763">
        <ele>143</ele>
        <time>2024-03-14T18:23:20Z</time>
      </trkpt>
      <trkpt lat="43.67056" lon="1.36762">
        <ele>143</ele>
        <time>2024-03-14T18:23:21Z</time>
      </trkpt>
      <trkpt lat="43.67058" lon="1.36759">
        <ele>143</ele>
        <time>2024-03-14T18:23:22Z</time>
      </trkpt>
      <trkpt lat="43.67061" lon="1.36758">
        <ele>143</ele>
        <time>2024-03-14T18:23:23Z</time>
      </trkpt>
      <trkpt lat="43.67063" lon="1.36756">
        <ele>143</ele>
        <time>2024-03-14T18:23:24Z</time>
      </trkpt>
      <trkpt lat="43.67066" lon="1.36754">
        <ele>143</ele>
        <time>2024-03-14T18:23:25Z</time>
      </trkpt>
      <trkpt lat="43.67068" lon="1.36752">
        <ele>143</ele>
        <time>2024-03-14T18:23:26Z</time>
      </trkpt>
      <trkpt lat="43.6707" lon="1.36751">
        <ele>143</ele>
        <time>2024-03-14T18:23:27Z</time>
      </trkpt>
      <trkpt lat="43.67073" lon="1.36749">
        <ele>143</ele>
        <time>2024-03-14T18:23:28Z</time>
      </trkpt>
      <trkpt lat="43.67075" lon="1.36747">
        <ele>143</ele>
        <time>2024-03-14T18:23:29Z</time>
      </trkpt>
      <trkpt lat="43.67078" lon="1.36746">
        <ele>143</ele>
        <time>2024-03-14T18:23:30Z</time>
      </trkpt>
      <trkpt lat="43.6708" lon="1.36744">
        <ele>143</ele>
        <time>2024-03-14T18:23:31Z</time>
      </trkpt>
      <trkpt lat="43.67082" lon="1.36742">
        <ele>143</ele>
        <time>2024-03-14T18:23:32Z</time>
      </trkpt>
      <trkpt lat="43.67085" lon="1.3674">
        <ele>143</ele>
        <time>2024-03-14T18:23:33Z</time>
      </trkpt>
      <trkpt lat="43.67087" lon="1.36738">
        <ele>143</ele>
        <time>2024-03-14T18:23:34Z</time>
      </trkpt>
      <trkpt lat="43.67089" lon="1.36736">
        <ele>143</ele>
        <time>2024-03-14T18:23:35Z</time>
      </trkpt>
      <trkpt lat="43.67091" lon="1.36735">
        <ele>143</ele>
        <time>2024-03-14T18:23:36Z</time>
      </trkpt>
      <trkpt lat="43.67094" lon="1.36733">
        <ele>143</ele>
        <time>2024-03-14T18:23:37Z</time>
      </trkpt>
      <trkpt lat="43.67096" lon="1.36731">
        <ele>142</ele>
        <time>2024-03-14T18:23:38Z</time>
      </trkpt>
      <trkpt lat="43.67099" lon="1.36729">
        <ele>142</ele>
        <time>2024-03-14T18:23:39Z</time>
      </trkpt>
      <trkpt lat="43.67101" lon="1.36727">
        <ele>142</ele>
        <time>2024-03-14T18:23:40Z</time>
      </trkpt>
      <trkpt lat="43.67104" lon="1.36725">
        <ele>142</ele>
        <time>2024-03-14T18:23:41Z</time>
      </trkpt>
      <trkpt lat="43.67106" lon="1.36724">
        <ele>142</ele>
        <time>2024-03-14T18:23:42Z</time>
      </trkpt>
      <trkpt lat="43.67109" lon="1.36722">
        <ele>142</ele>
        <time>2024-03-14T18:23:43Z</time>
      </trkpt>
      <trkpt lat="43.67111" lon="1.3672">
        <ele>142</ele>
        <time>2024-03-14T18:23:44Z</time>
      </trkpt>
      <trkpt lat="43.67113" lon="1.36718">
        <ele>143</ele>
        <time>2024-03-14T18:23:45Z</time>
      </trkpt>
      <trkpt lat="43.67118" lon="1.36715">
        <ele>143</ele>
        <time>2024-03-14T18:23:46Z</time>
      </trkpt>
      <trkpt lat="43.67118" lon="1.36715">
        <ele>143</ele>
        <time>2024-03-14T18:23:47Z</time>
      </trkpt>
      <trkpt lat="43.67121" lon="1.36714">
        <ele>143</ele>
        <time>2024-03-14T18:23:48Z</time>
      </trkpt>
      <trkpt lat="43.67123" lon="1.36712">
        <ele>143</ele>
        <time>2024-03-14T18:23:49Z</time>
      </trkpt>
      <trkpt lat="43.67125" lon="1.3671">
        <ele>143</ele>
        <time>2024-03-14T18:23:50Z</time>
      </trkpt>
      <trkpt lat="43.67128" lon="1.36708">
        <ele>143</ele>
        <time>2024-03-14T18:23:51Z</time>
      </trkpt>
      <trkpt lat="43.6713" lon="1.36707">
        <ele>142</ele>
        <time>2024-03-14T18:23:52Z</time>
      </trkpt>
      <trkpt lat="43.67133" lon="1.36706">
        <ele>142</ele>
        <time>2024-03-14T18:23:53Z</time>
      </trkpt>
      <trkpt lat="43.67136" lon="1.36707">
        <ele>142</ele>
        <time>2024-03-14T18:23:54Z</time>
      </trkpt>
      <trkpt lat="43.67139" lon="1.36707">
        <ele>142</ele>
        <time>2024-03-14T18:23:55Z</time>
      </trkpt>
      <trkpt lat="43.67141" lon="1.36707">
        <ele>142</ele>
        <time>2024-03-14T18:23:56Z</time>
      </trkpt>
      <trkpt lat="43.67144" lon="1.36707">
        <ele>142</ele>
        <time>2024-03-14T18:23:57Z</time>
      </trkpt>
      <trkpt lat="43.67147" lon="1.36706">
        <ele>142</ele>
        <time>2024-03-14T18:23:58Z</time>
      </trkpt>
      <trkpt lat="43.6715" lon="1.36706">
        <ele>142</ele>
        <time>2024-03-14T18:23:59Z</time>
      </trkpt>
      <trkpt lat="43.67152" lon="1.36706">
        <ele>142</ele>
        <time>2024-03-14T18:24:00Z</time>
      </trkpt>
      <trkpt lat="43.67155" lon="1.36707">
        <ele>142</ele>
        <time>2024-03-14T18:24:01Z</time>
      </trkpt>
      <trkpt lat="43.67157" lon="1.36707">
        <ele>142</ele>
        <time>2024-03-14T18:24:02Z</time>
      </trkpt>
      <trkpt lat="43.6716" lon="1.36707">
        <ele>142</ele>
        <time>2024-03-14T18:24:03Z</time>
      </trkpt>
      <trkpt lat="43.67163" lon="1.36709">
        <ele>142</ele>
        <time>2024-03-14T18:24:04Z</time>
      </trkpt>
      <trkpt lat="43.67165" lon="1.3671">
        <ele>142</ele>
        <time>2024-03-14T18:24:05Z</time>
      </trkpt>
      <trkpt lat="43.67168" lon="1.36711">
        <ele>142</ele>
        <time>2024-03-14T18:24:06Z</time>
      </trkpt>
      <trkpt lat="43.67171" lon="1.36712">
        <ele>142</ele>
        <time>2024-03-14T18:24:07Z</time>
      </trkpt>
      <trkpt lat="43.67174" lon="1.36714">
        <ele>142</ele>
        <time>2024-03-14T18:24:08Z</time>
      </trkpt>
      <trkpt lat="43.67179" lon="1.36716">
        <ele>142</ele>
        <time>2024-03-14T18:24:09Z</time>
      </trkpt>
      <trkpt lat="43.67179" lon="1.36716">
        <ele>142</ele>
        <time>2024-03-14T18:24:10Z</time>
      </trkpt>
      <trkpt lat="43.67182" lon="1.36717">
        <ele>142</ele>
        <time>2024-03-14T18:24:11Z</time>
      </trkpt>
      <trkpt lat="43.67184" lon="1.36719">
        <ele>142</ele>
        <time>2024-03-14T18:24:12Z</time>
      </trkpt>
      <trkpt lat="43.67187" lon="1.3672">
        <ele>142</ele>
        <time>2024-03-14T18:24:13Z</time>
      </trkpt>
      <trkpt lat="43.67189" lon="1.36721">
        <ele>142</ele>
        <time>2024-03-14T18:24:14Z</time>
      </trkpt>
      <trkpt lat="43.67192" lon="1.36721">
        <ele>142</ele>
        <time>2024-03-14T18:24:15Z</time>
      </trkpt>
      <trkpt lat="43.67195" lon="1.36722">
        <ele>142</ele>
        <time>2024-03-14T18:24:16Z</time>
      </trkpt>
      <trkpt lat="43.67197" lon="1.36723">
        <ele>142</ele>
        <time>2024-03-14T18:24:17Z</time>
      </trkpt>
      <trkpt lat="43.67199" lon="1.36724">
        <ele>142</ele>
        <time>2024-03-14T18:24:18Z</time>
      </trkpt>
      <trkpt lat="43.67202" lon="1.36725">
        <ele>142</ele>
        <time>2024-03-14T18:24:19Z</time>
      </trkpt>
      <trkpt lat="43.67205" lon="1.36726">
        <ele>142</ele>
        <time>2024-03-14T18:24:20Z</time>
      </trkpt>
      <trkpt lat="43.67208" lon="1.36727">
        <ele>142</ele>
        <time>2024-03-14T18:24:21Z</time>
      </trkpt>
      <trkpt lat="43.6721" lon="1.36728">
        <ele>142</ele>
        <time>2024-03-14T18:24:22Z</time>
      </trkpt>
      <trkpt lat="43.67213" lon="1.36729">
        <ele>142</ele>
        <time>2024-03-14T18:24:23Z</time>
      </trkpt>
      <trkpt lat="43.67216" lon="1.36731">
        <ele>142</ele>
        <time>2024-03-14T18:24:24Z</time>
      </trkpt>
      <trkpt lat="43.67218" lon="1.36732">
        <ele>142</ele>
        <time>2024-03-14T18:24:25Z</time>
      </trkpt>
      <trkpt lat="43.67221" lon="1.36733">
        <ele>141</ele>
        <time>2024-03-14T18:24:26Z</time>
      </trkpt>
      <trkpt lat="43.67224" lon="1.36734">
        <ele>141</ele>
        <time>2024-03-14T18:24:27Z</time>
      </trkpt>
      <trkpt lat="43.67226" lon="1.36735">
        <ele>142</ele>
        <time>2024-03-14T18:24:28Z</time>
      </trkpt>
      <trkpt lat="43.67229" lon="1.36737">
        <ele>142</ele>
        <time>2024-03-14T18:24:29Z</time>
      </trkpt>
      <trkpt lat="43.67231" lon="1.36738">
        <ele>142</ele>
        <time>2024-03-14T18:24:30Z</time>
      </trkpt>
      <trkpt lat="43.67233" lon="1.36739">
        <ele>142</ele>
        <time>2024-03-14T18:24:31Z</time>
      </trkpt>
      <trkpt lat="43.67236" lon="1.3674">
        <ele>142</ele>
        <time>2024-03-14T18:24:32Z</time>
      </trkpt>
      <trkpt lat="43.67238" lon="1.36741">
        <ele>142</ele>
        <time>2024-03-14T18:24:33Z</time>
      </trkpt>
      <trkpt lat="43.67241" lon="1.36742">
        <ele>142</ele>
        <time>2024-03-14T18:24:34Z</time>
      </trkpt>
      <trkpt lat="43.67244" lon="1.36743">
        <ele>142</ele>
        <time>2024-03-14T18:24:35Z</time>
      </trkpt>
      <trkpt lat="43.67246" lon="1.36744">
        <ele>142</ele>
        <time>2024-03-14T18:24:36Z</time>
      </trkpt>
      <trkpt lat="43.67249" lon="1.36746">
        <ele>142</ele>
        <time>2024-03-14T18:24:37Z</time>
      </trkpt>
      <trkpt lat="43.67251" lon="1.36747">
        <ele>142</ele>
        <time>2024-03-14T18:24:38Z</time>
      </trkpt>
      <trkpt lat="43.67254" lon="1.36748">
        <ele>142</ele>
        <time>2024-03-14T18:24:39Z</time>
      </trkpt>
      <trkpt lat="43.67257" lon="1.36749">
        <ele>142</ele>
        <time>2024-03-14T18:24:40Z</time>
      </trkpt>
      <trkpt lat="43.67259" lon="1.3675">
        <ele>142</ele>
        <time>2024-03-14T18:24:41Z</time>
      </trkpt>
      <trkpt lat="43.67262" lon="1.36751">
        <ele>141</ele>
        <time>2024-03-14T18:24:42Z</time>
      </trkpt>
      <trkpt lat="43.67264" lon="1.36752">
        <ele>141</ele>
        <time>2024-03-14T18:24:43Z</time>
      </trkpt>
      <trkpt lat="43.67267" lon="1.36754">
        <ele>141</ele>
        <time>2024-03-14T18:24:44Z</time>
      </trkpt>
      <trkpt lat="43.6727" lon="1.36755">
        <ele>141</ele>
        <time>2024-03-14T18:24:45Z</time>
      </trkpt>
      <trkpt lat="43.67272" lon="1.36756">
        <ele>141</ele>
        <time>2024-03-14T18:24:46Z</time>
      </trkpt>
      <trkpt lat="43.67275" lon="1.36758">
        <ele>141</ele>
        <time>2024-03-14T18:24:47Z</time>
      </trkpt>
      <trkpt lat="43.67277" lon="1.36759">
        <ele>141</ele>
        <time>2024-03-14T18:24:48Z</time>
      </trkpt>
      <trkpt lat="43.6728" lon="1.36761">
        <ele>141</ele>
        <time>2024-03-14T18:24:49Z</time>
      </trkpt>
      <trkpt lat="43.67282" lon="1.36763">
        <ele>141</ele>
        <time>2024-03-14T18:24:50Z</time>
      </trkpt>
      <trkpt lat="43.67284" lon="1.36764">
        <ele>141</ele>
        <time>2024-03-14T18:24:51Z</time>
      </trkpt>
      <trkpt lat="43.67287" lon="1.36765">
        <ele>141</ele>
        <time>2024-03-14T18:24:52Z</time>
      </trkpt>
      <trkpt lat="43.67289" lon="1.36766">
        <ele>141</ele>
        <time>2024-03-14T18:24:53Z</time>
      </trkpt>
      <trkpt lat="43.67292" lon="1.36767">
        <ele>141</ele>
        <time>2024-03-14T18:24:54Z</time>
      </trkpt>
      <trkpt lat="43.67295" lon="1.36767">
        <ele>141</ele>
        <time>2024-03-14T18:24:55Z</time>
      </trkpt>
      <trkpt lat="43.67298" lon="1.36767">
        <ele>141</ele>
        <time>2024-03-14T18:24:56Z</time>
      </trkpt>
      <trkpt lat="43.673" lon="1.36767">
        <ele>141</ele>
        <time>2024-03-14T18:24:57Z</time>
      </trkpt>
      <trkpt lat="43.67303" lon="1.36768">
        <ele>141</ele>
        <time>2024-03-14T18:24:58Z</time>
      </trkpt>
      <trkpt lat="43.67305" lon="1.36769">
        <ele>141</ele>
        <time>2024-03-14T18:24:59Z</time>
      </trkpt>
      <trkpt lat="43.67307" lon="1.3677">
        <ele>141</ele>
        <time>2024-03-14T18:25:00Z</time>
      </trkpt>
      <trkpt lat="43.6731" lon="1.36771">
        <ele>141</ele>
        <time>2024-03-14T18:25:01Z</time>
      </trkpt>
      <trkpt lat="43.67313" lon="1.36772">
        <ele>141</ele>
        <time>2024-03-14T18:25:02Z</time>
      </trkpt>
      <trkpt lat="43.67315" lon="1.36774">
        <ele>141</ele>
        <time>2024-03-14T18:25:03Z</time>
      </trkpt>
      <trkpt lat="43.67317" lon="1.36775">
        <ele>141</ele>
        <time>2024-03-14T18:25:04Z</time>
      </trkpt>
      <trkpt lat="43.6732" lon="1.36777">
        <ele>141</ele>
        <time>2024-03-14T18:25:05Z</time>
      </trkpt>
      <trkpt lat="43.67322" lon="1.36779">
        <ele>141</ele>
        <time>2024-03-14T18:25:06Z</time>
      </trkpt>
      <trkpt lat="43.67324" lon="1.36781">
        <ele>141</ele>
        <time>2024-03-14T18:25:07Z</time>
      </trkpt>
      <trkpt lat="43.67327" lon="1.36783">
        <ele>141</ele>
        <time>2024-03-14T18:25:08Z</time>
      </trkpt>
      <trkpt lat="43.67329" lon="1.36785">
        <ele>141</ele>
        <time>2024-03-14T18:25:09Z</time>
      </trkpt>
      <trkpt lat="43.67332" lon="1.36786">
        <ele>141</ele>
        <time>2024-03-14T18:25:10Z</time>
      </trkpt>
      <trkpt lat="43.67334" lon="1.36787">
        <ele>141</ele>
        <time>2024-03-14T18:25:11Z</time>
      </trkpt>
      <trkpt lat="43.67336" lon="1.36788">
        <ele>141</ele>
        <time>2024-03-14T18:25:12Z</time>
      </trkpt>
      <trkpt lat="43.67339" lon="1.36789">
        <ele>141</ele>
        <time>2024-03-14T18:25:13Z</time>
      </trkpt>
      <trkpt lat="43.67341" lon="1.3679">
        <ele>141</ele>
        <time>2024-03-14T18:25:14Z</time>
      </trkpt>
      <trkpt lat="43.67344" lon="1.36791">
        <ele>141</ele>
        <time>2024-03-14T18:25:15Z</time>
      </trkpt>
      <trkpt lat="43.67346" lon="1.36792">
        <ele>141</ele>
        <time>2024-03-14T18:25:16Z</time>
      </trkpt>
      <trkpt lat="43.67349" lon="1.36793">
        <ele>141</ele>
        <time>2024-03-14T18:25:17Z</time>
      </trkpt>
      <trkpt lat="43.67351" lon="1.36794">
        <ele>141</ele>
        <time>2024-03-14T18:25:18Z</time>
      </trkpt>
      <trkpt lat="43.67354" lon="1.36795">
        <ele>141</ele>
        <time>2024-03-14T18:25:19Z</time>
      </trkpt>
      <trkpt lat="43.67356" lon="1.36796">
        <ele>141</ele>
        <time>2024-03-14T18:25:20Z</time>
      </trkpt>
      <trkpt lat="43.67359" lon="1.36797">
        <ele>141</ele>
        <time>2024-03-14T18:25:21Z</time>
      </trkpt>
      <trkpt lat="43.67364" lon="1.36799">
        <ele>141</ele>
        <time>2024-03-14T18:25:22Z</time>
      </trkpt>
      <trkpt lat="43.67364" lon="1.36799">
        <ele>141</ele>
        <time>2024-03-14T18:25:23Z</time>
      </trkpt>
      <trkpt lat="43.67367" lon="1.368">
        <ele>142</ele>
        <time>2024-03-14T18:25:24Z</time>
      </trkpt>
      <trkpt lat="43.67369" lon="1.36801">
        <ele>142</ele>
        <time>2024-03-14T18:25:25Z</time>
      </trkpt>
      <trkpt lat="43.67372" lon="1.36801">
        <ele>142</ele>
        <time>2024-03-14T18:25:26Z</time>
      </trkpt>
      <trkpt lat="43.67374" lon="1.36802">
        <ele>142</ele>
        <time>2024-03-14T18:25:27Z</time>
      </trkpt>
      <trkpt lat="43.67377" lon="1.36803">
        <ele>142</ele>
        <time>2024-03-14T18:25:28Z</time>
      </trkpt>
      <trkpt lat="43.67379" lon="1.36804">
        <ele>142</ele>
        <time>2024-03-14T18:25:29Z</time>
      </trkpt>
      <trkpt lat="43.67382" lon="1.36804">
        <ele>142</ele>
        <time>2024-03-14T18:25:30Z</time>
      </trkpt>
      <trkpt lat="43.67384" lon="1.36805">
        <ele>142</ele>
        <time>2024-03-14T18:25:31Z</time>
      </trkpt>
      <trkpt lat="43.67386" lon="1.36806">
        <ele>142</ele>
        <time>2024-03-14T18:25:32Z</time>
      </trkpt>
      <trkpt lat="43.67389" lon="1.36806">
        <ele>142</ele>
        <time>2024-03-14T18:25:33Z</time>
      </trkpt>
      <trkpt lat="43.67391" lon="1.36807">
        <ele>142</ele>
        <time>2024-03-14T18:25:34Z</time>
      </trkpt>
      <trkpt lat="43.67394" lon="1.36808">
        <ele>142</ele>
        <time>2024-03-14T18:25:35Z</time>
      </trkpt>
      <trkpt lat="43.67396" lon="1.36808">
        <ele>142</ele>
        <time>2024-03-14T18:25:36Z</time>
      </trkpt>
      <trkpt lat="43.67399" lon="1.36809">
        <ele>142</ele>
        <time>2024-03-14T18:25:37Z</time>
      </trkpt>
      <trkpt lat="43.67401" lon="1.36809">
        <ele>142</ele>
        <time>2024-03-14T18:25:38Z</time>
      </trkpt>
      <trkpt lat="43.67404" lon="1.36809">
        <ele>142</ele>
        <time>2024-03-14T18:25:39Z</time>
      </trkpt>
      <trkpt lat="43.67406" lon="1.3681">
        <ele>142</ele>
        <time>2024-03-14T18:25:40Z</time>
      </trkpt>
      <trkpt lat="43.67409" lon="1.3681">
        <ele>142</ele>
        <time>2024-03-14T18:25:41Z</time>
      </trkpt>
      <trkpt lat="43.67412" lon="1.3681">
        <ele>142</ele>
        <time>2024-03-14T18:25:42Z</time>
      </trkpt>
      <trkpt lat="43.67414" lon="1.36811">
        <ele>142</ele>
        <time>2024-03-14T18:25:43Z</time>
      </trkpt>
      <trkpt lat="43.6742" lon="1.36811">
        <ele>142</ele>
        <time>2024-03-14T18:25:44Z</time>
      </trkpt>
      <trkpt lat="43.6742" lon="1.36811">
        <ele>142</ele>
        <time>2024-03-14T18:25:45Z</time>
      </trkpt>
      <trkpt lat="43.67422" lon="1.36811">
        <ele>142</ele>
        <time>2024-03-14T18:25:46Z</time>
      </trkpt>
      <trkpt lat="43.67425" lon="1.36811">
        <ele>142</ele>
        <time>2024-03-14T18:25:47Z</time>
      </trkpt>
      <trkpt lat="43.67428" lon="1.36812">
        <ele>142</ele>
        <time>2024-03-14T18:25:48Z</time>
      </trkpt>
      <trkpt lat="43.6743" lon="1.36812">
        <ele>142</ele>
        <time>2024-03-14T18:25:49Z</time>
      </trkpt>
      <trkpt lat="43.67433" lon="1.36812">
        <ele>142</ele>
        <time>2024-03-14T18:25:50Z</time>
      </trkpt>
      <trkpt lat="43.67435" lon="1.36812">
        <ele>142</ele>
        <time>2024-03-14T18:25:51Z</time>
      </trkpt>
      <trkpt lat="43.67438" lon="1.36811">
        <ele>142</ele>
        <time>2024-03-14T18:25:52Z</time>
      </trkpt>
      <trkpt lat="43.6744" lon="1.36811">
        <ele>142</ele>
        <time>2024-03-14T18:25:53Z</time>
      </trkpt>
      <trkpt lat="43.67443" lon="1.36811">
        <ele>142</ele>
        <time>2024-03-14T18:25:54Z</time>
      </trkpt>
      <trkpt lat="43.67445" lon="1.3681">
        <ele>142</ele>
        <time>2024-03-14T18:25:55Z</time>
      </trkpt>
      <trkpt lat="43.67448" lon="1.3681">
        <ele>142</ele>
        <time>2024-03-14T18:25:56Z</time>
      </trkpt>
      <trkpt lat="43.67451" lon="1.3681">
        <ele>142</ele>
        <time>2024-03-14T18:25:57Z</time>
      </trkpt>
      <trkpt lat="43.67453" lon="1.3681">
        <ele>142</ele>
        <time>2024-03-14T18:25:58Z</time>
      </trkpt>
      <trkpt lat="43.67455" lon="1.3681">
        <ele>142</ele>
        <time>2024-03-14T18:25:59Z</time>
      </trkpt>
      <trkpt lat="43.67458" lon="1.36809">
        <ele>142</ele>
        <time>2024-03-14T18:26:00Z</time>
      </trkpt>
      <trkpt lat="43.6746" lon="1.36809">
        <ele>142</ele>
        <time>2024-03-14T18:26:01Z</time>
      </trkpt>
      <trkpt lat="43.67462" lon="1.36809">
        <ele>142</ele>
        <time>2024-03-14T18:26:02Z</time>
      </trkpt>
      <trkpt lat="43.67467" lon="1.36808">
        <ele>142</ele>
        <time>2024-03-14T18:26:03Z</time>
      </trkpt>
      <trkpt lat="43.67467" lon="1.36808">
        <ele>142</ele>
        <time>2024-03-14T18:26:04Z</time>
      </trkpt>
      <trkpt lat="43.67469" lon="1.36807">
        <ele>142</ele>
        <time>2024-03-14T18:26:05Z</time>
      </trkpt>
      <trkpt lat="43.67472" lon="1.36807">
        <ele>142</ele>
        <time>2024-03-14T18:26:06Z</time>
      </trkpt>
      <trkpt lat="43.67474" lon="1.36807">
        <ele>142</ele>
        <time>2024-03-14T18:26:07Z</time>
      </trkpt>
      <trkpt lat="43.67477" lon="1.36806">
        <ele>142</ele>
        <time>2024-03-14T18:26:08Z</time>
      </trkpt>
      <trkpt lat="43.67479" lon="1.36806">
        <ele>142</ele>
        <time>2024-03-14T18:26:09Z</time>
      </trkpt>
      <trkpt lat="43.67481" lon="1.36805">
        <ele>142</ele>
        <time>2024-03-14T18:26:10Z</time>
      </trkpt>
      <trkpt lat="43.67484" lon="1.36805">
        <ele>142</ele>
        <time>2024-03-14T18:26:11Z</time>
      </trkpt>
      <trkpt lat="43.67486" lon="1.36804">
        <ele>141</ele>
        <time>2024-03-14T18:26:12Z</time>
      </trkpt>
      <trkpt lat="43.67489" lon="1.36804">
        <ele>141</ele>
        <time>2024-03-14T18:26:13Z</time>
      </trkpt>
      <trkpt lat="43.67491" lon="1.36804">
        <ele>141</ele>
        <time>2024-03-14T18:26:14Z</time>
      </trkpt>
      <trkpt lat="43.67494" lon="1.36803">
        <ele>141</ele>
        <time>2024-03-14T18:26:15Z</time>
      </trkpt>
      <trkpt lat="43.67496" lon="1.36803">
        <ele>141</ele>
        <time>2024-03-14T18:26:16Z</time>
      </trkpt>
      <trkpt lat="43.67499" lon="1.36802">
        <ele>141</ele>
        <time>2024-03-14T18:26:17Z</time>
      </trkpt>
      <trkpt lat="43.67501" lon="1.36801">
        <ele>141</ele>
        <time>2024-03-14T18:26:18Z</time>
      </trkpt>
      <trkpt lat="43.67504" lon="1.36801">
        <ele>141</ele>
        <time>2024-03-14T18:26:19Z</time>
      </trkpt>
      <trkpt lat="43.67507" lon="1.368">
        <ele>141</ele>
        <time>2024-03-14T18:26:20Z</time>
      </trkpt>
      <trkpt lat="43.6751" lon="1.36799">
        <ele>141</ele>
        <time>2024-03-14T18:26:21Z</time>
      </trkpt>
      <trkpt lat="43.67512" lon="1.36798">
        <ele>141</ele>
        <time>2024-03-14T18:26:22Z</time>
      </trkpt>
      <trkpt lat="43.67515" lon="1.36798">
        <ele>141</ele>
        <time>2024-03-14T18:26:23Z</time>
      </trkpt>
      <trkpt lat="43.67518" lon="1.36797">
        <ele>141</ele>
        <time>2024-03-14T18:26:24Z</time>
      </trkpt>
      <trkpt lat="43.6752" lon="1.36797">
        <ele>141</ele>
        <time>2024-03-14T18:26:25Z</time>
      </trkpt>
      <trkpt lat="43.67523" lon="1.36796">
        <ele>141</ele>
        <time>2024-03-14T18:26:26Z</time>
      </trkpt>
      <trkpt lat="43.67525" lon="1.36795">
        <ele>141</ele>
        <time>2024-03-14T18:26:27Z</time>
      </trkpt>
      <trkpt lat="43.67528" lon="1.36795">
        <ele>141</ele>
        <time>2024-03-14T18:26:28Z</time>
      </trkpt>
      <trkpt lat="43.67531" lon="1.36794">
        <ele>141</ele>
        <time>2024-03-14T18:26:29Z</time>
      </trkpt>
      <trkpt lat="43.67534" lon="1.36793">
        <ele>141</ele>
        <time>2024-03-14T18:26:30Z</time>
      </trkpt>
      <trkpt lat="43.67537" lon="1.36792">
        <ele>141</ele>
        <time>2024-03-14T18:26:31Z</time>
      </trkpt>
      <trkpt lat="43.67539" lon="1.36792">
        <ele>141</ele>
        <time>2024-03-14T18:26:32Z</time>
      </trkpt>
      <trkpt lat="43.67542" lon="1.36792">
        <ele>141</ele>
        <time>2024-03-14T18:26:33Z</time>
      </trkpt>
      <trkpt lat="43.67545" lon="1.36791">
        <ele>141</ele>
        <time>2024-03-14T18:26:34Z</time>
      </trkpt>
      <trkpt lat="43.67547" lon="1.3679">
        <ele>141</ele>
        <time>2024-03-14T18:26:35Z</time>
      </trkpt>
      <trkpt lat="43.6755" lon="1.3679">
        <ele>141</ele>
        <time>2024-03-14T18:26:36Z</time>
      </trkpt>
      <trkpt lat="43.67553" lon="1.36789">
        <ele>141</ele>
        <time>2024-03-14T18:26:37Z</time>
      </trkpt>
      <trkpt lat="43.67555" lon="1.36788">
        <ele>141</ele>
        <time>2024-03-14T18:26:38Z</time>
      </trkpt>
      <trkpt lat="43.67558" lon="1.36788">
        <ele>141</ele>
        <time>2024-03-14T18:26:39Z</time>
      </trkpt>
      <trkpt lat="43.6756" lon="1.36787">
        <ele>141</ele>
        <time>2024-03-14T18:26:40Z</time>
      </trkpt>
      <trkpt lat="43.67562" lon="1.36787">
        <ele>141</ele>
        <time>2024-03-14T18:26:41Z</time>
      </trkpt>
      <trkpt lat="43.67565" lon="1.36786">
        <ele>141</ele>
        <time>2024-03-14T18:26:42Z</time>
      </trkpt>
      <trkpt lat="43.67567" lon="1.36786">
        <ele>141</ele>
        <time>2024-03-14T18:26:43Z</time>
      </trkpt>
      <trkpt lat="43.6757" lon="1.36785">
        <ele>141</ele>
        <time>2024-03-14T18:26:44Z</time>
      </trkpt>
      <trkpt lat="43.67573" lon="1.36785">
        <ele>140</ele>
        <time>2024-03-14T18:26:45Z</time>
      </trkpt>
      <trkpt lat="43.67575" lon="1.36785">
        <ele>140</ele>
        <time>2024-03-14T18:26:46Z</time>
      </trkpt>
      <trkpt lat="43.67577" lon="1.36785">
        <ele>140</ele>
        <time>2024-03-14T18:26:47Z</time>
      </trkpt>
      <trkpt lat="43.6758" lon="1.36784">
        <ele>140</ele>
        <time>2024-03-14T18:26:48Z</time>
      </trkpt>
      <trkpt lat="43.67583" lon="1.36784">
        <ele>140</ele>
        <time>2024-03-14T18:26:49Z</time>
      </trkpt>
      <trkpt lat="43.67586" lon="1.36783">
        <ele>140</ele>
        <time>2024-03-14T18:26:50Z</time>
      </trkpt>
      <trkpt lat="43.67588" lon="1.36783">
        <ele>141</ele>
        <time>2024-03-14T18:26:51Z</time>
      </trkpt>
      <trkpt lat="43.67591" lon="1.36783">
        <ele>141</ele>
        <time>2024-03-14T18:26:52Z</time>
      </trkpt>
      <trkpt lat="43.67594" lon="1.36782">
        <ele>140</ele>
        <time>2024-03-14T18:26:53Z</time>
      </trkpt>
      <trkpt lat="43.67597" lon="1.36781">
        <ele>140</ele>
        <time>2024-03-14T18:26:54Z</time>
      </trkpt>
      <trkpt lat="43.67599" lon="1.36781">
        <ele>140</ele>
        <time>2024-03-14T18:26:55Z</time>
      </trkpt>
      <trkpt lat="43.67602" lon="1.36781">
        <ele>140</ele>
        <time>2024-03-14T18:26:56Z</time>
      </trkpt>
      <trkpt lat="43.67604" lon="1.3678">
        <ele>140</ele>
        <time>2024-03-14T18:26:57Z</time>
      </trkpt>
      <trkpt lat="43.67606" lon="1.3678">
        <ele>140</ele>
        <time>2024-03-14T18:26:58Z</time>
      </trkpt>
      <trkpt lat="43.67609" lon="1.36779">
        <ele>140</ele>
        <time>2024-03-14T18:26:59Z</time>
      </trkpt>
      <trkpt lat="43.67611" lon="1.36779">
        <ele>140</ele>
        <time>2024-03-14T18:27:00Z</time>
      </trkpt>
      <trkpt lat="43.67614" lon="1.36778">
        <ele>140</ele>
        <time>2024-03-14T18:27:01Z</time>
      </trkpt>
      <trkpt lat="43.67617" lon="1.36778">
        <ele>140</ele>
        <time>2024-03-14T18:27:02Z</time>
      </trkpt>
      <trkpt lat="43.67619" lon="1.36778">
        <ele>140</ele>
        <time>2024-03-14T18:27:03Z</time>
      </trkpt>
      <trkpt lat="43.67621" lon="1.36777">
        <ele>139</ele>
        <time>2024-03-14T18:27:04Z</time>
      </trkpt>
      <trkpt lat="43.67624" lon="1.36777">
        <ele>139</ele>
        <time>2024-03-14T18:27:05Z</time>
      </trkpt>
      <trkpt lat="43.67627" lon="1.36776">
        <ele>140</ele>
        <time>2024-03-14T18:27:06Z</time>
      </trkpt>
      <trkpt lat="43.6763" lon="1.36776">
        <ele>140</ele>
        <time>2024-03-14T18:27:07Z</time>
      </trkpt>
      <trkpt lat="43.67632" lon="1.36776">
        <ele>140</ele>
        <time>2024-03-14T18:27:08Z</time>
      </trkpt>
      <trkpt lat="43.67634" lon="1.36776">
        <ele>140</ele>
        <time>2024-03-14T18:27:09Z</time>
      </trkpt>
      <trkpt lat="43.67637" lon="1.36776">
        <ele>140</ele>
        <time>2024-03-14T18:27:10Z</time>
      </trkpt>
      <trkpt lat="43.67642" lon="1.36775">
        <ele>140</ele>
        <time>2024-03-14T18:27:11Z</time>
      </trkpt>
      <trkpt lat="43.67642" lon="1.36775">
        <ele>140</ele>
        <time>2024-03-14T18:27:12Z</time>
      </trkpt>
      <trkpt lat="43.67645" lon="1.36775">
        <ele>140</ele>
        <time>2024-03-14T18:27:13Z</time>
      </trkpt>
      <trkpt lat="43.67647" lon="1.36775">
        <ele>140</ele>
        <time>2024-03-14T18:27:14Z</time>
      </trkpt>
      <trkpt lat="43.6765" lon="1.36775">
        <ele>140</ele>
        <time>2024-03-14T18:27:15Z</time>
      </trkpt>
      <trkpt lat="43.67653" lon="1.36775">
        <ele>140</ele>
        <time>2024-03-14T18:27:16Z</time>
      </trkpt>
      <trkpt lat="43.67656" lon="1.36775">
        <ele>140</ele>
        <time>2024-03-14T18:27:17Z</time>
      </trkpt>
      <trkpt lat="43.67658" lon="1.36775">
        <ele>140</ele>
        <time>2024-03-14T18:27:18Z</time>
      </trkpt>
      <trkpt lat="43.67661" lon="1.36775">
        <ele>140</ele>
        <time>2024-03-14T18:27:19Z</time>
      </trkpt>
      <trkpt lat="43.67663" lon="1.36775">
        <ele>140</ele>
        <time>2024-03-14T18:27:20Z</time>
      </trkpt>
      <trkpt lat="43.67666" lon="1.36775">
        <ele>140</ele>
        <time>2024-03-14T18:27:21Z</time>
      </trkpt>
      <trkpt lat="43.67668" lon="1.36775">
        <ele>140</ele>
        <time>2024-03-14T18:27:22Z</time>
      </trkpt>
      <trkpt lat="43.6767" lon="1.36775">
        <ele>140</ele>
        <time>2024-03-14T18:27:23Z</time>
      </trkpt>
      <trkpt lat="43.67673" lon="1.36775">
        <ele>140</ele>
        <time>2024-03-14T18:27:24Z</time>
      </trkpt>
      <trkpt lat="43.67676" lon="1.36776">
        <ele>140</ele>
        <time>2024-03-14T18:27:25Z</time>
      </trkpt>
      <trkpt lat="43.67679" lon="1.36776">
        <ele>140</ele>
        <time>2024-03-14T18:27:26Z</time>
      </trkpt>
      <trkpt lat="43.67682" lon="1.36777">
        <ele>140</ele>
        <time>2024-03-14T18:27:27Z</time>
      </trkpt>
      <trkpt lat="43.67684" lon="1.36777">
        <ele>140</ele>
        <time>2024-03-14T18:27:28Z</time>
      </trkpt>
      <trkpt lat="43.67687" lon="1.36777">
        <ele>140</ele>
        <time>2024-03-14T18:27:29Z</time>
      </trkpt>
      <trkpt lat="43.6769" lon="1.36777">
        <ele>140</ele>
        <time>2024-03-14T18:27:30Z</time>
      </trkpt>
      <trkpt lat="43.67692" lon="1.36777">
        <ele>140</ele>
        <time>2024-03-14T18:27:31Z</time>
      </trkpt>
      <trkpt lat="43.67695" lon="1.36777">
        <ele>140</ele>
        <time>2024-03-14T18:27:32Z</time>
      </trkpt>
      <trkpt lat="43.67697" lon="1.36777">
        <ele>140</ele>
        <time>2024-03-14T18:27:33Z</time>
      </trkpt>
      <trkpt lat="43.677" lon="1.36776">
        <ele>140</ele>
        <time>2024-03-14T18:27:34Z</time>
      </trkpt>
      <trkpt lat="43.67703" lon="1.36776">
        <ele>140</ele>
        <time>2024-03-14T18:27:35Z</time>
      </trkpt>
      <trkpt lat="43.67705" lon="1.36776">
        <ele>140</ele>
        <time>2024-03-14T18:27:36Z</time>
      </trkpt>
      <trkpt lat="43.67708" lon="1.36776">
        <ele>140</ele>
        <time>2024-03-14T18:27:37Z</time>
      </trkpt>
      <trkpt lat="43.6771" lon="1.36777">
        <ele>140</ele>
        <time>2024-03-14T18:27:38Z</time>
      </trkpt>
      <trkpt lat="43.67713" lon="1.36777">
        <ele>140</ele>
        <time>2024-03-14T18:27:39Z</time>
      </trkpt>
      <trkpt lat="43.67715" lon="1.36778">
        <ele>140</ele>
        <time>2024-03-14T18:27:40Z</time>
      </trkpt>
      <trkpt lat="43.67718" lon="1.36778">
        <ele>140</ele>
        <time>2024-03-14T18:27:41Z</time>
      </trkpt>
      <trkpt lat="43.6772" lon="1.36778">
        <ele>140</ele>
        <time>2024-03-14T18:27:42Z</time>
      </trkpt>
      <trkpt lat="43.67722" lon="1.36778">
        <ele>140</ele>
        <time>2024-03-14T18:27:43Z</time>
      </trkpt>
      <trkpt lat="43.67725" lon="1.36778">
        <ele>140</ele>
        <time>2024-03-14T18:27:44Z</time>
      </trkpt>
      <trkpt lat="43.67727" lon="1.36777">
        <ele>140</ele>
        <time>2024-03-14T18:27:45Z</time>
      </trkpt>
      <trkpt lat="43.6773" lon="1.36777">
        <ele>140</ele>
        <time>2024-03-14T18:27:46Z</time>
      </trkpt>
      <trkpt lat="43.67733" lon="1.36776">
        <ele>140</ele>
        <time>2024-03-14T18:27:47Z</time>
      </trkpt>
      <trkpt lat="43.67736" lon="1.36776">
        <ele>140</ele>
        <time>2024-03-14T18:27:48Z</time>
      </trkpt>
      <trkpt lat="43.67738" lon="1.36776">
        <ele>140</ele>
        <time>2024-03-14T18:27:49Z</time>
      </trkpt>
      <trkpt lat="43.67741" lon="1.36776">
        <ele>139</ele>
        <time>2024-03-14T18:27:50Z</time>
      </trkpt>
      <trkpt lat="43.67744" lon="1.36776">
        <ele>140</ele>
        <time>2024-03-14T18:27:51Z</time>
      </trkpt>
      <trkpt lat="43.67747" lon="1.36776">
        <ele>140</ele>
        <time>2024-03-14T18:27:52Z</time>
      </trkpt>
      <trkpt lat="43.6775" lon="1.36776">
        <ele>140</ele>
        <time>2024-03-14T18:27:53Z</time>
      </trkpt>
      <trkpt lat="43.67752" lon="1.36775">
        <ele>139</ele>
        <time>2024-03-14T18:27:54Z</time>
      </trkpt>
      <trkpt lat="43.67755" lon="1.36775">
        <ele>139</ele>
        <time>2024-03-14T18:27:55Z</time>
      </trkpt>
      <trkpt lat="43.67757" lon="1.36774">
        <ele>140</ele>
        <time>2024-03-14T18:27:56Z</time>
      </trkpt>
      <trkpt lat="43.67762" lon="1.36771">
        <ele>140</ele>
        <time>2024-03-14T18:27:57Z</time>
      </trkpt>
      <trkpt lat="43.67762" lon="1.36771">
        <ele>139</ele>
        <time>2024-03-14T18:27:58Z</time>
      </trkpt>
      <trkpt lat="43.67764" lon="1.3677">
        <ele>139</ele>
        <time>2024-03-14T18:27:59Z</time>
      </trkpt>
      <trkpt lat="43.67767" lon="1.36769">
        <ele>139</ele>
        <time>2024-03-14T18:28:00Z</time>
      </trkpt>
      <trkpt lat="43.6777" lon="1.36768">
        <ele>139</ele>
        <time>2024-03-14T18:28:01Z</time>
      </trkpt>
      <trkpt lat="43.67772" lon="1.36767">
        <ele>139</ele>
        <time>2024-03-14T18:28:02Z</time>
      </trkpt>
      <trkpt lat="43.67775" lon="1.36766">
        <ele>139</ele>
        <time>2024-03-14T18:28:03Z</time>
      </trkpt>
      <trkpt lat="43.6778" lon="1.36765">
        <ele>139</ele>
        <time>2024-03-14T18:28:04Z</time>
      </trkpt>
      <trkpt lat="43.6778" lon="1.36765">
        <ele>139</ele>
        <time>2024-03-14T18:28:05Z</time>
      </trkpt>
      <trkpt lat="43.67783" lon="1.36764">
        <ele>139</ele>
        <time>2024-03-14T18:28:06Z</time>
      </trkpt>
      <trkpt lat="43.67785" lon="1.36763">
        <ele>139</ele>
        <time>2024-03-14T18:28:07Z</time>
      </trkpt>
      <trkpt lat="43.67788" lon="1.36762">
        <ele>139</ele>
        <time>2024-03-14T18:28:08Z</time>
      </trkpt>
      <trkpt lat="43.6779" lon="1.36761">
        <ele>139</ele>
        <time>2024-03-14T18:28:09Z</time>
      </trkpt>
      <trkpt lat="43.67793" lon="1.3676">
        <ele>139</ele>
        <time>2024-03-14T18:28:10Z</time>
      </trkpt>
      <trkpt lat="43.67795" lon="1.36759">
        <ele>139</ele>
        <time>2024-03-14T18:28:11Z</time>
      </trkpt>
      <trkpt lat="43.67798" lon="1.36758">
        <ele>139</ele>
        <time>2024-03-14T18:28:12Z</time>
      </trkpt>
      <trkpt lat="43.678" lon="1.36757">
        <ele>139</ele>
        <time>2024-03-14T18:28:13Z</time>
      </trkpt>
      <trkpt lat="43.67802" lon="1.36756">
        <ele>139</ele>
        <time>2024-03-14T18:28:14Z</time>
      </trkpt>
      <trkpt lat="43.67805" lon="1.36755">
        <ele>139</ele>
        <time>2024-03-14T18:28:15Z</time>
      </trkpt>
      <trkpt lat="43.6781" lon="1.36753">
        <ele>139</ele>
        <time>2024-03-14T18:28:16Z</time>
      </trkpt>
      <trkpt lat="43.6781" lon="1.36753">
        <ele>139</ele>
        <time>2024-03-14T18:28:17Z</time>
      </trkpt>
      <trkpt lat="43.67812" lon="1.36752">
        <ele>139</ele>
        <time>2024-03-14T18:28:18Z</time>
      </trkpt>
      <trkpt lat="43.67814" lon="1.36751">
        <ele>139</ele>
        <time>2024-03-14T18:28:19Z</time>
      </trkpt>
      <trkpt lat="43.67817" lon="1.3675">
        <ele>139</ele>
        <time>2024-03-14T18:28:20Z</time>
      </trkpt>
      <trkpt lat="43.67819" lon="1.36749">
        <ele>139</ele>
        <time>2024-03-14T18:28:21Z</time>
      </trkpt>
      <trkpt lat="43.67822" lon="1.36748">
        <ele>139</ele>
        <time>2024-03-14T18:28:22Z</time>
      </trkpt>
      <trkpt lat="43.67824" lon="1.36747">
        <ele>139</ele>
        <time>2024-03-14T18:28:23Z</time>
      </trkpt>
      <trkpt lat="43.67826" lon="1.36746">
        <ele>139</ele>
        <time>2024-03-14T18:28:24Z</time>
      </trkpt>
      <trkpt lat="43.67829" lon="1.36745">
        <ele>139</ele>
        <time>2024-03-14T18:28:25Z</time>
      </trkpt>
      <trkpt lat="43.67831" lon="1.36743">
        <ele>139</ele>
        <time>2024-03-14T18:28:26Z</time>
      </trkpt>
      <trkpt lat="43.67834" lon="1.36742">
        <ele>139</ele>
        <time>2024-03-14T18:28:27Z</time>
      </trkpt>
      <trkpt lat="43.67836" lon="1.3674">
        <ele>139</ele>
        <time>2024-03-14T18:28:28Z</time>
      </trkpt>
      <trkpt lat="43.67839" lon="1.36739">
        <ele>139</ele>
        <time>2024-03-14T18:28:29Z</time>
      </trkpt>
      <trkpt lat="43.67841" lon="1.36738">
        <ele>139</ele>
        <time>2024-03-14T18:28:30Z</time>
      </trkpt>
      <trkpt lat="43.67844" lon="1.36737">
        <ele>139</ele>
        <time>2024-03-14T18:28:31Z</time>
      </trkpt>
      <trkpt lat="43.67846" lon="1.36736">
        <ele>139</ele>
        <time>2024-03-14T18:28:32Z</time>
      </trkpt>
      <trkpt lat="43.67849" lon="1.36734">
        <ele>140</ele>
        <time>2024-03-14T18:28:33Z</time>
      </trkpt>
      <trkpt lat="43.67851" lon="1.36733">
        <ele>140</ele>
        <time>2024-03-14T18:28:34Z</time>
      </trkpt>
      <trkpt lat="43.67853" lon="1.36732">
        <ele>140</ele>
        <time>2024-03-14T18:28:35Z</time>
      </trkpt>
      <trkpt lat="43.67857" lon="1.36731">
        <ele>140</ele>
        <time>2024-03-14T18:28:36Z</time>
      </trkpt>
      <trkpt lat="43.67858" lon="1.3673">
        <ele>140</ele>
        <time>2024-03-14T18:28:37Z</time>
      </trkpt>
      <trkpt lat="43.67861" lon="1.36729">
        <ele>139</ele>
        <time>2024-03-14T18:28:38Z</time>
      </trkpt>
      <trkpt lat="43.67863" lon="1.36728">
        <ele>139</ele>
        <time>2024-03-14T18:28:39Z</time>
      </trkpt>
      <trkpt lat="43.67865" lon="1.36727">
        <ele>139</ele>
        <time>2024-03-14T18:28:40Z</time>
      </trkpt>
      <trkpt lat="43.67868" lon="1.36725">
        <ele>139</ele>
        <time>2024-03-14T18:28:41Z</time>
      </trkpt>
      <trkpt lat="43.6787" lon="1.36724">
        <ele>140</ele>
        <time>2024-03-14T18:28:42Z</time>
      </trkpt>
      <trkpt lat="43.67872" lon="1.36723">
        <ele>140</ele>
        <time>2024-03-14T18:28:43Z</time>
      </trkpt>
      <trkpt lat="43.67875" lon="1.36722">
        <ele>140</ele>
        <time>2024-03-14T18:28:44Z</time>
      </trkpt>
      <trkpt lat="43.67877" lon="1.36721">
        <ele>140</ele>
        <time>2024-03-14T18:28:45Z</time>
      </trkpt>
      <trkpt lat="43.6788" lon="1.3672">
        <ele>140</ele>
        <time>2024-03-14T18:28:46Z</time>
      </trkpt>
      <trkpt lat="43.67882" lon="1.36719">
        <ele>140</ele>
        <time>2024-03-14T18:28:47Z</time>
      </trkpt>
      <trkpt lat="43.67885" lon="1.36718">
        <ele>140</ele>
        <time>2024-03-14T18:28:48Z</time>
      </trkpt>
      <trkpt lat="43.67887" lon="1.36718">
        <ele>140</ele>
        <time>2024-03-14T18:28:49Z</time>
      </trkpt>
      <trkpt lat="43.6789" lon="1.36717">
        <ele>140</ele>
        <time>2024-03-14T18:28:50Z</time>
      </trkpt>
      <trkpt lat="43.67892" lon="1.36716">
        <ele>140</ele>
        <time>2024-03-14T18:28:51Z</time>
      </trkpt>
      <trkpt lat="43.67895" lon="1.36715">
        <ele>140</ele>
        <time>2024-03-14T18:28:52Z</time>
      </trkpt>
      <trkpt lat="43.67897" lon="1.36714">
        <ele>140</ele>
        <time>2024-03-14T18:28:53Z</time>
      </trkpt>
      <trkpt lat="43.67902" lon="1.36712">
        <ele>140</ele>
        <time>2024-03-14T18:28:54Z</time>
      </trkpt>
      <trkpt lat="43.67902" lon="1.36712">
        <ele>140</ele>
        <time>2024-03-14T18:28:55Z</time>
      </trkpt>
      <trkpt lat="43.67905" lon="1.36712">
        <ele>140</ele>
        <time>2024-03-14T18:28:56Z</time>
      </trkpt>
      <trkpt lat="43.67907" lon="1.36711">
        <ele>140</ele>
        <time>2024-03-14T18:28:57Z</time>
      </trkpt>
      <trkpt lat="43.6791" lon="1.36711">
        <ele>140</ele>
        <time>2024-03-14T18:28:58Z</time>
      </trkpt>
      <trkpt lat="43.67913" lon="1.36711">
        <ele>140</ele>
        <time>2024-03-14T18:28:59Z</time>
      </trkpt>
      <trkpt lat="43.67915" lon="1.36711">
        <ele>140</ele>
        <time>2024-03-14T18:29:00Z</time>
      </trkpt>
      <trkpt lat="43.67918" lon="1.36712">
        <ele>140</ele>
        <time>2024-03-14T18:29:01Z</time>
      </trkpt>
      <trkpt lat="43.67921" lon="1.36712">
        <ele>140</ele>
        <time>2024-03-14T18:29:02Z</time>
      </trkpt>
      <trkpt lat="43.67924" lon="1.36713">
        <ele>140</ele>
        <time>2024-03-14T18:29:03Z</time>
      </trkpt>
      <trkpt lat="43.67927" lon="1.36713">
        <ele>140</ele>
        <time>2024-03-14T18:29:04Z</time>
      </trkpt>
      <trkpt lat="43.67929" lon="1.36714">
        <ele>140</ele>
        <time>2024-03-14T18:29:05Z</time>
      </trkpt>
      <trkpt lat="43.67932" lon="1.36714">
        <ele>140</ele>
        <time>2024-03-14T18:29:06Z</time>
      </trkpt>
      <trkpt lat="43.67935" lon="1.36715">
        <ele>140</ele>
        <time>2024-03-14T18:29:07Z</time>
      </trkpt>
      <trkpt lat="43.67937" lon="1.36715">
        <ele>140</ele>
        <time>2024-03-14T18:29:08Z</time>
      </trkpt>
      <trkpt lat="43.6794" lon="1.36716">
        <ele>140</ele>
        <time>2024-03-14T18:29:09Z</time>
      </trkpt>
      <trkpt lat="43.67943" lon="1.36716">
        <ele>140</ele>
        <time>2024-03-14T18:29:10Z</time>
      </trkpt>
      <trkpt lat="43.67945" lon="1.36716">
        <ele>140</ele>
        <time>2024-03-14T18:29:11Z</time>
      </trkpt>
      <trkpt lat="43.67948" lon="1.36716">
        <ele>140</ele>
        <time>2024-03-14T18:29:12Z</time>
      </trkpt>
      <trkpt lat="43.67954" lon="1.36716">
        <ele>140</ele>
        <time>2024-03-14T18:29:13Z</time>
      </trkpt>
      <trkpt lat="43.67954" lon="1.36716">
        <ele>140</ele>
        <time>2024-03-14T18:29:14Z</time>
      </trkpt>
      <trkpt lat="43.67956" lon="1.36717">
        <ele>140</ele>
        <time>2024-03-14T18:29:15Z</time>
      </trkpt>
      <trkpt lat="43.67959" lon="1.36718">
        <ele>140</ele>
        <time>2024-03-14T18:29:16Z</time>
      </trkpt>
      <trkpt lat="43.67961" lon="1.36718">
        <ele>140</ele>
        <time>2024-03-14T18:29:17Z</time>
      </trkpt>
      <trkpt lat="43.67964" lon="1.36719">
        <ele>140</ele>
        <time>2024-03-14T18:29:18Z</time>
      </trkpt>
      <trkpt lat="43.67966" lon="1.36719">
        <ele>139</ele>
        <time>2024-03-14T18:29:19Z</time>
      </trkpt>
      <trkpt lat="43.67969" lon="1.36719">
        <ele>139</ele>
        <time>2024-03-14T18:29:20Z</time>
      </trkpt>
      <trkpt lat="43.67972" lon="1.36719">
        <ele>139</ele>
        <time>2024-03-14T18:29:21Z</time>
      </trkpt>
      <trkpt lat="43.67974" lon="1.36718">
        <ele>139</ele>
        <time>2024-03-14T18:29:22Z</time>
      </trkpt>
      <trkpt lat="43.67977" lon="1.36717">
        <ele>139</ele>
        <time>2024-03-14T18:29:23Z</time>
      </trkpt>
      <trkpt lat="43.67979" lon="1.36717">
        <ele>139</ele>
        <time>2024-03-14T18:29:24Z</time>
      </trkpt>
      <trkpt lat="43.67982" lon="1.36716">
        <ele>139</ele>
        <time>2024-03-14T18:29:25Z</time>
      </trkpt>
      <trkpt lat="43.67985" lon="1.36715">
        <ele>139</ele>
        <time>2024-03-14T18:29:26Z</time>
      </trkpt>
      <trkpt lat="43.67987" lon="1.36714">
        <ele>139</ele>
        <time>2024-03-14T18:29:27Z</time>
      </trkpt>
      <trkpt lat="43.6799" lon="1.36713">
        <ele>139</ele>
        <time>2024-03-14T18:29:28Z</time>
      </trkpt>
      <trkpt lat="43.67992" lon="1.36712">
        <ele>139</ele>
        <time>2024-03-14T18:29:29Z</time>
      </trkpt>
      <trkpt lat="43.67994" lon="1.36711">
        <ele>139</ele>
        <time>2024-03-14T18:29:30Z</time>
      </trkpt>
      <trkpt lat="43.67997" lon="1.3671">
        <ele>139</ele>
        <time>2024-03-14T18:29:31Z</time>
      </trkpt>
      <trkpt lat="43.68002" lon="1.36708">
        <ele>139</ele>
        <time>2024-03-14T18:29:32Z</time>
      </trkpt>
      <trkpt lat="43.68002" lon="1.36708">
        <ele>139</ele>
        <time>2024-03-14T18:29:33Z</time>
      </trkpt>
      <trkpt lat="43.68004" lon="1.36707">
        <ele>139</ele>
        <time>2024-03-14T18:29:34Z</time>
      </trkpt>
      <trkpt lat="43.68007" lon="1.36706">
        <ele>139</ele>
        <time>2024-03-14T18:29:35Z</time>
      </trkpt>
      <trkpt lat="43.6801" lon="1.36705">
        <ele>139</ele>
        <time>2024-03-14T18:29:36Z</time>
      </trkpt>
      <trkpt lat="43.68012" lon="1.36704">
        <ele>139</ele>
        <time>2024-03-14T18:29:37Z</time>
      </trkpt>
      <trkpt lat="43.68015" lon="1.36703">
        <ele>139</ele>
        <time>2024-03-14T18:29:38Z</time>
      </trkpt>
      <trkpt lat="43.68017" lon="1.36702">
        <ele>139</ele>
        <time>2024-03-14T18:29:39Z</time>
      </trkpt>
      <trkpt lat="43.68019" lon="1.36701">
        <ele>139</ele>
        <time>2024-03-14T18:29:40Z</time>
      </trkpt>
      <trkpt lat="43.68022" lon="1.367">
        <ele>139</ele>
        <time>2024-03-14T18:29:41Z</time>
      </trkpt>
      <trkpt lat="43.68024" lon="1.36699">
        <ele>139</ele>
        <time>2024-03-14T18:29:42Z</time>
      </trkpt>
      <trkpt lat="43.68027" lon="1.36698">
        <ele>139</ele>
        <time>2024-03-14T18:29:43Z</time>
      </trkpt>
      <trkpt lat="43.68029" lon="1.36697">
        <ele>139</ele>
        <time>2024-03-14T18:29:44Z</time>
      </trkpt>
      <trkpt lat="43.68032" lon="1.36696">
        <ele>139</ele>
        <time>2024-03-14T18:29:45Z</time>
      </trkpt>
      <trkpt lat="43.68034" lon="1.36695">
        <ele>139</ele>
        <time>2024-03-14T18:29:46Z</time>
      </trkpt>
      <trkpt lat="43.68036" lon="1.36694">
        <ele>139</ele>
        <time>2024-03-14T18:29:47Z</time>
      </trkpt>
      <trkpt lat="43.68039" lon="1.36693">
        <ele>139</ele>
        <time>2024-03-14T18:29:48Z</time>
      </trkpt>
      <trkpt lat="43.68041" lon="1.36692">
        <ele>139</ele>
        <time>2024-03-14T18:29:49Z</time>
      </trkpt>
      <trkpt lat="43.68044" lon="1.36691">
        <ele>139</ele>
        <time>2024-03-14T18:29:50Z</time>
      </trkpt>
      <trkpt lat="43.68049" lon="1.36687">
        <ele>139</ele>
        <time>2024-03-14T18:29:51Z</time>
      </trkpt>
      <trkpt lat="43.68049" lon="1.36687">
        <ele>139</ele>
        <time>2024-03-14T18:29:52Z</time>
      </trkpt>
      <trkpt lat="43.68051" lon="1.36686">
        <ele>139</ele>
        <time>2024-03-14T18:29:53Z</time>
      </trkpt>
      <trkpt lat="43.68053" lon="1.36685">
        <ele>139</ele>
        <time>2024-03-14T18:29:54Z</time>
      </trkpt>
      <trkpt lat="43.68056" lon="1.36684">
        <ele>139</ele>
        <time>2024-03-14T18:29:55Z</time>
      </trkpt>
      <trkpt lat="43.68058" lon="1.36682">
        <ele>139</ele>
        <time>2024-03-14T18:29:56Z</time>
      </trkpt>
      <trkpt lat="43.68061" lon="1.36681">
        <ele>139</ele>
        <time>2024-03-14T18:29:57Z</time>
      </trkpt>
      <trkpt lat="43.68063" lon="1.3668">
        <ele>139</ele>
        <time>2024-03-14T18:29:58Z</time>
      </trkpt>
      <trkpt lat="43.68066" lon="1.3668">
        <ele>139</ele>
        <time>2024-03-14T18:29:59Z</time>
      </trkpt>
      <trkpt lat="43.68068" lon="1.36679">
        <ele>139</ele>
        <time>2024-03-14T18:30:00Z</time>
      </trkpt>
      <trkpt lat="43.6807" lon="1.36678">
        <ele>138</ele>
        <time>2024-03-14T18:30:01Z</time>
      </trkpt>
      <trkpt lat="43.68073" lon="1.36678">
        <ele>138</ele>
        <time>2024-03-14T18:30:02Z</time>
      </trkpt>
      <trkpt lat="43.68075" lon="1.36676">
        <ele>138</ele>
        <time>2024-03-14T18:30:03Z</time>
      </trkpt>
      <trkpt lat="43.68078" lon="1.36675">
        <ele>138</ele>
        <time>2024-03-14T18:30:04Z</time>
      </trkpt>
      <trkpt lat="43.6808" lon="1.36674">
        <ele>138</ele>
        <time>2024-03-14T18:30:05Z</time>
      </trkpt>
      <trkpt lat="43.68083" lon="1.36673">
        <ele>139</ele>
        <time>2024-03-14T18:30:06Z</time>
      </trkpt>
      <trkpt lat="43.68085" lon="1.36671">
        <ele>139</ele>
        <time>2024-03-14T18:30:07Z</time>
      </trkpt>
      <trkpt lat="43.68087" lon="1.3667">
        <ele>139</ele>
        <time>2024-03-14T18:30:08Z</time>
      </trkpt>
      <trkpt lat="43.6809" lon="1.36668">
        <ele>139</ele>
        <time>2024-03-14T18:30:09Z</time>
      </trkpt>
      <trkpt lat="43.68093" lon="1.36668">
        <ele>139</ele>
        <time>2024-03-14T18:30:10Z</time>
      </trkpt>
      <trkpt lat="43.68096" lon="1.36666">
        <ele>139</ele>
        <time>2024-03-14T18:30:11Z</time>
      </trkpt>
      <trkpt lat="43.68098" lon="1.36665">
        <ele>139</ele>
        <time>2024-03-14T18:30:12Z</time>
      </trkpt>
      <trkpt lat="43.681" lon="1.36663">
        <ele>139</ele>
        <time>2024-03-14T18:30:13Z</time>
      </trkpt>
      <trkpt lat="43.68103" lon="1.36662">
        <ele>139</ele>
        <time>2024-03-14T18:30:14Z</time>
      </trkpt>
      <trkpt lat="43.68105" lon="1.36661">
        <ele>139</ele>
        <time>2024-03-14T18:30:15Z</time>
      </trkpt>
      <trkpt lat="43.68108" lon="1.36659">
        <ele>139</ele>
        <time>2024-03-14T18:30:16Z</time>
      </trkpt>
      <trkpt lat="43.6811" lon="1.36659">
        <ele>139</ele>
        <time>2024-03-14T18:30:17Z</time>
      </trkpt>
      <trkpt lat="43.68113" lon="1.36657">
        <ele>139</ele>
        <time>2024-03-14T18:30:18Z</time>
      </trkpt>
      <trkpt lat="43.68115" lon="1.36656">
        <ele>139</ele>
        <time>2024-03-14T18:30:19Z</time>
      </trkpt>
      <trkpt lat="43.68118" lon="1.36655">
        <ele>139</ele>
        <time>2024-03-14T18:30:20Z</time>
      </trkpt>
      <trkpt lat="43.6812" lon="1.36654">
        <ele>139</ele>
        <time>2024-03-14T18:30:21Z</time>
      </trkpt>
      <trkpt lat="43.68123" lon="1.36653">
        <ele>139</ele>
        <time>2024-03-14T18:30:22Z</time>
      </trkpt>
      <trkpt lat="43.68125" lon="1.36652">
        <ele>139</ele>
        <time>2024-03-14T18:30:23Z</time>
      </trkpt>
      <trkpt lat="43.68128" lon="1.36651">
        <ele>139</ele>
        <time>2024-03-14T18:30:24Z</time>
      </trkpt>
      <trkpt lat="43.6813" lon="1.36649">
        <ele>139</ele>
        <time>2024-03-14T18:30:25Z</time>
      </trkpt>
      <trkpt lat="43.68133" lon="1.36648">
        <ele>139</ele>
        <time>2024-03-14T18:30:26Z</time>
      </trkpt>
      <trkpt lat="43.68135" lon="1.36647">
        <ele>139</ele>
        <time>2024-03-14T18:30:27Z</time>
      </trkpt>
      <trkpt lat="43.68137" lon="1.36646">
        <ele>139</ele>
        <time>2024-03-14T18:30:28Z</time>
      </trkpt>
      <trkpt lat="43.6814" lon="1.36645">
        <ele>139</ele>
        <time>2024-03-14T18:30:29Z</time>
      </trkpt>
      <trkpt lat="43.68143" lon="1.36644">
        <ele>139</ele>
        <time>2024-03-14T18:30:30Z</time>
      </trkpt>
      <trkpt lat="43.68145" lon="1.36644">
        <ele>139</ele>
        <time>2024-03-14T18:30:31Z</time>
      </trkpt>
      <trkpt lat="43.68148" lon="1.36644">
        <ele>139</ele>
        <time>2024-03-14T18:30:32Z</time>
      </trkpt>
      <trkpt lat="43.68151" lon="1.36643">
        <ele>139</ele>
        <time>2024-03-14T18:30:33Z</time>
      </trkpt>
      <trkpt lat="43.68154" lon="1.36642">
        <ele>139</ele>
        <time>2024-03-14T18:30:34Z</time>
      </trkpt>
      <trkpt lat="43.68157" lon="1.36641">
        <ele>139</ele>
        <time>2024-03-14T18:30:35Z</time>
      </trkpt>
      <trkpt lat="43.68159" lon="1.3664">
        <ele>139</ele>
        <time>2024-03-14T18:30:36Z</time>
      </trkpt>
      <trkpt lat="43.68162" lon="1.36638">
        <ele>139</ele>
        <time>2024-03-14T18:30:37Z</time>
      </trkpt>
      <trkpt lat="43.68164" lon="1.36637">
        <ele>139</ele>
        <time>2024-03-14T18:30:38Z</time>
      </trkpt>
      <trkpt lat="43.68167" lon="1.36636">
        <ele>139</ele>
        <time>2024-03-14T18:30:39Z</time>
      </trkpt>
      <trkpt lat="43.68169" lon="1.36635">
        <ele>139</ele>
        <time>2024-03-14T18:30:40Z</time>
      </trkpt>
      <trkpt lat="43.68172" lon="1.36634">
        <ele>140</ele>
        <time>2024-03-14T18:30:41Z</time>
      </trkpt>
      <trkpt lat="43.68174" lon="1.36633">
        <ele>140</ele>
        <time>2024-03-14T18:30:42Z</time>
      </trkpt>
      <trkpt lat="43.68177" lon="1.36632">
        <ele>140</ele>
        <time>2024-03-14T18:30:43Z</time>
      </trkpt>
      <trkpt lat="43.68179" lon="1.36631">
        <ele>139</ele>
        <time>2024-03-14T18:30:44Z</time>
      </trkpt>
      <trkpt lat="43.68182" lon="1.36632">
        <ele>139</ele>
        <time>2024-03-14T18:30:45Z</time>
      </trkpt>
      <trkpt lat="43.68184" lon="1.36633">
        <ele>139</ele>
        <time>2024-03-14T18:30:46Z</time>
      </trkpt>
      <trkpt lat="43.68187" lon="1.36634">
        <ele>139</ele>
        <time>2024-03-14T18:30:47Z</time>
      </trkpt>
      <trkpt lat="43.6819" lon="1.36635">
        <ele>140</ele>
        <time>2024-03-14T18:30:48Z</time>
      </trkpt>
      <trkpt lat="43.68193" lon="1.36635">
        <ele>140</ele>
        <time>2024-03-14T18:30:49Z</time>
      </trkpt>
      <trkpt lat="43.68195" lon="1.36634">
        <ele>140</ele>
        <time>2024-03-14T18:30:50Z</time>
      </trkpt>
      <trkpt lat="43.68197" lon="1.36633">
        <ele>140</ele>
        <time>2024-03-14T18:30:51Z</time>
      </trkpt>
      <trkpt lat="43.682" lon="1.36631">
        <ele>140</ele>
        <time>2024-03-14T18:30:52Z</time>
      </trkpt>
      <trkpt lat="43.68202" lon="1.36631">
        <ele>140</ele>
        <time>2024-03-14T18:30:53Z</time>
      </trkpt>
      <trkpt lat="43.68204" lon="1.36629">
        <ele>139</ele>
        <time>2024-03-14T18:30:54Z</time>
      </trkpt>
      <trkpt lat="43.68207" lon="1.36627">
        <ele>139</ele>
        <time>2024-03-14T18:30:55Z</time>
      </trkpt>
      <trkpt lat="43.68209" lon="1.36625">
        <ele>139</ele>
        <time>2024-03-14T18:30:56Z</time>
      </trkpt>
      <trkpt lat="43.68211" lon="1.36624">
        <ele>139</ele>
        <time>2024-03-14T18:30:57Z</time>
      </trkpt>
      <trkpt lat="43.68213" lon="1.36622">
        <ele>139</ele>
        <time>2024-03-14T18:30:58Z</time>
      </trkpt>
      <trkpt lat="43.68216" lon="1.36621">
        <ele>139</ele>
        <time>2024-03-14T18:30:59Z</time>
      </trkpt>
      <trkpt lat="43.68218" lon="1.36619">
        <ele>140</ele>
        <time>2024-03-14T18:31:00Z</time>
      </trkpt>
      <trkpt lat="43.6822" lon="1.36618">
        <ele>140</ele>
        <time>2024-03-14T18:31:01Z</time>
      </trkpt>
      <trkpt lat="43.68223" lon="1.36617">
        <ele>140</ele>
        <time>2024-03-14T18:31:02Z</time>
      </trkpt>
      <trkpt lat="43.68225" lon="1.36615">
        <ele>140</ele>
        <time>2024-03-14T18:31:03Z</time>
      </trkpt>
      <trkpt lat="43.68228" lon="1.36613">
        <ele>140</ele>
        <time>2024-03-14T18:31:04Z</time>
      </trkpt>
      <trkpt lat="43.6823" lon="1.36612">
        <ele>140</ele>
        <time>2024-03-14T18:31:05Z</time>
      </trkpt>
      <trkpt lat="43.68233" lon="1.3661">
        <ele>140</ele>
        <time>2024-03-14T18:31:06Z</time>
      </trkpt>
      <trkpt lat="43.68235" lon="1.36608">
        <ele>140</ele>
        <time>2024-03-14T18:31:07Z</time>
      </trkpt>
      <trkpt lat="43.68237" lon="1.36607">
        <ele>140</ele>
        <time>2024-03-14T18:31:08Z</time>
      </trkpt>
      <trkpt lat="43.6824" lon="1.36605">
        <ele>140</ele>
        <time>2024-03-14T18:31:09Z</time>
      </trkpt>
      <trkpt lat="43.68242" lon="1.36604">
        <ele>140</ele>
        <time>2024-03-14T18:31:10Z</time>
      </trkpt>
      <trkpt lat="43.68244" lon="1.36603">
        <ele>140</ele>
        <time>2024-03-14T18:31:11Z</time>
      </trkpt>
      <trkpt lat="43.68247" lon="1.36601">
        <ele>140</ele>
        <time>2024-03-14T18:31:12Z</time>
      </trkpt>
      <trkpt lat="43.68249" lon="1.366">
        <ele>140</ele>
        <time>2024-03-14T18:31:13Z</time>
      </trkpt>
      <trkpt lat="43.68251" lon="1.36598">
        <ele>140</ele>
        <time>2024-03-14T18:31:14Z</time>
      </trkpt>
      <trkpt lat="43.68254" lon="1.36596">
        <ele>140</ele>
        <time>2024-03-14T18:31:15Z</time>
      </trkpt>
      <trkpt lat="43.68256" lon="1.36594">
        <ele>140</ele>
        <time>2024-03-14T18:31:16Z</time>
      </trkpt>
      <trkpt lat="43.68259" lon="1.36592">
        <ele>140</ele>
        <time>2024-03-14T18:31:17Z</time>
      </trkpt>
      <trkpt lat="43.68261" lon="1.3659">
        <ele>140</ele>
        <time>2024-03-14T18:31:18Z</time>
      </trkpt>
      <trkpt lat="43.68264" lon="1.36589">
        <ele>140</ele>
        <time>2024-03-14T18:31:19Z</time>
      </trkpt>
      <trkpt lat="43.68266" lon="1.36587">
        <ele>140</ele>
        <time>2024-03-14T18:31:20Z</time>
      </trkpt>
      <trkpt lat="43.68269" lon="1.36586">
        <ele>140</ele>
        <time>2024-03-14T18:31:21Z</time>
      </trkpt>
      <trkpt lat="43.68271" lon="1.36583">
        <ele>140</ele>
        <time>2024-03-14T18:31:22Z</time>
      </trkpt>
      <trkpt lat="43.68273" lon="1.3658">
        <ele>140</ele>
        <time>2024-03-14T18:31:23Z</time>
      </trkpt>
      <trkpt lat="43.68275" lon="1.36579">
        <ele>140</ele>
        <time>2024-03-14T18:31:24Z</time>
      </trkpt>
      <trkpt lat="43.68278" lon="1.36577">
        <ele>140</ele>
        <time>2024-03-14T18:31:25Z</time>
      </trkpt>
      <trkpt lat="43.68283" lon="1.36573">
        <ele>140</ele>
        <time>2024-03-14T18:31:26Z</time>
      </trkpt>
      <trkpt lat="43.68283" lon="1.36573">
        <ele>139</ele>
        <time>2024-03-14T18:31:27Z</time>
      </trkpt>
      <trkpt lat="43.68285" lon="1.36572">
        <ele>139</ele>
        <time>2024-03-14T18:31:28Z</time>
      </trkpt>
      <trkpt lat="43.68287" lon="1.36571">
        <ele>139</ele>
        <time>2024-03-14T18:31:29Z</time>
      </trkpt>
      <trkpt lat="43.6829" lon="1.3657">
        <ele>139</ele>
        <time>2024-03-14T18:31:30Z</time>
      </trkpt>
      <trkpt lat="43.68292" lon="1.36569">
        <ele>139</ele>
        <time>2024-03-14T18:31:31Z</time>
      </trkpt>
      <trkpt lat="43.68295" lon="1.36569">
        <ele>139</ele>
        <time>2024-03-14T18:31:32Z</time>
      </trkpt>
      <trkpt lat="43.68298" lon="1.36568">
        <ele>139</ele>
        <time>2024-03-14T18:31:33Z</time>
      </trkpt>
      <trkpt lat="43.683" lon="1.36566">
        <ele>139</ele>
        <time>2024-03-14T18:31:34Z</time>
      </trkpt>
      <trkpt lat="43.68302" lon="1.36564">
        <ele>139</ele>
        <time>2024-03-14T18:31:35Z</time>
      </trkpt>
      <trkpt lat="43.68304" lon="1.36562">
        <ele>139</ele>
        <time>2024-03-14T18:31:36Z</time>
      </trkpt>
      <trkpt lat="43.68306" lon="1.3656">
        <ele>139</ele>
        <time>2024-03-14T18:31:37Z</time>
      </trkpt>
      <trkpt lat="43.68308" lon="1.36557">
        <ele>139</ele>
        <time>2024-03-14T18:31:38Z</time>
      </trkpt>
      <trkpt lat="43.6831" lon="1.36555">
        <ele>139</ele>
        <time>2024-03-14T18:31:39Z</time>
      </trkpt>
      <trkpt lat="43.68312" lon="1.36554">
        <ele>139</ele>
        <time>2024-03-14T18:31:40Z</time>
      </trkpt>
      <trkpt lat="43.68314" lon="1.36551">
        <ele>139</ele>
        <time>2024-03-14T18:31:41Z</time>
      </trkpt>
      <trkpt lat="43.68316" lon="1.36549">
        <ele>139</ele>
        <time>2024-03-14T18:31:42Z</time>
      </trkpt>
      <trkpt lat="43.68319" lon="1.36547">
        <ele>139</ele>
        <time>2024-03-14T18:31:43Z</time>
      </trkpt>
      <trkpt lat="43.68321" lon="1.36546">
        <ele>139</ele>
        <time>2024-03-14T18:31:44Z</time>
      </trkpt>
      <trkpt lat="43.68326" lon="1.36545">
        <ele>139</ele>
        <time>2024-03-14T18:31:45Z</time>
      </trkpt>
      <trkpt lat="43.68326" lon="1.36545">
        <ele>139</ele>
        <time>2024-03-14T18:31:46Z</time>
      </trkpt>
      <trkpt lat="43.68329" lon="1.36544">
        <ele>139</ele>
        <time>2024-03-14T18:31:47Z</time>
      </trkpt>
      <trkpt lat="43.68334" lon="1.36541">
        <ele>139</ele>
        <time>2024-03-14T18:31:48Z</time>
      </trkpt>
      <trkpt lat="43.68334" lon="1.36541">
        <ele>139</ele>
        <time>2024-03-14T18:31:49Z</time>
      </trkpt>
      <trkpt lat="43.68337" lon="1.3654">
        <ele>139</ele>
        <time>2024-03-14T18:31:50Z</time>
      </trkpt>
      <trkpt lat="43.68339" lon="1.36538">
        <ele>139</ele>
        <time>2024-03-14T18:31:51Z</time>
      </trkpt>
      <trkpt lat="43.68341" lon="1.36537">
        <ele>139</ele>
        <time>2024-03-14T18:31:52Z</time>
      </trkpt>
      <trkpt lat="43.68343" lon="1.36536">
        <ele>139</ele>
        <time>2024-03-14T18:31:53Z</time>
      </trkpt>
      <trkpt lat="43.68346" lon="1.36535">
        <ele>139</ele>
        <time>2024-03-14T18:31:54Z</time>
      </trkpt>
      <trkpt lat="43.68348" lon="1.36534">
        <ele>139</ele>
        <time>2024-03-14T18:31:55Z</time>
      </trkpt>
      <trkpt lat="43.6835" lon="1.36532">
        <ele>139</ele>
        <time>2024-03-14T18:31:56Z</time>
      </trkpt>
      <trkpt lat="43.68352" lon="1.3653">
        <ele>139</ele>
        <time>2024-03-14T18:31:57Z</time>
      </trkpt>
      <trkpt lat="43.68355" lon="1.36529">
        <ele>139</ele>
        <time>2024-03-14T18:31:58Z</time>
      </trkpt>
      <trkpt lat="43.68357" lon="1.36528">
        <ele>139</ele>
        <time>2024-03-14T18:31:59Z</time>
      </trkpt>
      <trkpt lat="43.68359" lon="1.36526">
        <ele>139</ele>
        <time>2024-03-14T18:32:00Z</time>
      </trkpt>
      <trkpt lat="43.68361" lon="1.36524">
        <ele>139</ele>
        <time>2024-03-14T18:32:01Z</time>
      </trkpt>
      <trkpt lat="43.68363" lon="1.36522">
        <ele>139</ele>
        <time>2024-03-14T18:32:02Z</time>
      </trkpt>
      <trkpt lat="43.68366" lon="1.36521">
        <ele>139</ele>
        <time>2024-03-14T18:32:03Z</time>
      </trkpt>
      <trkpt lat="43.6837" lon="1.36517">
        <ele>139</ele>
        <time>2024-03-14T18:32:04Z</time>
      </trkpt>
      <trkpt lat="43.6837" lon="1.36517">
        <ele>139</ele>
        <time>2024-03-14T18:32:05Z</time>
      </trkpt>
      <trkpt lat="43.68372" lon="1.36516">
        <ele>139</ele>
        <time>2024-03-14T18:32:06Z</time>
      </trkpt>
      <trkpt lat="43.68374" lon="1.36514">
        <ele>139</ele>
        <time>2024-03-14T18:32:07Z</time>
      </trkpt>
      <trkpt lat="43.68376" lon="1.36512">
        <ele>139</ele>
        <time>2024-03-14T18:32:08Z</time>
      </trkpt>
      <trkpt lat="43.68379" lon="1.3651">
        <ele>139</ele>
        <time>2024-03-14T18:32:09Z</time>
      </trkpt>
      <trkpt lat="43.68381" lon="1.36508">
        <ele>139</ele>
        <time>2024-03-14T18:32:10Z</time>
      </trkpt>
      <trkpt lat="43.68383" lon="1.36506">
        <ele>139</ele>
        <time>2024-03-14T18:32:11Z</time>
      </trkpt>
      <trkpt lat="43.68385" lon="1.36504">
        <ele>139</ele>
        <time>2024-03-14T18:32:12Z</time>
      </trkpt>
      <trkpt lat="43.68388" lon="1.36502">
        <ele>139</ele>
        <time>2024-03-14T18:32:13Z</time>
      </trkpt>
      <trkpt lat="43.6839" lon="1.365">
        <ele>139</ele>
        <time>2024-03-14T18:32:14Z</time>
      </trkpt>
      <trkpt lat="43.68392" lon="1.36498">
        <ele>139</ele>
        <time>2024-03-14T18:32:15Z</time>
      </trkpt>
      <trkpt lat="43.68395" lon="1.36496">
        <ele>139</ele>
        <time>2024-03-14T18:32:16Z</time>
      </trkpt>
      <trkpt lat="43.68397" lon="1.36494">
        <ele>139</ele>
        <time>2024-03-14T18:32:17Z</time>
      </trkpt>
      <trkpt lat="43.68399" lon="1.36492">
        <ele>139</ele>
        <time>2024-03-14T18:32:18Z</time>
      </trkpt>
      <trkpt lat="43.68401" lon="1.3649">
        <ele>139</ele>
        <time>2024-03-14T18:32:19Z</time>
      </trkpt>
      <trkpt lat="43.68403" lon="1.36488">
        <ele>139</ele>
        <time>2024-03-14T18:32:20Z</time>
      </trkpt>
      <trkpt lat="43.68406" lon="1.36486">
        <ele>139</ele>
        <time>2024-03-14T18:32:21Z</time>
      </trkpt>
      <trkpt lat="43.68408" lon="1.36485">
        <ele>139</ele>
        <time>2024-03-14T18:32:22Z</time>
      </trkpt>
      <trkpt lat="43.68412" lon="1.36481">
        <ele>139</ele>
        <time>2024-03-14T18:32:23Z</time>
      </trkpt>
      <trkpt lat="43.68412" lon="1.36481">
        <ele>139</ele>
        <time>2024-03-14T18:32:24Z</time>
      </trkpt>
      <trkpt lat="43.68415" lon="1.36479">
        <ele>139</ele>
        <time>2024-03-14T18:32:25Z</time>
      </trkpt>
      <trkpt lat="43.68417" lon="1.36477">
        <ele>139</ele>
        <time>2024-03-14T18:32:26Z</time>
      </trkpt>
      <trkpt lat="43.68419" lon="1.36474">
        <ele>139</ele>
        <time>2024-03-14T18:32:27Z</time>
      </trkpt>
      <trkpt lat="43.68421" lon="1.36472">
        <ele>139</ele>
        <time>2024-03-14T18:32:28Z</time>
      </trkpt>
      <trkpt lat="43.68424" lon="1.3647">
        <ele>139</ele>
        <time>2024-03-14T18:32:29Z</time>
      </trkpt>
      <trkpt lat="43.68426" lon="1.36468">
        <ele>139</ele>
        <time>2024-03-14T18:32:30Z</time>
      </trkpt>
      <trkpt lat="43.68428" lon="1.36466">
        <ele>139</ele>
        <time>2024-03-14T18:32:31Z</time>
      </trkpt>
      <trkpt lat="43.6843" lon="1.36464">
        <ele>139</ele>
        <time>2024-03-14T18:32:32Z</time>
      </trkpt>
      <trkpt lat="43.68433" lon="1.36463">
        <ele>139</ele>
        <time>2024-03-14T18:32:33Z</time>
      </trkpt>
      <trkpt lat="43.68435" lon="1.36461">
        <ele>139</ele>
        <time>2024-03-14T18:32:34Z</time>
      </trkpt>
      <trkpt lat="43.68438" lon="1.36459">
        <ele>139</ele>
        <time>2024-03-14T18:32:35Z</time>
      </trkpt>
      <trkpt lat="43.6844" lon="1.36457">
        <ele>140</ele>
        <time>2024-03-14T18:32:36Z</time>
      </trkpt>
      <trkpt lat="43.68442" lon="1.36455">
        <ele>140</ele>
        <time>2024-03-14T18:32:37Z</time>
      </trkpt>
      <trkpt lat="43.68444" lon="1.36453">
        <ele>140</ele>
        <time>2024-03-14T18:32:38Z</time>
      </trkpt>
      <trkpt lat="43.68447" lon="1.36451">
        <ele>140</ele>
        <time>2024-03-14T18:32:39Z</time>
      </trkpt>
      <trkpt lat="43.68449" lon="1.36449">
        <ele>140</ele>
        <time>2024-03-14T18:32:40Z</time>
      </trkpt>
      <trkpt lat="43.68451" lon="1.36447">
        <ele>139</ele>
        <time>2024-03-14T18:32:41Z</time>
      </trkpt>
      <trkpt lat="43.68456" lon="1.36443">
        <ele>139</ele>
        <time>2024-03-14T18:32:42Z</time>
      </trkpt>
      <trkpt lat="43.68456" lon="1.36443">
        <ele>139</ele>
        <time>2024-03-14T18:32:43Z</time>
      </trkpt>
      <trkpt lat="43.68458" lon="1.36441">
        <ele>139</ele>
        <time>2024-03-14T18:32:44Z</time>
      </trkpt>
      <trkpt lat="43.68461" lon="1.36439">
        <ele>139</ele>
        <time>2024-03-14T18:32:45Z</time>
      </trkpt>
      <trkpt lat="43.68463" lon="1.36437">
        <ele>139</ele>
        <time>2024-03-14T18:32:46Z</time>
      </trkpt>
      <trkpt lat="43.68465" lon="1.36435">
        <ele>139</ele>
        <time>2024-03-14T18:32:47Z</time>
      </trkpt>
      <trkpt lat="43.68467" lon="1.36433">
        <ele>139</ele>
        <time>2024-03-14T18:32:48Z</time>
      </trkpt>
      <trkpt lat="43.68469" lon="1.3643">
        <ele>139</ele>
        <time>2024-03-14T18:32:49Z</time>
      </trkpt>
      <trkpt lat="43.68472" lon="1.36428">
        <ele>139</ele>
        <time>2024-03-14T18:32:50Z</time>
      </trkpt>
      <trkpt lat="43.68474" lon="1.36425">
        <ele>139</ele>
        <time>2024-03-14T18:32:51Z</time>
      </trkpt>
      <trkpt lat="43.68476" lon="1.36423">
        <ele>139</ele>
        <time>2024-03-14T18:32:52Z</time>
      </trkpt>
      <trkpt lat="43.68479" lon="1.36421">
        <ele>139</ele>
        <time>2024-03-14T18:32:53Z</time>
      </trkpt>
      <trkpt lat="43.68481" lon="1.36418">
        <ele>139</ele>
        <time>2024-03-14T18:32:54Z</time>
      </trkpt>
      <trkpt lat="43.68483" lon="1.36416">
        <ele>139</ele>
        <time>2024-03-14T18:32:55Z</time>
      </trkpt>
      <trkpt lat="43.68485" lon="1.36414">
        <ele>139</ele>
        <time>2024-03-14T18:32:56Z</time>
      </trkpt>
      <trkpt lat="43.68487" lon="1.36412">
        <ele>139</ele>
        <time>2024-03-14T18:32:57Z</time>
      </trkpt>
      <trkpt lat="43.68489" lon="1.3641">
        <ele>139</ele>
        <time>2024-03-14T18:32:58Z</time>
      </trkpt>
      <trkpt lat="43.68491" lon="1.36408">
        <ele>139</ele>
        <time>2024-03-14T18:32:59Z</time>
      </trkpt>
      <trkpt lat="43.68493" lon="1.36406">
        <ele>139</ele>
        <time>2024-03-14T18:33:00Z</time>
      </trkpt>
      <trkpt lat="43.68498" lon="1.36402">
        <ele>139</ele>
        <time>2024-03-14T18:33:01Z</time>
      </trkpt>
      <trkpt lat="43.68498" lon="1.36402">
        <ele>140</ele>
        <time>2024-03-14T18:33:02Z</time>
      </trkpt>
      <trkpt lat="43.685" lon="1.36401">
        <ele>140</ele>
        <time>2024-03-14T18:33:03Z</time>
      </trkpt>
      <trkpt lat="43.68502" lon="1.36399">
        <ele>140</ele>
        <time>2024-03-14T18:33:04Z</time>
      </trkpt>
      <trkpt lat="43.68504" lon="1.36396">
        <ele>140</ele>
        <time>2024-03-14T18:33:05Z</time>
      </trkpt>
      <trkpt lat="43.68506" lon="1.36394">
        <ele>140</ele>
        <time>2024-03-14T18:33:06Z</time>
      </trkpt>
      <trkpt lat="43.68508" lon="1.36392">
        <ele>140</ele>
        <time>2024-03-14T18:33:07Z</time>
      </trkpt>
      <trkpt lat="43.6851" lon="1.36389">
        <ele>140</ele>
        <time>2024-03-14T18:33:08Z</time>
      </trkpt>
      <trkpt lat="43.68512" lon="1.36387">
        <ele>140</ele>
        <time>2024-03-14T18:33:09Z</time>
      </trkpt>
      <trkpt lat="43.68514" lon="1.36385">
        <ele>140</ele>
        <time>2024-03-14T18:33:10Z</time>
      </trkpt>
      <trkpt lat="43.68516" lon="1.36382">
        <ele>140</ele>
        <time>2024-03-14T18:33:11Z</time>
      </trkpt>
      <trkpt lat="43.68518" lon="1.3638">
        <ele>140</ele>
        <time>2024-03-14T18:33:12Z</time>
      </trkpt>
      <trkpt lat="43.6852" lon="1.36378">
        <ele>140</ele>
        <time>2024-03-14T18:33:13Z</time>
      </trkpt>
      <trkpt lat="43.68522" lon="1.36375">
        <ele>140</ele>
        <time>2024-03-14T18:33:14Z</time>
      </trkpt>
      <trkpt lat="43.68525" lon="1.36373">
        <ele>140</ele>
        <time>2024-03-14T18:33:15Z</time>
      </trkpt>
      <trkpt lat="43.68527" lon="1.36371">
        <ele>140</ele>
        <time>2024-03-14T18:33:16Z</time>
      </trkpt>
      <trkpt lat="43.68529" lon="1.36369">
        <ele>140</ele>
        <time>2024-03-14T18:33:17Z</time>
      </trkpt>
      <trkpt lat="43.68531" lon="1.36367">
        <ele>140</ele>
        <time>2024-03-14T18:33:18Z</time>
      </trkpt>
      <trkpt lat="43.68533" lon="1.36364">
        <ele>140</ele>
        <time>2024-03-14T18:33:19Z</time>
      </trkpt>
      <trkpt lat="43.68537" lon="1.3636">
        <ele>140</ele>
        <time>2024-03-14T18:33:20Z</time>
      </trkpt>
      <trkpt lat="43.68537" lon="1.3636">
        <ele>140</ele>
        <time>2024-03-14T18:33:21Z</time>
      </trkpt>
      <trkpt lat="43.68539" lon="1.36357">
        <ele>140</ele>
        <time>2024-03-14T18:33:22Z</time>
      </trkpt>
      <trkpt lat="43.68541" lon="1.36355">
        <ele>140</ele>
        <time>2024-03-14T18:33:23Z</time>
      </trkpt>
      <trkpt lat="43.68543" lon="1.36353">
        <ele>140</ele>
        <time>2024-03-14T18:33:24Z</time>
      </trkpt>
      <trkpt lat="43.68545" lon="1.3635">
        <ele>139</ele>
        <time>2024-03-14T18:33:25Z</time>
      </trkpt>
      <trkpt lat="43.68547" lon="1.36347">
        <ele>139</ele>
        <time>2024-03-14T18:33:26Z</time>
      </trkpt>
      <trkpt lat="43.68549" lon="1.36345">
        <ele>139</ele>
        <time>2024-03-14T18:33:27Z</time>
      </trkpt>
      <trkpt lat="43.68551" lon="1.36342">
        <ele>139</ele>
        <time>2024-03-14T18:33:28Z</time>
      </trkpt>
      <trkpt lat="43.68553" lon="1.3634">
        <ele>139</ele>
        <time>2024-03-14T18:33:29Z</time>
      </trkpt>
      <trkpt lat="43.68555" lon="1.36338">
        <ele>139</ele>
        <time>2024-03-14T18:33:30Z</time>
      </trkpt>
      <trkpt lat="43.68557" lon="1.36336">
        <ele>139</ele>
        <time>2024-03-14T18:33:31Z</time>
      </trkpt>
      <trkpt lat="43.68559" lon="1.36334">
        <ele>140</ele>
        <time>2024-03-14T18:33:32Z</time>
      </trkpt>
      <trkpt lat="43.68561" lon="1.36332">
        <ele>140</ele>
        <time>2024-03-14T18:33:33Z</time>
      </trkpt>
      <trkpt lat="43.68563" lon="1.3633">
        <ele>140</ele>
        <time>2024-03-14T18:33:34Z</time>
      </trkpt>
      <trkpt lat="43.68566" lon="1.36328">
        <ele>140</ele>
        <time>2024-03-14T18:33:35Z</time>
      </trkpt>
      <trkpt lat="43.68568" lon="1.36326">
        <ele>140</ele>
        <time>2024-03-14T18:33:36Z</time>
      </trkpt>
      <trkpt lat="43.6857" lon="1.36324">
        <ele>140</ele>
        <time>2024-03-14T18:33:37Z</time>
      </trkpt>
      <trkpt lat="43.68572" lon="1.36322">
        <ele>140</ele>
        <time>2024-03-14T18:33:38Z</time>
      </trkpt>
      <trkpt lat="43.68576" lon="1.36317">
        <ele>140</ele>
        <time>2024-03-14T18:33:39Z</time>
      </trkpt>
      <trkpt lat="43.68576" lon="1.36317">
        <ele>140</ele>
        <time>2024-03-14T18:33:40Z</time>
      </trkpt>
      <trkpt lat="43.68578" lon="1.36315">
        <ele>140</ele>
        <time>2024-03-14T18:33:41Z</time>
      </trkpt>
      <trkpt lat="43.6858" lon="1.36313">
        <ele>139</ele>
        <time>2024-03-14T18:33:42Z</time>
      </trkpt>
      <trkpt lat="43.68582" lon="1.36311">
        <ele>139</ele>
        <time>2024-03-14T18:33:43Z</time>
      </trkpt>
      <trkpt lat="43.68584" lon="1.36309">
        <ele>139</ele>
        <time>2024-03-14T18:33:44Z</time>
      </trkpt>
      <trkpt lat="43.68586" lon="1.36306">
        <ele>139</ele>
        <time>2024-03-14T18:33:45Z</time>
      </trkpt>
      <trkpt lat="43.68589" lon="1.36304">
        <ele>140</ele>
        <time>2024-03-14T18:33:46Z</time>
      </trkpt>
      <trkpt lat="43.68591" lon="1.36302">
        <ele>140</ele>
        <time>2024-03-14T18:33:47Z</time>
      </trkpt>
      <trkpt lat="43.68593" lon="1.363">
        <ele>140</ele>
        <time>2024-03-14T18:33:48Z</time>
      </trkpt>
      <trkpt lat="43.68595" lon="1.36298">
        <ele>140</ele>
        <time>2024-03-14T18:33:49Z</time>
      </trkpt>
      <trkpt lat="43.68597" lon="1.36296">
        <ele>139</ele>
        <time>2024-03-14T18:33:50Z</time>
      </trkpt>
      <trkpt lat="43.686" lon="1.36294">
        <ele>140</ele>
        <time>2024-03-14T18:33:51Z</time>
      </trkpt>
      <trkpt lat="43.68602" lon="1.36292">
        <ele>140</ele>
        <time>2024-03-14T18:33:52Z</time>
      </trkpt>
      <trkpt lat="43.68605" lon="1.3629">
        <ele>140</ele>
        <time>2024-03-14T18:33:53Z</time>
      </trkpt>
      <trkpt lat="43.68607" lon="1.36289">
        <ele>140</ele>
        <time>2024-03-14T18:33:54Z</time>
      </trkpt>
      <trkpt lat="43.68609" lon="1.36287">
        <ele>140</ele>
        <time>2024-03-14T18:33:55Z</time>
      </trkpt>
      <trkpt lat="43.68612" lon="1.36285">
        <ele>140</ele>
        <time>2024-03-14T18:33:56Z</time>
      </trkpt>
      <trkpt lat="43.68614" lon="1.36284">
        <ele>140</ele>
        <time>2024-03-14T18:33:57Z</time>
      </trkpt>
      <trkpt lat="43.68619" lon="1.36282">
        <ele>140</ele>
        <time>2024-03-14T18:33:58Z</time>
      </trkpt>
      <trkpt lat="43.68619" lon="1.36282">
        <ele>140</ele>
        <time>2024-03-14T18:33:59Z</time>
      </trkpt>
      <trkpt lat="43.68621" lon="1.36281">
        <ele>140</ele>
        <time>2024-03-14T18:34:00Z</time>
      </trkpt>
      <trkpt lat="43.68624" lon="1.3628">
        <ele>140</ele>
        <time>2024-03-14T18:34:01Z</time>
      </trkpt>
      <trkpt lat="43.68626" lon="1.36278">
        <ele>140</ele>
        <time>2024-03-14T18:34:02Z</time>
      </trkpt>
      <trkpt lat="43.68629" lon="1.36276">
        <ele>140</ele>
        <time>2024-03-14T18:34:03Z</time>
      </trkpt>
      <trkpt lat="43.68631" lon="1.36275">
        <ele>140</ele>
        <time>2024-03-14T18:34:04Z</time>
      </trkpt>
      <trkpt lat="43.68633" lon="1.36274">
        <ele>140</ele>
        <time>2024-03-14T18:34:05Z</time>
      </trkpt>
      <trkpt lat="43.68636" lon="1.36273">
        <ele>140</ele>
        <time>2024-03-14T18:34:06Z</time>
      </trkpt>
      <trkpt lat="43.68638" lon="1.36272">
        <ele>140</ele>
        <time>2024-03-14T18:34:07Z</time>
      </trkpt>
      <trkpt lat="43.68641" lon="1.36271">
        <ele>140</ele>
        <time>2024-03-14T18:34:08Z</time>
      </trkpt>
      <trkpt lat="43.68643" lon="1.3627">
        <ele>140</ele>
        <time>2024-03-14T18:34:09Z</time>
      </trkpt>
      <trkpt lat="43.68645" lon="1.36269">
        <ele>140</ele>
        <time>2024-03-14T18:34:10Z</time>
      </trkpt>
      <trkpt lat="43.68648" lon="1.36268">
        <ele>140</ele>
        <time>2024-03-14T18:34:11Z</time>
      </trkpt>
      <trkpt lat="43.68649" lon="1.36267">
        <ele>140</ele>
        <time>2024-03-14T18:34:12Z</time>
      </trkpt>
      <trkpt lat="43.68649" lon="1.36267">
        <ele>140</ele>
        <time>2024-03-14T18:34:13Z</time>
      </trkpt>
      <trkpt lat="43.68649" lon="1.36267">
        <ele>140</ele>
        <time>2024-03-14T18:34:14Z</time>
      </trkpt>
      <trkpt lat="43.68648" lon="1.36265">
        <ele>140</ele>
        <time>2024-03-14T18:34:15Z</time>
      </trkpt>
      <trkpt lat="43.68645" lon="1.36268">
        <ele>140</ele>
        <time>2024-03-14T18:34:16Z</time>
      </trkpt>
      <trkpt lat="43.68639" lon="1.36272">
        <ele>140</ele>
        <time>2024-03-14T18:34:17Z</time>
      </trkpt>
      <trkpt lat="43.68639" lon="1.36272">
        <ele>140</ele>
        <time>2024-03-14T18:34:18Z</time>
      </trkpt>
      <trkpt lat="43.68637" lon="1.36273">
        <ele>140</ele>
        <time>2024-03-14T18:34:19Z</time>
      </trkpt>
      <trkpt lat="43.68635" lon="1.36274">
        <ele>140</ele>
        <time>2024-03-14T18:34:20Z</time>
      </trkpt>
      <trkpt lat="43.68632" lon="1.36276">
        <ele>140</ele>
        <time>2024-03-14T18:34:21Z</time>
      </trkpt>
      <trkpt lat="43.6863" lon="1.36277">
        <ele>140</ele>
        <time>2024-03-14T18:34:22Z</time>
      </trkpt>
      <trkpt lat="43.68628" lon="1.36279">
        <ele>140</ele>
        <time>2024-03-14T18:34:23Z</time>
      </trkpt>
      <trkpt lat="43.68626" lon="1.3628">
        <ele>140</ele>
        <time>2024-03-14T18:34:24Z</time>
      </trkpt>
      <trkpt lat="43.68624" lon="1.36282">
        <ele>140</ele>
        <time>2024-03-14T18:34:25Z</time>
      </trkpt>
      <trkpt lat="43.68621" lon="1.36284">
        <ele>140</ele>
        <time>2024-03-14T18:34:26Z</time>
      </trkpt>
      <trkpt lat="43.68619" lon="1.36285">
        <ele>140</ele>
        <time>2024-03-14T18:34:27Z</time>
      </trkpt>
      <trkpt lat="43.68617" lon="1.36286">
        <ele>140</ele>
        <time>2024-03-14T18:34:28Z</time>
      </trkpt>
      <trkpt lat="43.68615" lon="1.36288">
        <ele>140</ele>
        <time>2024-03-14T18:34:29Z</time>
      </trkpt>
      <trkpt lat="43.68613" lon="1.3629">
        <ele>140</ele>
        <time>2024-03-14T18:34:30Z</time>
      </trkpt>
      <trkpt lat="43.6861" lon="1.36292">
        <ele>140</ele>
        <time>2024-03-14T18:34:31Z</time>
      </trkpt>
      <trkpt lat="43.68608" lon="1.36293">
        <ele>140</ele>
        <time>2024-03-14T18:34:32Z</time>
      </trkpt>
      <trkpt lat="43.68605" lon="1.36295">
        <ele>140</ele>
        <time>2024-03-14T18:34:33Z</time>
      </trkpt>
      <trkpt lat="43.68603" lon="1.36297">
        <ele>140</ele>
        <time>2024-03-14T18:34:34Z</time>
      </trkpt>
      <trkpt lat="43.68601" lon="1.363">
        <ele>140</ele>
        <time>2024-03-14T18:34:35Z</time>
      </trkpt>
      <trkpt lat="43.68596" lon="1.36304">
        <ele>140</ele>
        <time>2024-03-14T18:34:36Z</time>
      </trkpt>
      <trkpt lat="43.68596" lon="1.36304">
        <ele>140</ele>
        <time>2024-03-14T18:34:37Z</time>
      </trkpt>
      <trkpt lat="43.68594" lon="1.36306">
        <ele>140</ele>
        <time>2024-03-14T18:34:38Z</time>
      </trkpt>
      <trkpt lat="43.68592" lon="1.36309">
        <ele>140</ele>
        <time>2024-03-14T18:34:39Z</time>
      </trkpt>
      <trkpt lat="43.6859" lon="1.36311">
        <ele>140</ele>
        <time>2024-03-14T18:34:40Z</time>
      </trkpt>
      <trkpt lat="43.68586" lon="1.36315">
        <ele>140</ele>
        <time>2024-03-14T18:34:41Z</time>
      </trkpt>
      <trkpt lat="43.68586" lon="1.36315">
        <ele>140</ele>
        <time>2024-03-14T18:34:42Z</time>
      </trkpt>
      <trkpt lat="43.68583" lon="1.36318">
        <ele>140</ele>
        <time>2024-03-14T18:34:43Z</time>
      </trkpt>
      <trkpt lat="43.68581" lon="1.3632">
        <ele>140</ele>
        <time>2024-03-14T18:34:44Z</time>
      </trkpt>
      <trkpt lat="43.68578" lon="1.36322">
        <ele>140</ele>
        <time>2024-03-14T18:34:45Z</time>
      </trkpt>
      <trkpt lat="43.68576" lon="1.36325">
        <ele>140</ele>
        <time>2024-03-14T18:34:46Z</time>
      </trkpt>
      <trkpt lat="43.68574" lon="1.36327">
        <ele>140</ele>
        <time>2024-03-14T18:34:47Z</time>
      </trkpt>
      <trkpt lat="43.68572" lon="1.3633">
        <ele>140</ele>
        <time>2024-03-14T18:34:48Z</time>
      </trkpt>
      <trkpt lat="43.6857" lon="1.36332">
        <ele>140</ele>
        <time>2024-03-14T18:34:49Z</time>
      </trkpt>
      <trkpt lat="43.68567" lon="1.36334">
        <ele>140</ele>
        <time>2024-03-14T18:34:50Z</time>
      </trkpt>
      <trkpt lat="43.68565" lon="1.36336">
        <ele>140</ele>
        <time>2024-03-14T18:34:51Z</time>
      </trkpt>
      <trkpt lat="43.68563" lon="1.36338">
        <ele>140</ele>
        <time>2024-03-14T18:34:52Z</time>
      </trkpt>
      <trkpt lat="43.68561" lon="1.36341">
        <ele>140</ele>
        <time>2024-03-14T18:34:53Z</time>
      </trkpt>
      <trkpt lat="43.68558" lon="1.36343">
        <ele>140</ele>
        <time>2024-03-14T18:34:54Z</time>
      </trkpt>
      <trkpt lat="43.68556" lon="1.36345">
        <ele>140</ele>
        <time>2024-03-14T18:34:55Z</time>
      </trkpt>
      <trkpt lat="43.68554" lon="1.36348">
        <ele>140</ele>
        <time>2024-03-14T18:34:56Z</time>
      </trkpt>
      <trkpt lat="43.68552" lon="1.3635">
        <ele>140</ele>
        <time>2024-03-14T18:34:57Z</time>
      </trkpt>
      <trkpt lat="43.6855" lon="1.36353">
        <ele>140</ele>
        <time>2024-03-14T18:34:58Z</time>
      </trkpt>
      <trkpt lat="43.68548" lon="1.36355">
        <ele>140</ele>
        <time>2024-03-14T18:34:59Z</time>
      </trkpt>
      <trkpt lat="43.68544" lon="1.36359">
        <ele>140</ele>
        <time>2024-03-14T18:35:00Z</time>
      </trkpt>
      <trkpt lat="43.68544" lon="1.36359">
        <ele>140</ele>
        <time>2024-03-14T18:35:01Z</time>
      </trkpt>
      <trkpt lat="43.68542" lon="1.36361">
        <ele>140</ele>
        <time>2024-03-14T18:35:02Z</time>
      </trkpt>
      <trkpt lat="43.68539" lon="1.36363">
        <ele>140</ele>
        <time>2024-03-14T18:35:03Z</time>
      </trkpt>
      <trkpt lat="43.68537" lon="1.36366">
        <ele>140</ele>
        <time>2024-03-14T18:35:04Z</time>
      </trkpt>
      <trkpt lat="43.68534" lon="1.36369">
        <ele>140</ele>
        <time>2024-03-14T18:35:05Z</time>
      </trkpt>
      <trkpt lat="43.68533" lon="1.3637">
        <ele>140</ele>
        <time>2024-03-14T18:35:06Z</time>
      </trkpt>
      <trkpt lat="43.68531" lon="1.36372">
        <ele>140</ele>
        <time>2024-03-14T18:35:07Z</time>
      </trkpt>
      <trkpt lat="43.68529" lon="1.36374">
        <ele>140</ele>
        <time>2024-03-14T18:35:08Z</time>
      </trkpt>
      <trkpt lat="43.68527" lon="1.36376">
        <ele>140</ele>
        <time>2024-03-14T18:35:09Z</time>
      </trkpt>
      <trkpt lat="43.68526" lon="1.36378">
        <ele>140</ele>
        <time>2024-03-14T18:35:10Z</time>
      </trkpt>
      <trkpt lat="43.68524" lon="1.36381">
        <ele>140</ele>
        <time>2024-03-14T18:35:11Z</time>
      </trkpt>
      <trkpt lat="43.6852" lon="1.36384">
        <ele>139</ele>
        <time>2024-03-14T18:35:12Z</time>
      </trkpt>
      <trkpt lat="43.68519" lon="1.36385">
        <ele>139</ele>
        <time>2024-03-14T18:35:13Z</time>
      </trkpt>
      <trkpt lat="43.68517" lon="1.36387">
        <ele>139</ele>
        <time>2024-03-14T18:35:14Z</time>
      </trkpt>
      <trkpt lat="43.68515" lon="1.36389">
        <ele>139</ele>
        <time>2024-03-14T18:35:15Z</time>
      </trkpt>
      <trkpt lat="43.68513" lon="1.36391">
        <ele>140</ele>
        <time>2024-03-14T18:35:16Z</time>
      </trkpt>
      <trkpt lat="43.6851" lon="1.36394">
        <ele>140</ele>
        <time>2024-03-14T18:35:17Z</time>
      </trkpt>
      <trkpt lat="43.68508" lon="1.36396">
        <ele>140</ele>
        <time>2024-03-14T18:35:18Z</time>
      </trkpt>
      <trkpt lat="43.68506" lon="1.36398">
        <ele>139</ele>
        <time>2024-03-14T18:35:19Z</time>
      </trkpt>
      <trkpt lat="43.68504" lon="1.36401">
        <ele>139</ele>
        <time>2024-03-14T18:35:20Z</time>
      </trkpt>
      <trkpt lat="43.68502" lon="1.36403">
        <ele>139</ele>
        <time>2024-03-14T18:35:21Z</time>
      </trkpt>
      <trkpt lat="43.685" lon="1.36405">
        <ele>139</ele>
        <time>2024-03-14T18:35:22Z</time>
      </trkpt>
      <trkpt lat="43.68498" lon="1.36408">
        <ele>139</ele>
        <time>2024-03-14T18:35:23Z</time>
      </trkpt>
      <trkpt lat="43.68496" lon="1.3641">
        <ele>139</ele>
        <time>2024-03-14T18:35:24Z</time>
      </trkpt>
      <trkpt lat="43.68494" lon="1.36412">
        <ele>139</ele>
        <time>2024-03-14T18:35:25Z</time>
      </trkpt>
      <trkpt lat="43.68492" lon="1.36415">
        <ele>139</ele>
        <time>2024-03-14T18:35:26Z</time>
      </trkpt>
      <trkpt lat="43.6849" lon="1.36418">
        <ele>139</ele>
        <time>2024-03-14T18:35:27Z</time>
      </trkpt>
      <trkpt lat="43.68488" lon="1.3642">
        <ele>139</ele>
        <time>2024-03-14T18:35:28Z</time>
      </trkpt>
      <trkpt lat="43.68486" lon="1.36422">
        <ele>139</ele>
        <time>2024-03-14T18:35:29Z</time>
      </trkpt>
      <trkpt lat="43.68483" lon="1.36425">
        <ele>139</ele>
        <time>2024-03-14T18:35:30Z</time>
      </trkpt>
      <trkpt lat="43.68481" lon="1.36428">
        <ele>139</ele>
        <time>2024-03-14T18:35:31Z</time>
      </trkpt>
      <trkpt lat="43.68479" lon="1.3643">
        <ele>139</ele>
        <time>2024-03-14T18:35:32Z</time>
      </trkpt>
      <trkpt lat="43.68477" lon="1.36432">
        <ele>139</ele>
        <time>2024-03-14T18:35:33Z</time>
      </trkpt>
      <trkpt lat="43.68475" lon="1.36434">
        <ele>139</ele>
        <time>2024-03-14T18:35:34Z</time>
      </trkpt>
      <trkpt lat="43.68472" lon="1.36437">
        <ele>139</ele>
        <time>2024-03-14T18:35:35Z</time>
      </trkpt>
      <trkpt lat="43.6847" lon="1.36439">
        <ele>140</ele>
        <time>2024-03-14T18:35:36Z</time>
      </trkpt>
      <trkpt lat="43.68468" lon="1.36441">
        <ele>140</ele>
        <time>2024-03-14T18:35:37Z</time>
      </trkpt>
      <trkpt lat="43.68465" lon="1.36445">
        <ele>139</ele>
        <time>2024-03-14T18:35:38Z</time>
      </trkpt>
      <trkpt lat="43.68464" lon="1.36446">
        <ele>139</ele>
        <time>2024-03-14T18:35:39Z</time>
      </trkpt>
      <trkpt lat="43.68461" lon="1.36448">
        <ele>139</ele>
        <time>2024-03-14T18:35:40Z</time>
      </trkpt>
      <trkpt lat="43.68459" lon="1.3645">
        <ele>139</ele>
        <time>2024-03-14T18:35:41Z</time>
      </trkpt>
      <trkpt lat="43.68455" lon="1.36454">
        <ele>139</ele>
        <time>2024-03-14T18:35:42Z</time>
      </trkpt>
      <trkpt lat="43.68455" lon="1.36454">
        <ele>139</ele>
        <time>2024-03-14T18:35:43Z</time>
      </trkpt>
      <trkpt lat="43.68452" lon="1.36456">
        <ele>139</ele>
        <time>2024-03-14T18:35:44Z</time>
      </trkpt>
      <trkpt lat="43.6845" lon="1.36458">
        <ele>139</ele>
        <time>2024-03-14T18:35:45Z</time>
      </trkpt>
      <trkpt lat="43.68448" lon="1.3646">
        <ele>139</ele>
        <time>2024-03-14T18:35:46Z</time>
      </trkpt>
      <trkpt lat="43.68446" lon="1.36463">
        <ele>139</ele>
        <time>2024-03-14T18:35:47Z</time>
      </trkpt>
      <trkpt lat="43.68444" lon="1.36465">
        <ele>139</ele>
        <time>2024-03-14T18:35:48Z</time>
      </trkpt>
      <trkpt lat="43.68441" lon="1.36467">
        <ele>139</ele>
        <time>2024-03-14T18:35:49Z</time>
      </trkpt>
      <trkpt lat="43.68439" lon="1.36469">
        <ele>140</ele>
        <time>2024-03-14T18:35:50Z</time>
      </trkpt>
      <trkpt lat="43.68437" lon="1.36471">
        <ele>140</ele>
        <time>2024-03-14T18:35:51Z</time>
      </trkpt>
      <trkpt lat="43.68435" lon="1.36472">
        <ele>140</ele>
        <time>2024-03-14T18:35:52Z</time>
      </trkpt>
      <trkpt lat="43.68433" lon="1.36474">
        <ele>140</ele>
        <time>2024-03-14T18:35:53Z</time>
      </trkpt>
      <trkpt lat="43.68431" lon="1.36475">
        <ele>140</ele>
        <time>2024-03-14T18:35:54Z</time>
      </trkpt>
      <trkpt lat="43.68429" lon="1.36477">
        <ele>139</ele>
        <time>2024-03-14T18:35:55Z</time>
      </trkpt>
      <trkpt lat="43.68428" lon="1.36479">
        <ele>139</ele>
        <time>2024-03-14T18:35:56Z</time>
      </trkpt>
      <trkpt lat="43.68426" lon="1.36481">
        <ele>139</ele>
        <time>2024-03-14T18:35:57Z</time>
      </trkpt>
      <trkpt lat="43.68424" lon="1.36483">
        <ele>139</ele>
        <time>2024-03-14T18:35:58Z</time>
      </trkpt>
      <trkpt lat="43.68421" lon="1.36484">
        <ele>139</ele>
        <time>2024-03-14T18:35:59Z</time>
      </trkpt>
      <trkpt lat="43.68419" lon="1.36486">
        <ele>139</ele>
        <time>2024-03-14T18:36:00Z</time>
      </trkpt>
      <trkpt lat="43.68417" lon="1.36488">
        <ele>139</ele>
        <time>2024-03-14T18:36:01Z</time>
      </trkpt>
      <trkpt lat="43.68414" lon="1.36489">
        <ele>139</ele>
        <time>2024-03-14T18:36:02Z</time>
      </trkpt>
      <trkpt lat="43.68412" lon="1.36491">
        <ele>139</ele>
        <time>2024-03-14T18:36:03Z</time>
      </trkpt>
      <trkpt lat="43.68409" lon="1.36493">
        <ele>139</ele>
        <time>2024-03-14T18:36:04Z</time>
      </trkpt>
      <trkpt lat="43.68406" lon="1.36495">
        <ele>139</ele>
        <time>2024-03-14T18:36:05Z</time>
      </trkpt>
      <trkpt lat="43.68404" lon="1.36496">
        <ele>139</ele>
        <time>2024-03-14T18:36:06Z</time>
      </trkpt>
      <trkpt lat="43.68402" lon="1.36498">
        <ele>139</ele>
        <time>2024-03-14T18:36:07Z</time>
      </trkpt>
      <trkpt lat="43.68399" lon="1.365">
        <ele>139</ele>
        <time>2024-03-14T18:36:08Z</time>
      </trkpt>
      <trkpt lat="43.68397" lon="1.36502">
        <ele>139</ele>
        <time>2024-03-14T18:36:09Z</time>
      </trkpt>
      <trkpt lat="43.68395" lon="1.36504">
        <ele>139</ele>
        <time>2024-03-14T18:36:10Z</time>
      </trkpt>
      <trkpt lat="43.68393" lon="1.36505">
        <ele>139</ele>
        <time>2024-03-14T18:36:11Z</time>
      </trkpt>
      <trkpt lat="43.68391" lon="1.36507">
        <ele>139</ele>
        <time>2024-03-14T18:36:12Z</time>
      </trkpt>
      <trkpt lat="43.68388" lon="1.36509">
        <ele>139</ele>
        <time>2024-03-14T18:36:13Z</time>
      </trkpt>
      <trkpt lat="43.68386" lon="1.3651">
        <ele>139</ele>
        <time>2024-03-14T18:36:14Z</time>
      </trkpt>
      <trkpt lat="43.68383" lon="1.36512">
        <ele>139</ele>
        <time>2024-03-14T18:36:15Z</time>
      </trkpt>
      <trkpt lat="43.6838" lon="1.36515">
        <ele>139</ele>
        <time>2024-03-14T18:36:16Z</time>
      </trkpt>
      <trkpt lat="43.68379" lon="1.36516">
        <ele>139</ele>
        <time>2024-03-14T18:36:17Z</time>
      </trkpt>
      <trkpt lat="43.68376" lon="1.36518">
        <ele>139</ele>
        <time>2024-03-14T18:36:18Z</time>
      </trkpt>
      <trkpt lat="43.68374" lon="1.3652">
        <ele>139</ele>
        <time>2024-03-14T18:36:19Z</time>
      </trkpt>
      <trkpt lat="43.68371" lon="1.36522">
        <ele>139</ele>
        <time>2024-03-14T18:36:20Z</time>
      </trkpt>
      <trkpt lat="43.68369" lon="1.36524">
        <ele>139</ele>
        <time>2024-03-14T18:36:21Z</time>
      </trkpt>
      <trkpt lat="43.68367" lon="1.36526">
        <ele>139</ele>
        <time>2024-03-14T18:36:22Z</time>
      </trkpt>
      <trkpt lat="43.68365" lon="1.36528">
        <ele>139</ele>
        <time>2024-03-14T18:36:23Z</time>
      </trkpt>
      <trkpt lat="43.68363" lon="1.3653">
        <ele>139</ele>
        <time>2024-03-14T18:36:24Z</time>
      </trkpt>
      <trkpt lat="43.6836" lon="1.36531">
        <ele>139</ele>
        <time>2024-03-14T18:36:25Z</time>
      </trkpt>
      <trkpt lat="43.68358" lon="1.36533">
        <ele>139</ele>
        <time>2024-03-14T18:36:26Z</time>
      </trkpt>
      <trkpt lat="43.68355" lon="1.36534">
        <ele>139</ele>
        <time>2024-03-14T18:36:27Z</time>
      </trkpt>
      <trkpt lat="43.68353" lon="1.36536">
        <ele>139</ele>
        <time>2024-03-14T18:36:28Z</time>
      </trkpt>
      <trkpt lat="43.6835" lon="1.36537">
        <ele>139</ele>
        <time>2024-03-14T18:36:29Z</time>
      </trkpt>
      <trkpt lat="43.68348" lon="1.36539">
        <ele>139</ele>
        <time>2024-03-14T18:36:30Z</time>
      </trkpt>
      <trkpt lat="43.68345" lon="1.3654">
        <ele>139</ele>
        <time>2024-03-14T18:36:31Z</time>
      </trkpt>
      <trkpt lat="43.68343" lon="1.36542">
        <ele>139</ele>
        <time>2024-03-14T18:36:32Z</time>
      </trkpt>
      <trkpt lat="43.6834" lon="1.36544">
        <ele>139</ele>
        <time>2024-03-14T18:36:33Z</time>
      </trkpt>
      <trkpt lat="43.68338" lon="1.36545">
        <ele>139</ele>
        <time>2024-03-14T18:36:34Z</time>
      </trkpt>
      <trkpt lat="43.68335" lon="1.36547">
        <ele>139</ele>
        <time>2024-03-14T18:36:35Z</time>
      </trkpt>
      <trkpt lat="43.68332" lon="1.36549">
        <ele>139</ele>
        <time>2024-03-14T18:36:36Z</time>
      </trkpt>
      <trkpt lat="43.6833" lon="1.3655">
        <ele>139</ele>
        <time>2024-03-14T18:36:37Z</time>
      </trkpt>
      <trkpt lat="43.68325" lon="1.36552">
        <ele>139</ele>
        <time>2024-03-14T18:36:38Z</time>
      </trkpt>
      <trkpt lat="43.68325" lon="1.36552">
        <ele>139</ele>
        <time>2024-03-14T18:36:39Z</time>
      </trkpt>
      <trkpt lat="43.68321" lon="1.36553">
        <ele>139</ele>
        <time>2024-03-14T18:36:40Z</time>
      </trkpt>
      <trkpt lat="43.6832" lon="1.36553">
        <ele>139</ele>
        <time>2024-03-14T18:36:41Z</time>
      </trkpt>
      <trkpt lat="43.68318" lon="1.36555">
        <ele>139</ele>
        <time>2024-03-14T18:36:42Z</time>
      </trkpt>
      <trkpt lat="43.68315" lon="1.36557">
        <ele>139</ele>
        <time>2024-03-14T18:36:43Z</time>
      </trkpt>
      <trkpt lat="43.68313" lon="1.36559">
        <ele>140</ele>
        <time>2024-03-14T18:36:44Z</time>
      </trkpt>
      <trkpt lat="43.68311" lon="1.36562">
        <ele>140</ele>
        <time>2024-03-14T18:36:45Z</time>
      </trkpt>
      <trkpt lat="43.68309" lon="1.36564">
        <ele>140</ele>
        <time>2024-03-14T18:36:46Z</time>
      </trkpt>
      <trkpt lat="43.68307" lon="1.36566">
        <ele>140</ele>
        <time>2024-03-14T18:36:47Z</time>
      </trkpt>
      <trkpt lat="43.68305" lon="1.36569">
        <ele>139</ele>
        <time>2024-03-14T18:36:48Z</time>
      </trkpt>
      <trkpt lat="43.68303" lon="1.36572">
        <ele>139</ele>
        <time>2024-03-14T18:36:49Z</time>
      </trkpt>
      <trkpt lat="43.68301" lon="1.36575">
        <ele>139</ele>
        <time>2024-03-14T18:36:50Z</time>
      </trkpt>
      <trkpt lat="43.68299" lon="1.36576">
        <ele>139</ele>
        <time>2024-03-14T18:36:51Z</time>
      </trkpt>
      <trkpt lat="43.68295" lon="1.36576">
        <ele>139</ele>
        <time>2024-03-14T18:36:52Z</time>
      </trkpt>
      <trkpt lat="43.68294" lon="1.36575">
        <ele>139</ele>
        <time>2024-03-14T18:36:53Z</time>
      </trkpt>
      <trkpt lat="43.68292" lon="1.36576">
        <ele>139</ele>
        <time>2024-03-14T18:36:54Z</time>
      </trkpt>
      <trkpt lat="43.6829" lon="1.36577">
        <ele>140</ele>
        <time>2024-03-14T18:36:55Z</time>
      </trkpt>
      <trkpt lat="43.68287" lon="1.36578">
        <ele>140</ele>
        <time>2024-03-14T18:36:56Z</time>
      </trkpt>
      <trkpt lat="43.68285" lon="1.3658">
        <ele>139</ele>
        <time>2024-03-14T18:36:57Z</time>
      </trkpt>
      <trkpt lat="43.68282" lon="1.36582">
        <ele>139</ele>
        <time>2024-03-14T18:36:58Z</time>
      </trkpt>
      <trkpt lat="43.6828" lon="1.36583">
        <ele>139</ele>
        <time>2024-03-14T18:36:59Z</time>
      </trkpt>
      <trkpt lat="43.68278" lon="1.36585">
        <ele>140</ele>
        <time>2024-03-14T18:37:00Z</time>
      </trkpt>
      <trkpt lat="43.68275" lon="1.36587">
        <ele>140</ele>
        <time>2024-03-14T18:37:01Z</time>
      </trkpt>
      <trkpt lat="43.68272" lon="1.36588">
        <ele>140</ele>
        <time>2024-03-14T18:37:02Z</time>
      </trkpt>
      <trkpt lat="43.6827" lon="1.3659">
        <ele>140</ele>
        <time>2024-03-14T18:37:03Z</time>
      </trkpt>
      <trkpt lat="43.68267" lon="1.36592">
        <ele>140</ele>
        <time>2024-03-14T18:37:04Z</time>
      </trkpt>
      <trkpt lat="43.68265" lon="1.36593">
        <ele>140</ele>
        <time>2024-03-14T18:37:05Z</time>
      </trkpt>
      <trkpt lat="43.68263" lon="1.36595">
        <ele>139</ele>
        <time>2024-03-14T18:37:06Z</time>
      </trkpt>
      <trkpt lat="43.6826" lon="1.36597">
        <ele>139</ele>
        <time>2024-03-14T18:37:07Z</time>
      </trkpt>
      <trkpt lat="43.68258" lon="1.36599">
        <ele>139</ele>
        <time>2024-03-14T18:37:08Z</time>
      </trkpt>
      <trkpt lat="43.68255" lon="1.366">
        <ele>139</ele>
        <time>2024-03-14T18:37:09Z</time>
      </trkpt>
      <trkpt lat="43.68253" lon="1.36602">
        <ele>139</ele>
        <time>2024-03-14T18:37:10Z</time>
      </trkpt>
      <trkpt lat="43.68251" lon="1.36604">
        <ele>139</ele>
        <time>2024-03-14T18:37:11Z</time>
      </trkpt>
      <trkpt lat="43.68249" lon="1.36606">
        <ele>139</ele>
        <time>2024-03-14T18:37:12Z</time>
      </trkpt>
      <trkpt lat="43.68246" lon="1.36607">
        <ele>139</ele>
        <time>2024-03-14T18:37:13Z</time>
      </trkpt>
      <trkpt lat="43.68244" lon="1.36609">
        <ele>140</ele>
        <time>2024-03-14T18:37:14Z</time>
      </trkpt>
      <trkpt lat="43.68242" lon="1.36611">
        <ele>140</ele>
        <time>2024-03-14T18:37:15Z</time>
      </trkpt>
      <trkpt lat="43.68239" lon="1.36612">
        <ele>140</ele>
        <time>2024-03-14T18:37:16Z</time>
      </trkpt>
      <trkpt lat="43.68237" lon="1.36614">
        <ele>140</ele>
        <time>2024-03-14T18:37:17Z</time>
      </trkpt>
      <trkpt lat="43.68234" lon="1.36615">
        <ele>140</ele>
        <time>2024-03-14T18:37:18Z</time>
      </trkpt>
      <trkpt lat="43.68232" lon="1.36616">
        <ele>140</ele>
        <time>2024-03-14T18:37:19Z</time>
      </trkpt>
      <trkpt lat="43.6823" lon="1.36618">
        <ele>140</ele>
        <time>2024-03-14T18:37:20Z</time>
      </trkpt>
      <trkpt lat="43.68227" lon="1.3662">
        <ele>140</ele>
        <time>2024-03-14T18:37:21Z</time>
      </trkpt>
      <trkpt lat="43.68225" lon="1.36621">
        <ele>139</ele>
        <time>2024-03-14T18:37:22Z</time>
      </trkpt>
      <trkpt lat="43.68223" lon="1.36623">
        <ele>139</ele>
        <time>2024-03-14T18:37:23Z</time>
      </trkpt>
      <trkpt lat="43.6822" lon="1.36624">
        <ele>139</ele>
        <time>2024-03-14T18:37:24Z</time>
      </trkpt>
      <trkpt lat="43.68218" lon="1.36625">
        <ele>139</ele>
        <time>2024-03-14T18:37:25Z</time>
      </trkpt>
      <trkpt lat="43.68215" lon="1.36626">
        <ele>139</ele>
        <time>2024-03-14T18:37:26Z</time>
      </trkpt>
      <trkpt lat="43.68213" lon="1.36628">
        <ele>139</ele>
        <time>2024-03-14T18:37:27Z</time>
      </trkpt>
      <trkpt lat="43.6821" lon="1.36629">
        <ele>139</ele>
        <time>2024-03-14T18:37:28Z</time>
      </trkpt>
      <trkpt lat="43.68208" lon="1.3663">
        <ele>139</ele>
        <time>2024-03-14T18:37:29Z</time>
      </trkpt>
      <trkpt lat="43.68206" lon="1.36631">
        <ele>139</ele>
        <time>2024-03-14T18:37:30Z</time>
      </trkpt>
      <trkpt lat="43.68203" lon="1.36633">
        <ele>139</ele>
        <time>2024-03-14T18:37:31Z</time>
      </trkpt>
      <trkpt lat="43.68201" lon="1.36635">
        <ele>139</ele>
        <time>2024-03-14T18:37:32Z</time>
      </trkpt>
      <trkpt lat="43.68198" lon="1.36636">
        <ele>139</ele>
        <time>2024-03-14T18:37:33Z</time>
      </trkpt>
      <trkpt lat="43.68196" lon="1.36638">
        <ele>139</ele>
        <time>2024-03-14T18:37:34Z</time>
      </trkpt>
      <trkpt lat="43.68194" lon="1.3664">
        <ele>139</ele>
        <time>2024-03-14T18:37:35Z</time>
      </trkpt>
      <trkpt lat="43.68191" lon="1.36641">
        <ele>139</ele>
        <time>2024-03-14T18:37:36Z</time>
      </trkpt>
      <trkpt lat="43.68188" lon="1.36641">
        <ele>139</ele>
        <time>2024-03-14T18:37:37Z</time>
      </trkpt>
      <trkpt lat="43.68187" lon="1.36639">
        <ele>139</ele>
        <time>2024-03-14T18:37:38Z</time>
      </trkpt>
      <trkpt lat="43.68185" lon="1.36637">
        <ele>139</ele>
        <time>2024-03-14T18:37:39Z</time>
      </trkpt>
      <trkpt lat="43.68183" lon="1.36636">
        <ele>139</ele>
        <time>2024-03-14T18:37:40Z</time>
      </trkpt>
      <trkpt lat="43.68181" lon="1.36636">
        <ele>139</ele>
        <time>2024-03-14T18:37:41Z</time>
      </trkpt>
      <trkpt lat="43.68177" lon="1.36638">
        <ele>139</ele>
        <time>2024-03-14T18:37:42Z</time>
      </trkpt>
      <trkpt lat="43.68175" lon="1.36638">
        <ele>139</ele>
        <time>2024-03-14T18:37:43Z</time>
      </trkpt>
      <trkpt lat="43.68172" lon="1.36639">
        <ele>139</ele>
        <time>2024-03-14T18:37:44Z</time>
      </trkpt>
      <trkpt lat="43.6817" lon="1.36641">
        <ele>140</ele>
        <time>2024-03-14T18:37:45Z</time>
      </trkpt>
      <trkpt lat="43.68167" lon="1.36643">
        <ele>140</ele>
        <time>2024-03-14T18:37:46Z</time>
      </trkpt>
      <trkpt lat="43.68165" lon="1.36644">
        <ele>139</ele>
        <time>2024-03-14T18:37:47Z</time>
      </trkpt>
      <trkpt lat="43.68163" lon="1.36646">
        <ele>139</ele>
        <time>2024-03-14T18:37:48Z</time>
      </trkpt>
      <trkpt lat="43.6816" lon="1.36647">
        <ele>139</ele>
        <time>2024-03-14T18:37:49Z</time>
      </trkpt>
      <trkpt lat="43.68157" lon="1.36649">
        <ele>139</ele>
        <time>2024-03-14T18:37:50Z</time>
      </trkpt>
      <trkpt lat="43.68154" lon="1.3665">
        <ele>139</ele>
        <time>2024-03-14T18:37:51Z</time>
      </trkpt>
      <trkpt lat="43.68151" lon="1.3665">
        <ele>139</ele>
        <time>2024-03-14T18:37:52Z</time>
      </trkpt>
      <trkpt lat="43.68148" lon="1.36649">
        <ele>139</ele>
        <time>2024-03-14T18:37:53Z</time>
      </trkpt>
      <trkpt lat="43.68145" lon="1.3665">
        <ele>139</ele>
        <time>2024-03-14T18:37:54Z</time>
      </trkpt>
      <trkpt lat="43.68143" lon="1.36651">
        <ele>139</ele>
        <time>2024-03-14T18:37:55Z</time>
      </trkpt>
      <trkpt lat="43.6814" lon="1.36653">
        <ele>139</ele>
        <time>2024-03-14T18:37:56Z</time>
      </trkpt>
      <trkpt lat="43.68137" lon="1.36654">
        <ele>139</ele>
        <time>2024-03-14T18:37:57Z</time>
      </trkpt>
      <trkpt lat="43.68135" lon="1.36656">
        <ele>139</ele>
        <time>2024-03-14T18:37:58Z</time>
      </trkpt>
      <trkpt lat="43.68132" lon="1.36657">
        <ele>139</ele>
        <time>2024-03-14T18:37:59Z</time>
      </trkpt>
      <trkpt lat="43.6813" lon="1.36657">
        <ele>139</ele>
        <time>2024-03-14T18:38:00Z</time>
      </trkpt>
      <trkpt lat="43.68127" lon="1.36658">
        <ele>139</ele>
        <time>2024-03-14T18:38:01Z</time>
      </trkpt>
      <trkpt lat="43.68125" lon="1.36659">
        <ele>139</ele>
        <time>2024-03-14T18:38:02Z</time>
      </trkpt>
      <trkpt lat="43.68122" lon="1.36661">
        <ele>139</ele>
        <time>2024-03-14T18:38:03Z</time>
      </trkpt>
      <trkpt lat="43.6812" lon="1.36662">
        <ele>139</ele>
        <time>2024-03-14T18:38:04Z</time>
      </trkpt>
      <trkpt lat="43.68118" lon="1.36663">
        <ele>139</ele>
        <time>2024-03-14T18:38:05Z</time>
      </trkpt>
      <trkpt lat="43.68115" lon="1.36664">
        <ele>139</ele>
        <time>2024-03-14T18:38:06Z</time>
      </trkpt>
      <trkpt lat="43.68112" lon="1.36665">
        <ele>139</ele>
        <time>2024-03-14T18:38:07Z</time>
      </trkpt>
      <trkpt lat="43.68109" lon="1.36667">
        <ele>139</ele>
        <time>2024-03-14T18:38:08Z</time>
      </trkpt>
      <trkpt lat="43.68107" lon="1.36668">
        <ele>139</ele>
        <time>2024-03-14T18:38:09Z</time>
      </trkpt>
      <trkpt lat="43.68105" lon="1.36669">
        <ele>139</ele>
        <time>2024-03-14T18:38:10Z</time>
      </trkpt>
      <trkpt lat="43.68102" lon="1.36671">
        <ele>139</ele>
        <time>2024-03-14T18:38:11Z</time>
      </trkpt>
      <trkpt lat="43.681" lon="1.36672">
        <ele>139</ele>
        <time>2024-03-14T18:38:12Z</time>
      </trkpt>
      <trkpt lat="43.68097" lon="1.36673">
        <ele>138</ele>
        <time>2024-03-14T18:38:13Z</time>
      </trkpt>
      <trkpt lat="43.68095" lon="1.36675">
        <ele>138</ele>
        <time>2024-03-14T18:38:14Z</time>
      </trkpt>
      <trkpt lat="43.68092" lon="1.36677">
        <ele>139</ele>
        <time>2024-03-14T18:38:15Z</time>
      </trkpt>
      <trkpt lat="43.6809" lon="1.36677">
        <ele>139</ele>
        <time>2024-03-14T18:38:16Z</time>
      </trkpt>
      <trkpt lat="43.68087" lon="1.36678">
        <ele>139</ele>
        <time>2024-03-14T18:38:17Z</time>
      </trkpt>
      <trkpt lat="43.68085" lon="1.36679">
        <ele>139</ele>
        <time>2024-03-14T18:38:18Z</time>
      </trkpt>
      <trkpt lat="43.68082" lon="1.3668">
        <ele>139</ele>
        <time>2024-03-14T18:38:19Z</time>
      </trkpt>
      <trkpt lat="43.68079" lon="1.36681">
        <ele>138</ele>
        <time>2024-03-14T18:38:20Z</time>
      </trkpt>
      <trkpt lat="43.68077" lon="1.36683">
        <ele>138</ele>
        <time>2024-03-14T18:38:21Z</time>
      </trkpt>
      <trkpt lat="43.68074" lon="1.36683">
        <ele>138</ele>
        <time>2024-03-14T18:38:22Z</time>
      </trkpt>
      <trkpt lat="43.68072" lon="1.36684">
        <ele>138</ele>
        <time>2024-03-14T18:38:23Z</time>
      </trkpt>
      <trkpt lat="43.68066" lon="1.36686">
        <ele>138</ele>
        <time>2024-03-14T18:38:24Z</time>
      </trkpt>
      <trkpt lat="43.68066" lon="1.36686">
        <ele>139</ele>
        <time>2024-03-14T18:38:25Z</time>
      </trkpt>
      <trkpt lat="43.68063" lon="1.36688">
        <ele>139</ele>
        <time>2024-03-14T18:38:26Z</time>
      </trkpt>
      <trkpt lat="43.68062" lon="1.36689">
        <ele>139</ele>
        <time>2024-03-14T18:38:27Z</time>
      </trkpt>
      <trkpt lat="43.68059" lon="1.36691">
        <ele>139</ele>
        <time>2024-03-14T18:38:28Z</time>
      </trkpt>
      <trkpt lat="43.68057" lon="1.36692">
        <ele>139</ele>
        <time>2024-03-14T18:38:29Z</time>
      </trkpt>
      <trkpt lat="43.68054" lon="1.36693">
        <ele>139</ele>
        <time>2024-03-14T18:38:30Z</time>
      </trkpt>
      <trkpt lat="43.68051" lon="1.36694">
        <ele>139</ele>
        <time>2024-03-14T18:38:31Z</time>
      </trkpt>
      <trkpt lat="43.68049" lon="1.36695">
        <ele>140</ele>
        <time>2024-03-14T18:38:32Z</time>
      </trkpt>
      <trkpt lat="43.68046" lon="1.36696">
        <ele>140</ele>
        <time>2024-03-14T18:38:33Z</time>
      </trkpt>
      <trkpt lat="43.68044" lon="1.36697">
        <ele>140</ele>
        <time>2024-03-14T18:38:34Z</time>
      </trkpt>
      <trkpt lat="43.68042" lon="1.36698">
        <ele>140</ele>
        <time>2024-03-14T18:38:35Z</time>
      </trkpt>
      <trkpt lat="43.68039" lon="1.36699">
        <ele>140</ele>
        <time>2024-03-14T18:38:36Z</time>
      </trkpt>
      <trkpt lat="43.68037" lon="1.367">
        <ele>140</ele>
        <time>2024-03-14T18:38:37Z</time>
      </trkpt>
      <trkpt lat="43.68035" lon="1.367">
        <ele>140</ele>
        <time>2024-03-14T18:38:38Z</time>
      </trkpt>
      <trkpt lat="43.68033" lon="1.36701">
        <ele>140</ele>
        <time>2024-03-14T18:38:39Z</time>
      </trkpt>
      <trkpt lat="43.6803" lon="1.36702">
        <ele>140</ele>
        <time>2024-03-14T18:38:40Z</time>
      </trkpt>
      <trkpt lat="43.68028" lon="1.36702">
        <ele>140</ele>
        <time>2024-03-14T18:38:41Z</time>
      </trkpt>
      <trkpt lat="43.68025" lon="1.36703">
        <ele>140</ele>
        <time>2024-03-14T18:38:42Z</time>
      </trkpt>
      <trkpt lat="43.68023" lon="1.36704">
        <ele>139</ele>
        <time>2024-03-14T18:38:43Z</time>
      </trkpt>
      <trkpt lat="43.68021" lon="1.36705">
        <ele>139</ele>
        <time>2024-03-14T18:38:44Z</time>
      </trkpt>
      <trkpt lat="43.68018" lon="1.36706">
        <ele>139</ele>
        <time>2024-03-14T18:38:45Z</time>
      </trkpt>
      <trkpt lat="43.68015" lon="1.36708">
        <ele>140</ele>
        <time>2024-03-14T18:38:46Z</time>
      </trkpt>
      <trkpt lat="43.68012" lon="1.36708">
        <ele>140</ele>
        <time>2024-03-14T18:38:47Z</time>
      </trkpt>
      <trkpt lat="43.6801" lon="1.36709">
        <ele>139</ele>
        <time>2024-03-14T18:38:48Z</time>
      </trkpt>
      <trkpt lat="43.68007" lon="1.3671">
        <ele>139</ele>
        <time>2024-03-14T18:38:49Z</time>
      </trkpt>
      <trkpt lat="43.68004" lon="1.36711">
        <ele>139</ele>
        <time>2024-03-14T18:38:50Z</time>
      </trkpt>
      <trkpt lat="43.68002" lon="1.36712">
        <ele>140</ele>
        <time>2024-03-14T18:38:51Z</time>
      </trkpt>
      <trkpt lat="43.68" lon="1.36713">
        <ele>140</ele>
        <time>2024-03-14T18:38:52Z</time>
      </trkpt>
      <trkpt lat="43.67996" lon="1.36714">
        <ele>140</ele>
        <time>2024-03-14T18:38:53Z</time>
      </trkpt>
      <trkpt lat="43.67994" lon="1.36714">
        <ele>140</ele>
        <time>2024-03-14T18:38:54Z</time>
      </trkpt>
      <trkpt lat="43.67991" lon="1.36716">
        <ele>140</ele>
        <time>2024-03-14T18:38:55Z</time>
      </trkpt>
      <trkpt lat="43.67988" lon="1.36716">
        <ele>140</ele>
        <time>2024-03-14T18:38:56Z</time>
      </trkpt>
      <trkpt lat="43.67985" lon="1.36717">
        <ele>140</ele>
        <time>2024-03-14T18:38:57Z</time>
      </trkpt>
      <trkpt lat="43.67983" lon="1.36718">
        <ele>140</ele>
        <time>2024-03-14T18:38:58Z</time>
      </trkpt>
      <trkpt lat="43.6798" lon="1.36719">
        <ele>140</ele>
        <time>2024-03-14T18:38:59Z</time>
      </trkpt>
      <trkpt lat="43.67977" lon="1.3672">
        <ele>140</ele>
        <time>2024-03-14T18:39:00Z</time>
      </trkpt>
      <trkpt lat="43.67974" lon="1.36721">
        <ele>140</ele>
        <time>2024-03-14T18:39:01Z</time>
      </trkpt>
      <trkpt lat="43.67969" lon="1.36721">
        <ele>140</ele>
        <time>2024-03-14T18:39:02Z</time>
      </trkpt>
      <trkpt lat="43.67969" lon="1.36721">
        <ele>140</ele>
        <time>2024-03-14T18:39:03Z</time>
      </trkpt>
      <trkpt lat="43.67966" lon="1.36721">
        <ele>140</ele>
        <time>2024-03-14T18:39:04Z</time>
      </trkpt>
      <trkpt lat="43.67963" lon="1.3672">
        <ele>140</ele>
        <time>2024-03-14T18:39:05Z</time>
      </trkpt>
      <trkpt lat="43.6796" lon="1.3672">
        <ele>140</ele>
        <time>2024-03-14T18:39:06Z</time>
      </trkpt>
      <trkpt lat="43.67957" lon="1.36719">
        <ele>140</ele>
        <time>2024-03-14T18:39:07Z</time>
      </trkpt>
      <trkpt lat="43.67954" lon="1.36719">
        <ele>140</ele>
        <time>2024-03-14T18:39:08Z</time>
      </trkpt>
      <trkpt lat="43.67951" lon="1.36718">
        <ele>140</ele>
        <time>2024-03-14T18:39:09Z</time>
      </trkpt>
      <trkpt lat="43.67949" lon="1.36718">
        <ele>140</ele>
        <time>2024-03-14T18:39:10Z</time>
      </trkpt>
      <trkpt lat="43.67946" lon="1.36717">
        <ele>140</ele>
        <time>2024-03-14T18:39:11Z</time>
      </trkpt>
      <trkpt lat="43.67944" lon="1.36717">
        <ele>140</ele>
        <time>2024-03-14T18:39:12Z</time>
      </trkpt>
      <trkpt lat="43.67941" lon="1.36717">
        <ele>140</ele>
        <time>2024-03-14T18:39:13Z</time>
      </trkpt>
      <trkpt lat="43.67939" lon="1.36716">
        <ele>140</ele>
        <time>2024-03-14T18:39:14Z</time>
      </trkpt>
      <trkpt lat="43.67936" lon="1.36716">
        <ele>140</ele>
        <time>2024-03-14T18:39:15Z</time>
      </trkpt>
      <trkpt lat="43.67933" lon="1.36716">
        <ele>140</ele>
        <time>2024-03-14T18:39:16Z</time>
      </trkpt>
      <trkpt lat="43.6793" lon="1.36715">
        <ele>140</ele>
        <time>2024-03-14T18:39:17Z</time>
      </trkpt>
      <trkpt lat="43.67927" lon="1.36715">
        <ele>140</ele>
        <time>2024-03-14T18:39:18Z</time>
      </trkpt>
      <trkpt lat="43.67924" lon="1.36715">
        <ele>140</ele>
        <time>2024-03-14T18:39:19Z</time>
      </trkpt>
      <trkpt lat="43.67922" lon="1.36714">
        <ele>140</ele>
        <time>2024-03-14T18:39:20Z</time>
      </trkpt>
      <trkpt lat="43.67917" lon="1.36714">
        <ele>140</ele>
        <time>2024-03-14T18:39:21Z</time>
      </trkpt>
      <trkpt lat="43.67917" lon="1.36714">
        <ele>140</ele>
        <time>2024-03-14T18:39:22Z</time>
      </trkpt>
      <trkpt lat="43.67914" lon="1.36713">
        <ele>140</ele>
        <time>2024-03-14T18:39:23Z</time>
      </trkpt>
      <trkpt lat="43.67912" lon="1.36713">
        <ele>140</ele>
        <time>2024-03-14T18:39:24Z</time>
      </trkpt>
      <trkpt lat="43.67906" lon="1.36714">
        <ele>141</ele>
        <time>2024-03-14T18:39:25Z</time>
      </trkpt>
      <trkpt lat="43.67904" lon="1.36715">
        <ele>141</ele>
        <time>2024-03-14T18:39:26Z</time>
      </trkpt>
      <trkpt lat="43.67904" lon="1.36715">
        <ele>141</ele>
        <time>2024-03-14T18:39:27Z</time>
      </trkpt>
      <trkpt lat="43.67901" lon="1.36716">
        <ele>141</ele>
        <time>2024-03-14T18:39:28Z</time>
      </trkpt>
      <trkpt lat="43.67898" lon="1.36717">
        <ele>141</ele>
        <time>2024-03-14T18:39:29Z</time>
      </trkpt>
      <trkpt lat="43.67895" lon="1.36719">
        <ele>141</ele>
        <time>2024-03-14T18:39:30Z</time>
      </trkpt>
      <trkpt lat="43.67894" lon="1.36719">
        <ele>141</ele>
        <time>2024-03-14T18:39:31Z</time>
      </trkpt>
      <trkpt lat="43.67891" lon="1.36721">
        <ele>140</ele>
        <time>2024-03-14T18:39:32Z</time>
      </trkpt>
      <trkpt lat="43.67889" lon="1.36722">
        <ele>140</ele>
        <time>2024-03-14T18:39:33Z</time>
      </trkpt>
      <trkpt lat="43.67886" lon="1.36723">
        <ele>141</ele>
        <time>2024-03-14T18:39:34Z</time>
      </trkpt>
      <trkpt lat="43.67884" lon="1.36724">
        <ele>141</ele>
        <time>2024-03-14T18:39:35Z</time>
      </trkpt>
      <trkpt lat="43.67881" lon="1.36726">
        <ele>140</ele>
        <time>2024-03-14T18:39:36Z</time>
      </trkpt>
      <trkpt lat="43.67878" lon="1.36727">
        <ele>140</ele>
        <time>2024-03-14T18:39:37Z</time>
      </trkpt>
      <trkpt lat="43.67875" lon="1.36728">
        <ele>140</ele>
        <time>2024-03-14T18:39:38Z</time>
      </trkpt>
      <trkpt lat="43.67873" lon="1.36729">
        <ele>141</ele>
        <time>2024-03-14T18:39:39Z</time>
      </trkpt>
      <trkpt lat="43.6787" lon="1.3673">
        <ele>141</ele>
        <time>2024-03-14T18:39:40Z</time>
      </trkpt>
      <trkpt lat="43.67867" lon="1.36731">
        <ele>141</ele>
        <time>2024-03-14T18:39:41Z</time>
      </trkpt>
      <trkpt lat="43.67865" lon="1.36732">
        <ele>141</ele>
        <time>2024-03-14T18:39:42Z</time>
      </trkpt>
      <trkpt lat="43.67862" lon="1.36733">
        <ele>141</ele>
        <time>2024-03-14T18:39:43Z</time>
      </trkpt>
      <trkpt lat="43.67859" lon="1.36735">
        <ele>140</ele>
        <time>2024-03-14T18:39:44Z</time>
      </trkpt>
      <trkpt lat="43.67856" lon="1.36736">
        <ele>140</ele>
        <time>2024-03-14T18:39:45Z</time>
      </trkpt>
      <trkpt lat="43.67854" lon="1.36737">
        <ele>140</ele>
        <time>2024-03-14T18:39:46Z</time>
      </trkpt>
      <trkpt lat="43.67851" lon="1.36738">
        <ele>140</ele>
        <time>2024-03-14T18:39:47Z</time>
      </trkpt>
      <trkpt lat="43.67848" lon="1.3674">
        <ele>140</ele>
        <time>2024-03-14T18:39:48Z</time>
      </trkpt>
      <trkpt lat="43.67846" lon="1.36741">
        <ele>140</ele>
        <time>2024-03-14T18:39:49Z</time>
      </trkpt>
      <trkpt lat="43.67843" lon="1.36742">
        <ele>140</ele>
        <time>2024-03-14T18:39:50Z</time>
      </trkpt>
      <trkpt lat="43.6784" lon="1.36744">
        <ele>140</ele>
        <time>2024-03-14T18:39:51Z</time>
      </trkpt>
      <trkpt lat="43.67838" lon="1.36745">
        <ele>140</ele>
        <time>2024-03-14T18:39:52Z</time>
      </trkpt>
      <trkpt lat="43.67835" lon="1.36746">
        <ele>140</ele>
        <time>2024-03-14T18:39:53Z</time>
      </trkpt>
      <trkpt lat="43.67833" lon="1.36747">
        <ele>140</ele>
        <time>2024-03-14T18:39:54Z</time>
      </trkpt>
      <trkpt lat="43.6783" lon="1.36748">
        <ele>140</ele>
        <time>2024-03-14T18:39:55Z</time>
      </trkpt>
      <trkpt lat="43.67827" lon="1.3675">
        <ele>140</ele>
        <time>2024-03-14T18:39:56Z</time>
      </trkpt>
      <trkpt lat="43.67825" lon="1.36751">
        <ele>140</ele>
        <time>2024-03-14T18:39:57Z</time>
      </trkpt>
      <trkpt lat="43.67822" lon="1.36752">
        <ele>140</ele>
        <time>2024-03-14T18:39:58Z</time>
      </trkpt>
      <trkpt lat="43.6782" lon="1.36753">
        <ele>139</ele>
        <time>2024-03-14T18:39:59Z</time>
      </trkpt>
      <trkpt lat="43.67817" lon="1.36754">
        <ele>139</ele>
        <time>2024-03-14T18:40:00Z</time>
      </trkpt>
      <trkpt lat="43.67814" lon="1.36756">
        <ele>139</ele>
        <time>2024-03-14T18:40:01Z</time>
      </trkpt>
      <trkpt lat="43.67811" lon="1.36757">
        <ele>139</ele>
        <time>2024-03-14T18:40:02Z</time>
      </trkpt>
      <trkpt lat="43.67809" lon="1.36758">
        <ele>139</ele>
        <time>2024-03-14T18:40:03Z</time>
      </trkpt>
      <trkpt lat="43.67806" lon="1.36759">
        <ele>139</ele>
        <time>2024-03-14T18:40:04Z</time>
      </trkpt>
      <trkpt lat="43.67803" lon="1.3676">
        <ele>139</ele>
        <time>2024-03-14T18:40:05Z</time>
      </trkpt>
      <trkpt lat="43.67801" lon="1.36761">
        <ele>140</ele>
        <time>2024-03-14T18:40:06Z</time>
      </trkpt>
      <trkpt lat="43.67798" lon="1.36762">
        <ele>140</ele>
        <time>2024-03-14T18:40:07Z</time>
      </trkpt>
      <trkpt lat="43.67796" lon="1.36763">
        <ele>140</ele>
        <time>2024-03-14T18:40:08Z</time>
      </trkpt>
      <trkpt lat="43.67793" lon="1.36764">
        <ele>140</ele>
        <time>2024-03-14T18:40:09Z</time>
      </trkpt>
      <trkpt lat="43.6779" lon="1.36765">
        <ele>140</ele>
        <time>2024-03-14T18:40:10Z</time>
      </trkpt>
      <trkpt lat="43.67788" lon="1.36767">
        <ele>140</ele>
        <time>2024-03-14T18:40:11Z</time>
      </trkpt>
      <trkpt lat="43.67786" lon="1.36768">
        <ele>140</ele>
        <time>2024-03-14T18:40:12Z</time>
      </trkpt>
      <trkpt lat="43.67783" lon="1.36769">
        <ele>140</ele>
        <time>2024-03-14T18:40:13Z</time>
      </trkpt>
      <trkpt lat="43.67781" lon="1.3677">
        <ele>140</ele>
        <time>2024-03-14T18:40:14Z</time>
      </trkpt>
      <trkpt lat="43.67778" lon="1.36771">
        <ele>140</ele>
        <time>2024-03-14T18:40:15Z</time>
      </trkpt>
      <trkpt lat="43.67776" lon="1.36772">
        <ele>140</ele>
        <time>2024-03-14T18:40:16Z</time>
      </trkpt>
      <trkpt lat="43.67773" lon="1.36773">
        <ele>140</ele>
        <time>2024-03-14T18:40:17Z</time>
      </trkpt>
      <trkpt lat="43.67771" lon="1.36774">
        <ele>140</ele>
        <time>2024-03-14T18:40:18Z</time>
      </trkpt>
      <trkpt lat="43.67768" lon="1.36775">
        <ele>140</ele>
        <time>2024-03-14T18:40:19Z</time>
      </trkpt>
      <trkpt lat="43.67765" lon="1.36775">
        <ele>140</ele>
        <time>2024-03-14T18:40:20Z</time>
      </trkpt>
      <trkpt lat="43.67762" lon="1.36776">
        <ele>140</ele>
        <time>2024-03-14T18:40:21Z</time>
      </trkpt>
      <trkpt lat="43.6776" lon="1.36776">
        <ele>140</ele>
        <time>2024-03-14T18:40:22Z</time>
      </trkpt>
      <trkpt lat="43.67757" lon="1.36777">
        <ele>139</ele>
        <time>2024-03-14T18:40:23Z</time>
      </trkpt>
      <trkpt lat="43.67754" lon="1.36778">
        <ele>139</ele>
        <time>2024-03-14T18:40:24Z</time>
      </trkpt>
      <trkpt lat="43.67752" lon="1.36779">
        <ele>139</ele>
        <time>2024-03-14T18:40:25Z</time>
      </trkpt>
      <trkpt lat="43.67749" lon="1.3678">
        <ele>139</ele>
        <time>2024-03-14T18:40:26Z</time>
      </trkpt>
      <trkpt lat="43.67746" lon="1.36782">
        <ele>139</ele>
        <time>2024-03-14T18:40:27Z</time>
      </trkpt>
      <trkpt lat="43.67743" lon="1.36783">
        <ele>139</ele>
        <time>2024-03-14T18:40:28Z</time>
      </trkpt>
      <trkpt lat="43.6774" lon="1.36783">
        <ele>139</ele>
        <time>2024-03-14T18:40:29Z</time>
      </trkpt>
      <trkpt lat="43.67737" lon="1.36782">
        <ele>139</ele>
        <time>2024-03-14T18:40:30Z</time>
      </trkpt>
      <trkpt lat="43.67735" lon="1.36781">
        <ele>140</ele>
        <time>2024-03-14T18:40:31Z</time>
      </trkpt>
      <trkpt lat="43.67732" lon="1.3678">
        <ele>140</ele>
        <time>2024-03-14T18:40:32Z</time>
      </trkpt>
      <trkpt lat="43.67729" lon="1.36779">
        <ele>140</ele>
        <time>2024-03-14T18:40:33Z</time>
      </trkpt>
      <trkpt lat="43.67727" lon="1.36779">
        <ele>140</ele>
        <time>2024-03-14T18:40:34Z</time>
      </trkpt>
      <trkpt lat="43.67724" lon="1.36779">
        <ele>139</ele>
        <time>2024-03-14T18:40:35Z</time>
      </trkpt>
      <trkpt lat="43.67721" lon="1.3678">
        <ele>139</ele>
        <time>2024-03-14T18:40:36Z</time>
      </trkpt>
      <trkpt lat="43.67719" lon="1.3678">
        <ele>139</ele>
        <time>2024-03-14T18:40:37Z</time>
      </trkpt>
      <trkpt lat="43.67716" lon="1.3678">
        <ele>140</ele>
        <time>2024-03-14T18:40:38Z</time>
      </trkpt>
      <trkpt lat="43.67713" lon="1.3678">
        <ele>140</ele>
        <time>2024-03-14T18:40:39Z</time>
      </trkpt>
      <trkpt lat="43.67711" lon="1.3678">
        <ele>140</ele>
        <time>2024-03-14T18:40:40Z</time>
      </trkpt>
      <trkpt lat="43.67708" lon="1.3678">
        <ele>140</ele>
        <time>2024-03-14T18:40:41Z</time>
      </trkpt>
      <trkpt lat="43.67705" lon="1.3678">
        <ele>140</ele>
        <time>2024-03-14T18:40:42Z</time>
      </trkpt>
      <trkpt lat="43.67703" lon="1.36779">
        <ele>140</ele>
        <time>2024-03-14T18:40:43Z</time>
      </trkpt>
      <trkpt lat="43.677" lon="1.36779">
        <ele>140</ele>
        <time>2024-03-14T18:40:44Z</time>
      </trkpt>
      <trkpt lat="43.67697" lon="1.36779">
        <ele>140</ele>
        <time>2024-03-14T18:40:45Z</time>
      </trkpt>
      <trkpt lat="43.67695" lon="1.36779">
        <ele>140</ele>
        <time>2024-03-14T18:40:46Z</time>
      </trkpt>
      <trkpt lat="43.67692" lon="1.36778">
        <ele>140</ele>
        <time>2024-03-14T18:40:47Z</time>
      </trkpt>
      <trkpt lat="43.67689" lon="1.36778">
        <ele>140</ele>
        <time>2024-03-14T18:40:48Z</time>
      </trkpt>
      <trkpt lat="43.67686" lon="1.36779">
        <ele>140</ele>
        <time>2024-03-14T18:40:49Z</time>
      </trkpt>
      <trkpt lat="43.67684" lon="1.36779">
        <ele>140</ele>
        <time>2024-03-14T18:40:50Z</time>
      </trkpt>
      <trkpt lat="43.67681" lon="1.36779">
        <ele>140</ele>
        <time>2024-03-14T18:40:51Z</time>
      </trkpt>
      <trkpt lat="43.67678" lon="1.36779">
        <ele>140</ele>
        <time>2024-03-14T18:40:52Z</time>
      </trkpt>
      <trkpt lat="43.67675" lon="1.36779">
        <ele>140</ele>
        <time>2024-03-14T18:40:53Z</time>
      </trkpt>
      <trkpt lat="43.67672" lon="1.36778">
        <ele>140</ele>
        <time>2024-03-14T18:40:54Z</time>
      </trkpt>
      <trkpt lat="43.6767" lon="1.36778">
        <ele>140</ele>
        <time>2024-03-14T18:40:55Z</time>
      </trkpt>
      <trkpt lat="43.67667" lon="1.36779">
        <ele>139</ele>
        <time>2024-03-14T18:40:56Z</time>
      </trkpt>
      <trkpt lat="43.67664" lon="1.36779">
        <ele>139</ele>
        <time>2024-03-14T18:40:57Z</time>
      </trkpt>
      <trkpt lat="43.67662" lon="1.36779">
        <ele>139</ele>
        <time>2024-03-14T18:40:58Z</time>
      </trkpt>
      <trkpt lat="43.67659" lon="1.36779">
        <ele>139</ele>
        <time>2024-03-14T18:40:59Z</time>
      </trkpt>
      <trkpt lat="43.67656" lon="1.36779">
        <ele>139</ele>
        <time>2024-03-14T18:41:00Z</time>
      </trkpt>
      <trkpt lat="43.67653" lon="1.36779">
        <ele>139</ele>
        <time>2024-03-14T18:41:01Z</time>
      </trkpt>
      <trkpt lat="43.67651" lon="1.36779">
        <ele>139</ele>
        <time>2024-03-14T18:41:02Z</time>
      </trkpt>
      <trkpt lat="43.67648" lon="1.36779">
        <ele>140</ele>
        <time>2024-03-14T18:41:03Z</time>
      </trkpt>
      <trkpt lat="43.67645" lon="1.36779">
        <ele>140</ele>
        <time>2024-03-14T18:41:04Z</time>
      </trkpt>
      <trkpt lat="43.67642" lon="1.36779">
        <ele>140</ele>
        <time>2024-03-14T18:41:05Z</time>
      </trkpt>
      <trkpt lat="43.6764" lon="1.36779">
        <ele>140</ele>
        <time>2024-03-14T18:41:06Z</time>
      </trkpt>
      <trkpt lat="43.67637" lon="1.36779">
        <ele>140</ele>
        <time>2024-03-14T18:41:07Z</time>
      </trkpt>
      <trkpt lat="43.67635" lon="1.36779">
        <ele>140</ele>
        <time>2024-03-14T18:41:08Z</time>
      </trkpt>
      <trkpt lat="43.67632" lon="1.36779">
        <ele>140</ele>
        <time>2024-03-14T18:41:09Z</time>
      </trkpt>
      <trkpt lat="43.67629" lon="1.36779">
        <ele>140</ele>
        <time>2024-03-14T18:41:10Z</time>
      </trkpt>
      <trkpt lat="43.67625" lon="1.36779">
        <ele>140</ele>
        <time>2024-03-14T18:41:11Z</time>
      </trkpt>
      <trkpt lat="43.67624" lon="1.36779">
        <ele>140</ele>
        <time>2024-03-14T18:41:12Z</time>
      </trkpt>
      <trkpt lat="43.67621" lon="1.36779">
        <ele>140</ele>
        <time>2024-03-14T18:41:13Z</time>
      </trkpt>
      <trkpt lat="43.67619" lon="1.3678">
        <ele>139</ele>
        <time>2024-03-14T18:41:14Z</time>
      </trkpt>
      <trkpt lat="43.67616" lon="1.3678">
        <ele>139</ele>
        <time>2024-03-14T18:41:15Z</time>
      </trkpt>
      <trkpt lat="43.67613" lon="1.36781">
        <ele>140</ele>
        <time>2024-03-14T18:41:16Z</time>
      </trkpt>
      <trkpt lat="43.6761" lon="1.36781">
        <ele>140</ele>
        <time>2024-03-14T18:41:17Z</time>
      </trkpt>
      <trkpt lat="43.67608" lon="1.36782">
        <ele>140</ele>
        <time>2024-03-14T18:41:18Z</time>
      </trkpt>
      <trkpt lat="43.67605" lon="1.36783">
        <ele>140</ele>
        <time>2024-03-14T18:41:19Z</time>
      </trkpt>
      <trkpt lat="43.67602" lon="1.36783">
        <ele>140</ele>
        <time>2024-03-14T18:41:20Z</time>
      </trkpt>
      <trkpt lat="43.67599" lon="1.36784">
        <ele>140</ele>
        <time>2024-03-14T18:41:21Z</time>
      </trkpt>
      <trkpt lat="43.67597" lon="1.36785">
        <ele>140</ele>
        <time>2024-03-14T18:41:22Z</time>
      </trkpt>
      <trkpt lat="43.67594" lon="1.36785">
        <ele>140</ele>
        <time>2024-03-14T18:41:23Z</time>
      </trkpt>
      <trkpt lat="43.67591" lon="1.36786">
        <ele>140</ele>
        <time>2024-03-14T18:41:24Z</time>
      </trkpt>
      <trkpt lat="43.67589" lon="1.36786">
        <ele>140</ele>
        <time>2024-03-14T18:41:25Z</time>
      </trkpt>
      <trkpt lat="43.67586" lon="1.36787">
        <ele>140</ele>
        <time>2024-03-14T18:41:26Z</time>
      </trkpt>
      <trkpt lat="43.67583" lon="1.36787">
        <ele>140</ele>
        <time>2024-03-14T18:41:27Z</time>
      </trkpt>
      <trkpt lat="43.67581" lon="1.36788">
        <ele>140</ele>
        <time>2024-03-14T18:41:28Z</time>
      </trkpt>
      <trkpt lat="43.67578" lon="1.36789">
        <ele>140</ele>
        <time>2024-03-14T18:41:29Z</time>
      </trkpt>
      <trkpt lat="43.67576" lon="1.36789">
        <ele>140</ele>
        <time>2024-03-14T18:41:30Z</time>
      </trkpt>
      <trkpt lat="43.67573" lon="1.3679">
        <ele>140</ele>
        <time>2024-03-14T18:41:31Z</time>
      </trkpt>
      <trkpt lat="43.6757" lon="1.36791">
        <ele>140</ele>
        <time>2024-03-14T18:41:32Z</time>
      </trkpt>
      <trkpt lat="43.67567" lon="1.36792">
        <ele>140</ele>
        <time>2024-03-14T18:41:33Z</time>
      </trkpt>
      <trkpt lat="43.67564" lon="1.36793">
        <ele>140</ele>
        <time>2024-03-14T18:41:34Z</time>
      </trkpt>
      <trkpt lat="43.67562" lon="1.36793">
        <ele>140</ele>
        <time>2024-03-14T18:41:35Z</time>
      </trkpt>
      <trkpt lat="43.67559" lon="1.36794">
        <ele>140</ele>
        <time>2024-03-14T18:41:36Z</time>
      </trkpt>
      <trkpt lat="43.67555" lon="1.36794">
        <ele>140</ele>
        <time>2024-03-14T18:41:37Z</time>
      </trkpt>
      <trkpt lat="43.67553" lon="1.36794">
        <ele>140</ele>
        <time>2024-03-14T18:41:38Z</time>
      </trkpt>
      <trkpt lat="43.67551" lon="1.36795">
        <ele>140</ele>
        <time>2024-03-14T18:41:39Z</time>
      </trkpt>
      <trkpt lat="43.67548" lon="1.36795">
        <ele>140</ele>
        <time>2024-03-14T18:41:40Z</time>
      </trkpt>
      <trkpt lat="43.67545" lon="1.36796">
        <ele>140</ele>
        <time>2024-03-14T18:41:41Z</time>
      </trkpt>
      <trkpt lat="43.67542" lon="1.36797">
        <ele>140</ele>
        <time>2024-03-14T18:41:42Z</time>
      </trkpt>
      <trkpt lat="43.6754" lon="1.36798">
        <ele>140</ele>
        <time>2024-03-14T18:41:43Z</time>
      </trkpt>
      <trkpt lat="43.67536" lon="1.36799">
        <ele>140</ele>
        <time>2024-03-14T18:41:44Z</time>
      </trkpt>
      <trkpt lat="43.67534" lon="1.36799">
        <ele>140</ele>
        <time>2024-03-14T18:41:45Z</time>
      </trkpt>
      <trkpt lat="43.67532" lon="1.36799">
        <ele>140</ele>
        <time>2024-03-14T18:41:46Z</time>
      </trkpt>
      <trkpt lat="43.67529" lon="1.368">
        <ele>140</ele>
        <time>2024-03-14T18:41:47Z</time>
      </trkpt>
      <trkpt lat="43.67526" lon="1.368">
        <ele>140</ele>
        <time>2024-03-14T18:41:48Z</time>
      </trkpt>
      <trkpt lat="43.67523" lon="1.36801">
        <ele>140</ele>
        <time>2024-03-14T18:41:49Z</time>
      </trkpt>
      <trkpt lat="43.67521" lon="1.36801">
        <ele>140</ele>
        <time>2024-03-14T18:41:50Z</time>
      </trkpt>
      <trkpt lat="43.67517" lon="1.36802">
        <ele>140</ele>
        <time>2024-03-14T18:41:51Z</time>
      </trkpt>
      <trkpt lat="43.67516" lon="1.36802">
        <ele>140</ele>
        <time>2024-03-14T18:41:52Z</time>
      </trkpt>
      <trkpt lat="43.6751" lon="1.36803">
        <ele>140</ele>
        <time>2024-03-14T18:41:53Z</time>
      </trkpt>
      <trkpt lat="43.6751" lon="1.36803">
        <ele>140</ele>
        <time>2024-03-14T18:41:54Z</time>
      </trkpt>
      <trkpt lat="43.67508" lon="1.36803">
        <ele>140</ele>
        <time>2024-03-14T18:41:55Z</time>
      </trkpt>
      <trkpt lat="43.67506" lon="1.36803">
        <ele>140</ele>
        <time>2024-03-14T18:41:56Z</time>
      </trkpt>
      <trkpt lat="43.67503" lon="1.36804">
        <ele>140</ele>
        <time>2024-03-14T18:41:57Z</time>
      </trkpt>
      <trkpt lat="43.67501" lon="1.36804">
        <ele>140</ele>
        <time>2024-03-14T18:41:58Z</time>
      </trkpt>
      <trkpt lat="43.67498" lon="1.36805">
        <ele>140</ele>
        <time>2024-03-14T18:41:59Z</time>
      </trkpt>
      <trkpt lat="43.67495" lon="1.36805">
        <ele>140</ele>
        <time>2024-03-14T18:42:00Z</time>
      </trkpt>
      <trkpt lat="43.67493" lon="1.36806">
        <ele>140</ele>
        <time>2024-03-14T18:42:01Z</time>
      </trkpt>
      <trkpt lat="43.6749" lon="1.36807">
        <ele>140</ele>
        <time>2024-03-14T18:42:02Z</time>
      </trkpt>
      <trkpt lat="43.67487" lon="1.36807">
        <ele>140</ele>
        <time>2024-03-14T18:42:03Z</time>
      </trkpt>
      <trkpt lat="43.67485" lon="1.36808">
        <ele>140</ele>
        <time>2024-03-14T18:42:04Z</time>
      </trkpt>
      <trkpt lat="43.67482" lon="1.36808">
        <ele>140</ele>
        <time>2024-03-14T18:42:05Z</time>
      </trkpt>
      <trkpt lat="43.67479" lon="1.36808">
        <ele>140</ele>
        <time>2024-03-14T18:42:06Z</time>
      </trkpt>
      <trkpt lat="43.67477" lon="1.36809">
        <ele>140</ele>
        <time>2024-03-14T18:42:07Z</time>
      </trkpt>
      <trkpt lat="43.67474" lon="1.36809">
        <ele>140</ele>
        <time>2024-03-14T18:42:08Z</time>
      </trkpt>
      <trkpt lat="43.67471" lon="1.3681">
        <ele>140</ele>
        <time>2024-03-14T18:42:09Z</time>
      </trkpt>
      <trkpt lat="43.67469" lon="1.3681">
        <ele>140</ele>
        <time>2024-03-14T18:42:10Z</time>
      </trkpt>
      <trkpt lat="43.67464" lon="1.36811">
        <ele>140</ele>
        <time>2024-03-14T18:42:11Z</time>
      </trkpt>
      <trkpt lat="43.67461" lon="1.36811">
        <ele>140</ele>
        <time>2024-03-14T18:42:12Z</time>
      </trkpt>
      <trkpt lat="43.67461" lon="1.36811">
        <ele>140</ele>
        <time>2024-03-14T18:42:13Z</time>
      </trkpt>
      <trkpt lat="43.67458" lon="1.36812">
        <ele>140</ele>
        <time>2024-03-14T18:42:14Z</time>
      </trkpt>
      <trkpt lat="43.67455" lon="1.36812">
        <ele>140</ele>
        <time>2024-03-14T18:42:15Z</time>
      </trkpt>
      <trkpt lat="43.67453" lon="1.36813">
        <ele>140</ele>
        <time>2024-03-14T18:42:16Z</time>
      </trkpt>
      <trkpt lat="43.6745" lon="1.36813">
        <ele>140</ele>
        <time>2024-03-14T18:42:17Z</time>
      </trkpt>
      <trkpt lat="43.67447" lon="1.36813">
        <ele>141</ele>
        <time>2024-03-14T18:42:18Z</time>
      </trkpt>
      <trkpt lat="43.67444" lon="1.36813">
        <ele>141</ele>
        <time>2024-03-14T18:42:19Z</time>
      </trkpt>
      <trkpt lat="43.67442" lon="1.36813">
        <ele>141</ele>
        <time>2024-03-14T18:42:20Z</time>
      </trkpt>
      <trkpt lat="43.67439" lon="1.36813">
        <ele>141</ele>
        <time>2024-03-14T18:42:21Z</time>
      </trkpt>
      <trkpt lat="43.67436" lon="1.36814">
        <ele>140</ele>
        <time>2024-03-14T18:42:22Z</time>
      </trkpt>
      <trkpt lat="43.67433" lon="1.36814">
        <ele>140</ele>
        <time>2024-03-14T18:42:23Z</time>
      </trkpt>
      <trkpt lat="43.6743" lon="1.36814">
        <ele>140</ele>
        <time>2024-03-14T18:42:24Z</time>
      </trkpt>
      <trkpt lat="43.67427" lon="1.36814">
        <ele>140</ele>
        <time>2024-03-14T18:42:25Z</time>
      </trkpt>
      <trkpt lat="43.67424" lon="1.36814">
        <ele>140</ele>
        <time>2024-03-14T18:42:26Z</time>
      </trkpt>
      <trkpt lat="43.67421" lon="1.36814">
        <ele>140</ele>
        <time>2024-03-14T18:42:27Z</time>
      </trkpt>
      <trkpt lat="43.67418" lon="1.36814">
        <ele>140</ele>
        <time>2024-03-14T18:42:28Z</time>
      </trkpt>
      <trkpt lat="43.67415" lon="1.36814">
        <ele>140</ele>
        <time>2024-03-14T18:42:29Z</time>
      </trkpt>
      <trkpt lat="43.67413" lon="1.36813">
        <ele>140</ele>
        <time>2024-03-14T18:42:30Z</time>
      </trkpt>
      <trkpt lat="43.6741" lon="1.36813">
        <ele>140</ele>
        <time>2024-03-14T18:42:31Z</time>
      </trkpt>
      <trkpt lat="43.67407" lon="1.36812">
        <ele>140</ele>
        <time>2024-03-14T18:42:32Z</time>
      </trkpt>
      <trkpt lat="43.67404" lon="1.36812">
        <ele>140</ele>
        <time>2024-03-14T18:42:33Z</time>
      </trkpt>
      <trkpt lat="43.67402" lon="1.36812">
        <ele>140</ele>
        <time>2024-03-14T18:42:34Z</time>
      </trkpt>
      <trkpt lat="43.67399" lon="1.36811">
        <ele>140</ele>
        <time>2024-03-14T18:42:35Z</time>
      </trkpt>
      <trkpt lat="43.67396" lon="1.36811">
        <ele>140</ele>
        <time>2024-03-14T18:42:36Z</time>
      </trkpt>
      <trkpt lat="43.67393" lon="1.3681">
        <ele>140</ele>
        <time>2024-03-14T18:42:37Z</time>
      </trkpt>
      <trkpt lat="43.67391" lon="1.3681">
        <ele>140</ele>
        <time>2024-03-14T18:42:38Z</time>
      </trkpt>
      <trkpt lat="43.67388" lon="1.36809">
        <ele>140</ele>
        <time>2024-03-14T18:42:39Z</time>
      </trkpt>
      <trkpt lat="43.67385" lon="1.36808">
        <ele>140</ele>
        <time>2024-03-14T18:42:40Z</time>
      </trkpt>
      <trkpt lat="43.67383" lon="1.36807">
        <ele>140</ele>
        <time>2024-03-14T18:42:41Z</time>
      </trkpt>
      <trkpt lat="43.6738" lon="1.36806">
        <ele>140</ele>
        <time>2024-03-14T18:42:42Z</time>
      </trkpt>
      <trkpt lat="43.67377" lon="1.36806">
        <ele>140</ele>
        <time>2024-03-14T18:42:43Z</time>
      </trkpt>
      <trkpt lat="43.67374" lon="1.36806">
        <ele>140</ele>
        <time>2024-03-14T18:42:44Z</time>
      </trkpt>
      <trkpt lat="43.6737" lon="1.36804">
        <ele>140</ele>
        <time>2024-03-14T18:42:45Z</time>
      </trkpt>
      <trkpt lat="43.67369" lon="1.36804">
        <ele>140</ele>
        <time>2024-03-14T18:42:46Z</time>
      </trkpt>
      <trkpt lat="43.67366" lon="1.36802">
        <ele>140</ele>
        <time>2024-03-14T18:42:47Z</time>
      </trkpt>
      <trkpt lat="43.67363" lon="1.36802">
        <ele>140</ele>
        <time>2024-03-14T18:42:48Z</time>
      </trkpt>
      <trkpt lat="43.6736" lon="1.36801">
        <ele>140</ele>
        <time>2024-03-14T18:42:49Z</time>
      </trkpt>
      <trkpt lat="43.67355" lon="1.36798">
        <ele>140</ele>
        <time>2024-03-14T18:42:50Z</time>
      </trkpt>
      <trkpt lat="43.67355" lon="1.36798">
        <ele>140</ele>
        <time>2024-03-14T18:42:51Z</time>
      </trkpt>
      <trkpt lat="43.67352" lon="1.36798">
        <ele>140</ele>
        <time>2024-03-14T18:42:52Z</time>
      </trkpt>
      <trkpt lat="43.6735" lon="1.36797">
        <ele>140</ele>
        <time>2024-03-14T18:42:53Z</time>
      </trkpt>
      <trkpt lat="43.67346" lon="1.36795">
        <ele>140</ele>
        <time>2024-03-14T18:42:54Z</time>
      </trkpt>
      <trkpt lat="43.67344" lon="1.36794">
        <ele>140</ele>
        <time>2024-03-14T18:42:55Z</time>
      </trkpt>
      <trkpt lat="43.67342" lon="1.36794">
        <ele>140</ele>
        <time>2024-03-14T18:42:56Z</time>
      </trkpt>
      <trkpt lat="43.67339" lon="1.36793">
        <ele>140</ele>
        <time>2024-03-14T18:42:57Z</time>
      </trkpt>
      <trkpt lat="43.67337" lon="1.36791">
        <ele>140</ele>
        <time>2024-03-14T18:42:58Z</time>
      </trkpt>
      <trkpt lat="43.67334" lon="1.3679">
        <ele>140</ele>
        <time>2024-03-14T18:42:59Z</time>
      </trkpt>
      <trkpt lat="43.67332" lon="1.36789">
        <ele>140</ele>
        <time>2024-03-14T18:43:00Z</time>
      </trkpt>
      <trkpt lat="43.67327" lon="1.36787">
        <ele>140</ele>
        <time>2024-03-14T18:43:01Z</time>
      </trkpt>
      <trkpt lat="43.67324" lon="1.36786">
        <ele>140</ele>
        <time>2024-03-14T18:43:02Z</time>
      </trkpt>
      <trkpt lat="43.67324" lon="1.36786">
        <ele>140</ele>
        <time>2024-03-14T18:43:03Z</time>
      </trkpt>
      <trkpt lat="43.67322" lon="1.36784">
        <ele>140</ele>
        <time>2024-03-14T18:43:04Z</time>
      </trkpt>
      <trkpt lat="43.6732" lon="1.36782">
        <ele>140</ele>
        <time>2024-03-14T18:43:05Z</time>
      </trkpt>
      <trkpt lat="43.67317" lon="1.3678">
        <ele>140</ele>
        <time>2024-03-14T18:43:06Z</time>
      </trkpt>
      <trkpt lat="43.67315" lon="1.36778">
        <ele>140</ele>
        <time>2024-03-14T18:43:07Z</time>
      </trkpt>
      <trkpt lat="43.67312" lon="1.36777">
        <ele>140</ele>
        <time>2024-03-14T18:43:08Z</time>
      </trkpt>
      <trkpt lat="43.67307" lon="1.36774">
        <ele>140</ele>
        <time>2024-03-14T18:43:09Z</time>
      </trkpt>
      <trkpt lat="43.67307" lon="1.36774">
        <ele>140</ele>
        <time>2024-03-14T18:43:10Z</time>
      </trkpt>
      <trkpt lat="43.67305" lon="1.36773">
        <ele>140</ele>
        <time>2024-03-14T18:43:11Z</time>
      </trkpt>
      <trkpt lat="43.67302" lon="1.36772">
        <ele>140</ele>
        <time>2024-03-14T18:43:12Z</time>
      </trkpt>
      <trkpt lat="43.67299" lon="1.36771">
        <ele>140</ele>
        <time>2024-03-14T18:43:13Z</time>
      </trkpt>
      <trkpt lat="43.67297" lon="1.3677">
        <ele>140</ele>
        <time>2024-03-14T18:43:14Z</time>
      </trkpt>
      <trkpt lat="43.67294" lon="1.3677">
        <ele>140</ele>
        <time>2024-03-14T18:43:15Z</time>
      </trkpt>
      <trkpt lat="43.67292" lon="1.36771">
        <ele>140</ele>
        <time>2024-03-14T18:43:16Z</time>
      </trkpt>
      <trkpt lat="43.67289" lon="1.36771">
        <ele>140</ele>
        <time>2024-03-14T18:43:17Z</time>
      </trkpt>
      <trkpt lat="43.67286" lon="1.36771">
        <ele>140</ele>
        <time>2024-03-14T18:43:18Z</time>
      </trkpt>
      <trkpt lat="43.67283" lon="1.36769">
        <ele>140</ele>
        <time>2024-03-14T18:43:19Z</time>
      </trkpt>
      <trkpt lat="43.67279" lon="1.36767">
        <ele>140</ele>
        <time>2024-03-14T18:43:20Z</time>
      </trkpt>
      <trkpt lat="43.67277" lon="1.36766">
        <ele>140</ele>
        <time>2024-03-14T18:43:21Z</time>
      </trkpt>
      <trkpt lat="43.67275" lon="1.36764">
        <ele>140</ele>
        <time>2024-03-14T18:43:22Z</time>
      </trkpt>
      <trkpt lat="43.67272" lon="1.36762">
        <ele>140</ele>
        <time>2024-03-14T18:43:23Z</time>
      </trkpt>
      <trkpt lat="43.67269" lon="1.3676">
        <ele>140</ele>
        <time>2024-03-14T18:43:24Z</time>
      </trkpt>
      <trkpt lat="43.67266" lon="1.36759">
        <ele>140</ele>
        <time>2024-03-14T18:43:25Z</time>
      </trkpt>
      <trkpt lat="43.67263" lon="1.36758">
        <ele>140</ele>
        <time>2024-03-14T18:43:26Z</time>
      </trkpt>
      <trkpt lat="43.67261" lon="1.36757">
        <ele>140</ele>
        <time>2024-03-14T18:43:27Z</time>
      </trkpt>
      <trkpt lat="43.67258" lon="1.36755">
        <ele>140</ele>
        <time>2024-03-14T18:43:28Z</time>
      </trkpt>
      <trkpt lat="43.67255" lon="1.36754">
        <ele>140</ele>
        <time>2024-03-14T18:43:29Z</time>
      </trkpt>
      <trkpt lat="43.67252" lon="1.36753">
        <ele>140</ele>
        <time>2024-03-14T18:43:30Z</time>
      </trkpt>
      <trkpt lat="43.6725" lon="1.36752">
        <ele>140</ele>
        <time>2024-03-14T18:43:31Z</time>
      </trkpt>
      <trkpt lat="43.67247" lon="1.36752">
        <ele>140</ele>
        <time>2024-03-14T18:43:32Z</time>
      </trkpt>
      <trkpt lat="43.67243" lon="1.3675">
        <ele>139</ele>
        <time>2024-03-14T18:43:33Z</time>
      </trkpt>
      <trkpt lat="43.67241" lon="1.36749">
        <ele>139</ele>
        <time>2024-03-14T18:43:34Z</time>
      </trkpt>
      <trkpt lat="43.67239" lon="1.36748">
        <ele>139</ele>
        <time>2024-03-14T18:43:35Z</time>
      </trkpt>
      <trkpt lat="43.67236" lon="1.36747">
        <ele>139</ele>
        <time>2024-03-14T18:43:36Z</time>
      </trkpt>
      <trkpt lat="43.67233" lon="1.36746">
        <ele>139</ele>
        <time>2024-03-14T18:43:37Z</time>
      </trkpt>
      <trkpt lat="43.6723" lon="1.36745">
        <ele>139</ele>
        <time>2024-03-14T18:43:38Z</time>
      </trkpt>
      <trkpt lat="43.67228" lon="1.36744">
        <ele>139</ele>
        <time>2024-03-14T18:43:39Z</time>
      </trkpt>
      <trkpt lat="43.67225" lon="1.36743">
        <ele>139</ele>
        <time>2024-03-14T18:43:40Z</time>
      </trkpt>
      <trkpt lat="43.67222" lon="1.36742">
        <ele>139</ele>
        <time>2024-03-14T18:43:41Z</time>
      </trkpt>
      <trkpt lat="43.67219" lon="1.3674">
        <ele>139</ele>
        <time>2024-03-14T18:43:42Z</time>
      </trkpt>
      <trkpt lat="43.67217" lon="1.36739">
        <ele>139</ele>
        <time>2024-03-14T18:43:43Z</time>
      </trkpt>
      <trkpt lat="43.67214" lon="1.36738">
        <ele>139</ele>
        <time>2024-03-14T18:43:44Z</time>
      </trkpt>
      <trkpt lat="43.67211" lon="1.36736">
        <ele>140</ele>
        <time>2024-03-14T18:43:45Z</time>
      </trkpt>
      <trkpt lat="43.67209" lon="1.36735">
        <ele>140</ele>
        <time>2024-03-14T18:43:46Z</time>
      </trkpt>
      <trkpt lat="43.67206" lon="1.36734">
        <ele>140</ele>
        <time>2024-03-14T18:43:47Z</time>
      </trkpt>
      <trkpt lat="43.67204" lon="1.36733">
        <ele>140</ele>
        <time>2024-03-14T18:43:48Z</time>
      </trkpt>
      <trkpt lat="43.67201" lon="1.36732">
        <ele>140</ele>
        <time>2024-03-14T18:43:49Z</time>
      </trkpt>
      <trkpt lat="43.67199" lon="1.36731">
        <ele>140</ele>
        <time>2024-03-14T18:43:50Z</time>
      </trkpt>
      <trkpt lat="43.67196" lon="1.3673">
        <ele>140</ele>
        <time>2024-03-14T18:43:51Z</time>
      </trkpt>
      <trkpt lat="43.67194" lon="1.36729">
        <ele>140</ele>
        <time>2024-03-14T18:43:52Z</time>
      </trkpt>
      <trkpt lat="43.67191" lon="1.36728">
        <ele>140</ele>
        <time>2024-03-14T18:43:53Z</time>
      </trkpt>
      <trkpt lat="43.67189" lon="1.36727">
        <ele>140</ele>
        <time>2024-03-14T18:43:54Z</time>
      </trkpt>
      <trkpt lat="43.67186" lon="1.36727">
        <ele>140</ele>
        <time>2024-03-14T18:43:55Z</time>
      </trkpt>
      <trkpt lat="43.67183" lon="1.36726">
        <ele>140</ele>
        <time>2024-03-14T18:43:56Z</time>
      </trkpt>
      <trkpt lat="43.67181" lon="1.36724">
        <ele>140</ele>
        <time>2024-03-14T18:43:57Z</time>
      </trkpt>
      <trkpt lat="43.67178" lon="1.36723">
        <ele>140</ele>
        <time>2024-03-14T18:43:58Z</time>
      </trkpt>
      <trkpt lat="43.67176" lon="1.36722">
        <ele>140</ele>
        <time>2024-03-14T18:43:59Z</time>
      </trkpt>
      <trkpt lat="43.67173" lon="1.36722">
        <ele>140</ele>
        <time>2024-03-14T18:44:00Z</time>
      </trkpt>
      <trkpt lat="43.6717" lon="1.36721">
        <ele>140</ele>
        <time>2024-03-14T18:44:01Z</time>
      </trkpt>
      <trkpt lat="43.67168" lon="1.3672">
        <ele>140</ele>
        <time>2024-03-14T18:44:02Z</time>
      </trkpt>
      <trkpt lat="43.67165" lon="1.36719">
        <ele>140</ele>
        <time>2024-03-14T18:44:03Z</time>
      </trkpt>
      <trkpt lat="43.67162" lon="1.36719">
        <ele>140</ele>
        <time>2024-03-14T18:44:04Z</time>
      </trkpt>
      <trkpt lat="43.67159" lon="1.36718">
        <ele>140</ele>
        <time>2024-03-14T18:44:05Z</time>
      </trkpt>
      <trkpt lat="43.67156" lon="1.36717">
        <ele>140</ele>
        <time>2024-03-14T18:44:06Z</time>
      </trkpt>
      <trkpt lat="43.67154" lon="1.36717">
        <ele>140</ele>
        <time>2024-03-14T18:44:07Z</time>
      </trkpt>
      <trkpt lat="43.67151" lon="1.36716">
        <ele>140</ele>
        <time>2024-03-14T18:44:08Z</time>
      </trkpt>
      <trkpt lat="43.67149" lon="1.36716">
        <ele>140</ele>
        <time>2024-03-14T18:44:09Z</time>
      </trkpt>
      <trkpt lat="43.67146" lon="1.36716">
        <ele>140</ele>
        <time>2024-03-14T18:44:10Z</time>
      </trkpt>
      <trkpt lat="43.67143" lon="1.36716">
        <ele>140</ele>
        <time>2024-03-14T18:44:11Z</time>
      </trkpt>
      <trkpt lat="43.67141" lon="1.36717">
        <ele>140</ele>
        <time>2024-03-14T18:44:12Z</time>
      </trkpt>
      <trkpt lat="43.67138" lon="1.36717">
        <ele>140</ele>
        <time>2024-03-14T18:44:13Z</time>
      </trkpt>
      <trkpt lat="43.67136" lon="1.36717">
        <ele>140</ele>
        <time>2024-03-14T18:44:14Z</time>
      </trkpt>
      <trkpt lat="43.67133" lon="1.36718">
        <ele>141</ele>
        <time>2024-03-14T18:44:15Z</time>
      </trkpt>
      <trkpt lat="43.67131" lon="1.36718">
        <ele>141</ele>
        <time>2024-03-14T18:44:16Z</time>
      </trkpt>
      <trkpt lat="43.67129" lon="1.36719">
        <ele>141</ele>
        <time>2024-03-14T18:44:17Z</time>
      </trkpt>
      <trkpt lat="43.67126" lon="1.3672">
        <ele>141</ele>
        <time>2024-03-14T18:44:18Z</time>
      </trkpt>
      <trkpt lat="43.67124" lon="1.36721">
        <ele>141</ele>
        <time>2024-03-14T18:44:19Z</time>
      </trkpt>
      <trkpt lat="43.67121" lon="1.36723">
        <ele>141</ele>
        <time>2024-03-14T18:44:20Z</time>
      </trkpt>
      <trkpt lat="43.67119" lon="1.36724">
        <ele>141</ele>
        <time>2024-03-14T18:44:21Z</time>
      </trkpt>
      <trkpt lat="43.67116" lon="1.36726">
        <ele>140</ele>
        <time>2024-03-14T18:44:22Z</time>
      </trkpt>
      <trkpt lat="43.67114" lon="1.36727">
        <ele>140</ele>
        <time>2024-03-14T18:44:23Z</time>
      </trkpt>
      <trkpt lat="43.67111" lon="1.36728">
        <ele>140</ele>
        <time>2024-03-14T18:44:24Z</time>
      </trkpt>
      <trkpt lat="43.67109" lon="1.36729">
        <ele>141</ele>
        <time>2024-03-14T18:44:25Z</time>
      </trkpt>
      <trkpt lat="43.67107" lon="1.36731">
        <ele>141</ele>
        <time>2024-03-14T18:44:26Z</time>
      </trkpt>
      <trkpt lat="43.67104" lon="1.36732">
        <ele>141</ele>
        <time>2024-03-14T18:44:27Z</time>
      </trkpt>
      <trkpt lat="43.67102" lon="1.36734">
        <ele>141</ele>
        <time>2024-03-14T18:44:28Z</time>
      </trkpt>
      <trkpt lat="43.67099" lon="1.36736">
        <ele>142</ele>
        <time>2024-03-14T18:44:29Z</time>
      </trkpt>
      <trkpt lat="43.67097" lon="1.36738">
        <ele>142</ele>
        <time>2024-03-14T18:44:30Z</time>
      </trkpt>
      <trkpt lat="43.67094" lon="1.3674">
        <ele>142</ele>
        <time>2024-03-14T18:44:31Z</time>
      </trkpt>
      <trkpt lat="43.67092" lon="1.36742">
        <ele>142</ele>
        <time>2024-03-14T18:44:32Z</time>
      </trkpt>
      <trkpt lat="43.67089" lon="1.36744">
        <ele>142</ele>
        <time>2024-03-14T18:44:33Z</time>
      </trkpt>
      <trkpt lat="43.67087" lon="1.36746">
        <ele>142</ele>
        <time>2024-03-14T18:44:34Z</time>
      </trkpt>
      <trkpt lat="43.67085" lon="1.36748">
        <ele>142</ele>
        <time>2024-03-14T18:44:35Z</time>
      </trkpt>
      <trkpt lat="43.67082" lon="1.36749">
        <ele>142</ele>
        <time>2024-03-14T18:44:36Z</time>
      </trkpt>
      <trkpt lat="43.6708" lon="1.36751">
        <ele>142</ele>
        <time>2024-03-14T18:44:37Z</time>
      </trkpt>
      <trkpt lat="43.67077" lon="1.36753">
        <ele>142</ele>
        <time>2024-03-14T18:44:38Z</time>
      </trkpt>
      <trkpt lat="43.67074" lon="1.36755">
        <ele>142</ele>
        <time>2024-03-14T18:44:39Z</time>
      </trkpt>
      <trkpt lat="43.6707" lon="1.36759">
        <ele>141</ele>
        <time>2024-03-14T18:44:40Z</time>
      </trkpt>
      <trkpt lat="43.6707" lon="1.36759">
        <ele>141</ele>
        <time>2024-03-14T18:44:41Z</time>
      </trkpt>
      <trkpt lat="43.67067" lon="1.3676">
        <ele>141</ele>
        <time>2024-03-14T18:44:42Z</time>
      </trkpt>
      <trkpt lat="43.67064" lon="1.36762">
        <ele>141</ele>
        <time>2024-03-14T18:44:43Z</time>
      </trkpt>
      <trkpt lat="43.67062" lon="1.36763">
        <ele>141</ele>
        <time>2024-03-14T18:44:44Z</time>
      </trkpt>
      <trkpt lat="43.6706" lon="1.36765">
        <ele>141</ele>
        <time>2024-03-14T18:44:45Z</time>
      </trkpt>
      <trkpt lat="43.67057" lon="1.36766">
        <ele>141</ele>
        <time>2024-03-14T18:44:46Z</time>
      </trkpt>
      <trkpt lat="43.67055" lon="1.36768">
        <ele>141</ele>
        <time>2024-03-14T18:44:47Z</time>
      </trkpt>
      <trkpt lat="43.67053" lon="1.36769">
        <ele>142</ele>
        <time>2024-03-14T18:44:48Z</time>
      </trkpt>
      <trkpt lat="43.6705" lon="1.36771">
        <ele>142</ele>
        <time>2024-03-14T18:44:49Z</time>
      </trkpt>
      <trkpt lat="43.67048" lon="1.36772">
        <ele>142</ele>
        <time>2024-03-14T18:44:50Z</time>
      </trkpt>
      <trkpt lat="43.67045" lon="1.36774">
        <ele>142</ele>
        <time>2024-03-14T18:44:51Z</time>
      </trkpt>
      <trkpt lat="43.67043" lon="1.36776">
        <ele>142</ele>
        <time>2024-03-14T18:44:52Z</time>
      </trkpt>
      <trkpt lat="43.67041" lon="1.36778">
        <ele>142</ele>
        <time>2024-03-14T18:44:53Z</time>
      </trkpt>
      <trkpt lat="43.67036" lon="1.36781">
        <ele>142</ele>
        <time>2024-03-14T18:44:54Z</time>
      </trkpt>
      <trkpt lat="43.67036" lon="1.36781">
        <ele>142</ele>
        <time>2024-03-14T18:44:55Z</time>
      </trkpt>
      <trkpt lat="43.67033" lon="1.36783">
        <ele>142</ele>
        <time>2024-03-14T18:44:56Z</time>
      </trkpt>
      <trkpt lat="43.67031" lon="1.36784">
        <ele>142</ele>
        <time>2024-03-14T18:44:57Z</time>
      </trkpt>
      <trkpt lat="43.67027" lon="1.36787">
        <ele>142</ele>
        <time>2024-03-14T18:44:58Z</time>
      </trkpt>
      <trkpt lat="43.67026" lon="1.36788">
        <ele>142</ele>
        <time>2024-03-14T18:44:59Z</time>
      </trkpt>
      <trkpt lat="43.67023" lon="1.3679">
        <ele>142</ele>
        <time>2024-03-14T18:45:00Z</time>
      </trkpt>
      <trkpt lat="43.67021" lon="1.36791">
        <ele>142</ele>
        <time>2024-03-14T18:45:01Z</time>
      </trkpt>
      <trkpt lat="43.67018" lon="1.36793">
        <ele>142</ele>
        <time>2024-03-14T18:45:02Z</time>
      </trkpt>
      <trkpt lat="43.67016" lon="1.36795">
        <ele>141</ele>
        <time>2024-03-14T18:45:03Z</time>
      </trkpt>
      <trkpt lat="43.67014" lon="1.36796">
        <ele>142</ele>
        <time>2024-03-14T18:45:04Z</time>
      </trkpt>
      <trkpt lat="43.67012" lon="1.36798">
        <ele>142</ele>
        <time>2024-03-14T18:45:05Z</time>
      </trkpt>
      <trkpt lat="43.6701" lon="1.36801">
        <ele>142</ele>
        <time>2024-03-14T18:45:06Z</time>
      </trkpt>
      <trkpt lat="43.67008" lon="1.36804">
        <ele>142</ele>
        <time>2024-03-14T18:45:07Z</time>
      </trkpt>
      <trkpt lat="43.67006" lon="1.36807">
        <ele>142</ele>
        <time>2024-03-14T18:45:08Z</time>
      </trkpt>
      <trkpt lat="43.67004" lon="1.3681">
        <ele>142</ele>
        <time>2024-03-14T18:45:09Z</time>
      </trkpt>
      <trkpt lat="43.67002" lon="1.36813">
        <ele>142</ele>
        <time>2024-03-14T18:45:10Z</time>
      </trkpt>
      <trkpt lat="43.67001" lon="1.36815">
        <ele>142</ele>
        <time>2024-03-14T18:45:11Z</time>
      </trkpt>
      <trkpt lat="43.66999" lon="1.36818">
        <ele>142</ele>
        <time>2024-03-14T18:45:12Z</time>
      </trkpt>
      <trkpt lat="43.66997" lon="1.36821">
        <ele>142</ele>
        <time>2024-03-14T18:45:13Z</time>
      </trkpt>
      <trkpt lat="43.66996" lon="1.36825">
        <ele>142</ele>
        <time>2024-03-14T18:45:14Z</time>
      </trkpt>
      <trkpt lat="43.66993" lon="1.36827">
        <ele>142</ele>
        <time>2024-03-14T18:45:15Z</time>
      </trkpt>
      <trkpt lat="43.66991" lon="1.36829">
        <ele>142</ele>
        <time>2024-03-14T18:45:16Z</time>
      </trkpt>
      <trkpt lat="43.66988" lon="1.3683">
        <ele>142</ele>
        <time>2024-03-14T18:45:17Z</time>
      </trkpt>
      <trkpt lat="43.66985" lon="1.3683">
        <ele>142</ele>
        <time>2024-03-14T18:45:18Z</time>
      </trkpt>
      <trkpt lat="43.66983" lon="1.36828">
        <ele>142</ele>
        <time>2024-03-14T18:45:19Z</time>
      </trkpt>
      <trkpt lat="43.66981" lon="1.36826">
        <ele>142</ele>
        <time>2024-03-14T18:45:20Z</time>
      </trkpt>
      <trkpt lat="43.66978" lon="1.36825">
        <ele>142</ele>
        <time>2024-03-14T18:45:21Z</time>
      </trkpt>
      <trkpt lat="43.66976" lon="1.36825">
        <ele>142</ele>
        <time>2024-03-14T18:45:22Z</time>
      </trkpt>
      <trkpt lat="43.66973" lon="1.36826">
        <ele>142</ele>
        <time>2024-03-14T18:45:23Z</time>
      </trkpt>
      <trkpt lat="43.66971" lon="1.36827">
        <ele>142</ele>
        <time>2024-03-14T18:45:24Z</time>
      </trkpt>
      <trkpt lat="43.66969" lon="1.36828">
        <ele>142</ele>
        <time>2024-03-14T18:45:25Z</time>
      </trkpt>
      <trkpt lat="43.66966" lon="1.3683">
        <ele>142</ele>
        <time>2024-03-14T18:45:26Z</time>
      </trkpt>
      <trkpt lat="43.66964" lon="1.36831">
        <ele>142</ele>
        <time>2024-03-14T18:45:27Z</time>
      </trkpt>
      <trkpt lat="43.66961" lon="1.36833">
        <ele>142</ele>
        <time>2024-03-14T18:45:28Z</time>
      </trkpt>
      <trkpt lat="43.66959" lon="1.36835">
        <ele>142</ele>
        <time>2024-03-14T18:45:29Z</time>
      </trkpt>
      <trkpt lat="43.66957" lon="1.36837">
        <ele>142</ele>
        <time>2024-03-14T18:45:30Z</time>
      </trkpt>
      <trkpt lat="43.66954" lon="1.36839">
        <ele>142</ele>
        <time>2024-03-14T18:45:31Z</time>
      </trkpt>
      <trkpt lat="43.66952" lon="1.36841">
        <ele>142</ele>
        <time>2024-03-14T18:45:32Z</time>
      </trkpt>
      <trkpt lat="43.6695" lon="1.36842">
        <ele>142</ele>
        <time>2024-03-14T18:45:33Z</time>
      </trkpt>
      <trkpt lat="43.66947" lon="1.36843">
        <ele>142</ele>
        <time>2024-03-14T18:45:34Z</time>
      </trkpt>
      <trkpt lat="43.66945" lon="1.36845">
        <ele>142</ele>
        <time>2024-03-14T18:45:35Z</time>
      </trkpt>
      <trkpt lat="43.66942" lon="1.36847">
        <ele>142</ele>
        <time>2024-03-14T18:45:36Z</time>
      </trkpt>
      <trkpt lat="43.66939" lon="1.36849">
        <ele>142</ele>
        <time>2024-03-14T18:45:37Z</time>
      </trkpt>
      <trkpt lat="43.66937" lon="1.3685">
        <ele>142</ele>
        <time>2024-03-14T18:45:38Z</time>
      </trkpt>
      <trkpt lat="43.66934" lon="1.36851">
        <ele>142</ele>
        <time>2024-03-14T18:45:39Z</time>
      </trkpt>
      <trkpt lat="43.66932" lon="1.36853">
        <ele>142</ele>
        <time>2024-03-14T18:45:40Z</time>
      </trkpt>
      <trkpt lat="43.66927" lon="1.36856">
        <ele>142</ele>
        <time>2024-03-14T18:45:41Z</time>
      </trkpt>
      <trkpt lat="43.66927" lon="1.36856">
        <ele>142</ele>
        <time>2024-03-14T18:45:42Z</time>
      </trkpt>
      <trkpt lat="43.66925" lon="1.36858">
        <ele>142</ele>
        <time>2024-03-14T18:45:43Z</time>
      </trkpt>
      <trkpt lat="43.66922" lon="1.3686">
        <ele>142</ele>
        <time>2024-03-14T18:45:44Z</time>
      </trkpt>
      <trkpt lat="43.6692" lon="1.36861">
        <ele>142</ele>
        <time>2024-03-14T18:45:45Z</time>
      </trkpt>
      <trkpt lat="43.66917" lon="1.36863">
        <ele>142</ele>
        <time>2024-03-14T18:45:46Z</time>
      </trkpt>
      <trkpt lat="43.66915" lon="1.36865">
        <ele>142</ele>
        <time>2024-03-14T18:45:47Z</time>
      </trkpt>
      <trkpt lat="43.66913" lon="1.36867">
        <ele>142</ele>
        <time>2024-03-14T18:45:48Z</time>
      </trkpt>
      <trkpt lat="43.66911" lon="1.36868">
        <ele>142</ele>
        <time>2024-03-14T18:45:49Z</time>
      </trkpt>
      <trkpt lat="43.66908" lon="1.3687">
        <ele>142</ele>
        <time>2024-03-14T18:45:50Z</time>
      </trkpt>
      <trkpt lat="43.66906" lon="1.36872">
        <ele>142</ele>
        <time>2024-03-14T18:45:51Z</time>
      </trkpt>
      <trkpt lat="43.66903" lon="1.36874">
        <ele>142</ele>
        <time>2024-03-14T18:45:52Z</time>
      </trkpt>
      <trkpt lat="43.66901" lon="1.36876">
        <ele>142</ele>
        <time>2024-03-14T18:45:53Z</time>
      </trkpt>
      <trkpt lat="43.66899" lon="1.36877">
        <ele>142</ele>
        <time>2024-03-14T18:45:54Z</time>
      </trkpt>
      <trkpt lat="43.66895" lon="1.3688">
        <ele>142</ele>
        <time>2024-03-14T18:45:55Z</time>
      </trkpt>
      <trkpt lat="43.66894" lon="1.36882">
        <ele>142</ele>
        <time>2024-03-14T18:45:56Z</time>
      </trkpt>
      <trkpt lat="43.66891" lon="1.36883">
        <ele>142</ele>
        <time>2024-03-14T18:45:57Z</time>
      </trkpt>
      <trkpt lat="43.66889" lon="1.36885">
        <ele>142</ele>
        <time>2024-03-14T18:45:58Z</time>
      </trkpt>
      <trkpt lat="43.66887" lon="1.36886">
        <ele>142</ele>
        <time>2024-03-14T18:45:59Z</time>
      </trkpt>
      <trkpt lat="43.66882" lon="1.3689">
        <ele>142</ele>
        <time>2024-03-14T18:46:00Z</time>
      </trkpt>
      <trkpt lat="43.66882" lon="1.3689">
        <ele>142</ele>
        <time>2024-03-14T18:46:01Z</time>
      </trkpt>
      <trkpt lat="43.6688" lon="1.36892">
        <ele>142</ele>
        <time>2024-03-14T18:46:02Z</time>
      </trkpt>
      <trkpt lat="43.66877" lon="1.36894">
        <ele>142</ele>
        <time>2024-03-14T18:46:03Z</time>
      </trkpt>
      <trkpt lat="43.66875" lon="1.36895">
        <ele>142</ele>
        <time>2024-03-14T18:46:04Z</time>
      </trkpt>
      <trkpt lat="43.66872" lon="1.36897">
        <ele>142</ele>
        <time>2024-03-14T18:46:05Z</time>
      </trkpt>
      <trkpt lat="43.6687" lon="1.36899">
        <ele>142</ele>
        <time>2024-03-14T18:46:06Z</time>
      </trkpt>
      <trkpt lat="43.66867" lon="1.369">
        <ele>142</ele>
        <time>2024-03-14T18:46:07Z</time>
      </trkpt>
      <trkpt lat="43.66865" lon="1.36902">
        <ele>142</ele>
        <time>2024-03-14T18:46:08Z</time>
      </trkpt>
      <trkpt lat="43.66862" lon="1.36904">
        <ele>142</ele>
        <time>2024-03-14T18:46:09Z</time>
      </trkpt>
      <trkpt lat="43.6686" lon="1.36905">
        <ele>142</ele>
        <time>2024-03-14T18:46:10Z</time>
      </trkpt>
      <trkpt lat="43.66857" lon="1.36907">
        <ele>142</ele>
        <time>2024-03-14T18:46:11Z</time>
      </trkpt>
      <trkpt lat="43.66855" lon="1.36908">
        <ele>142</ele>
        <time>2024-03-14T18:46:12Z</time>
      </trkpt>
      <trkpt lat="43.66851" lon="1.3691">
        <ele>142</ele>
        <time>2024-03-14T18:46:13Z</time>
      </trkpt>
      <trkpt lat="43.6685" lon="1.36911">
        <ele>142</ele>
        <time>2024-03-14T18:46:14Z</time>
      </trkpt>
      <trkpt lat="43.66847" lon="1.36913">
        <ele>142</ele>
        <time>2024-03-14T18:46:15Z</time>
      </trkpt>
      <trkpt lat="43.66845" lon="1.36915">
        <ele>142</ele>
        <time>2024-03-14T18:46:16Z</time>
      </trkpt>
      <trkpt lat="43.66842" lon="1.36916">
        <ele>142</ele>
        <time>2024-03-14T18:46:17Z</time>
      </trkpt>
      <trkpt lat="43.6684" lon="1.36918">
        <ele>142</ele>
        <time>2024-03-14T18:46:18Z</time>
      </trkpt>
      <trkpt lat="43.66835" lon="1.36922">
        <ele>142</ele>
        <time>2024-03-14T18:46:19Z</time>
      </trkpt>
      <trkpt lat="43.66835" lon="1.36922">
        <ele>142</ele>
        <time>2024-03-14T18:46:20Z</time>
      </trkpt>
      <trkpt lat="43.66832" lon="1.36924">
        <ele>142</ele>
        <time>2024-03-14T18:46:21Z</time>
      </trkpt>
      <trkpt lat="43.6683" lon="1.36926">
        <ele>142</ele>
        <time>2024-03-14T18:46:22Z</time>
      </trkpt>
      <trkpt lat="43.66827" lon="1.36927">
        <ele>142</ele>
        <time>2024-03-14T18:46:23Z</time>
      </trkpt>
      <trkpt lat="43.66825" lon="1.36929">
        <ele>142</ele>
        <time>2024-03-14T18:46:24Z</time>
      </trkpt>
      <trkpt lat="43.66822" lon="1.3693">
        <ele>142</ele>
        <time>2024-03-14T18:46:25Z</time>
      </trkpt>
      <trkpt lat="43.6682" lon="1.36932">
        <ele>142</ele>
        <time>2024-03-14T18:46:26Z</time>
      </trkpt>
      <trkpt lat="43.66817" lon="1.36934">
        <ele>142</ele>
        <time>2024-03-14T18:46:27Z</time>
      </trkpt>
      <trkpt lat="43.66815" lon="1.36936">
        <ele>142</ele>
        <time>2024-03-14T18:46:28Z</time>
      </trkpt>
      <trkpt lat="43.66812" lon="1.36938">
        <ele>142</ele>
        <time>2024-03-14T18:46:29Z</time>
      </trkpt>
      <trkpt lat="43.6681" lon="1.36939">
        <ele>142</ele>
        <time>2024-03-14T18:46:30Z</time>
      </trkpt>
      <trkpt lat="43.66808" lon="1.36941">
        <ele>142</ele>
        <time>2024-03-14T18:46:31Z</time>
      </trkpt>
      <trkpt lat="43.66806" lon="1.36943">
        <ele>142</ele>
        <time>2024-03-14T18:46:32Z</time>
      </trkpt>
      <trkpt lat="43.66803" lon="1.36944">
        <ele>142</ele>
        <time>2024-03-14T18:46:33Z</time>
      </trkpt>
      <trkpt lat="43.66801" lon="1.36946">
        <ele>142</ele>
        <time>2024-03-14T18:46:34Z</time>
      </trkpt>
      <trkpt lat="43.66799" lon="1.36948">
        <ele>142</ele>
        <time>2024-03-14T18:46:35Z</time>
      </trkpt>
      <trkpt lat="43.66797" lon="1.36949">
        <ele>142</ele>
        <time>2024-03-14T18:46:36Z</time>
      </trkpt>
      <trkpt lat="43.66794" lon="1.36951">
        <ele>142</ele>
        <time>2024-03-14T18:46:37Z</time>
      </trkpt>
      <trkpt lat="43.66792" lon="1.36953">
        <ele>142</ele>
        <time>2024-03-14T18:46:38Z</time>
      </trkpt>
      <trkpt lat="43.66789" lon="1.36954">
        <ele>142</ele>
        <time>2024-03-14T18:46:39Z</time>
      </trkpt>
      <trkpt lat="43.66787" lon="1.36956">
        <ele>142</ele>
        <time>2024-03-14T18:46:40Z</time>
      </trkpt>
      <trkpt lat="43.66785" lon="1.36958">
        <ele>142</ele>
        <time>2024-03-14T18:46:41Z</time>
      </trkpt>
      <trkpt lat="43.66782" lon="1.36959">
        <ele>142</ele>
        <time>2024-03-14T18:46:42Z</time>
      </trkpt>
      <trkpt lat="43.6678" lon="1.3696">
        <ele>142</ele>
        <time>2024-03-14T18:46:43Z</time>
      </trkpt>
      <trkpt lat="43.66778" lon="1.36961">
        <ele>142</ele>
        <time>2024-03-14T18:46:44Z</time>
      </trkpt>
      <trkpt lat="43.66775" lon="1.36963">
        <ele>142</ele>
        <time>2024-03-14T18:46:45Z</time>
      </trkpt>
      <trkpt lat="43.66773" lon="1.36964">
        <ele>142</ele>
        <time>2024-03-14T18:46:46Z</time>
      </trkpt>
      <trkpt lat="43.66771" lon="1.36966">
        <ele>142</ele>
        <time>2024-03-14T18:46:47Z</time>
      </trkpt>
      <trkpt lat="43.66769" lon="1.36968">
        <ele>142</ele>
        <time>2024-03-14T18:46:48Z</time>
      </trkpt>
      <trkpt lat="43.66766" lon="1.36969">
        <ele>142</ele>
        <time>2024-03-14T18:46:49Z</time>
      </trkpt>
      <trkpt lat="43.66762" lon="1.36972">
        <ele>142</ele>
        <time>2024-03-14T18:46:50Z</time>
      </trkpt>
      <trkpt lat="43.66761" lon="1.36973">
        <ele>142</ele>
        <time>2024-03-14T18:46:51Z</time>
      </trkpt>
      <trkpt lat="43.66758" lon="1.36975">
        <ele>142</ele>
        <time>2024-03-14T18:46:52Z</time>
      </trkpt>
      <trkpt lat="43.66755" lon="1.36976">
        <ele>142</ele>
        <time>2024-03-14T18:46:53Z</time>
      </trkpt>
      <trkpt lat="43.66753" lon="1.36978">
        <ele>142</ele>
        <time>2024-03-14T18:46:54Z</time>
      </trkpt>
      <trkpt lat="43.6675" lon="1.3698">
        <ele>142</ele>
        <time>2024-03-14T18:46:55Z</time>
      </trkpt>
      <trkpt lat="43.66748" lon="1.36981">
        <ele>142</ele>
        <time>2024-03-14T18:46:56Z</time>
      </trkpt>
      <trkpt lat="43.66743" lon="1.36985">
        <ele>142</ele>
        <time>2024-03-14T18:46:57Z</time>
      </trkpt>
      <trkpt lat="43.66743" lon="1.36985">
        <ele>142</ele>
        <time>2024-03-14T18:46:58Z</time>
      </trkpt>
      <trkpt lat="43.6674" lon="1.36986">
        <ele>142</ele>
        <time>2024-03-14T18:46:59Z</time>
      </trkpt>
      <trkpt lat="43.66738" lon="1.36988">
        <ele>142</ele>
        <time>2024-03-14T18:47:00Z</time>
      </trkpt>
      <trkpt lat="43.66735" lon="1.3699">
        <ele>142</ele>
        <time>2024-03-14T18:47:01Z</time>
      </trkpt>
      <trkpt lat="43.66733" lon="1.36992">
        <ele>142</ele>
        <time>2024-03-14T18:47:02Z</time>
      </trkpt>
      <trkpt lat="43.6673" lon="1.36994">
        <ele>142</ele>
        <time>2024-03-14T18:47:03Z</time>
      </trkpt>
      <trkpt lat="43.66728" lon="1.36996">
        <ele>142</ele>
        <time>2024-03-14T18:47:04Z</time>
      </trkpt>
      <trkpt lat="43.66725" lon="1.36998">
        <ele>142</ele>
        <time>2024-03-14T18:47:05Z</time>
      </trkpt>
      <trkpt lat="43.66723" lon="1.37">
        <ele>142</ele>
        <time>2024-03-14T18:47:06Z</time>
      </trkpt>
      <trkpt lat="43.6672" lon="1.37002">
        <ele>142</ele>
        <time>2024-03-14T18:47:07Z</time>
      </trkpt>
      <trkpt lat="43.66717" lon="1.37004">
        <ele>142</ele>
        <time>2024-03-14T18:47:08Z</time>
      </trkpt>
      <trkpt lat="43.66714" lon="1.37006">
        <ele>142</ele>
        <time>2024-03-14T18:47:09Z</time>
      </trkpt>
      <trkpt lat="43.66712" lon="1.37007">
        <ele>141</ele>
        <time>2024-03-14T18:47:10Z</time>
      </trkpt>
      <trkpt lat="43.66709" lon="1.37009">
        <ele>141</ele>
        <time>2024-03-14T18:47:11Z</time>
      </trkpt>
      <trkpt lat="43.66707" lon="1.37011">
        <ele>141</ele>
        <time>2024-03-14T18:47:12Z</time>
      </trkpt>
      <trkpt lat="43.66705" lon="1.37012">
        <ele>142</ele>
        <time>2024-03-14T18:47:13Z</time>
      </trkpt>
      <trkpt lat="43.66702" lon="1.37014">
        <ele>142</ele>
        <time>2024-03-14T18:47:14Z</time>
      </trkpt>
      <trkpt lat="43.66699" lon="1.37016">
        <ele>142</ele>
        <time>2024-03-14T18:47:15Z</time>
      </trkpt>
      <trkpt lat="43.66694" lon="1.37019">
        <ele>142</ele>
        <time>2024-03-14T18:47:16Z</time>
      </trkpt>
      <trkpt lat="43.66694" lon="1.37019">
        <ele>141</ele>
        <time>2024-03-14T18:47:17Z</time>
      </trkpt>
      <trkpt lat="43.66691" lon="1.3702">
        <ele>141</ele>
        <time>2024-03-14T18:47:18Z</time>
      </trkpt>
      <trkpt lat="43.66689" lon="1.37022">
        <ele>141</ele>
        <time>2024-03-14T18:47:19Z</time>
      </trkpt>
      <trkpt lat="43.66686" lon="1.37023">
        <ele>142</ele>
        <time>2024-03-14T18:47:20Z</time>
      </trkpt>
      <trkpt lat="43.66684" lon="1.37025">
        <ele>142</ele>
        <time>2024-03-14T18:47:21Z</time>
      </trkpt>
      <trkpt lat="43.66682" lon="1.37027">
        <ele>141</ele>
        <time>2024-03-14T18:47:22Z</time>
      </trkpt>
      <trkpt lat="43.66679" lon="1.3703">
        <ele>141</ele>
        <time>2024-03-14T18:47:23Z</time>
      </trkpt>
      <trkpt lat="43.66678" lon="1.37031">
        <ele>142</ele>
        <time>2024-03-14T18:47:24Z</time>
      </trkpt>
      <trkpt lat="43.66676" lon="1.37032">
        <ele>142</ele>
        <time>2024-03-14T18:47:25Z</time>
      </trkpt>
      <trkpt lat="43.66673" lon="1.37034">
        <ele>142</ele>
        <time>2024-03-14T18:47:26Z</time>
      </trkpt>
      <trkpt lat="43.66671" lon="1.37035">
        <ele>142</ele>
        <time>2024-03-14T18:47:27Z</time>
      </trkpt>
      <trkpt lat="43.66669" lon="1.37037">
        <ele>142</ele>
        <time>2024-03-14T18:47:28Z</time>
      </trkpt>
      <trkpt lat="43.66667" lon="1.37038">
        <ele>142</ele>
        <time>2024-03-14T18:47:29Z</time>
      </trkpt>
      <trkpt lat="43.66664" lon="1.3704">
        <ele>142</ele>
        <time>2024-03-14T18:47:30Z</time>
      </trkpt>
      <trkpt lat="43.66662" lon="1.37042">
        <ele>142</ele>
        <time>2024-03-14T18:47:31Z</time>
      </trkpt>
      <trkpt lat="43.6666" lon="1.37043">
        <ele>142</ele>
        <time>2024-03-14T18:47:32Z</time>
      </trkpt>
      <trkpt lat="43.66657" lon="1.37045">
        <ele>142</ele>
        <time>2024-03-14T18:47:33Z</time>
      </trkpt>
      <trkpt lat="43.66655" lon="1.37047">
        <ele>142</ele>
        <time>2024-03-14T18:47:34Z</time>
      </trkpt>
      <trkpt lat="43.66649" lon="1.3705">
        <ele>142</ele>
        <time>2024-03-14T18:47:35Z</time>
      </trkpt>
      <trkpt lat="43.66649" lon="1.3705">
        <ele>142</ele>
        <time>2024-03-14T18:47:36Z</time>
      </trkpt>
      <trkpt lat="43.66647" lon="1.37051">
        <ele>142</ele>
        <time>2024-03-14T18:47:37Z</time>
      </trkpt>
      <trkpt lat="43.66644" lon="1.37053">
        <ele>142</ele>
        <time>2024-03-14T18:47:38Z</time>
      </trkpt>
      <trkpt lat="43.66641" lon="1.37055">
        <ele>142</ele>
        <time>2024-03-14T18:47:39Z</time>
      </trkpt>
      <trkpt lat="43.66639" lon="1.37057">
        <ele>142</ele>
        <time>2024-03-14T18:47:40Z</time>
      </trkpt>
      <trkpt lat="43.66636" lon="1.3706">
        <ele>142</ele>
        <time>2024-03-14T18:47:41Z</time>
      </trkpt>
      <trkpt lat="43.66633" lon="1.37061">
        <ele>142</ele>
        <time>2024-03-14T18:47:42Z</time>
      </trkpt>
      <trkpt lat="43.66631" lon="1.37062">
        <ele>142</ele>
        <time>2024-03-14T18:47:43Z</time>
      </trkpt>
      <trkpt lat="43.66629" lon="1.37064">
        <ele>142</ele>
        <time>2024-03-14T18:47:44Z</time>
      </trkpt>
      <trkpt lat="43.66627" lon="1.37065">
        <ele>141</ele>
        <time>2024-03-14T18:47:45Z</time>
      </trkpt>
      <trkpt lat="43.66625" lon="1.37067">
        <ele>141</ele>
        <time>2024-03-14T18:47:46Z</time>
      </trkpt>
      <trkpt lat="43.66623" lon="1.37068">
        <ele>141</ele>
        <time>2024-03-14T18:47:47Z</time>
      </trkpt>
      <trkpt lat="43.6662" lon="1.37069">
        <ele>141</ele>
        <time>2024-03-14T18:47:48Z</time>
      </trkpt>
      <trkpt lat="43.66618" lon="1.37071">
        <ele>141</ele>
        <time>2024-03-14T18:47:49Z</time>
      </trkpt>
      <trkpt lat="43.66615" lon="1.37073">
        <ele>141</ele>
        <time>2024-03-14T18:47:50Z</time>
      </trkpt>
      <trkpt lat="43.66613" lon="1.37075">
        <ele>141</ele>
        <time>2024-03-14T18:47:51Z</time>
      </trkpt>
      <trkpt lat="43.66611" lon="1.37076">
        <ele>141</ele>
        <time>2024-03-14T18:47:52Z</time>
      </trkpt>
      <trkpt lat="43.66606" lon="1.3708">
        <ele>141</ele>
        <time>2024-03-14T18:47:53Z</time>
      </trkpt>
      <trkpt lat="43.66606" lon="1.3708">
        <ele>141</ele>
        <time>2024-03-14T18:47:54Z</time>
      </trkpt>
      <trkpt lat="43.66604" lon="1.37081">
        <ele>141</ele>
        <time>2024-03-14T18:47:55Z</time>
      </trkpt>
      <trkpt lat="43.66602" lon="1.37082">
        <ele>141</ele>
        <time>2024-03-14T18:47:56Z</time>
      </trkpt>
      <trkpt lat="43.666" lon="1.37084">
        <ele>141</ele>
        <time>2024-03-14T18:47:57Z</time>
      </trkpt>
      <trkpt lat="43.66597" lon="1.37086">
        <ele>141</ele>
        <time>2024-03-14T18:47:58Z</time>
      </trkpt>
      <trkpt lat="43.66595" lon="1.37088">
        <ele>141</ele>
        <time>2024-03-14T18:47:59Z</time>
      </trkpt>
      <trkpt lat="43.66593" lon="1.37089">
        <ele>141</ele>
        <time>2024-03-14T18:48:00Z</time>
      </trkpt>
      <trkpt lat="43.6659" lon="1.37091">
        <ele>142</ele>
        <time>2024-03-14T18:48:01Z</time>
      </trkpt>
      <trkpt lat="43.66588" lon="1.37093">
        <ele>142</ele>
        <time>2024-03-14T18:48:02Z</time>
      </trkpt>
      <trkpt lat="43.66585" lon="1.37095">
        <ele>141</ele>
        <time>2024-03-14T18:48:03Z</time>
      </trkpt>
      <trkpt lat="43.66582" lon="1.37097">
        <ele>141</ele>
        <time>2024-03-14T18:48:04Z</time>
      </trkpt>
      <trkpt lat="43.6658" lon="1.37099">
        <ele>141</ele>
        <time>2024-03-14T18:48:05Z</time>
      </trkpt>
      <trkpt lat="43.66577" lon="1.37101">
        <ele>141</ele>
        <time>2024-03-14T18:48:06Z</time>
      </trkpt>
      <trkpt lat="43.66574" lon="1.37102">
        <ele>141</ele>
        <time>2024-03-14T18:48:07Z</time>
      </trkpt>
      <trkpt lat="43.66571" lon="1.37104">
        <ele>141</ele>
        <time>2024-03-14T18:48:08Z</time>
      </trkpt>
      <trkpt lat="43.66569" lon="1.37106">
        <ele>141</ele>
        <time>2024-03-14T18:48:09Z</time>
      </trkpt>
      <trkpt lat="43.66566" lon="1.37108">
        <ele>141</ele>
        <time>2024-03-14T18:48:10Z</time>
      </trkpt>
      <trkpt lat="43.66564" lon="1.3711">
        <ele>142</ele>
        <time>2024-03-14T18:48:11Z</time>
      </trkpt>
      <trkpt lat="43.66561" lon="1.37112">
        <ele>142</ele>
        <time>2024-03-14T18:48:12Z</time>
      </trkpt>
      <trkpt lat="43.66559" lon="1.37114">
        <ele>142</ele>
        <time>2024-03-14T18:48:13Z</time>
      </trkpt>
      <trkpt lat="43.66556" lon="1.37115">
        <ele>142</ele>
        <time>2024-03-14T18:48:14Z</time>
      </trkpt>
      <trkpt lat="43.66554" lon="1.37117">
        <ele>142</ele>
        <time>2024-03-14T18:48:15Z</time>
      </trkpt>
      <trkpt lat="43.66551" lon="1.37119">
        <ele>142</ele>
        <time>2024-03-14T18:48:16Z</time>
      </trkpt>
      <trkpt lat="43.66548" lon="1.37121">
        <ele>142</ele>
        <time>2024-03-14T18:48:17Z</time>
      </trkpt>
      <trkpt lat="43.66546" lon="1.37123">
        <ele>142</ele>
        <time>2024-03-14T18:48:18Z</time>
      </trkpt>
      <trkpt lat="43.66544" lon="1.37125">
        <ele>142</ele>
        <time>2024-03-14T18:48:19Z</time>
      </trkpt>
      <trkpt lat="43.66541" lon="1.37127">
        <ele>142</ele>
        <time>2024-03-14T18:48:20Z</time>
      </trkpt>
      <trkpt lat="43.66539" lon="1.37129">
        <ele>142</ele>
        <time>2024-03-14T18:48:21Z</time>
      </trkpt>
      <trkpt lat="43.66536" lon="1.3713">
        <ele>141</ele>
        <time>2024-03-14T18:48:22Z</time>
      </trkpt>
      <trkpt lat="43.66534" lon="1.37132">
        <ele>141</ele>
        <time>2024-03-14T18:48:23Z</time>
      </trkpt>
      <trkpt lat="43.66531" lon="1.37133">
        <ele>141</ele>
        <time>2024-03-14T18:48:24Z</time>
      </trkpt>
      <trkpt lat="43.66529" lon="1.37135">
        <ele>142</ele>
        <time>2024-03-14T18:48:25Z</time>
      </trkpt>
      <trkpt lat="43.66526" lon="1.37137">
        <ele>142</ele>
        <time>2024-03-14T18:48:26Z</time>
      </trkpt>
      <trkpt lat="43.66524" lon="1.37139">
        <ele>142</ele>
        <time>2024-03-14T18:48:27Z</time>
      </trkpt>
      <trkpt lat="43.66521" lon="1.37141">
        <ele>142</ele>
        <time>2024-03-14T18:48:28Z</time>
      </trkpt>
      <trkpt lat="43.66519" lon="1.37143">
        <ele>142</ele>
        <time>2024-03-14T18:48:29Z</time>
      </trkpt>
      <trkpt lat="43.66515" lon="1.37145">
        <ele>142</ele>
        <time>2024-03-14T18:48:30Z</time>
      </trkpt>
      <trkpt lat="43.66514" lon="1.37146">
        <ele>141</ele>
        <time>2024-03-14T18:48:31Z</time>
      </trkpt>
      <trkpt lat="43.66511" lon="1.37147">
        <ele>141</ele>
        <time>2024-03-14T18:48:32Z</time>
      </trkpt>
      <trkpt lat="43.66509" lon="1.37149">
        <ele>141</ele>
        <time>2024-03-14T18:48:33Z</time>
      </trkpt>
      <trkpt lat="43.66506" lon="1.37151">
        <ele>141</ele>
        <time>2024-03-14T18:48:34Z</time>
      </trkpt>
      <trkpt lat="43.66504" lon="1.37152">
        <ele>141</ele>
        <time>2024-03-14T18:48:35Z</time>
      </trkpt>
      <trkpt lat="43.66501" lon="1.37154">
        <ele>141</ele>
        <time>2024-03-14T18:48:36Z</time>
      </trkpt>
      <trkpt lat="43.66499" lon="1.37155">
        <ele>141</ele>
        <time>2024-03-14T18:48:37Z</time>
      </trkpt>
      <trkpt lat="43.66496" lon="1.37156">
        <ele>141</ele>
        <time>2024-03-14T18:48:38Z</time>
      </trkpt>
      <trkpt lat="43.66494" lon="1.37158">
        <ele>141</ele>
        <time>2024-03-14T18:48:39Z</time>
      </trkpt>
      <trkpt lat="43.66492" lon="1.3716">
        <ele>141</ele>
        <time>2024-03-14T18:48:40Z</time>
      </trkpt>
      <trkpt lat="43.66489" lon="1.37161">
        <ele>141</ele>
        <time>2024-03-14T18:48:41Z</time>
      </trkpt>
      <trkpt lat="43.66487" lon="1.37163">
        <ele>141</ele>
        <time>2024-03-14T18:48:42Z</time>
      </trkpt>
      <trkpt lat="43.66485" lon="1.37164">
        <ele>141</ele>
        <time>2024-03-14T18:48:43Z</time>
      </trkpt>
      <trkpt lat="43.66483" lon="1.37166">
        <ele>141</ele>
        <time>2024-03-14T18:48:44Z</time>
      </trkpt>
      <trkpt lat="43.66481" lon="1.37167">
        <ele>142</ele>
        <time>2024-03-14T18:48:45Z</time>
      </trkpt>
      <trkpt lat="43.66478" lon="1.37167">
        <ele>142</ele>
        <time>2024-03-14T18:48:46Z</time>
      </trkpt>
      <trkpt lat="43.66475" lon="1.37167">
        <ele>142</ele>
        <time>2024-03-14T18:48:47Z</time>
      </trkpt>
      <trkpt lat="43.66472" lon="1.37166">
        <ele>142</ele>
        <time>2024-03-14T18:48:48Z</time>
      </trkpt>
      <trkpt lat="43.66469" lon="1.37165">
        <ele>142</ele>
        <time>2024-03-14T18:48:49Z</time>
      </trkpt>
      <trkpt lat="43.66466" lon="1.37165">
        <ele>142</ele>
        <time>2024-03-14T18:48:50Z</time>
      </trkpt>
      <trkpt lat="43.66463" lon="1.37164">
        <ele>142</ele>
        <time>2024-03-14T18:48:51Z</time>
      </trkpt>
      <trkpt lat="43.6646" lon="1.37163">
        <ele>142</ele>
        <time>2024-03-14T18:48:52Z</time>
      </trkpt>
      <trkpt lat="43.66456" lon="1.37163">
        <ele>142</ele>
        <time>2024-03-14T18:48:53Z</time>
      </trkpt>
      <trkpt lat="43.66454" lon="1.37162">
        <ele>142</ele>
        <time>2024-03-14T18:48:54Z</time>
      </trkpt>
      <trkpt lat="43.6645" lon="1.37162">
        <ele>142</ele>
        <time>2024-03-14T18:48:55Z</time>
      </trkpt>
      <trkpt lat="43.66448" lon="1.37163">
        <ele>142</ele>
        <time>2024-03-14T18:48:56Z</time>
      </trkpt>
      <trkpt lat="43.66445" lon="1.37164">
        <ele>142</ele>
        <time>2024-03-14T18:48:57Z</time>
      </trkpt>
      <trkpt lat="43.66442" lon="1.37165">
        <ele>142</ele>
        <time>2024-03-14T18:48:58Z</time>
      </trkpt>
      <trkpt lat="43.6644" lon="1.37167">
        <ele>142</ele>
        <time>2024-03-14T18:48:59Z</time>
      </trkpt>
      <trkpt lat="43.66437" lon="1.37168">
        <ele>142</ele>
        <time>2024-03-14T18:49:00Z</time>
      </trkpt>
      <trkpt lat="43.66434" lon="1.3717">
        <ele>142</ele>
        <time>2024-03-14T18:49:01Z</time>
      </trkpt>
      <trkpt lat="43.66432" lon="1.37172">
        <ele>142</ele>
        <time>2024-03-14T18:49:02Z</time>
      </trkpt>
      <trkpt lat="43.6643" lon="1.37174">
        <ele>142</ele>
        <time>2024-03-14T18:49:03Z</time>
      </trkpt>
      <trkpt lat="43.66427" lon="1.37175">
        <ele>142</ele>
        <time>2024-03-14T18:49:04Z</time>
      </trkpt>
      <trkpt lat="43.66424" lon="1.37177">
        <ele>142</ele>
        <time>2024-03-14T18:49:05Z</time>
      </trkpt>
      <trkpt lat="43.66422" lon="1.37179">
        <ele>142</ele>
        <time>2024-03-14T18:49:06Z</time>
      </trkpt>
      <trkpt lat="43.6642" lon="1.37181">
        <ele>142</ele>
        <time>2024-03-14T18:49:07Z</time>
      </trkpt>
      <trkpt lat="43.66417" lon="1.37182">
        <ele>142</ele>
        <time>2024-03-14T18:49:08Z</time>
      </trkpt>
      <trkpt lat="43.66415" lon="1.37184">
        <ele>142</ele>
        <time>2024-03-14T18:49:09Z</time>
      </trkpt>
      <trkpt lat="43.6641" lon="1.37187">
        <ele>142</ele>
        <time>2024-03-14T18:49:10Z</time>
      </trkpt>
      <trkpt lat="43.6641" lon="1.37187">
        <ele>142</ele>
        <time>2024-03-14T18:49:11Z</time>
      </trkpt>
      <trkpt lat="43.66408" lon="1.37189">
        <ele>142</ele>
        <time>2024-03-14T18:49:12Z</time>
      </trkpt>
      <trkpt lat="43.66405" lon="1.37191">
        <ele>142</ele>
        <time>2024-03-14T18:49:13Z</time>
      </trkpt>
      <trkpt lat="43.66402" lon="1.37193">
        <ele>142</ele>
        <time>2024-03-14T18:49:14Z</time>
      </trkpt>
      <trkpt lat="43.66399" lon="1.37194">
        <ele>142</ele>
        <time>2024-03-14T18:49:15Z</time>
      </trkpt>
      <trkpt lat="43.66397" lon="1.37195">
        <ele>142</ele>
        <time>2024-03-14T18:49:16Z</time>
      </trkpt>
      <trkpt lat="43.66394" lon="1.37196">
        <ele>142</ele>
        <time>2024-03-14T18:49:17Z</time>
      </trkpt>
      <trkpt lat="43.66392" lon="1.37197">
        <ele>142</ele>
        <time>2024-03-14T18:49:18Z</time>
      </trkpt>
      <trkpt lat="43.6639" lon="1.37197">
        <ele>141</ele>
        <time>2024-03-14T18:49:19Z</time>
      </trkpt>
      <trkpt lat="43.66388" lon="1.37198">
        <ele>141</ele>
        <time>2024-03-14T18:49:20Z</time>
      </trkpt>
      <trkpt lat="43.66386" lon="1.372">
        <ele>141</ele>
        <time>2024-03-14T18:49:21Z</time>
      </trkpt>
      <trkpt lat="43.66384" lon="1.37203">
        <ele>141</ele>
        <time>2024-03-14T18:49:22Z</time>
      </trkpt>
      <trkpt lat="43.66382" lon="1.37207">
        <ele>141</ele>
        <time>2024-03-14T18:49:23Z</time>
      </trkpt>
      <trkpt lat="43.66381" lon="1.37211">
        <ele>141</ele>
        <time>2024-03-14T18:49:24Z</time>
      </trkpt>
      <trkpt lat="43.66379" lon="1.37215">
        <ele>142</ele>
        <time>2024-03-14T18:49:25Z</time>
      </trkpt>
      <trkpt lat="43.66377" lon="1.37218">
        <ele>142</ele>
        <time>2024-03-14T18:49:26Z</time>
      </trkpt>
      <trkpt lat="43.66376" lon="1.37221">
        <ele>142</ele>
        <time>2024-03-14T18:49:27Z</time>
      </trkpt>
      <trkpt lat="43.66374" lon="1.37225">
        <ele>142</ele>
        <time>2024-03-14T18:49:28Z</time>
      </trkpt>
      <trkpt lat="43.66373" lon="1.37228">
        <ele>142</ele>
        <time>2024-03-14T18:49:29Z</time>
      </trkpt>
      <trkpt lat="43.66371" lon="1.37231">
        <ele>142</ele>
        <time>2024-03-14T18:49:30Z</time>
      </trkpt>
      <trkpt lat="43.66369" lon="1.37233">
        <ele>142</ele>
        <time>2024-03-14T18:49:31Z</time>
      </trkpt>
      <trkpt lat="43.66366" lon="1.37234">
        <ele>142</ele>
        <time>2024-03-14T18:49:32Z</time>
      </trkpt>
      <trkpt lat="43.66362" lon="1.37236">
        <ele>141</ele>
        <time>2024-03-14T18:49:33Z</time>
      </trkpt>
      <trkpt lat="43.6636" lon="1.37237">
        <ele>142</ele>
        <time>2024-03-14T18:49:34Z</time>
      </trkpt>
      <trkpt lat="43.66358" lon="1.37238">
        <ele>142</ele>
        <time>2024-03-14T18:49:35Z</time>
      </trkpt>
      <trkpt lat="43.66355" lon="1.3724">
        <ele>142</ele>
        <time>2024-03-14T18:49:36Z</time>
      </trkpt>
      <trkpt lat="43.66352" lon="1.37241">
        <ele>142</ele>
        <time>2024-03-14T18:49:37Z</time>
      </trkpt>
      <trkpt lat="43.6635" lon="1.37243">
        <ele>142</ele>
        <time>2024-03-14T18:49:38Z</time>
      </trkpt>
      <trkpt lat="43.66347" lon="1.37245">
        <ele>142</ele>
        <time>2024-03-14T18:49:39Z</time>
      </trkpt>
      <trkpt lat="43.66342" lon="1.37248">
        <ele>142</ele>
        <time>2024-03-14T18:49:40Z</time>
      </trkpt>
      <trkpt lat="43.66339" lon="1.37249">
        <ele>142</ele>
        <time>2024-03-14T18:49:41Z</time>
      </trkpt>
      <trkpt lat="43.66339" lon="1.37249">
        <ele>142</ele>
        <time>2024-03-14T18:49:42Z</time>
      </trkpt>
      <trkpt lat="43.66337" lon="1.37251">
        <ele>142</ele>
        <time>2024-03-14T18:49:43Z</time>
      </trkpt>
      <trkpt lat="43.66334" lon="1.37253">
        <ele>142</ele>
        <time>2024-03-14T18:49:44Z</time>
      </trkpt>
      <trkpt lat="43.66332" lon="1.37255">
        <ele>142</ele>
        <time>2024-03-14T18:49:45Z</time>
      </trkpt>
      <trkpt lat="43.66329" lon="1.37257">
        <ele>142</ele>
        <time>2024-03-14T18:49:46Z</time>
      </trkpt>
      <trkpt lat="43.66327" lon="1.3726">
        <ele>142</ele>
        <time>2024-03-14T18:49:47Z</time>
      </trkpt>
      <trkpt lat="43.66322" lon="1.37264">
        <ele>142</ele>
        <time>2024-03-14T18:49:48Z</time>
      </trkpt>
      <trkpt lat="43.66322" lon="1.37264">
        <ele>142</ele>
        <time>2024-03-14T18:49:49Z</time>
      </trkpt>
      <trkpt lat="43.6632" lon="1.37266">
        <ele>142</ele>
        <time>2024-03-14T18:49:50Z</time>
      </trkpt>
      <trkpt lat="43.66317" lon="1.37267">
        <ele>142</ele>
        <time>2024-03-14T18:49:51Z</time>
      </trkpt>
      <trkpt lat="43.66313" lon="1.37269">
        <ele>142</ele>
        <time>2024-03-14T18:49:52Z</time>
      </trkpt>
      <trkpt lat="43.66312" lon="1.3727">
        <ele>142</ele>
        <time>2024-03-14T18:49:53Z</time>
      </trkpt>
      <trkpt lat="43.66309" lon="1.37271">
        <ele>142</ele>
        <time>2024-03-14T18:49:54Z</time>
      </trkpt>
      <trkpt lat="43.66307" lon="1.37273">
        <ele>142</ele>
        <time>2024-03-14T18:49:55Z</time>
      </trkpt>
      <trkpt lat="43.66304" lon="1.37274">
        <ele>142</ele>
        <time>2024-03-14T18:49:56Z</time>
      </trkpt>
      <trkpt lat="43.66302" lon="1.37276">
        <ele>142</ele>
        <time>2024-03-14T18:49:57Z</time>
      </trkpt>
      <trkpt lat="43.66299" lon="1.37277">
        <ele>142</ele>
        <time>2024-03-14T18:49:58Z</time>
      </trkpt>
      <trkpt lat="43.66297" lon="1.37279">
        <ele>142</ele>
        <time>2024-03-14T18:49:59Z</time>
      </trkpt>
      <trkpt lat="43.66294" lon="1.3728">
        <ele>142</ele>
        <time>2024-03-14T18:50:00Z</time>
      </trkpt>
      <trkpt lat="43.66292" lon="1.37282">
        <ele>142</ele>
        <time>2024-03-14T18:50:01Z</time>
      </trkpt>
      <trkpt lat="43.66289" lon="1.37284">
        <ele>142</ele>
        <time>2024-03-14T18:50:02Z</time>
      </trkpt>
      <trkpt lat="43.66287" lon="1.37285">
        <ele>142</ele>
        <time>2024-03-14T18:50:03Z</time>
      </trkpt>
      <trkpt lat="43.66285" lon="1.37287">
        <ele>142</ele>
        <time>2024-03-14T18:50:04Z</time>
      </trkpt>
      <trkpt lat="43.66282" lon="1.37289">
        <ele>142</ele>
        <time>2024-03-14T18:50:05Z</time>
      </trkpt>
      <trkpt lat="43.6628" lon="1.3729">
        <ele>142</ele>
        <time>2024-03-14T18:50:06Z</time>
      </trkpt>
      <trkpt lat="43.66275" lon="1.37294">
        <ele>142</ele>
        <time>2024-03-14T18:50:07Z</time>
      </trkpt>
      <trkpt lat="43.66275" lon="1.37294">
        <ele>142</ele>
        <time>2024-03-14T18:50:08Z</time>
      </trkpt>
      <trkpt lat="43.66271" lon="1.37296">
        <ele>142</ele>
        <time>2024-03-14T18:50:09Z</time>
      </trkpt>
      <trkpt lat="43.6627" lon="1.37296">
        <ele>142</ele>
        <time>2024-03-14T18:50:10Z</time>
      </trkpt>
      <trkpt lat="43.66267" lon="1.37298">
        <ele>142</ele>
        <time>2024-03-14T18:50:11Z</time>
      </trkpt>
      <trkpt lat="43.66265" lon="1.37299">
        <ele>143</ele>
        <time>2024-03-14T18:50:12Z</time>
      </trkpt>
      <trkpt lat="43.66263" lon="1.37301">
        <ele>143</ele>
        <time>2024-03-14T18:50:13Z</time>
      </trkpt>
      <trkpt lat="43.6626" lon="1.37302">
        <ele>143</ele>
        <time>2024-03-14T18:50:14Z</time>
      </trkpt>
      <trkpt lat="43.66258" lon="1.37304">
        <ele>142</ele>
        <time>2024-03-14T18:50:15Z</time>
      </trkpt>
      <trkpt lat="43.66255" lon="1.37306">
        <ele>142</ele>
        <time>2024-03-14T18:50:16Z</time>
      </trkpt>
      <trkpt lat="43.66253" lon="1.37307">
        <ele>142</ele>
        <time>2024-03-14T18:50:17Z</time>
      </trkpt>
      <trkpt lat="43.6625" lon="1.37309">
        <ele>142</ele>
        <time>2024-03-14T18:50:18Z</time>
      </trkpt>
      <trkpt lat="43.66248" lon="1.37311">
        <ele>142</ele>
        <time>2024-03-14T18:50:19Z</time>
      </trkpt>
      <trkpt lat="43.66246" lon="1.37313">
        <ele>142</ele>
        <time>2024-03-14T18:50:20Z</time>
      </trkpt>
      <trkpt lat="43.66241" lon="1.37316">
        <ele>142</ele>
        <time>2024-03-14T18:50:21Z</time>
      </trkpt>
      <trkpt lat="43.66241" lon="1.37316">
        <ele>142</ele>
        <time>2024-03-14T18:50:22Z</time>
      </trkpt>
      <trkpt lat="43.66238" lon="1.37317">
        <ele>142</ele>
        <time>2024-03-14T18:50:23Z</time>
      </trkpt>
      <trkpt lat="43.66235" lon="1.37319">
        <ele>142</ele>
        <time>2024-03-14T18:50:24Z</time>
      </trkpt>
      <trkpt lat="43.6623" lon="1.37323">
        <ele>142</ele>
        <time>2024-03-14T18:50:25Z</time>
      </trkpt>
      <trkpt lat="43.66228" lon="1.37325">
        <ele>142</ele>
        <time>2024-03-14T18:50:26Z</time>
      </trkpt>
      <trkpt lat="43.66228" lon="1.37325">
        <ele>142</ele>
        <time>2024-03-14T18:50:27Z</time>
      </trkpt>
      <trkpt lat="43.66224" lon="1.37327">
        <ele>142</ele>
        <time>2024-03-14T18:50:28Z</time>
      </trkpt>
      <trkpt lat="43.66223" lon="1.37328">
        <ele>142</ele>
        <time>2024-03-14T18:50:29Z</time>
      </trkpt>
      <trkpt lat="43.66221" lon="1.3733">
        <ele>142</ele>
        <time>2024-03-14T18:50:30Z</time>
      </trkpt>
      <trkpt lat="43.66218" lon="1.37332">
        <ele>142</ele>
        <time>2024-03-14T18:50:31Z</time>
      </trkpt>
      <trkpt lat="43.66215" lon="1.37333">
        <ele>142</ele>
        <time>2024-03-14T18:50:32Z</time>
      </trkpt>
      <trkpt lat="43.66213" lon="1.37335">
        <ele>142</ele>
        <time>2024-03-14T18:50:33Z</time>
      </trkpt>
      <trkpt lat="43.6621" lon="1.37337">
        <ele>142</ele>
        <time>2024-03-14T18:50:34Z</time>
      </trkpt>
      <trkpt lat="43.66208" lon="1.37338">
        <ele>142</ele>
        <time>2024-03-14T18:50:35Z</time>
      </trkpt>
      <trkpt lat="43.66205" lon="1.3734">
        <ele>142</ele>
        <time>2024-03-14T18:50:36Z</time>
      </trkpt>
      <trkpt lat="43.66203" lon="1.37341">
        <ele>142</ele>
        <time>2024-03-14T18:50:37Z</time>
      </trkpt>
      <trkpt lat="43.66201" lon="1.37343">
        <ele>142</ele>
        <time>2024-03-14T18:50:38Z</time>
      </trkpt>
      <trkpt lat="43.66198" lon="1.37345">
        <ele>142</ele>
        <time>2024-03-14T18:50:39Z</time>
      </trkpt>
      <trkpt lat="43.66196" lon="1.37347">
        <ele>142</ele>
        <time>2024-03-14T18:50:40Z</time>
      </trkpt>
      <trkpt lat="43.66193" lon="1.37349">
        <ele>142</ele>
        <time>2024-03-14T18:50:41Z</time>
      </trkpt>
      <trkpt lat="43.66189" lon="1.37351">
        <ele>142</ele>
        <time>2024-03-14T18:50:42Z</time>
      </trkpt>
      <trkpt lat="43.66188" lon="1.37352">
        <ele>142</ele>
        <time>2024-03-14T18:50:43Z</time>
      </trkpt>
      <trkpt lat="43.66186" lon="1.37354">
        <ele>142</ele>
        <time>2024-03-14T18:50:44Z</time>
      </trkpt>
      <trkpt lat="43.66181" lon="1.37358">
        <ele>142</ele>
        <time>2024-03-14T18:50:45Z</time>
      </trkpt>
      <trkpt lat="43.66181" lon="1.37358">
        <ele>142</ele>
        <time>2024-03-14T18:50:46Z</time>
      </trkpt>
      <trkpt lat="43.66179" lon="1.37359">
        <ele>142</ele>
        <time>2024-03-14T18:50:47Z</time>
      </trkpt>
      <trkpt lat="43.66176" lon="1.37361">
        <ele>142</ele>
        <time>2024-03-14T18:50:48Z</time>
      </trkpt>
      <trkpt lat="43.66173" lon="1.37363">
        <ele>142</ele>
        <time>2024-03-14T18:50:49Z</time>
      </trkpt>
      <trkpt lat="43.66171" lon="1.37364">
        <ele>142</ele>
        <time>2024-03-14T18:50:50Z</time>
      </trkpt>
      <trkpt lat="43.66168" lon="1.37366">
        <ele>142</ele>
        <time>2024-03-14T18:50:51Z</time>
      </trkpt>
      <trkpt lat="43.66166" lon="1.37368">
        <ele>142</ele>
        <time>2024-03-14T18:50:52Z</time>
      </trkpt>
      <trkpt lat="43.66163" lon="1.3737">
        <ele>142</ele>
        <time>2024-03-14T18:50:53Z</time>
      </trkpt>
      <trkpt lat="43.6616" lon="1.37372">
        <ele>142</ele>
        <time>2024-03-14T18:50:54Z</time>
      </trkpt>
      <trkpt lat="43.66158" lon="1.37374">
        <ele>142</ele>
        <time>2024-03-14T18:50:55Z</time>
      </trkpt>
      <trkpt lat="43.66155" lon="1.37375">
        <ele>142</ele>
        <time>2024-03-14T18:50:56Z</time>
      </trkpt>
      <trkpt lat="43.66153" lon="1.37377">
        <ele>142</ele>
        <time>2024-03-14T18:50:57Z</time>
      </trkpt>
      <trkpt lat="43.6615" lon="1.37379">
        <ele>142</ele>
        <time>2024-03-14T18:50:58Z</time>
      </trkpt>
      <trkpt lat="43.66147" lon="1.37381">
        <ele>142</ele>
        <time>2024-03-14T18:50:59Z</time>
      </trkpt>
      <trkpt lat="43.66144" lon="1.37382">
        <ele>142</ele>
        <time>2024-03-14T18:51:00Z</time>
      </trkpt>
      <trkpt lat="43.66142" lon="1.37384">
        <ele>142</ele>
        <time>2024-03-14T18:51:01Z</time>
      </trkpt>
      <trkpt lat="43.66139" lon="1.37385">
        <ele>142</ele>
        <time>2024-03-14T18:51:02Z</time>
      </trkpt>
      <trkpt lat="43.66137" lon="1.37387">
        <ele>143</ele>
        <time>2024-03-14T18:51:03Z</time>
      </trkpt>
      <trkpt lat="43.66132" lon="1.3739">
        <ele>143</ele>
        <time>2024-03-14T18:51:04Z</time>
      </trkpt>
      <trkpt lat="43.66132" lon="1.3739">
        <ele>144</ele>
        <time>2024-03-14T18:51:05Z</time>
      </trkpt>
      <trkpt lat="43.66129" lon="1.37391">
        <ele>144</ele>
        <time>2024-03-14T18:51:06Z</time>
      </trkpt>
      <trkpt lat="43.66126" lon="1.37392">
        <ele>144</ele>
        <time>2024-03-14T18:51:07Z</time>
      </trkpt>
      <trkpt lat="43.66123" lon="1.37392">
        <ele>143</ele>
        <time>2024-03-14T18:51:08Z</time>
      </trkpt>
      <trkpt lat="43.6612" lon="1.37393">
        <ele>143</ele>
        <time>2024-03-14T18:51:09Z</time>
      </trkpt>
      <trkpt lat="43.66116" lon="1.37394">
        <ele>143</ele>
        <time>2024-03-14T18:51:10Z</time>
      </trkpt>
      <trkpt lat="43.66114" lon="1.37396">
        <ele>143</ele>
        <time>2024-03-14T18:51:11Z</time>
      </trkpt>
      <trkpt lat="43.66111" lon="1.37396">
        <ele>144</ele>
        <time>2024-03-14T18:51:12Z</time>
      </trkpt>
      <trkpt lat="43.66109" lon="1.37397">
        <ele>144</ele>
        <time>2024-03-14T18:51:13Z</time>
      </trkpt>
      <trkpt lat="43.66106" lon="1.37398">
        <ele>144</ele>
        <time>2024-03-14T18:51:14Z</time>
      </trkpt>
      <trkpt lat="43.66104" lon="1.374">
        <ele>144</ele>
        <time>2024-03-14T18:51:15Z</time>
      </trkpt>
      <trkpt lat="43.66101" lon="1.37402">
        <ele>144</ele>
        <time>2024-03-14T18:51:16Z</time>
      </trkpt>
      <trkpt lat="43.66099" lon="1.37404">
        <ele>144</ele>
        <time>2024-03-14T18:51:17Z</time>
      </trkpt>
      <trkpt lat="43.66096" lon="1.37405">
        <ele>143</ele>
        <time>2024-03-14T18:51:18Z</time>
      </trkpt>
      <trkpt lat="43.66094" lon="1.37407">
        <ele>143</ele>
        <time>2024-03-14T18:51:19Z</time>
      </trkpt>
      <trkpt lat="43.66091" lon="1.37409">
        <ele>143</ele>
        <time>2024-03-14T18:51:20Z</time>
      </trkpt>
      <trkpt lat="43.66089" lon="1.3741">
        <ele>143</ele>
        <time>2024-03-14T18:51:21Z</time>
      </trkpt>
      <trkpt lat="43.66087" lon="1.37412">
        <ele>143</ele>
        <time>2024-03-14T18:51:22Z</time>
      </trkpt>
      <trkpt lat="43.66084" lon="1.37414">
        <ele>143</ele>
        <time>2024-03-14T18:51:23Z</time>
      </trkpt>
      <trkpt lat="43.66082" lon="1.37416">
        <ele>143</ele>
        <time>2024-03-14T18:51:24Z</time>
      </trkpt>
      <trkpt lat="43.66079" lon="1.37417">
        <ele>143</ele>
        <time>2024-03-14T18:51:25Z</time>
      </trkpt>
      <trkpt lat="43.66077" lon="1.37419">
        <ele>143</ele>
        <time>2024-03-14T18:51:26Z</time>
      </trkpt>
      <trkpt lat="43.66074" lon="1.3742">
        <ele>143</ele>
        <time>2024-03-14T18:51:27Z</time>
      </trkpt>
      <trkpt lat="43.66071" lon="1.3742">
        <ele>143</ele>
        <time>2024-03-14T18:51:28Z</time>
      </trkpt>
      <trkpt lat="43.66068" lon="1.37421">
        <ele>143</ele>
        <time>2024-03-14T18:51:29Z</time>
      </trkpt>
      <trkpt lat="43.66066" lon="1.37421">
        <ele>143</ele>
        <time>2024-03-14T18:51:30Z</time>
      </trkpt>
      <trkpt lat="43.66063" lon="1.37423">
        <ele>143</ele>
        <time>2024-03-14T18:51:31Z</time>
      </trkpt>
      <trkpt lat="43.6606" lon="1.37424">
        <ele>143</ele>
        <time>2024-03-14T18:51:32Z</time>
      </trkpt>
      <trkpt lat="43.66058" lon="1.37425">
        <ele>143</ele>
        <time>2024-03-14T18:51:33Z</time>
      </trkpt>
      <trkpt lat="43.66055" lon="1.37426">
        <ele>143</ele>
        <time>2024-03-14T18:51:34Z</time>
      </trkpt>
      <trkpt lat="43.66051" lon="1.37428">
        <ele>143</ele>
        <time>2024-03-14T18:51:35Z</time>
      </trkpt>
      <trkpt lat="43.66049" lon="1.37429">
        <ele>143</ele>
        <time>2024-03-14T18:51:36Z</time>
      </trkpt>
      <trkpt lat="43.66047" lon="1.3743">
        <ele>143</ele>
        <time>2024-03-14T18:51:37Z</time>
      </trkpt>
      <trkpt lat="43.66044" lon="1.37432">
        <ele>143</ele>
        <time>2024-03-14T18:51:38Z</time>
      </trkpt>
      <trkpt lat="43.66042" lon="1.37434">
        <ele>143</ele>
        <time>2024-03-14T18:51:39Z</time>
      </trkpt>
      <trkpt lat="43.66039" lon="1.37436">
        <ele>143</ele>
        <time>2024-03-14T18:51:40Z</time>
      </trkpt>
      <trkpt lat="43.66037" lon="1.37439">
        <ele>143</ele>
        <time>2024-03-14T18:51:41Z</time>
      </trkpt>
      <trkpt lat="43.66034" lon="1.37442">
        <ele>143</ele>
        <time>2024-03-14T18:51:42Z</time>
      </trkpt>
      <trkpt lat="43.66032" lon="1.37443">
        <ele>143</ele>
        <time>2024-03-14T18:51:43Z</time>
      </trkpt>
      <trkpt lat="43.6603" lon="1.37445">
        <ele>143</ele>
        <time>2024-03-14T18:51:44Z</time>
      </trkpt>
      <trkpt lat="43.66028" lon="1.37446">
        <ele>143</ele>
        <time>2024-03-14T18:51:45Z</time>
      </trkpt>
      <trkpt lat="43.66026" lon="1.37448">
        <ele>143</ele>
        <time>2024-03-14T18:51:46Z</time>
      </trkpt>
      <trkpt lat="43.66023" lon="1.37449">
        <ele>143</ele>
        <time>2024-03-14T18:51:47Z</time>
      </trkpt>
      <trkpt lat="43.66021" lon="1.37451">
        <ele>143</ele>
        <time>2024-03-14T18:51:48Z</time>
      </trkpt>
      <trkpt lat="43.66019" lon="1.37453">
        <ele>143</ele>
        <time>2024-03-14T18:51:49Z</time>
      </trkpt>
      <trkpt lat="43.66016" lon="1.37454">
        <ele>143</ele>
        <time>2024-03-14T18:51:50Z</time>
      </trkpt>
      <trkpt lat="43.66014" lon="1.37455">
        <ele>143</ele>
        <time>2024-03-14T18:51:51Z</time>
      </trkpt>
      <trkpt lat="43.66012" lon="1.37457">
        <ele>143</ele>
        <time>2024-03-14T18:51:52Z</time>
      </trkpt>
      <trkpt lat="43.66009" lon="1.37458">
        <ele>143</ele>
        <time>2024-03-14T18:51:53Z</time>
      </trkpt>
      <trkpt lat="43.66007" lon="1.3746">
        <ele>143</ele>
        <time>2024-03-14T18:51:54Z</time>
      </trkpt>
      <trkpt lat="43.66005" lon="1.37461">
        <ele>142</ele>
        <time>2024-03-14T18:51:55Z</time>
      </trkpt>
      <trkpt lat="43.66002" lon="1.37463">
        <ele>142</ele>
        <time>2024-03-14T18:51:56Z</time>
      </trkpt>
      <trkpt lat="43.66" lon="1.37465">
        <ele>142</ele>
        <time>2024-03-14T18:51:57Z</time>
      </trkpt>
      <trkpt lat="43.65998" lon="1.37466">
        <ele>142</ele>
        <time>2024-03-14T18:51:58Z</time>
      </trkpt>
      <trkpt lat="43.65996" lon="1.37468">
        <ele>142</ele>
        <time>2024-03-14T18:51:59Z</time>
      </trkpt>
      <trkpt lat="43.65993" lon="1.3747">
        <ele>142</ele>
        <time>2024-03-14T18:52:00Z</time>
      </trkpt>
      <trkpt lat="43.65988" lon="1.37473">
        <ele>142</ele>
        <time>2024-03-14T18:52:01Z</time>
      </trkpt>
      <trkpt lat="43.65988" lon="1.37473">
        <ele>143</ele>
        <time>2024-03-14T18:52:02Z</time>
      </trkpt>
      <trkpt lat="43.65985" lon="1.37474">
        <ele>143</ele>
        <time>2024-03-14T18:52:03Z</time>
      </trkpt>
      <trkpt lat="43.65983" lon="1.37476">
        <ele>143</ele>
        <time>2024-03-14T18:52:04Z</time>
      </trkpt>
      <trkpt lat="43.6598" lon="1.37478">
        <ele>143</ele>
        <time>2024-03-14T18:52:05Z</time>
      </trkpt>
      <trkpt lat="43.65977" lon="1.37481">
        <ele>143</ele>
        <time>2024-03-14T18:52:06Z</time>
      </trkpt>
      <trkpt lat="43.65975" lon="1.37483">
        <ele>143</ele>
        <time>2024-03-14T18:52:07Z</time>
      </trkpt>
      <trkpt lat="43.65973" lon="1.37485">
        <ele>143</ele>
        <time>2024-03-14T18:52:08Z</time>
      </trkpt>
      <trkpt lat="43.6597" lon="1.37487">
        <ele>143</ele>
        <time>2024-03-14T18:52:09Z</time>
      </trkpt>
      <trkpt lat="43.65967" lon="1.37488">
        <ele>143</ele>
        <time>2024-03-14T18:52:10Z</time>
      </trkpt>
      <trkpt lat="43.65965" lon="1.37489">
        <ele>143</ele>
        <time>2024-03-14T18:52:11Z</time>
      </trkpt>
      <trkpt lat="43.65962" lon="1.37491">
        <ele>143</ele>
        <time>2024-03-14T18:52:12Z</time>
      </trkpt>
      <trkpt lat="43.65958" lon="1.37494">
        <ele>143</ele>
        <time>2024-03-14T18:52:13Z</time>
      </trkpt>
      <trkpt lat="43.65957" lon="1.37495">
        <ele>143</ele>
        <time>2024-03-14T18:52:14Z</time>
      </trkpt>
      <trkpt lat="43.65955" lon="1.37497">
        <ele>143</ele>
        <time>2024-03-14T18:52:15Z</time>
      </trkpt>
      <trkpt lat="43.65952" lon="1.37499">
        <ele>143</ele>
        <time>2024-03-14T18:52:16Z</time>
      </trkpt>
      <trkpt lat="43.6595" lon="1.37501">
        <ele>143</ele>
        <time>2024-03-14T18:52:17Z</time>
      </trkpt>
      <trkpt lat="43.65947" lon="1.37502">
        <ele>143</ele>
        <time>2024-03-14T18:52:18Z</time>
      </trkpt>
      <trkpt lat="43.65945" lon="1.37503">
        <ele>143</ele>
        <time>2024-03-14T18:52:19Z</time>
      </trkpt>
      <trkpt lat="43.6594" lon="1.37506">
        <ele>143</ele>
        <time>2024-03-14T18:52:20Z</time>
      </trkpt>
      <trkpt lat="43.6594" lon="1.37506">
        <ele>143</ele>
        <time>2024-03-14T18:52:21Z</time>
      </trkpt>
      <trkpt lat="43.65938" lon="1.37508">
        <ele>143</ele>
        <time>2024-03-14T18:52:22Z</time>
      </trkpt>
      <trkpt lat="43.65936" lon="1.37509">
        <ele>143</ele>
        <time>2024-03-14T18:52:23Z</time>
      </trkpt>
      <trkpt lat="43.65934" lon="1.37511">
        <ele>143</ele>
        <time>2024-03-14T18:52:24Z</time>
      </trkpt>
      <trkpt lat="43.65931" lon="1.37513">
        <ele>143</ele>
        <time>2024-03-14T18:52:25Z</time>
      </trkpt>
      <trkpt lat="43.65928" lon="1.37515">
        <ele>143</ele>
        <time>2024-03-14T18:52:26Z</time>
      </trkpt>
      <trkpt lat="43.65924" lon="1.37518">
        <ele>143</ele>
        <time>2024-03-14T18:52:27Z</time>
      </trkpt>
      <trkpt lat="43.65922" lon="1.37519">
        <ele>143</ele>
        <time>2024-03-14T18:52:28Z</time>
      </trkpt>
      <trkpt lat="43.65919" lon="1.37521">
        <ele>143</ele>
        <time>2024-03-14T18:52:29Z</time>
      </trkpt>
      <trkpt lat="43.65917" lon="1.37523">
        <ele>143</ele>
        <time>2024-03-14T18:52:30Z</time>
      </trkpt>
      <trkpt lat="43.65914" lon="1.37525">
        <ele>143</ele>
        <time>2024-03-14T18:52:31Z</time>
      </trkpt>
      <trkpt lat="43.65912" lon="1.37527">
        <ele>143</ele>
        <time>2024-03-14T18:52:32Z</time>
      </trkpt>
      <trkpt lat="43.65909" lon="1.37529">
        <ele>143</ele>
        <time>2024-03-14T18:52:33Z</time>
      </trkpt>
      <trkpt lat="43.65907" lon="1.3753">
        <ele>143</ele>
        <time>2024-03-14T18:52:34Z</time>
      </trkpt>
      <trkpt lat="43.65905" lon="1.37531">
        <ele>143</ele>
        <time>2024-03-14T18:52:35Z</time>
      </trkpt>
      <trkpt lat="43.65902" lon="1.37533">
        <ele>143</ele>
        <time>2024-03-14T18:52:36Z</time>
      </trkpt>
      <trkpt lat="43.659" lon="1.37534">
        <ele>143</ele>
        <time>2024-03-14T18:52:37Z</time>
      </trkpt>
      <trkpt lat="43.65898" lon="1.37535">
        <ele>143</ele>
        <time>2024-03-14T18:52:38Z</time>
      </trkpt>
      <trkpt lat="43.65896" lon="1.37537">
        <ele>143</ele>
        <time>2024-03-14T18:52:39Z</time>
      </trkpt>
      <trkpt lat="43.65893" lon="1.37538">
        <ele>143</ele>
        <time>2024-03-14T18:52:40Z</time>
      </trkpt>
      <trkpt lat="43.65891" lon="1.3754">
        <ele>143</ele>
        <time>2024-03-14T18:52:41Z</time>
      </trkpt>
      <trkpt lat="43.65888" lon="1.37542">
        <ele>143</ele>
        <time>2024-03-14T18:52:42Z</time>
      </trkpt>
      <trkpt lat="43.65886" lon="1.37543">
        <ele>143</ele>
        <time>2024-03-14T18:52:43Z</time>
      </trkpt>
      <trkpt lat="43.65883" lon="1.37545">
        <ele>143</ele>
        <time>2024-03-14T18:52:44Z</time>
      </trkpt>
      <trkpt lat="43.65881" lon="1.37546">
        <ele>143</ele>
        <time>2024-03-14T18:52:45Z</time>
      </trkpt>
      <trkpt lat="43.65878" lon="1.37548">
        <ele>143</ele>
        <time>2024-03-14T18:52:46Z</time>
      </trkpt>
      <trkpt lat="43.65876" lon="1.3755">
        <ele>143</ele>
        <time>2024-03-14T18:52:47Z</time>
      </trkpt>
      <trkpt lat="43.65873" lon="1.37553">
        <ele>143</ele>
        <time>2024-03-14T18:52:48Z</time>
      </trkpt>
      <trkpt lat="43.65871" lon="1.37554">
        <ele>142</ele>
        <time>2024-03-14T18:52:49Z</time>
      </trkpt>
      <trkpt lat="43.65869" lon="1.37556">
        <ele>142</ele>
        <time>2024-03-14T18:52:50Z</time>
      </trkpt>
      <trkpt lat="43.65866" lon="1.37558">
        <ele>142</ele>
        <time>2024-03-14T18:52:51Z</time>
      </trkpt>
      <trkpt lat="43.65863" lon="1.3756">
        <ele>142</ele>
        <time>2024-03-14T18:52:52Z</time>
      </trkpt>
      <trkpt lat="43.6586" lon="1.37562">
        <ele>142</ele>
        <time>2024-03-14T18:52:53Z</time>
      </trkpt>
      <trkpt lat="43.65858" lon="1.37564">
        <ele>143</ele>
        <time>2024-03-14T18:52:54Z</time>
      </trkpt>
      <trkpt lat="43.65856" lon="1.37566">
        <ele>143</ele>
        <time>2024-03-14T18:52:55Z</time>
      </trkpt>
      <trkpt lat="43.65853" lon="1.37567">
        <ele>142</ele>
        <time>2024-03-14T18:52:56Z</time>
      </trkpt>
      <trkpt lat="43.65851" lon="1.37569">
        <ele>142</ele>
        <time>2024-03-14T18:52:57Z</time>
      </trkpt>
      <trkpt lat="43.65846" lon="1.37573">
        <ele>142</ele>
        <time>2024-03-14T18:52:58Z</time>
      </trkpt>
      <trkpt lat="43.65846" lon="1.37573">
        <ele>142</ele>
        <time>2024-03-14T18:52:59Z</time>
      </trkpt>
      <trkpt lat="43.65843" lon="1.37574">
        <ele>142</ele>
        <time>2024-03-14T18:53:00Z</time>
      </trkpt>
      <trkpt lat="43.65841" lon="1.37576">
        <ele>142</ele>
        <time>2024-03-14T18:53:01Z</time>
      </trkpt>
      <trkpt lat="43.65839" lon="1.37577">
        <ele>142</ele>
        <time>2024-03-14T18:53:02Z</time>
      </trkpt>
      <trkpt lat="43.65836" lon="1.37579">
        <ele>142</ele>
        <time>2024-03-14T18:53:03Z</time>
      </trkpt>
      <trkpt lat="43.65834" lon="1.3758">
        <ele>142</ele>
        <time>2024-03-14T18:53:04Z</time>
      </trkpt>
      <trkpt lat="43.65831" lon="1.37582">
        <ele>142</ele>
        <time>2024-03-14T18:53:05Z</time>
      </trkpt>
      <trkpt lat="43.65829" lon="1.37584">
        <ele>142</ele>
        <time>2024-03-14T18:53:06Z</time>
      </trkpt>
      <trkpt lat="43.65826" lon="1.37585">
        <ele>142</ele>
        <time>2024-03-14T18:53:07Z</time>
      </trkpt>
      <trkpt lat="43.65823" lon="1.37587">
        <ele>143</ele>
        <time>2024-03-14T18:53:08Z</time>
      </trkpt>
      <trkpt lat="43.6582" lon="1.37588">
        <ele>143</ele>
        <time>2024-03-14T18:53:09Z</time>
      </trkpt>
      <trkpt lat="43.65816" lon="1.37591">
        <ele>142</ele>
        <time>2024-03-14T18:53:10Z</time>
      </trkpt>
      <trkpt lat="43.65815" lon="1.37593">
        <ele>142</ele>
        <time>2024-03-14T18:53:11Z</time>
      </trkpt>
      <trkpt lat="43.65813" lon="1.37596">
        <ele>142</ele>
        <time>2024-03-14T18:53:12Z</time>
      </trkpt>
      <trkpt lat="43.65811" lon="1.376">
        <ele>142</ele>
        <time>2024-03-14T18:53:13Z</time>
      </trkpt>
      <trkpt lat="43.65809" lon="1.37603">
        <ele>142</ele>
        <time>2024-03-14T18:53:14Z</time>
      </trkpt>
      <trkpt lat="43.65807" lon="1.37607">
        <ele>142</ele>
        <time>2024-03-14T18:53:15Z</time>
      </trkpt>
      <trkpt lat="43.65805" lon="1.3761">
        <ele>142</ele>
        <time>2024-03-14T18:53:16Z</time>
      </trkpt>
      <trkpt lat="43.65801" lon="1.37616">
        <ele>142</ele>
        <time>2024-03-14T18:53:17Z</time>
      </trkpt>
      <trkpt lat="43.65801" lon="1.37616">
        <ele>142</ele>
        <time>2024-03-14T18:53:18Z</time>
      </trkpt>
      <trkpt lat="43.65798" lon="1.37618">
        <ele>142</ele>
        <time>2024-03-14T18:53:19Z</time>
      </trkpt>
      <trkpt lat="43.65796" lon="1.3762">
        <ele>143</ele>
        <time>2024-03-14T18:53:20Z</time>
      </trkpt>
      <trkpt lat="43.65793" lon="1.37622">
        <ele>143</ele>
        <time>2024-03-14T18:53:21Z</time>
      </trkpt>
      <trkpt lat="43.6579" lon="1.37624">
        <ele>143</ele>
        <time>2024-03-14T18:53:22Z</time>
      </trkpt>
      <trkpt lat="43.65787" lon="1.37626">
        <ele>143</ele>
        <time>2024-03-14T18:53:23Z</time>
      </trkpt>
      <trkpt lat="43.65785" lon="1.37627">
        <ele>143</ele>
        <time>2024-03-14T18:53:24Z</time>
      </trkpt>
      <trkpt lat="43.65782" lon="1.37629">
        <ele>143</ele>
        <time>2024-03-14T18:53:25Z</time>
      </trkpt>
      <trkpt lat="43.6578" lon="1.37631">
        <ele>143</ele>
        <time>2024-03-14T18:53:26Z</time>
      </trkpt>
      <trkpt lat="43.65777" lon="1.37632">
        <ele>143</ele>
        <time>2024-03-14T18:53:27Z</time>
      </trkpt>
      <trkpt lat="43.65775" lon="1.37634">
        <ele>143</ele>
        <time>2024-03-14T18:53:28Z</time>
      </trkpt>
      <trkpt lat="43.65772" lon="1.37636">
        <ele>143</ele>
        <time>2024-03-14T18:53:29Z</time>
      </trkpt>
      <trkpt lat="43.65769" lon="1.37638">
        <ele>143</ele>
        <time>2024-03-14T18:53:30Z</time>
      </trkpt>
      <trkpt lat="43.65767" lon="1.37639">
        <ele>143</ele>
        <time>2024-03-14T18:53:31Z</time>
      </trkpt>
      <trkpt lat="43.65764" lon="1.37641">
        <ele>143</ele>
        <time>2024-03-14T18:53:32Z</time>
      </trkpt>
      <trkpt lat="43.65762" lon="1.37643">
        <ele>143</ele>
        <time>2024-03-14T18:53:33Z</time>
      </trkpt>
      <trkpt lat="43.65759" lon="1.37644">
        <ele>143</ele>
        <time>2024-03-14T18:53:34Z</time>
      </trkpt>
      <trkpt lat="43.65756" lon="1.37646">
        <ele>143</ele>
        <time>2024-03-14T18:53:35Z</time>
      </trkpt>
      <trkpt lat="43.65752" lon="1.37648">
        <ele>143</ele>
        <time>2024-03-14T18:53:36Z</time>
      </trkpt>
      <trkpt lat="43.65751" lon="1.37649">
        <ele>143</ele>
        <time>2024-03-14T18:53:37Z</time>
      </trkpt>
      <trkpt lat="43.65748" lon="1.37651">
        <ele>143</ele>
        <time>2024-03-14T18:53:38Z</time>
      </trkpt>
      <trkpt lat="43.65746" lon="1.37653">
        <ele>143</ele>
        <time>2024-03-14T18:53:39Z</time>
      </trkpt>
      <trkpt lat="43.65743" lon="1.37655">
        <ele>143</ele>
        <time>2024-03-14T18:53:40Z</time>
      </trkpt>
      <trkpt lat="43.65741" lon="1.37657">
        <ele>143</ele>
        <time>2024-03-14T18:53:41Z</time>
      </trkpt>
      <trkpt lat="43.65738" lon="1.37658">
        <ele>143</ele>
        <time>2024-03-14T18:53:42Z</time>
      </trkpt>
      <trkpt lat="43.65736" lon="1.3766">
        <ele>143</ele>
        <time>2024-03-14T18:53:43Z</time>
      </trkpt>
      <trkpt lat="43.65733" lon="1.37662">
        <ele>143</ele>
        <time>2024-03-14T18:53:44Z</time>
      </trkpt>
      <trkpt lat="43.65729" lon="1.37665">
        <ele>143</ele>
        <time>2024-03-14T18:53:45Z</time>
      </trkpt>
      <trkpt lat="43.65728" lon="1.37666">
        <ele>143</ele>
        <time>2024-03-14T18:53:46Z</time>
      </trkpt>
      <trkpt lat="43.65725" lon="1.37667">
        <ele>143</ele>
        <time>2024-03-14T18:53:47Z</time>
      </trkpt>
      <trkpt lat="43.65723" lon="1.37669">
        <ele>143</ele>
        <time>2024-03-14T18:53:48Z</time>
      </trkpt>
      <trkpt lat="43.6572" lon="1.37671">
        <ele>143</ele>
        <time>2024-03-14T18:53:49Z</time>
      </trkpt>
      <trkpt lat="43.65718" lon="1.37673">
        <ele>143</ele>
        <time>2024-03-14T18:53:50Z</time>
      </trkpt>
      <trkpt lat="43.65715" lon="1.37675">
        <ele>143</ele>
        <time>2024-03-14T18:53:51Z</time>
      </trkpt>
      <trkpt lat="43.65712" lon="1.37676">
        <ele>143</ele>
        <time>2024-03-14T18:53:52Z</time>
      </trkpt>
      <trkpt lat="43.6571" lon="1.37678">
        <ele>143</ele>
        <time>2024-03-14T18:53:53Z</time>
      </trkpt>
      <trkpt lat="43.65707" lon="1.3768">
        <ele>143</ele>
        <time>2024-03-14T18:53:54Z</time>
      </trkpt>
      <trkpt lat="43.65705" lon="1.37681">
        <ele>143</ele>
        <time>2024-03-14T18:53:55Z</time>
      </trkpt>
      <trkpt lat="43.65702" lon="1.37683">
        <ele>143</ele>
        <time>2024-03-14T18:53:56Z</time>
      </trkpt>
      <trkpt lat="43.657" lon="1.37685">
        <ele>143</ele>
        <time>2024-03-14T18:53:57Z</time>
      </trkpt>
      <trkpt lat="43.65697" lon="1.37687">
        <ele>143</ele>
        <time>2024-03-14T18:53:58Z</time>
      </trkpt>
      <trkpt lat="43.65694" lon="1.37689">
        <ele>143</ele>
        <time>2024-03-14T18:53:59Z</time>
      </trkpt>
      <trkpt lat="43.65692" lon="1.37691">
        <ele>143</ele>
        <time>2024-03-14T18:54:00Z</time>
      </trkpt>
      <trkpt lat="43.6569" lon="1.37692">
        <ele>143</ele>
        <time>2024-03-14T18:54:01Z</time>
      </trkpt>
      <trkpt lat="43.65687" lon="1.37694">
        <ele>143</ele>
        <time>2024-03-14T18:54:02Z</time>
      </trkpt>
      <trkpt lat="43.65685" lon="1.37696">
        <ele>143</ele>
        <time>2024-03-14T18:54:03Z</time>
      </trkpt>
      <trkpt lat="43.65682" lon="1.37697">
        <ele>143</ele>
        <time>2024-03-14T18:54:04Z</time>
      </trkpt>
      <trkpt lat="43.65678" lon="1.377">
        <ele>143</ele>
        <time>2024-03-14T18:54:05Z</time>
      </trkpt>
      <trkpt lat="43.65677" lon="1.37701">
        <ele>143</ele>
        <time>2024-03-14T18:54:06Z</time>
      </trkpt>
      <trkpt lat="43.65675" lon="1.37703">
        <ele>143</ele>
        <time>2024-03-14T18:54:07Z</time>
      </trkpt>
      <trkpt lat="43.65672" lon="1.37704">
        <ele>143</ele>
        <time>2024-03-14T18:54:08Z</time>
      </trkpt>
      <trkpt lat="43.6567" lon="1.37706">
        <ele>143</ele>
        <time>2024-03-14T18:54:09Z</time>
      </trkpt>
      <trkpt lat="43.65667" lon="1.37708">
        <ele>143</ele>
        <time>2024-03-14T18:54:10Z</time>
      </trkpt>
      <trkpt lat="43.65665" lon="1.3771">
        <ele>143</ele>
        <time>2024-03-14T18:54:11Z</time>
      </trkpt>
      <trkpt lat="43.65662" lon="1.37711">
        <ele>143</ele>
        <time>2024-03-14T18:54:12Z</time>
      </trkpt>
      <trkpt lat="43.6566" lon="1.37713">
        <ele>143</ele>
        <time>2024-03-14T18:54:13Z</time>
      </trkpt>
      <trkpt lat="43.65657" lon="1.37715">
        <ele>143</ele>
        <time>2024-03-14T18:54:14Z</time>
      </trkpt>
      <trkpt lat="43.65655" lon="1.37716">
        <ele>143</ele>
        <time>2024-03-14T18:54:15Z</time>
      </trkpt>
      <trkpt lat="43.65652" lon="1.37718">
        <ele>143</ele>
        <time>2024-03-14T18:54:16Z</time>
      </trkpt>
      <trkpt lat="43.6565" lon="1.37719">
        <ele>143</ele>
        <time>2024-03-14T18:54:17Z</time>
      </trkpt>
      <trkpt lat="43.65648" lon="1.37721">
        <ele>143</ele>
        <time>2024-03-14T18:54:18Z</time>
      </trkpt>
      <trkpt lat="43.65645" lon="1.37723">
        <ele>143</ele>
        <time>2024-03-14T18:54:19Z</time>
      </trkpt>
      <trkpt lat="43.65643" lon="1.37724">
        <ele>143</ele>
        <time>2024-03-14T18:54:20Z</time>
      </trkpt>
      <trkpt lat="43.6564" lon="1.37726">
        <ele>144</ele>
        <time>2024-03-14T18:54:21Z</time>
      </trkpt>
      <trkpt lat="43.65638" lon="1.37728">
        <ele>144</ele>
        <time>2024-03-14T18:54:22Z</time>
      </trkpt>
      <trkpt lat="43.65635" lon="1.3773">
        <ele>144</ele>
        <time>2024-03-14T18:54:23Z</time>
      </trkpt>
      <trkpt lat="43.65633" lon="1.37731">
        <ele>144</ele>
        <time>2024-03-14T18:54:24Z</time>
      </trkpt>
      <trkpt lat="43.6563" lon="1.37733">
        <ele>144</ele>
        <time>2024-03-14T18:54:25Z</time>
      </trkpt>
      <trkpt lat="43.65628" lon="1.37735">
        <ele>144</ele>
        <time>2024-03-14T18:54:26Z</time>
      </trkpt>
      <trkpt lat="43.65625" lon="1.37737">
        <ele>144</ele>
        <time>2024-03-14T18:54:27Z</time>
      </trkpt>
      <trkpt lat="43.65623" lon="1.37738">
        <ele>144</ele>
        <time>2024-03-14T18:54:28Z</time>
      </trkpt>
      <trkpt lat="43.6562" lon="1.3774">
        <ele>144</ele>
        <time>2024-03-14T18:54:29Z</time>
      </trkpt>
      <trkpt lat="43.65618" lon="1.37742">
        <ele>144</ele>
        <time>2024-03-14T18:54:30Z</time>
      </trkpt>
      <trkpt lat="43.65615" lon="1.37744">
        <ele>145</ele>
        <time>2024-03-14T18:54:31Z</time>
      </trkpt>
      <trkpt lat="43.65613" lon="1.37745">
        <ele>145</ele>
        <time>2024-03-14T18:54:32Z</time>
      </trkpt>
      <trkpt lat="43.65608" lon="1.37749">
        <ele>144</ele>
        <time>2024-03-14T18:54:33Z</time>
      </trkpt>
      <trkpt lat="43.65608" lon="1.37749">
        <ele>144</ele>
        <time>2024-03-14T18:54:34Z</time>
      </trkpt>
      <trkpt lat="43.65606" lon="1.3775">
        <ele>144</ele>
        <time>2024-03-14T18:54:35Z</time>
      </trkpt>
      <trkpt lat="43.65603" lon="1.37751">
        <ele>143</ele>
        <time>2024-03-14T18:54:36Z</time>
      </trkpt>
      <trkpt lat="43.65601" lon="1.3775">
        <ele>143</ele>
        <time>2024-03-14T18:54:37Z</time>
      </trkpt>
      <trkpt lat="43.65598" lon="1.37749">
        <ele>143</ele>
        <time>2024-03-14T18:54:38Z</time>
      </trkpt>
      <trkpt lat="43.65596" lon="1.37747">
        <ele>144</ele>
        <time>2024-03-14T18:54:39Z</time>
      </trkpt>
      <trkpt lat="43.65593" lon="1.37745">
        <ele>144</ele>
        <time>2024-03-14T18:54:40Z</time>
      </trkpt>
      <trkpt lat="43.6559" lon="1.37744">
        <ele>143</ele>
        <time>2024-03-14T18:54:41Z</time>
      </trkpt>
      <trkpt lat="43.65588" lon="1.37742">
        <ele>143</ele>
        <time>2024-03-14T18:54:42Z</time>
      </trkpt>
      <trkpt lat="43.65585" lon="1.37742">
        <ele>143</ele>
        <time>2024-03-14T18:54:43Z</time>
      </trkpt>
      <trkpt lat="43.65582" lon="1.37742">
        <ele>143</ele>
        <time>2024-03-14T18:54:44Z</time>
      </trkpt>
      <trkpt lat="43.6558" lon="1.37741">
        <ele>143</ele>
        <time>2024-03-14T18:54:45Z</time>
      </trkpt>
      <trkpt lat="43.65577" lon="1.37742">
        <ele>143</ele>
        <time>2024-03-14T18:54:46Z</time>
      </trkpt>
      <trkpt lat="43.65574" lon="1.37743">
        <ele>143</ele>
        <time>2024-03-14T18:54:47Z</time>
      </trkpt>
      <trkpt lat="43.65572" lon="1.37744">
        <ele>143</ele>
        <time>2024-03-14T18:54:48Z</time>
      </trkpt>
      <trkpt lat="43.65569" lon="1.37745">
        <ele>144</ele>
        <time>2024-03-14T18:54:49Z</time>
      </trkpt>
      <trkpt lat="43.65566" lon="1.37747">
        <ele>144</ele>
        <time>2024-03-14T18:54:50Z</time>
      </trkpt>
      <trkpt lat="43.65564" lon="1.37748">
        <ele>144</ele>
        <time>2024-03-14T18:54:51Z</time>
      </trkpt>
      <trkpt lat="43.65559" lon="1.37752">
        <ele>143</ele>
        <time>2024-03-14T18:54:52Z</time>
      </trkpt>
      <trkpt lat="43.65559" lon="1.37752">
        <ele>143</ele>
        <time>2024-03-14T18:54:53Z</time>
      </trkpt>
      <trkpt lat="43.65556" lon="1.37754">
        <ele>143</ele>
        <time>2024-03-14T18:54:54Z</time>
      </trkpt>
      <trkpt lat="43.65554" lon="1.37756">
        <ele>143</ele>
        <time>2024-03-14T18:54:55Z</time>
      </trkpt>
      <trkpt lat="43.65551" lon="1.37757">
        <ele>143</ele>
        <time>2024-03-14T18:54:56Z</time>
      </trkpt>
      <trkpt lat="43.65549" lon="1.37759">
        <ele>144</ele>
        <time>2024-03-14T18:54:57Z</time>
      </trkpt>
      <trkpt lat="43.65546" lon="1.3776">
        <ele>144</ele>
        <time>2024-03-14T18:54:58Z</time>
      </trkpt>
      <trkpt lat="43.65544" lon="1.37761">
        <ele>143</ele>
        <time>2024-03-14T18:54:59Z</time>
      </trkpt>
      <trkpt lat="43.65542" lon="1.37763">
        <ele>143</ele>
        <time>2024-03-14T18:55:00Z</time>
      </trkpt>
      <trkpt lat="43.65539" lon="1.37765">
        <ele>143</ele>
        <time>2024-03-14T18:55:01Z</time>
      </trkpt>
      <trkpt lat="43.65537" lon="1.37766">
        <ele>143</ele>
        <time>2024-03-14T18:55:02Z</time>
      </trkpt>
      <trkpt lat="43.65534" lon="1.37768">
        <ele>143</ele>
        <time>2024-03-14T18:55:03Z</time>
      </trkpt>
      <trkpt lat="43.65532" lon="1.37769">
        <ele>144</ele>
        <time>2024-03-14T18:55:04Z</time>
      </trkpt>
      <trkpt lat="43.6553" lon="1.37771">
        <ele>144</ele>
        <time>2024-03-14T18:55:05Z</time>
      </trkpt>
      <trkpt lat="43.65527" lon="1.37773">
        <ele>145</ele>
        <time>2024-03-14T18:55:06Z</time>
      </trkpt>
      <trkpt lat="43.65524" lon="1.37775">
        <ele>145</ele>
        <time>2024-03-14T18:55:07Z</time>
      </trkpt>
      <trkpt lat="43.65521" lon="1.37778">
        <ele>145</ele>
        <time>2024-03-14T18:55:08Z</time>
      </trkpt>
      <trkpt lat="43.65519" lon="1.37779">
        <ele>145</ele>
        <time>2024-03-14T18:55:09Z</time>
      </trkpt>
      <trkpt lat="43.65517" lon="1.3778">
        <ele>144</ele>
        <time>2024-03-14T18:55:10Z</time>
      </trkpt>
      <trkpt lat="43.65512" lon="1.37783">
        <ele>144</ele>
        <time>2024-03-14T18:55:11Z</time>
      </trkpt>
      <trkpt lat="43.65512" lon="1.37783">
        <ele>144</ele>
        <time>2024-03-14T18:55:12Z</time>
      </trkpt>
      <trkpt lat="43.6551" lon="1.37785">
        <ele>144</ele>
        <time>2024-03-14T18:55:13Z</time>
      </trkpt>
      <trkpt lat="43.65507" lon="1.37788">
        <ele>144</ele>
        <time>2024-03-14T18:55:14Z</time>
      </trkpt>
      <trkpt lat="43.65504" lon="1.3779">
        <ele>144</ele>
        <time>2024-03-14T18:55:15Z</time>
      </trkpt>
      <trkpt lat="43.65502" lon="1.37791">
        <ele>144</ele>
        <time>2024-03-14T18:55:16Z</time>
      </trkpt>
      <trkpt lat="43.65499" lon="1.37793">
        <ele>144</ele>
        <time>2024-03-14T18:55:17Z</time>
      </trkpt>
      <trkpt lat="43.65496" lon="1.37795">
        <ele>144</ele>
        <time>2024-03-14T18:55:18Z</time>
      </trkpt>
      <trkpt lat="43.65494" lon="1.37797">
        <ele>144</ele>
        <time>2024-03-14T18:55:19Z</time>
      </trkpt>
      <trkpt lat="43.65491" lon="1.37799">
        <ele>143</ele>
        <time>2024-03-14T18:55:20Z</time>
      </trkpt>
      <trkpt lat="43.65489" lon="1.37801">
        <ele>143</ele>
        <time>2024-03-14T18:55:21Z</time>
      </trkpt>
      <trkpt lat="43.65486" lon="1.37803">
        <ele>143</ele>
        <time>2024-03-14T18:55:22Z</time>
      </trkpt>
      <trkpt lat="43.65483" lon="1.37806">
        <ele>143</ele>
        <time>2024-03-14T18:55:23Z</time>
      </trkpt>
      <trkpt lat="43.6548" lon="1.37809">
        <ele>143</ele>
        <time>2024-03-14T18:55:24Z</time>
      </trkpt>
      <trkpt lat="43.65477" lon="1.37811">
        <ele>144</ele>
        <time>2024-03-14T18:55:25Z</time>
      </trkpt>
      <trkpt lat="43.65474" lon="1.37813">
        <ele>144</ele>
        <time>2024-03-14T18:55:26Z</time>
      </trkpt>
      <trkpt lat="43.65471" lon="1.37814">
        <ele>144</ele>
        <time>2024-03-14T18:55:27Z</time>
      </trkpt>
      <trkpt lat="43.65468" lon="1.37816">
        <ele>144</ele>
        <time>2024-03-14T18:55:28Z</time>
      </trkpt>
      <trkpt lat="43.65465" lon="1.37818">
        <ele>144</ele>
        <time>2024-03-14T18:55:29Z</time>
      </trkpt>
      <trkpt lat="43.65461" lon="1.37821">
        <ele>144</ele>
        <time>2024-03-14T18:55:30Z</time>
      </trkpt>
      <trkpt lat="43.65461" lon="1.37821">
        <ele>144</ele>
        <time>2024-03-14T18:55:31Z</time>
      </trkpt>
      <trkpt lat="43.65461" lon="1.37821">
        <ele>144</ele>
        <time>2024-03-14T18:55:32Z</time>
      </trkpt>
      <trkpt lat="43.65459" lon="1.37825">
        <ele>144</ele>
        <time>2024-03-14T18:55:33Z</time>
      </trkpt>
      <trkpt lat="43.65458" lon="1.37829">
        <ele>144</ele>
        <time>2024-03-14T18:55:34Z</time>
      </trkpt>
      <trkpt lat="43.65458" lon="1.37833">
        <ele>145</ele>
        <time>2024-03-14T18:55:35Z</time>
      </trkpt>
      <trkpt lat="43.65456" lon="1.37836">
        <ele>145</ele>
        <time>2024-03-14T18:55:36Z</time>
      </trkpt>
      <trkpt lat="43.65455" lon="1.37839">
        <ele>145</ele>
        <time>2024-03-14T18:55:37Z</time>
      </trkpt>
      <trkpt lat="43.65453" lon="1.37843">
        <ele>145</ele>
        <time>2024-03-14T18:55:38Z</time>
      </trkpt>
      <trkpt lat="43.65451" lon="1.37846">
        <ele>145</ele>
        <time>2024-03-14T18:55:39Z</time>
      </trkpt>
      <trkpt lat="43.65448" lon="1.37852">
        <ele>144</ele>
        <time>2024-03-14T18:55:40Z</time>
      </trkpt>
      <trkpt lat="43.65448" lon="1.37852">
        <ele>144</ele>
        <time>2024-03-14T18:55:41Z</time>
      </trkpt>
      <trkpt lat="43.65445" lon="1.37854">
        <ele>144</ele>
        <time>2024-03-14T18:55:42Z</time>
      </trkpt>
      <trkpt lat="43.65443" lon="1.37856">
        <ele>145</ele>
        <time>2024-03-14T18:55:43Z</time>
      </trkpt>
      <trkpt lat="43.6544" lon="1.37857">
        <ele>145</ele>
        <time>2024-03-14T18:55:44Z</time>
      </trkpt>
      <trkpt lat="43.65438" lon="1.37859">
        <ele>145</ele>
        <time>2024-03-14T18:55:45Z</time>
      </trkpt>
      <trkpt lat="43.65435" lon="1.37861">
        <ele>145</ele>
        <time>2024-03-14T18:55:46Z</time>
      </trkpt>
      <trkpt lat="43.65433" lon="1.37863">
        <ele>145</ele>
        <time>2024-03-14T18:55:47Z</time>
      </trkpt>
      <trkpt lat="43.6543" lon="1.37864">
        <ele>145</ele>
        <time>2024-03-14T18:55:48Z</time>
      </trkpt>
      <trkpt lat="43.65423" lon="1.37869">
        <ele>144</ele>
        <time>2024-03-14T18:55:49Z</time>
      </trkpt>
      <trkpt lat="43.65423" lon="1.37869">
        <ele>144</ele>
        <time>2024-03-14T18:55:50Z</time>
      </trkpt>
      <trkpt lat="43.65419" lon="1.37873">
        <ele>144</ele>
        <time>2024-03-14T18:55:51Z</time>
      </trkpt>
      <trkpt lat="43.65418" lon="1.37874">
        <ele>144</ele>
        <time>2024-03-14T18:55:52Z</time>
      </trkpt>
      <trkpt lat="43.65415" lon="1.37876">
        <ele>144</ele>
        <time>2024-03-14T18:55:53Z</time>
      </trkpt>
      <trkpt lat="43.65413" lon="1.37879">
        <ele>144</ele>
        <time>2024-03-14T18:55:54Z</time>
      </trkpt>
      <trkpt lat="43.6541" lon="1.37881">
        <ele>144</ele>
        <time>2024-03-14T18:55:55Z</time>
      </trkpt>
      <trkpt lat="43.65407" lon="1.37883">
        <ele>144</ele>
        <time>2024-03-14T18:55:56Z</time>
      </trkpt>
      <trkpt lat="43.65404" lon="1.37885">
        <ele>144</ele>
        <time>2024-03-14T18:55:57Z</time>
      </trkpt>
      <trkpt lat="43.65401" lon="1.37887">
        <ele>144</ele>
        <time>2024-03-14T18:55:58Z</time>
      </trkpt>
      <trkpt lat="43.65399" lon="1.37889">
        <ele>144</ele>
        <time>2024-03-14T18:55:59Z</time>
      </trkpt>
      <trkpt lat="43.65397" lon="1.3789">
        <ele>144</ele>
        <time>2024-03-14T18:56:00Z</time>
      </trkpt>
      <trkpt lat="43.65393" lon="1.37892">
        <ele>144</ele>
        <time>2024-03-14T18:56:01Z</time>
      </trkpt>
      <trkpt lat="43.65392" lon="1.37893">
        <ele>144</ele>
        <time>2024-03-14T18:56:02Z</time>
      </trkpt>
      <trkpt lat="43.6539" lon="1.37894">
        <ele>144</ele>
        <time>2024-03-14T18:56:03Z</time>
      </trkpt>
      <trkpt lat="43.65387" lon="1.37896">
        <ele>144</ele>
        <time>2024-03-14T18:56:04Z</time>
      </trkpt>
      <trkpt lat="43.65385" lon="1.37898">
        <ele>144</ele>
        <time>2024-03-14T18:56:05Z</time>
      </trkpt>
      <trkpt lat="43.65382" lon="1.379">
        <ele>144</ele>
        <time>2024-03-14T18:56:06Z</time>
      </trkpt>
      <trkpt lat="43.6538" lon="1.37902">
        <ele>145</ele>
        <time>2024-03-14T18:56:07Z</time>
      </trkpt>
      <trkpt lat="43.65375" lon="1.37907">
        <ele>145</ele>
        <time>2024-03-14T18:56:08Z</time>
      </trkpt>
      <trkpt lat="43.65375" lon="1.37907">
        <ele>144</ele>
        <time>2024-03-14T18:56:09Z</time>
      </trkpt>
      <trkpt lat="43.65371" lon="1.3791">
        <ele>144</ele>
        <time>2024-03-14T18:56:10Z</time>
      </trkpt>
      <trkpt lat="43.6537" lon="1.37911">
        <ele>144</ele>
        <time>2024-03-14T18:56:11Z</time>
      </trkpt>
      <trkpt lat="43.65367" lon="1.37912">
        <ele>144</ele>
        <time>2024-03-14T18:56:12Z</time>
      </trkpt>
      <trkpt lat="43.65365" lon="1.37915">
        <ele>144</ele>
        <time>2024-03-14T18:56:13Z</time>
      </trkpt>
      <trkpt lat="43.65362" lon="1.37916">
        <ele>144</ele>
        <time>2024-03-14T18:56:14Z</time>
      </trkpt>
      <trkpt lat="43.6536" lon="1.37918">
        <ele>144</ele>
        <time>2024-03-14T18:56:15Z</time>
      </trkpt>
      <trkpt lat="43.65357" lon="1.37921">
        <ele>144</ele>
        <time>2024-03-14T18:56:16Z</time>
      </trkpt>
      <trkpt lat="43.65354" lon="1.37923">
        <ele>144</ele>
        <time>2024-03-14T18:56:17Z</time>
      </trkpt>
      <trkpt lat="43.65351" lon="1.37925">
        <ele>144</ele>
        <time>2024-03-14T18:56:18Z</time>
      </trkpt>
      <trkpt lat="43.65348" lon="1.37926">
        <ele>144</ele>
        <time>2024-03-14T18:56:19Z</time>
      </trkpt>
      <trkpt lat="43.65345" lon="1.37928">
        <ele>144</ele>
        <time>2024-03-14T18:56:20Z</time>
      </trkpt>
      <trkpt lat="43.65343" lon="1.37929">
        <ele>144</ele>
        <time>2024-03-14T18:56:21Z</time>
      </trkpt>
      <trkpt lat="43.6534" lon="1.37931">
        <ele>144</ele>
        <time>2024-03-14T18:56:22Z</time>
      </trkpt>
      <trkpt lat="43.65338" lon="1.37932">
        <ele>144</ele>
        <time>2024-03-14T18:56:23Z</time>
      </trkpt>
      <trkpt lat="43.65335" lon="1.37934">
        <ele>144</ele>
        <time>2024-03-14T18:56:24Z</time>
      </trkpt>
      <trkpt lat="43.65333" lon="1.37936">
        <ele>144</ele>
        <time>2024-03-14T18:56:25Z</time>
      </trkpt>
      <trkpt lat="43.6533" lon="1.37938">
        <ele>144</ele>
        <time>2024-03-14T18:56:26Z</time>
      </trkpt>
      <trkpt lat="43.65324" lon="1.37943">
        <ele>144</ele>
        <time>2024-03-14T18:56:27Z</time>
      </trkpt>
      <trkpt lat="43.65324" lon="1.37943">
        <ele>144</ele>
        <time>2024-03-14T18:56:28Z</time>
      </trkpt>
      <trkpt lat="43.65322" lon="1.37946">
        <ele>144</ele>
        <time>2024-03-14T18:56:29Z</time>
      </trkpt>
      <trkpt lat="43.65319" lon="1.37949">
        <ele>144</ele>
        <time>2024-03-14T18:56:30Z</time>
      </trkpt>
      <trkpt lat="43.65316" lon="1.37951">
        <ele>144</ele>
        <time>2024-03-14T18:56:31Z</time>
      </trkpt>
      <trkpt lat="43.65313" lon="1.37953">
        <ele>144</ele>
        <time>2024-03-14T18:56:32Z</time>
      </trkpt>
      <trkpt lat="43.65311" lon="1.37955">
        <ele>144</ele>
        <time>2024-03-14T18:56:33Z</time>
      </trkpt>
      <trkpt lat="43.65308" lon="1.37957">
        <ele>144</ele>
        <time>2024-03-14T18:56:34Z</time>
      </trkpt>
      <trkpt lat="43.65304" lon="1.3796">
        <ele>144</ele>
        <time>2024-03-14T18:56:35Z</time>
      </trkpt>
      <trkpt lat="43.65303" lon="1.37961">
        <ele>144</ele>
        <time>2024-03-14T18:56:36Z</time>
      </trkpt>
      <trkpt lat="43.65301" lon="1.37963">
        <ele>144</ele>
        <time>2024-03-14T18:56:37Z</time>
      </trkpt>
      <trkpt lat="43.65298" lon="1.37965">
        <ele>144</ele>
        <time>2024-03-14T18:56:38Z</time>
      </trkpt>
      <trkpt lat="43.65296" lon="1.37967">
        <ele>144</ele>
        <time>2024-03-14T18:56:39Z</time>
      </trkpt>
      <trkpt lat="43.65293" lon="1.37969">
        <ele>144</ele>
        <time>2024-03-14T18:56:40Z</time>
      </trkpt>
      <trkpt lat="43.65291" lon="1.37971">
        <ele>144</ele>
        <time>2024-03-14T18:56:41Z</time>
      </trkpt>
      <trkpt lat="43.65288" lon="1.37972">
        <ele>144</ele>
        <time>2024-03-14T18:56:42Z</time>
      </trkpt>
      <trkpt lat="43.65285" lon="1.37974">
        <ele>144</ele>
        <time>2024-03-14T18:56:43Z</time>
      </trkpt>
      <trkpt lat="43.65283" lon="1.37977">
        <ele>144</ele>
        <time>2024-03-14T18:56:44Z</time>
      </trkpt>
      <trkpt lat="43.65281" lon="1.3798">
        <ele>144</ele>
        <time>2024-03-14T18:56:45Z</time>
      </trkpt>
      <trkpt lat="43.65278" lon="1.37987">
        <ele>144</ele>
        <time>2024-03-14T18:56:46Z</time>
      </trkpt>
      <trkpt lat="43.65278" lon="1.37987">
        <ele>144</ele>
        <time>2024-03-14T18:56:47Z</time>
      </trkpt>
      <trkpt lat="43.65276" lon="1.3799">
        <ele>144</ele>
        <time>2024-03-14T18:56:48Z</time>
      </trkpt>
      <trkpt lat="43.65273" lon="1.37992">
        <ele>144</ele>
        <time>2024-03-14T18:56:49Z</time>
      </trkpt>
      <trkpt lat="43.65271" lon="1.37993">
        <ele>144</ele>
        <time>2024-03-14T18:56:50Z</time>
      </trkpt>
      <trkpt lat="43.65267" lon="1.37995">
        <ele>144</ele>
        <time>2024-03-14T18:56:51Z</time>
      </trkpt>
      <trkpt lat="43.65265" lon="1.37996">
        <ele>144</ele>
        <time>2024-03-14T18:56:52Z</time>
      </trkpt>
      <trkpt lat="43.65261" lon="1.37998">
        <ele>144</ele>
        <time>2024-03-14T18:56:53Z</time>
      </trkpt>
      <trkpt lat="43.65259" lon="1.38">
        <ele>144</ele>
        <time>2024-03-14T18:56:54Z</time>
      </trkpt>
      <trkpt lat="43.65256" lon="1.38002">
        <ele>144</ele>
        <time>2024-03-14T18:56:55Z</time>
      </trkpt>
      <trkpt lat="43.65253" lon="1.38003">
        <ele>144</ele>
        <time>2024-03-14T18:56:56Z</time>
      </trkpt>
      <trkpt lat="43.65251" lon="1.38005">
        <ele>144</ele>
        <time>2024-03-14T18:56:57Z</time>
      </trkpt>
      <trkpt lat="43.65248" lon="1.38007">
        <ele>144</ele>
        <time>2024-03-14T18:56:58Z</time>
      </trkpt>
      <trkpt lat="43.65245" lon="1.38008">
        <ele>144</ele>
        <time>2024-03-14T18:56:59Z</time>
      </trkpt>
      <trkpt lat="43.65242" lon="1.3801">
        <ele>144</ele>
        <time>2024-03-14T18:57:00Z</time>
      </trkpt>
      <trkpt lat="43.6524" lon="1.38011">
        <ele>145</ele>
        <time>2024-03-14T18:57:01Z</time>
      </trkpt>
      <trkpt lat="43.65237" lon="1.38013">
        <ele>145</ele>
        <time>2024-03-14T18:57:02Z</time>
      </trkpt>
      <trkpt lat="43.65235" lon="1.38015">
        <ele>145</ele>
        <time>2024-03-14T18:57:03Z</time>
      </trkpt>
      <trkpt lat="43.65232" lon="1.38016">
        <ele>145</ele>
        <time>2024-03-14T18:57:04Z</time>
      </trkpt>
      <trkpt lat="43.65227" lon="1.38019">
        <ele>145</ele>
        <time>2024-03-14T18:57:05Z</time>
      </trkpt>
      <trkpt lat="43.65227" lon="1.38019">
        <ele>145</ele>
        <time>2024-03-14T18:57:06Z</time>
      </trkpt>
      <trkpt lat="43.65225" lon="1.38021">
        <ele>145</ele>
        <time>2024-03-14T18:57:07Z</time>
      </trkpt>
      <trkpt lat="43.65222" lon="1.38022">
        <ele>145</ele>
        <time>2024-03-14T18:57:08Z</time>
      </trkpt>
      <trkpt lat="43.6522" lon="1.38023">
        <ele>144</ele>
        <time>2024-03-14T18:57:09Z</time>
      </trkpt>
      <trkpt lat="43.65217" lon="1.38025">
        <ele>145</ele>
        <time>2024-03-14T18:57:10Z</time>
      </trkpt>
      <trkpt lat="43.65212" lon="1.38028">
        <ele>145</ele>
        <time>2024-03-14T18:57:11Z</time>
      </trkpt>
      <trkpt lat="43.65212" lon="1.38028">
        <ele>145</ele>
        <time>2024-03-14T18:57:12Z</time>
      </trkpt>
      <trkpt lat="43.6521" lon="1.3803">
        <ele>145</ele>
        <time>2024-03-14T18:57:13Z</time>
      </trkpt>
      <trkpt lat="43.65207" lon="1.38031">
        <ele>145</ele>
        <time>2024-03-14T18:57:14Z</time>
      </trkpt>
      <trkpt lat="43.65205" lon="1.38033">
        <ele>145</ele>
        <time>2024-03-14T18:57:15Z</time>
      </trkpt>
      <trkpt lat="43.65202" lon="1.38034">
        <ele>145</ele>
        <time>2024-03-14T18:57:16Z</time>
      </trkpt>
      <trkpt lat="43.652" lon="1.38036">
        <ele>145</ele>
        <time>2024-03-14T18:57:17Z</time>
      </trkpt>
      <trkpt lat="43.65196" lon="1.38038">
        <ele>145</ele>
        <time>2024-03-14T18:57:18Z</time>
      </trkpt>
      <trkpt lat="43.65194" lon="1.38039">
        <ele>145</ele>
        <time>2024-03-14T18:57:19Z</time>
      </trkpt>
      <trkpt lat="43.65192" lon="1.38041">
        <ele>145</ele>
        <time>2024-03-14T18:57:20Z</time>
      </trkpt>
      <trkpt lat="43.65189" lon="1.38043">
        <ele>145</ele>
        <time>2024-03-14T18:57:21Z</time>
      </trkpt>
      <trkpt lat="43.65186" lon="1.38045">
        <ele>145</ele>
        <time>2024-03-14T18:57:22Z</time>
      </trkpt>
      <trkpt lat="43.65181" lon="1.38048">
        <ele>145</ele>
        <time>2024-03-14T18:57:23Z</time>
      </trkpt>
      <trkpt lat="43.65179" lon="1.3805">
        <ele>145</ele>
        <time>2024-03-14T18:57:24Z</time>
      </trkpt>
      <trkpt lat="43.65179" lon="1.3805">
        <ele>144</ele>
        <time>2024-03-14T18:57:25Z</time>
      </trkpt>
      <trkpt lat="43.65176" lon="1.38051">
        <ele>144</ele>
        <time>2024-03-14T18:57:26Z</time>
      </trkpt>
      <trkpt lat="43.65174" lon="1.38053">
        <ele>144</ele>
        <time>2024-03-14T18:57:27Z</time>
      </trkpt>
      <trkpt lat="43.65171" lon="1.38054">
        <ele>144</ele>
        <time>2024-03-14T18:57:28Z</time>
      </trkpt>
      <trkpt lat="43.65168" lon="1.38056">
        <ele>144</ele>
        <time>2024-03-14T18:57:29Z</time>
      </trkpt>
      <trkpt lat="43.65166" lon="1.38058">
        <ele>144</ele>
        <time>2024-03-14T18:57:30Z</time>
      </trkpt>
      <trkpt lat="43.65164" lon="1.3806">
        <ele>145</ele>
        <time>2024-03-14T18:57:31Z</time>
      </trkpt>
      <trkpt lat="43.65161" lon="1.38062">
        <ele>145</ele>
        <time>2024-03-14T18:57:32Z</time>
      </trkpt>
      <trkpt lat="43.65158" lon="1.38064">
        <ele>145</ele>
        <time>2024-03-14T18:57:33Z</time>
      </trkpt>
      <trkpt lat="43.65155" lon="1.38066">
        <ele>145</ele>
        <time>2024-03-14T18:57:34Z</time>
      </trkpt>
      <trkpt lat="43.65153" lon="1.38068">
        <ele>145</ele>
        <time>2024-03-14T18:57:35Z</time>
      </trkpt>
      <trkpt lat="43.6515" lon="1.3807">
        <ele>145</ele>
        <time>2024-03-14T18:57:36Z</time>
      </trkpt>
      <trkpt lat="43.65148" lon="1.38072">
        <ele>145</ele>
        <time>2024-03-14T18:57:37Z</time>
      </trkpt>
      <trkpt lat="43.65145" lon="1.38074">
        <ele>145</ele>
        <time>2024-03-14T18:57:38Z</time>
      </trkpt>
      <trkpt lat="43.65142" lon="1.38075">
        <ele>145</ele>
        <time>2024-03-14T18:57:39Z</time>
      </trkpt>
      <trkpt lat="43.6514" lon="1.38077">
        <ele>145</ele>
        <time>2024-03-14T18:57:40Z</time>
      </trkpt>
      <trkpt lat="43.65137" lon="1.38078">
        <ele>145</ele>
        <time>2024-03-14T18:57:41Z</time>
      </trkpt>
      <trkpt lat="43.65135" lon="1.3808">
        <ele>145</ele>
        <time>2024-03-14T18:57:42Z</time>
      </trkpt>
      <trkpt lat="43.6513" lon="1.38084">
        <ele>145</ele>
        <time>2024-03-14T18:57:43Z</time>
      </trkpt>
      <trkpt lat="43.6513" lon="1.38084">
        <ele>145</ele>
        <time>2024-03-14T18:57:44Z</time>
      </trkpt>
      <trkpt lat="43.65127" lon="1.38085">
        <ele>145</ele>
        <time>2024-03-14T18:57:45Z</time>
      </trkpt>
      <trkpt lat="43.65124" lon="1.38087">
        <ele>145</ele>
        <time>2024-03-14T18:57:46Z</time>
      </trkpt>
      <trkpt lat="43.65122" lon="1.38089">
        <ele>145</ele>
        <time>2024-03-14T18:57:47Z</time>
      </trkpt>
      <trkpt lat="43.65119" lon="1.38091">
        <ele>145</ele>
        <time>2024-03-14T18:57:48Z</time>
      </trkpt>
      <trkpt lat="43.65117" lon="1.38093">
        <ele>145</ele>
        <time>2024-03-14T18:57:49Z</time>
      </trkpt>
      <trkpt lat="43.65114" lon="1.38095">
        <ele>145</ele>
        <time>2024-03-14T18:57:50Z</time>
      </trkpt>
      <trkpt lat="43.65111" lon="1.38097">
        <ele>145</ele>
        <time>2024-03-14T18:57:51Z</time>
      </trkpt>
      <trkpt lat="43.65109" lon="1.38099">
        <ele>145</ele>
        <time>2024-03-14T18:57:52Z</time>
      </trkpt>
      <trkpt lat="43.65106" lon="1.38101">
        <ele>145</ele>
        <time>2024-03-14T18:57:53Z</time>
      </trkpt>
      <trkpt lat="43.65102" lon="1.38104">
        <ele>145</ele>
        <time>2024-03-14T18:57:54Z</time>
      </trkpt>
      <trkpt lat="43.65101" lon="1.38105">
        <ele>145</ele>
        <time>2024-03-14T18:57:55Z</time>
      </trkpt>
      <trkpt lat="43.65098" lon="1.38106">
        <ele>145</ele>
        <time>2024-03-14T18:57:56Z</time>
      </trkpt>
      <trkpt lat="43.65096" lon="1.38108">
        <ele>145</ele>
        <time>2024-03-14T18:57:57Z</time>
      </trkpt>
      <trkpt lat="43.65093" lon="1.3811">
        <ele>144</ele>
        <time>2024-03-14T18:57:58Z</time>
      </trkpt>
      <trkpt lat="43.6509" lon="1.38111">
        <ele>145</ele>
        <time>2024-03-14T18:57:59Z</time>
      </trkpt>
      <trkpt lat="43.65088" lon="1.38113">
        <ele>145</ele>
        <time>2024-03-14T18:58:00Z</time>
      </trkpt>
      <trkpt lat="43.65085" lon="1.38115">
        <ele>145</ele>
        <time>2024-03-14T18:58:01Z</time>
      </trkpt>
      <trkpt lat="43.6508" lon="1.3812">
        <ele>145</ele>
        <time>2024-03-14T18:58:02Z</time>
      </trkpt>
      <trkpt lat="43.6508" lon="1.3812">
        <ele>145</ele>
        <time>2024-03-14T18:58:03Z</time>
      </trkpt>
      <trkpt lat="43.65078" lon="1.38122">
        <ele>145</ele>
        <time>2024-03-14T18:58:04Z</time>
      </trkpt>
      <trkpt lat="43.65075" lon="1.38124">
        <ele>145</ele>
        <time>2024-03-14T18:58:05Z</time>
      </trkpt>
      <trkpt lat="43.65071" lon="1.38128">
        <ele>145</ele>
        <time>2024-03-14T18:58:06Z</time>
      </trkpt>
      <trkpt lat="43.6507" lon="1.38129">
        <ele>145</ele>
        <time>2024-03-14T18:58:07Z</time>
      </trkpt>
      <trkpt lat="43.65067" lon="1.38132">
        <ele>145</ele>
        <time>2024-03-14T18:58:08Z</time>
      </trkpt>
      <trkpt lat="43.65065" lon="1.38135">
        <ele>145</ele>
        <time>2024-03-14T18:58:09Z</time>
      </trkpt>
      <trkpt lat="43.65062" lon="1.38137">
        <ele>145</ele>
        <time>2024-03-14T18:58:10Z</time>
      </trkpt>
      <trkpt lat="43.6506" lon="1.3814">
        <ele>145</ele>
        <time>2024-03-14T18:58:11Z</time>
      </trkpt>
      <trkpt lat="43.65057" lon="1.38143">
        <ele>145</ele>
        <time>2024-03-14T18:58:12Z</time>
      </trkpt>
      <trkpt lat="43.65055" lon="1.38145">
        <ele>145</ele>
        <time>2024-03-14T18:58:13Z</time>
      </trkpt>
      <trkpt lat="43.65052" lon="1.38147">
        <ele>145</ele>
        <time>2024-03-14T18:58:14Z</time>
      </trkpt>
      <trkpt lat="43.65049" lon="1.38149">
        <ele>145</ele>
        <time>2024-03-14T18:58:15Z</time>
      </trkpt>
      <trkpt lat="43.65046" lon="1.3815">
        <ele>145</ele>
        <time>2024-03-14T18:58:16Z</time>
      </trkpt>
      <trkpt lat="43.65042" lon="1.38153">
        <ele>145</ele>
        <time>2024-03-14T18:58:17Z</time>
      </trkpt>
      <trkpt lat="43.65041" lon="1.38153">
        <ele>145</ele>
        <time>2024-03-14T18:58:18Z</time>
      </trkpt>
      <trkpt lat="43.65038" lon="1.38154">
        <ele>145</ele>
        <time>2024-03-14T18:58:19Z</time>
      </trkpt>
      <trkpt lat="43.65035" lon="1.38154">
        <ele>145</ele>
        <time>2024-03-14T18:58:20Z</time>
      </trkpt>
      <trkpt lat="43.6503" lon="1.38151">
        <ele>145</ele>
        <time>2024-03-14T18:58:21Z</time>
      </trkpt>
      <trkpt lat="43.6503" lon="1.38151">
        <ele>145</ele>
        <time>2024-03-14T18:58:22Z</time>
      </trkpt>
      <trkpt lat="43.65027" lon="1.38149">
        <ele>145</ele>
        <time>2024-03-14T18:58:23Z</time>
      </trkpt>
      <trkpt lat="43.65024" lon="1.38148">
        <ele>145</ele>
        <time>2024-03-14T18:58:24Z</time>
      </trkpt>
      <trkpt lat="43.65021" lon="1.38146">
        <ele>145</ele>
        <time>2024-03-14T18:58:25Z</time>
      </trkpt>
      <trkpt lat="43.65018" lon="1.38144">
        <ele>145</ele>
        <time>2024-03-14T18:58:26Z</time>
      </trkpt>
      <trkpt lat="43.65015" lon="1.38142">
        <ele>145</ele>
        <time>2024-03-14T18:58:27Z</time>
      </trkpt>
      <trkpt lat="43.65013" lon="1.3814">
        <ele>145</ele>
        <time>2024-03-14T18:58:28Z</time>
      </trkpt>
      <trkpt lat="43.6501" lon="1.38137">
        <ele>145</ele>
        <time>2024-03-14T18:58:29Z</time>
      </trkpt>
      <trkpt lat="43.65008" lon="1.38133">
        <ele>144</ele>
        <time>2024-03-14T18:58:30Z</time>
      </trkpt>
      <trkpt lat="43.65006" lon="1.38129">
        <ele>144</ele>
        <time>2024-03-14T18:58:31Z</time>
      </trkpt>
      <trkpt lat="43.65005" lon="1.38126">
        <ele>144</ele>
        <time>2024-03-14T18:58:32Z</time>
      </trkpt>
      <trkpt lat="43.65003" lon="1.38123">
        <ele>144</ele>
        <time>2024-03-14T18:58:33Z</time>
      </trkpt>
      <trkpt lat="43.65002" lon="1.38118">
        <ele>144</ele>
        <time>2024-03-14T18:58:34Z</time>
      </trkpt>
      <trkpt lat="43.65" lon="1.38114">
        <ele>144</ele>
        <time>2024-03-14T18:58:35Z</time>
      </trkpt>
      <trkpt lat="43.64999" lon="1.3811">
        <ele>144</ele>
        <time>2024-03-14T18:58:36Z</time>
      </trkpt>
      <trkpt lat="43.64997" lon="1.38107">
        <ele>144</ele>
        <time>2024-03-14T18:58:37Z</time>
      </trkpt>
      <trkpt lat="43.64995" lon="1.38104">
        <ele>144</ele>
        <time>2024-03-14T18:58:38Z</time>
      </trkpt>
      <trkpt lat="43.64992" lon="1.38101">
        <ele>144</ele>
        <time>2024-03-14T18:58:39Z</time>
      </trkpt>
      <trkpt lat="43.64987" lon="1.38096">
        <ele>144</ele>
        <time>2024-03-14T18:58:40Z</time>
      </trkpt>
      <trkpt lat="43.64987" lon="1.38096">
        <ele>144</ele>
        <time>2024-03-14T18:58:41Z</time>
      </trkpt>
      <trkpt lat="43.64985" lon="1.38093">
        <ele>144</ele>
        <time>2024-03-14T18:58:42Z</time>
      </trkpt>
      <trkpt lat="43.64983" lon="1.38089">
        <ele>144</ele>
        <time>2024-03-14T18:58:43Z</time>
      </trkpt>
      <trkpt lat="43.64982" lon="1.38085">
        <ele>144</ele>
        <time>2024-03-14T18:58:44Z</time>
      </trkpt>
      <trkpt lat="43.64981" lon="1.38083">
        <ele>144</ele>
        <time>2024-03-14T18:58:45Z</time>
      </trkpt>
      <trkpt lat="43.6498" lon="1.3808">
        <ele>144</ele>
        <time>2024-03-14T18:58:46Z</time>
      </trkpt>
      <trkpt lat="43.64979" lon="1.38076">
        <ele>144</ele>
        <time>2024-03-14T18:58:47Z</time>
      </trkpt>
      <trkpt lat="43.64977" lon="1.38072">
        <ele>144</ele>
        <time>2024-03-14T18:58:48Z</time>
      </trkpt>
      <trkpt lat="43.64976" lon="1.38069">
        <ele>144</ele>
        <time>2024-03-14T18:58:49Z</time>
      </trkpt>
      <trkpt lat="43.64975" lon="1.38065">
        <ele>144</ele>
        <time>2024-03-14T18:58:50Z</time>
      </trkpt>
      <trkpt lat="43.64974" lon="1.38062">
        <ele>144</ele>
        <time>2024-03-14T18:58:51Z</time>
      </trkpt>
      <trkpt lat="43.64973" lon="1.38059">
        <ele>143</ele>
        <time>2024-03-14T18:58:52Z</time>
      </trkpt>
      <trkpt lat="43.64971" lon="1.38055">
        <ele>144</ele>
        <time>2024-03-14T18:58:53Z</time>
      </trkpt>
      <trkpt lat="43.6497" lon="1.38051">
        <ele>144</ele>
        <time>2024-03-14T18:58:54Z</time>
      </trkpt>
      <trkpt lat="43.64969" lon="1.38047">
        <ele>143</ele>
        <time>2024-03-14T18:58:55Z</time>
      </trkpt>
      <trkpt lat="43.64967" lon="1.38044">
        <ele>143</ele>
        <time>2024-03-14T18:58:56Z</time>
      </trkpt>
      <trkpt lat="43.64966" lon="1.38041">
        <ele>143</ele>
        <time>2024-03-14T18:58:57Z</time>
      </trkpt>
      <trkpt lat="43.64965" lon="1.38037">
        <ele>143</ele>
        <time>2024-03-14T18:58:58Z</time>
      </trkpt>
      <trkpt lat="43.64964" lon="1.38033">
        <ele>143</ele>
        <time>2024-03-14T18:58:59Z</time>
      </trkpt>
      <trkpt lat="43.64963" lon="1.3803">
        <ele>143</ele>
        <time>2024-03-14T18:59:00Z</time>
      </trkpt>
      <trkpt lat="43.64961" lon="1.38025">
        <ele>143</ele>
        <time>2024-03-14T18:59:01Z</time>
      </trkpt>
      <trkpt lat="43.64961" lon="1.38024">
        <ele>143</ele>
        <time>2024-03-14T18:59:02Z</time>
      </trkpt>
      <trkpt lat="43.6496" lon="1.3802">
        <ele>143</ele>
        <time>2024-03-14T18:59:03Z</time>
      </trkpt>
      <trkpt lat="43.64959" lon="1.38017">
        <ele>143</ele>
        <time>2024-03-14T18:59:04Z</time>
      </trkpt>
      <trkpt lat="43.64957" lon="1.38014">
        <ele>143</ele>
        <time>2024-03-14T18:59:05Z</time>
      </trkpt>
      <trkpt lat="43.64953" lon="1.38007">
        <ele>144</ele>
        <time>2024-03-14T18:59:06Z</time>
      </trkpt>
      <trkpt lat="43.64953" lon="1.38007">
        <ele>144</ele>
        <time>2024-03-14T18:59:07Z</time>
      </trkpt>
      <trkpt lat="43.64951" lon="1.38004">
        <ele>144</ele>
        <time>2024-03-14T18:59:08Z</time>
      </trkpt>
      <trkpt lat="43.64948" lon="1.38">
        <ele>143</ele>
        <time>2024-03-14T18:59:09Z</time>
      </trkpt>
      <trkpt lat="43.64946" lon="1.37996">
        <ele>143</ele>
        <time>2024-03-14T18:59:10Z</time>
      </trkpt>
      <trkpt lat="43.64944" lon="1.37989">
        <ele>143</ele>
        <time>2024-03-14T18:59:11Z</time>
      </trkpt>
      <trkpt lat="43.64943" lon="1.37987">
        <ele>143</ele>
        <time>2024-03-14T18:59:12Z</time>
      </trkpt>
      <trkpt lat="43.64942" lon="1.37982">
        <ele>144</ele>
        <time>2024-03-14T18:59:13Z</time>
      </trkpt>
      <trkpt lat="43.64943" lon="1.37978">
        <ele>144</ele>
        <time>2024-03-14T18:59:14Z</time>
      </trkpt>
      <trkpt lat="43.64943" lon="1.37972">
        <ele>144</ele>
        <time>2024-03-14T18:59:15Z</time>
      </trkpt>
      <trkpt lat="43.64944" lon="1.3797">
        <ele>144</ele>
        <time>2024-03-14T18:59:16Z</time>
      </trkpt>
      <trkpt lat="43.64943" lon="1.37965">
        <ele>144</ele>
        <time>2024-03-14T18:59:17Z</time>
      </trkpt>
      <trkpt lat="43.64942" lon="1.37957">
        <ele>144</ele>
        <time>2024-03-14T18:59:18Z</time>
      </trkpt>
      <trkpt lat="43.64942" lon="1.37957">
        <ele>144</ele>
        <time>2024-03-14T18:59:19Z</time>
      </trkpt>
      <trkpt lat="43.6494" lon="1.37953">
        <ele>144</ele>
        <time>2024-03-14T18:59:20Z</time>
      </trkpt>
      <trkpt lat="43.64939" lon="1.37949">
        <ele>144</ele>
        <time>2024-03-14T18:59:21Z</time>
      </trkpt>
      <trkpt lat="43.64938" lon="1.37946">
        <ele>144</ele>
        <time>2024-03-14T18:59:22Z</time>
      </trkpt>
      <trkpt lat="43.64937" lon="1.37942">
        <ele>144</ele>
        <time>2024-03-14T18:59:23Z</time>
      </trkpt>
      <trkpt lat="43.64935" lon="1.37936">
        <ele>144</ele>
        <time>2024-03-14T18:59:24Z</time>
      </trkpt>
      <trkpt lat="43.64935" lon="1.37933">
        <ele>144</ele>
        <time>2024-03-14T18:59:25Z</time>
      </trkpt>
      <trkpt lat="43.64935" lon="1.3793">
        <ele>144</ele>
        <time>2024-03-14T18:59:26Z</time>
      </trkpt>
      <trkpt lat="43.64934" lon="1.37926">
        <ele>144</ele>
        <time>2024-03-14T18:59:27Z</time>
      </trkpt>
      <trkpt lat="43.64933" lon="1.37922">
        <ele>144</ele>
        <time>2024-03-14T18:59:28Z</time>
      </trkpt>
      <trkpt lat="43.64932" lon="1.37918">
        <ele>144</ele>
        <time>2024-03-14T18:59:29Z</time>
      </trkpt>
      <trkpt lat="43.64931" lon="1.37914">
        <ele>144</ele>
        <time>2024-03-14T18:59:30Z</time>
      </trkpt>
      <trkpt lat="43.6493" lon="1.3791">
        <ele>144</ele>
        <time>2024-03-14T18:59:31Z</time>
      </trkpt>
      <trkpt lat="43.64929" lon="1.37906">
        <ele>144</ele>
        <time>2024-03-14T18:59:32Z</time>
      </trkpt>
      <trkpt lat="43.64928" lon="1.37903">
        <ele>144</ele>
        <time>2024-03-14T18:59:33Z</time>
      </trkpt>
      <trkpt lat="43.64927" lon="1.37899">
        <ele>144</ele>
        <time>2024-03-14T18:59:34Z</time>
      </trkpt>
      <trkpt lat="43.64926" lon="1.37895">
        <ele>144</ele>
        <time>2024-03-14T18:59:35Z</time>
      </trkpt>
      <trkpt lat="43.64925" lon="1.37892">
        <ele>144</ele>
        <time>2024-03-14T18:59:36Z</time>
      </trkpt>
      <trkpt lat="43.64923" lon="1.37885">
        <ele>144</ele>
        <time>2024-03-14T18:59:37Z</time>
      </trkpt>
      <trkpt lat="43.64923" lon="1.37885">
        <ele>144</ele>
        <time>2024-03-14T18:59:38Z</time>
      </trkpt>
      <trkpt lat="43.64922" lon="1.37881">
        <ele>144</ele>
        <time>2024-03-14T18:59:39Z</time>
      </trkpt>
      <trkpt lat="43.64921" lon="1.37877">
        <ele>144</ele>
        <time>2024-03-14T18:59:40Z</time>
      </trkpt>
      <trkpt lat="43.6492" lon="1.37873">
        <ele>144</ele>
        <time>2024-03-14T18:59:41Z</time>
      </trkpt>
      <trkpt lat="43.64919" lon="1.3787">
        <ele>144</ele>
        <time>2024-03-14T18:59:42Z</time>
      </trkpt>
      <trkpt lat="43.64918" lon="1.37866">
        <ele>144</ele>
        <time>2024-03-14T18:59:43Z</time>
      </trkpt>
      <trkpt lat="43.64918" lon="1.37862">
        <ele>144</ele>
        <time>2024-03-14T18:59:44Z</time>
      </trkpt>
      <trkpt lat="43.64917" lon="1.37858">
        <ele>144</ele>
        <time>2024-03-14T18:59:45Z</time>
      </trkpt>
      <trkpt lat="43.64916" lon="1.37854">
        <ele>144</ele>
        <time>2024-03-14T18:59:46Z</time>
      </trkpt>
      <trkpt lat="43.64915" lon="1.3785">
        <ele>144</ele>
        <time>2024-03-14T18:59:47Z</time>
      </trkpt>
      <trkpt lat="43.64914" lon="1.37846">
        <ele>144</ele>
        <time>2024-03-14T18:59:48Z</time>
      </trkpt>
      <trkpt lat="43.64913" lon="1.37842">
        <ele>144</ele>
        <time>2024-03-14T18:59:49Z</time>
      </trkpt>
      <trkpt lat="43.64912" lon="1.37838">
        <ele>144</ele>
        <time>2024-03-14T18:59:50Z</time>
      </trkpt>
      <trkpt lat="43.64911" lon="1.37834">
        <ele>144</ele>
        <time>2024-03-14T18:59:51Z</time>
      </trkpt>
      <trkpt lat="43.6491" lon="1.37831">
        <ele>144</ele>
        <time>2024-03-14T18:59:52Z</time>
      </trkpt>
      <trkpt lat="43.64909" lon="1.37827">
        <ele>144</ele>
        <time>2024-03-14T18:59:53Z</time>
      </trkpt>
      <trkpt lat="43.64909" lon="1.37824">
        <ele>145</ele>
        <time>2024-03-14T18:59:54Z</time>
      </trkpt>
      <trkpt lat="43.64908" lon="1.3782">
        <ele>145</ele>
        <time>2024-03-14T18:59:55Z</time>
      </trkpt>
      <trkpt lat="43.64906" lon="1.37813">
        <ele>145</ele>
        <time>2024-03-14T18:59:56Z</time>
      </trkpt>
      <trkpt lat="43.64906" lon="1.37813">
        <ele>145</ele>
        <time>2024-03-14T18:59:57Z</time>
      </trkpt>
      <trkpt lat="43.64906" lon="1.3781">
        <ele>145</ele>
        <time>2024-03-14T18:59:58Z</time>
      </trkpt>
      <trkpt lat="43.64905" lon="1.37806">
        <ele>145</ele>
        <time>2024-03-14T18:59:59Z</time>
      </trkpt>
      <trkpt lat="43.64903" lon="1.37798">
        <ele>145</ele>
        <time>2024-03-14T19:00:00Z</time>
      </trkpt>
      <trkpt lat="43.64903" lon="1.37798">
        <ele>145</ele>
        <time>2024-03-14T19:00:01Z</time>
      </trkpt>
      <trkpt lat="43.64902" lon="1.37794">
        <ele>145</ele>
        <time>2024-03-14T19:00:02Z</time>
      </trkpt>
      <trkpt lat="43.64901" lon="1.3779">
        <ele>145</ele>
        <time>2024-03-14T19:00:03Z</time>
      </trkpt>
      <trkpt lat="43.649" lon="1.37786">
        <ele>145</ele>
        <time>2024-03-14T19:00:04Z</time>
      </trkpt>
      <trkpt lat="43.64899" lon="1.37782">
        <ele>145</ele>
        <time>2024-03-14T19:00:05Z</time>
      </trkpt>
      <trkpt lat="43.64898" lon="1.37778">
        <ele>145</ele>
        <time>2024-03-14T19:00:06Z</time>
      </trkpt>
      <trkpt lat="43.64897" lon="1.37774">
        <ele>145</ele>
        <time>2024-03-14T19:00:07Z</time>
      </trkpt>
      <trkpt lat="43.64895" lon="1.3777">
        <ele>145</ele>
        <time>2024-03-14T19:00:08Z</time>
      </trkpt>
      <trkpt lat="43.64894" lon="1.37766">
        <ele>145</ele>
        <time>2024-03-14T19:00:09Z</time>
      </trkpt>
      <trkpt lat="43.64893" lon="1.37762">
        <ele>145</ele>
        <time>2024-03-14T19:00:10Z</time>
      </trkpt>
      <trkpt lat="43.64893" lon="1.37757">
        <ele>145</ele>
        <time>2024-03-14T19:00:11Z</time>
      </trkpt>
      <trkpt lat="43.64892" lon="1.37754">
        <ele>145</ele>
        <time>2024-03-14T19:00:12Z</time>
      </trkpt>
      <trkpt lat="43.64891" lon="1.3775">
        <ele>145</ele>
        <time>2024-03-14T19:00:13Z</time>
      </trkpt>
      <trkpt lat="43.6489" lon="1.37746">
        <ele>145</ele>
        <time>2024-03-14T19:00:14Z</time>
      </trkpt>
      <trkpt lat="43.64888" lon="1.37738">
        <ele>145</ele>
        <time>2024-03-14T19:00:15Z</time>
      </trkpt>
      <trkpt lat="43.64888" lon="1.37738">
        <ele>145</ele>
        <time>2024-03-14T19:00:16Z</time>
      </trkpt>
      <trkpt lat="43.64887" lon="1.37734">
        <ele>145</ele>
        <time>2024-03-14T19:00:17Z</time>
      </trkpt>
      <trkpt lat="43.64886" lon="1.3773">
        <ele>145</ele>
        <time>2024-03-14T19:00:18Z</time>
      </trkpt>
      <trkpt lat="43.64885" lon="1.37727">
        <ele>145</ele>
        <time>2024-03-14T19:00:19Z</time>
      </trkpt>
      <trkpt lat="43.64884" lon="1.37723">
        <ele>146</ele>
        <time>2024-03-14T19:00:20Z</time>
      </trkpt>
      <trkpt lat="43.64884" lon="1.3772">
        <ele>146</ele>
        <time>2024-03-14T19:00:21Z</time>
      </trkpt>
      <trkpt lat="43.64883" lon="1.37716">
        <ele>145</ele>
        <time>2024-03-14T19:00:22Z</time>
      </trkpt>
      <trkpt lat="43.64882" lon="1.37712">
        <ele>145</ele>
        <time>2024-03-14T19:00:23Z</time>
      </trkpt>
      <trkpt lat="43.64881" lon="1.37708">
        <ele>145</ele>
        <time>2024-03-14T19:00:24Z</time>
      </trkpt>
      <trkpt lat="43.6488" lon="1.37703">
        <ele>145</ele>
        <time>2024-03-14T19:00:25Z</time>
      </trkpt>
      <trkpt lat="43.64879" lon="1.37699">
        <ele>145</ele>
        <time>2024-03-14T19:00:26Z</time>
      </trkpt>
      <trkpt lat="43.64878" lon="1.37695">
        <ele>145</ele>
        <time>2024-03-14T19:00:27Z</time>
      </trkpt>
      <trkpt lat="43.64878" lon="1.37691">
        <ele>145</ele>
        <time>2024-03-14T19:00:28Z</time>
      </trkpt>
      <trkpt lat="43.64877" lon="1.37685">
        <ele>146</ele>
        <time>2024-03-14T19:00:29Z</time>
      </trkpt>
      <trkpt lat="43.64876" lon="1.37683">
        <ele>146</ele>
        <time>2024-03-14T19:00:30Z</time>
      </trkpt>
      <trkpt lat="43.64875" lon="1.37679">
        <ele>146</ele>
        <time>2024-03-14T19:00:31Z</time>
      </trkpt>
      <trkpt lat="43.64874" lon="1.37675">
        <ele>146</ele>
        <time>2024-03-14T19:00:32Z</time>
      </trkpt>
      <trkpt lat="43.64873" lon="1.37671">
        <ele>146</ele>
        <time>2024-03-14T19:00:33Z</time>
      </trkpt>
      <trkpt lat="43.64871" lon="1.37662">
        <ele>146</ele>
        <time>2024-03-14T19:00:34Z</time>
      </trkpt>
      <trkpt lat="43.64871" lon="1.37662">
        <ele>146</ele>
        <time>2024-03-14T19:00:35Z</time>
      </trkpt>
      <trkpt lat="43.64869" lon="1.37656">
        <ele>146</ele>
        <time>2024-03-14T19:00:36Z</time>
      </trkpt>
      <trkpt lat="43.64868" lon="1.37655">
        <ele>146</ele>
        <time>2024-03-14T19:00:37Z</time>
      </trkpt>
      <trkpt lat="43.64865" lon="1.37653">
        <ele>146</ele>
        <time>2024-03-14T19:00:38Z</time>
      </trkpt>
      <trkpt lat="43.64862" lon="1.37651">
        <ele>146</ele>
        <time>2024-03-14T19:00:39Z</time>
      </trkpt>
      <trkpt lat="43.6486" lon="1.37649">
        <ele>147</ele>
        <time>2024-03-14T19:00:40Z</time>
      </trkpt>
      <trkpt lat="43.64857" lon="1.37647">
        <ele>147</ele>
        <time>2024-03-14T19:00:41Z</time>
      </trkpt>
      <trkpt lat="43.64852" lon="1.37642">
        <ele>147</ele>
        <time>2024-03-14T19:00:42Z</time>
      </trkpt>
      <trkpt lat="43.64852" lon="1.37642">
        <ele>147</ele>
        <time>2024-03-14T19:00:43Z</time>
      </trkpt>
      <trkpt lat="43.64847" lon="1.37639">
        <ele>147</ele>
        <time>2024-03-14T19:00:44Z</time>
      </trkpt>
      <trkpt lat="43.64847" lon="1.37639">
        <ele>147</ele>
        <time>2024-03-14T19:00:45Z</time>
      </trkpt>
      <trkpt lat="43.64845" lon="1.37637">
        <ele>147</ele>
        <time>2024-03-14T19:00:46Z</time>
      </trkpt>
      <trkpt lat="43.64843" lon="1.37636">
        <ele>147</ele>
        <time>2024-03-14T19:00:47Z</time>
      </trkpt>
    </trkseg>
  </trk>
</gpx>